<?xml version='1.0' encoding='UTF-8'?>
<gpx xmlns:ns3="http://www.garmin.com/xmlschemas/TrackPointExtension/v1" xmlns="http://www.topografix.com/GPX/1/1" xmlns:xsi="http://www.w3.org/2001/XMLSchema-instance" xmlns:ns2="http://www.garmin.com/xmlschemas/GpxExtensions/v3" creator="Garmin Connect" version="1.1" xsi:schemaLocation="http://www.topografix.com/GPX/1/1 http://www.topografix.com/GPX/11.xsd">
  <metadata>
    <name>UCP parcoursn°6 (noir) </name>
    <link href="connect.garmin.com">
      <text>Garmin Connect</text>
    </link>
    <time>2024-12-08T10:49:19.000Z</time>
  </metadata>
  <trk>
    <name>UCP parcoursn°6 (noir) </name>
    <trkseg>
      <trkpt lat="43.33825224079192" lon="6.5459871757775545">
        <ele>76.21</ele>
        <time>2024-12-08T10:49:19.000Z</time>
      </trkpt>
      <trkpt lat="43.33827495574951" lon="6.5459418296813965">
        <ele>76.69</ele>
        <time>2024-12-08T10:49:19.001Z</time>
      </trkpt>
      <trkpt lat="43.33847871981561" lon="6.545759439468384">
        <ele>77.34</ele>
        <time>2024-12-08T10:49:19.011Z</time>
      </trkpt>
      <trkpt lat="43.338682651519775" lon="6.545577049255371">
        <ele>77.88</ele>
        <time>2024-12-08T10:49:19.029Z</time>
      </trkpt>
      <trkpt lat="43.33883285522461" lon="6.545512676239014">
        <ele>78.36</ele>
        <time>2024-12-08T10:49:19.053Z</time>
      </trkpt>
      <trkpt lat="43.3388542290777" lon="6.545469760894775">
        <ele>78.92</ele>
        <time>2024-12-08T10:49:19.078Z</time>
      </trkpt>
      <trkpt lat="43.33885431289673" lon="6.545469760894775">
        <ele>79.49</ele>
        <time>2024-12-08T10:49:19.103Z</time>
      </trkpt>
      <trkpt lat="43.33878206089139" lon="6.545049576088786">
        <ele>80.26</ele>
        <time>2024-12-08T10:49:19.139Z</time>
      </trkpt>
      <trkpt lat="43.338709976524115" lon="6.544629475101829">
        <ele>81.13</ele>
        <time>2024-12-08T10:49:19.186Z</time>
      </trkpt>
      <trkpt lat="43.33865515887737" lon="6.54431045986712">
        <ele>82.1</ele>
        <time>2024-12-08T10:49:19.242Z</time>
      </trkpt>
      <trkpt lat="43.338655242696404" lon="6.54431096278131">
        <ele>82.96</ele>
        <time>2024-12-08T10:49:19.298Z</time>
      </trkpt>
      <trkpt lat="43.33855734206736" lon="6.543882060796022">
        <ele>83.98</ele>
        <time>2024-12-08T10:49:19.365Z</time>
      </trkpt>
      <trkpt lat="43.338453490287066" lon="6.543474532663822">
        <ele>85.1</ele>
        <time>2024-12-08T10:49:19.443Z</time>
      </trkpt>
      <trkpt lat="43.33838241174817" lon="6.543195666745305">
        <ele>86.13</ele>
        <time>2024-12-08T10:49:19.529Z</time>
      </trkpt>
      <trkpt lat="43.338378220796585" lon="6.543179070577025">
        <ele>87.02</ele>
        <time>2024-12-08T10:49:19.615Z</time>
      </trkpt>
      <trkpt lat="43.3382046315819" lon="6.542965918779373">
        <ele>87.88</ele>
        <time>2024-12-08T10:49:19.709Z</time>
      </trkpt>
      <trkpt lat="43.33819482475519" lon="6.542953848838806">
        <ele>88.61</ele>
        <time>2024-12-08T10:49:19.804Z</time>
      </trkpt>
      <trkpt lat="43.3379197306931" lon="6.542743630707264">
        <ele>89.38</ele>
        <time>2024-12-08T10:49:19.910Z</time>
      </trkpt>
      <trkpt lat="43.33789047785103" lon="6.542721334844828">
        <ele>89.99</ele>
        <time>2024-12-08T10:49:20.017Z</time>
      </trkpt>
      <trkpt lat="43.337878827005625" lon="6.542712450027466">
        <ele>90.5</ele>
        <time>2024-12-08T10:49:20.125Z</time>
      </trkpt>
      <trkpt lat="43.33763910457492" lon="6.542432410642505">
        <ele>91.14</ele>
        <time>2024-12-08T10:49:20.244Z</time>
      </trkpt>
      <trkpt lat="43.337526116520166" lon="6.542300479486585">
        <ele>91.64</ele>
        <time>2024-12-08T10:49:20.368Z</time>
      </trkpt>
      <trkpt lat="43.33751597441733" lon="6.542288661003113">
        <ele>92.0</ele>
        <time>2024-12-08T10:49:20.492Z</time>
      </trkpt>
      <trkpt lat="43.337433664128184" lon="6.542122615501285">
        <ele>92.33</ele>
        <time>2024-12-08T10:49:20.621Z</time>
      </trkpt>
      <trkpt lat="43.33742620423436" lon="6.5421076118946075">
        <ele>92.53</ele>
        <time>2024-12-08T10:49:20.751Z</time>
      </trkpt>
      <trkpt lat="43.33711205050349" lon="6.542139798402786">
        <ele>92.41</ele>
        <time>2024-12-08T10:49:20.892Z</time>
      </trkpt>
      <trkpt lat="43.337033931165934" lon="6.542147761210799">
        <ele>92.31</ele>
        <time>2024-12-08T10:49:21.036Z</time>
      </trkpt>
      <trkpt lat="43.33702043630183" lon="6.542149186134338">
        <ele>92.18</ele>
        <time>2024-12-08T10:49:21.180Z</time>
      </trkpt>
      <trkpt lat="43.33686226978898" lon="6.542183719575405">
        <ele>91.91</ele>
        <time>2024-12-08T10:49:21.330Z</time>
      </trkpt>
      <trkpt lat="43.336848774924874" lon="6.542186737060547">
        <ele>91.67</ele>
        <time>2024-12-08T10:49:21.480Z</time>
      </trkpt>
      <trkpt lat="43.33670393563807" lon="6.542238285765052">
        <ele>91.35</ele>
        <time>2024-12-08T10:49:21.635Z</time>
      </trkpt>
      <trkpt lat="43.33669077605009" lon="6.54224306344986">
        <ele>91.04</ele>
        <time>2024-12-08T10:49:21.791Z</time>
      </trkpt>
      <trkpt lat="43.33662774413824" lon="6.542218588292599">
        <ele>90.73</ele>
        <time>2024-12-08T10:49:21.949Z</time>
      </trkpt>
      <trkpt lat="43.33661466836929" lon="6.542213559150696">
        <ele>90.41</ele>
        <time>2024-12-08T10:49:22.108Z</time>
      </trkpt>
      <trkpt lat="43.33650511689484" lon="6.54224700294435">
        <ele>90.1</ele>
        <time>2024-12-08T10:49:22.271Z</time>
      </trkpt>
      <trkpt lat="43.3364917896688" lon="6.542251110076904">
        <ele>89.79</ele>
        <time>2024-12-08T10:49:22.434Z</time>
      </trkpt>
      <trkpt lat="43.336446695029736" lon="6.542261419817805">
        <ele>89.48</ele>
        <time>2024-12-08T10:49:22.599Z</time>
      </trkpt>
      <trkpt lat="43.33643320016563" lon="6.542264521121979">
        <ele>89.19</ele>
        <time>2024-12-08T10:49:22.764Z</time>
      </trkpt>
      <trkpt lat="43.33637025207281" lon="6.542237866669893">
        <ele>88.9</ele>
        <time>2024-12-08T10:49:22.932Z</time>
      </trkpt>
      <trkpt lat="43.33635717630386" lon="6.5422323346138">
        <ele>88.62</ele>
        <time>2024-12-08T10:49:23.100Z</time>
      </trkpt>
      <trkpt lat="43.33604528568685" lon="6.542293187230825">
        <ele>88.48</ele>
        <time>2024-12-08T10:49:23.279Z</time>
      </trkpt>
      <trkpt lat="43.33602734841406" lon="6.5422967076301575">
        <ele>88.24</ele>
        <time>2024-12-08T10:49:23.459Z</time>
      </trkpt>
      <trkpt lat="43.336013769730926" lon="6.542299389839172">
        <ele>88.0</ele>
        <time>2024-12-08T10:49:23.639Z</time>
      </trkpt>
      <trkpt lat="43.33576440811157" lon="6.5423196740448475">
        <ele>87.73</ele>
        <time>2024-12-08T10:49:23.828Z</time>
      </trkpt>
      <trkpt lat="43.335750410333276" lon="6.5423208475112915">
        <ele>87.46</ele>
        <time>2024-12-08T10:49:24.017Z</time>
      </trkpt>
      <trkpt lat="43.33572283387184" lon="6.542405588552356">
        <ele>87.17</ele>
        <time>2024-12-08T10:49:24.209Z</time>
      </trkpt>
      <trkpt lat="43.33571730181575" lon="6.542422771453857">
        <ele>86.87</ele>
        <time>2024-12-08T10:49:24.401Z</time>
      </trkpt>
      <trkpt lat="43.33574580028653" lon="6.542852511629462">
        <ele>86.49</ele>
        <time>2024-12-08T10:49:24.604Z</time>
      </trkpt>
      <trkpt lat="43.335774382576346" lon="6.543282335624099">
        <ele>86.06</ele>
        <time>2024-12-08T10:49:24.818Z</time>
      </trkpt>
      <trkpt lat="43.33580296486616" lon="6.543712159618735">
        <ele>85.55</ele>
        <time>2024-12-08T10:49:25.043Z</time>
      </trkpt>
      <trkpt lat="43.33582333289087" lon="6.5440192725509405">
        <ele>85.07</ele>
        <time>2024-12-08T10:49:25.276Z</time>
      </trkpt>
      <trkpt lat="43.335824590176344" lon="6.544037461280823">
        <ele>84.65</ele>
        <time>2024-12-08T10:49:25.510Z</time>
      </trkpt>
      <trkpt lat="43.33572367206216" lon="6.5442973002791405">
        <ele>84.16</ele>
        <time>2024-12-08T10:49:25.751Z</time>
      </trkpt>
      <trkpt lat="43.33571730181575" lon="6.544313728809357">
        <ele>83.75</ele>
        <time>2024-12-08T10:49:25.993Z</time>
      </trkpt>
      <trkpt lat="43.335660891607404" lon="6.5444710571318865">
        <ele>83.33</ele>
        <time>2024-12-08T10:49:26.239Z</time>
      </trkpt>
      <trkpt lat="43.33565485663712" lon="6.544487988576293">
        <ele>82.95</ele>
        <time>2024-12-08T10:49:26.486Z</time>
      </trkpt>
      <trkpt lat="43.33567136898637" lon="6.5447967778891325">
        <ele>82.59</ele>
        <time>2024-12-08T10:49:26.741Z</time>
      </trkpt>
      <trkpt lat="43.33567237481475" lon="6.544815301895142">
        <ele>82.25</ele>
        <time>2024-12-08T10:49:26.996Z</time>
      </trkpt>
      <trkpt lat="43.33556332625449" lon="6.545027699321508">
        <ele>81.92</ele>
        <time>2024-12-08T10:49:27.258Z</time>
      </trkpt>
      <trkpt lat="43.335555363446474" lon="6.5450432896614075">
        <ele>81.62</ele>
        <time>2024-12-08T10:49:27.520Z</time>
      </trkpt>
      <trkpt lat="43.335288567468524" lon="6.545272786170244">
        <ele>81.3</ele>
        <time>2024-12-08T10:49:27.793Z</time>
      </trkpt>
      <trkpt lat="43.33502495661378" lon="6.545499516651034">
        <ele>80.95</ele>
        <time>2024-12-08T10:49:28.077Z</time>
      </trkpt>
      <trkpt lat="43.335021771490574" lon="6.545502366498113">
        <ele>80.68</ele>
        <time>2024-12-08T10:49:28.361Z</time>
      </trkpt>
      <trkpt lat="43.335012970492244" lon="6.545509994029999">
        <ele>80.43</ele>
        <time>2024-12-08T10:49:28.646Z</time>
      </trkpt>
      <trkpt lat="43.33495563827455" lon="6.545575289055705">
        <ele>80.16</ele>
        <time>2024-12-08T10:49:28.933Z</time>
      </trkpt>
      <trkpt lat="43.33494474180043" lon="6.545587778091431">
        <ele>79.93</ele>
        <time>2024-12-08T10:49:29.221Z</time>
      </trkpt>
      <trkpt lat="43.33478573709726" lon="6.545476047322154">
        <ele>79.76</ele>
        <time>2024-12-08T10:49:29.515Z</time>
      </trkpt>
      <trkpt lat="43.33477299660444" lon="6.5454670786857605">
        <ele>79.57</ele>
        <time>2024-12-08T10:49:29.809Z</time>
      </trkpt>
      <trkpt lat="43.334544003009796" lon="6.545170778408647">
        <ele>79.47</ele>
        <time>2024-12-08T10:49:30.114Z</time>
      </trkpt>
      <trkpt lat="43.33438734523952" lon="6.544968103989959">
        <ele>79.32</ele>
        <time>2024-12-08T10:49:30.427Z</time>
      </trkpt>
      <trkpt lat="43.33437695167959" lon="6.544954692944884">
        <ele>79.13</ele>
        <time>2024-12-08T10:49:30.741Z</time>
      </trkpt>
      <trkpt lat="43.33414686843753" lon="6.544659985229373">
        <ele>78.88</ele>
        <time>2024-12-08T10:49:31.066Z</time>
      </trkpt>
      <trkpt lat="43.334073359146714" lon="6.544565856456757">
        <ele>78.66</ele>
        <time>2024-12-08T10:49:31.394Z</time>
      </trkpt>
      <trkpt lat="43.33406288176775" lon="6.544552445411682">
        <ele>78.42</ele>
        <time>2024-12-08T10:49:31.723Z</time>
      </trkpt>
      <trkpt lat="43.333990881219506" lon="6.544485725462437">
        <ele>78.18</ele>
        <time>2024-12-08T10:49:32.055Z</time>
      </trkpt>
      <trkpt lat="43.333978978917" lon="6.54447466135025">
        <ele>77.91</ele>
        <time>2024-12-08T10:49:32.387Z</time>
      </trkpt>
      <trkpt lat="43.333849143236876" lon="6.544481869786978">
        <ele>77.67</ele>
        <time>2024-12-08T10:49:32.724Z</time>
      </trkpt>
      <trkpt lat="43.33383464254439" lon="6.544482707977295">
        <ele>77.36</ele>
        <time>2024-12-08T10:49:33.061Z</time>
      </trkpt>
      <trkpt lat="43.333529541268945" lon="6.544590080156922">
        <ele>76.99</ele>
        <time>2024-12-08T10:49:33.409Z</time>
      </trkpt>
      <trkpt lat="43.33344488404691" lon="6.544619835913181">
        <ele>76.62</ele>
        <time>2024-12-08T10:49:33.760Z</time>
      </trkpt>
      <trkpt lat="43.333430802449584" lon="6.544624865055084">
        <ele>76.22</ele>
        <time>2024-12-08T10:49:34.112Z</time>
      </trkpt>
      <trkpt lat="43.33327565342188" lon="6.544644394889474">
        <ele>75.75</ele>
        <time>2024-12-08T10:49:34.469Z</time>
      </trkpt>
      <trkpt lat="43.33326106891036" lon="6.544646322727203">
        <ele>75.32</ele>
        <time>2024-12-08T10:49:34.827Z</time>
      </trkpt>
      <trkpt lat="43.332963762804866" lon="6.54450349509716">
        <ele>74.82</ele>
        <time>2024-12-08T10:49:35.196Z</time>
      </trkpt>
      <trkpt lat="43.332911962643266" lon="6.544478600844741">
        <ele>74.34</ele>
        <time>2024-12-08T10:49:35.567Z</time>
      </trkpt>
      <trkpt lat="43.33289813250303" lon="6.544471979141235">
        <ele>73.86</ele>
        <time>2024-12-08T10:49:35.938Z</time>
      </trkpt>
      <trkpt lat="43.332596719264984" lon="6.544346502050757">
        <ele>73.28</ele>
        <time>2024-12-08T10:49:36.320Z</time>
      </trkpt>
      <trkpt lat="43.332295306026936" lon="6.544221108779311">
        <ele>72.69</ele>
        <time>2024-12-08T10:49:36.713Z</time>
      </trkpt>
      <trkpt lat="43.332235207781196" lon="6.54419613070786">
        <ele>72.19</ele>
        <time>2024-12-08T10:49:37.109Z</time>
      </trkpt>
      <trkpt lat="43.3322212100029" lon="6.544190347194672">
        <ele>71.72</ele>
        <time>2024-12-08T10:49:37.505Z</time>
      </trkpt>
      <trkpt lat="43.332054913043976" lon="6.544078532606363">
        <ele>71.23</ele>
        <time>2024-12-08T10:49:37.908Z</time>
      </trkpt>
      <trkpt lat="43.332041669636965" lon="6.5440696477890015">
        <ele>70.82</ele>
        <time>2024-12-08T10:49:38.311Z</time>
      </trkpt>
      <trkpt lat="43.3317444473505" lon="6.544118095189333">
        <ele>70.33</ele>
        <time>2024-12-08T10:49:38.725Z</time>
      </trkpt>
      <trkpt lat="43.33172952756286" lon="6.544120609760284">
        <ele>69.98</ele>
        <time>2024-12-08T10:49:39.139Z</time>
      </trkpt>
      <trkpt lat="43.33157286979258" lon="6.54374610632658">
        <ele>69.66</ele>
        <time>2024-12-08T10:49:39.564Z</time>
      </trkpt>
      <trkpt lat="43.33156515844166" lon="6.543727666139603">
        <ele>69.41</ele>
        <time>2024-12-08T10:49:39.990Z</time>
      </trkpt>
      <trkpt lat="43.3315578661859" lon="6.543710147961974">
        <ele>69.23</ele>
        <time>2024-12-08T10:49:40.416Z</time>
      </trkpt>
      <trkpt lat="43.3315372467041" lon="6.543645858764648">
        <ele>69.11</ele>
        <time>2024-12-08T10:49:40.844Z</time>
      </trkpt>
      <trkpt lat="43.33155870437622" lon="6.543517112731934">
        <ele>69.07</ele>
        <time>2024-12-08T10:49:41.275Z</time>
      </trkpt>
      <trkpt lat="43.331687450408936" lon="6.543281078338623">
        <ele>69.16</ele>
        <time>2024-12-08T10:49:41.714Z</time>
      </trkpt>
      <trkpt lat="43.33168753422797" lon="6.543281078338623">
        <ele>69.23</ele>
        <time>2024-12-08T10:49:42.153Z</time>
      </trkpt>
      <trkpt lat="43.331730449572206" lon="6.5428948402404785">
        <ele>69.38</ele>
        <time>2024-12-08T10:49:42.602Z</time>
      </trkpt>
      <trkpt lat="43.331719636917114" lon="6.542647406458855">
        <ele>69.58</ele>
        <time>2024-12-08T10:49:43.057Z</time>
      </trkpt>
      <trkpt lat="43.33170974627137" lon="6.542421178892255">
        <ele>69.85</ele>
        <time>2024-12-08T10:49:43.518Z</time>
      </trkpt>
      <trkpt lat="43.331708908081055" lon="6.542401313781738">
        <ele>70.17</ele>
        <time>2024-12-08T10:49:43.979Z</time>
      </trkpt>
      <trkpt lat="43.331676637753844" lon="6.542121693491936">
        <ele>70.53</ele>
        <time>2024-12-08T10:49:44.448Z</time>
      </trkpt>
      <trkpt lat="43.3316445350647" lon="6.541843414306641">
        <ele>70.95</ele>
        <time>2024-12-08T10:49:44.924Z</time>
      </trkpt>
      <trkpt lat="43.33160161972046" lon="6.541628837585449">
        <ele>71.43</ele>
        <time>2024-12-08T10:49:45.406Z</time>
      </trkpt>
      <trkpt lat="43.33148335106671" lon="6.54134938493371">
        <ele>72.02</ele>
        <time>2024-12-08T10:49:45.896Z</time>
      </trkpt>
      <trkpt lat="43.33136558532715" lon="6.541070938110352">
        <ele>72.66</ele>
        <time>2024-12-08T10:49:46.394Z</time>
      </trkpt>
      <trkpt lat="43.33130104467273" lon="6.540726777166128">
        <ele>73.43</ele>
        <time>2024-12-08T10:49:46.901Z</time>
      </trkpt>
      <trkpt lat="43.331236839294434" lon="6.540384292602539">
        <ele>74.23</ele>
        <time>2024-12-08T10:49:47.417Z</time>
      </trkpt>
      <trkpt lat="43.331236923113465" lon="6.540384292602539">
        <ele>74.99</ele>
        <time>2024-12-08T10:49:47.933Z</time>
      </trkpt>
      <trkpt lat="43.33127975463867" lon="6.540169715881348">
        <ele>75.84</ele>
        <time>2024-12-08T10:49:48.455Z</time>
      </trkpt>
      <trkpt lat="43.33137648180127" lon="6.539857992902398">
        <ele>76.7</ele>
        <time>2024-12-08T10:49:48.986Z</time>
      </trkpt>
      <trkpt lat="43.331472873687744" lon="6.539547443389893">
        <ele>77.59</ele>
        <time>2024-12-08T10:49:49.525Z</time>
      </trkpt>
      <trkpt lat="43.331472873687744" lon="6.53927855193615">
        <ele>78.51</ele>
        <time>2024-12-08T10:49:50.071Z</time>
      </trkpt>
      <trkpt lat="43.331472873687744" lon="6.539011001586914">
        <ele>79.49</ele>
        <time>2024-12-08T10:49:50.624Z</time>
      </trkpt>
      <trkpt lat="43.33149433135986" lon="6.538946628570557">
        <ele>80.44</ele>
        <time>2024-12-08T10:49:51.179Z</time>
      </trkpt>
      <trkpt lat="43.3315372467041" lon="6.538882255554199">
        <ele>81.4</ele>
        <time>2024-12-08T10:49:51.736Z</time>
      </trkpt>
      <trkpt lat="43.33181619644165" lon="6.538817882537842">
        <ele>82.42</ele>
        <time>2024-12-08T10:49:52.303Z</time>
      </trkpt>
      <trkpt lat="43.33205223083496" lon="6.538710594177246">
        <ele>83.47</ele>
        <time>2024-12-08T10:49:52.879Z</time>
      </trkpt>
      <trkpt lat="43.33213806152344" lon="6.5386247634887695">
        <ele>84.47</ele>
        <time>2024-12-08T10:49:53.458Z</time>
      </trkpt>
      <trkpt lat="43.332266975194216" lon="6.538313124328852">
        <ele>85.49</ele>
        <time>2024-12-08T10:49:54.046Z</time>
      </trkpt>
      <trkpt lat="43.33239555358887" lon="6.5380024909973145">
        <ele>86.49</ele>
        <time>2024-12-08T10:49:54.644Z</time>
      </trkpt>
      <trkpt lat="43.332459926605225" lon="6.537895202636719">
        <ele>87.38</ele>
        <time>2024-12-08T10:49:55.245Z</time>
      </trkpt>
      <trkpt lat="43.332674503326416" lon="6.537787914276123">
        <ele>88.36</ele>
        <time>2024-12-08T10:49:55.854Z</time>
      </trkpt>
      <trkpt lat="43.33293182775378" lon="6.53760552406311">
        <ele>89.27</ele>
        <time>2024-12-08T10:49:56.473Z</time>
      </trkpt>
      <trkpt lat="43.333189487457275" lon="6.537423133850098">
        <ele>90.2</ele>
        <time>2024-12-08T10:49:57.102Z</time>
      </trkpt>
      <trkpt lat="43.33343264646828" lon="6.537201348692179">
        <ele>91.07</ele>
        <time>2024-12-08T10:49:57.742Z</time>
      </trkpt>
      <trkpt lat="43.33367580547929" lon="6.5369796473532915">
        <ele>91.95</ele>
        <time>2024-12-08T10:49:58.392Z</time>
      </trkpt>
      <trkpt lat="43.333919048309326" lon="6.536757946014404">
        <ele>92.84</ele>
        <time>2024-12-08T10:49:59.052Z</time>
      </trkpt>
      <trkpt lat="43.33402633666992" lon="6.536715030670166">
        <ele>93.63</ele>
        <time>2024-12-08T10:49:59.716Z</time>
      </trkpt>
      <trkpt lat="43.33415508270264" lon="6.536800861358643">
        <ele>94.41</ele>
        <time>2024-12-08T10:50:00.385Z</time>
      </trkpt>
      <trkpt lat="43.334219455718994" lon="6.536800861358643">
        <ele>95.12</ele>
        <time>2024-12-08T10:50:01.056Z</time>
      </trkpt>
      <trkpt lat="43.33447518758476" lon="6.536672953516245">
        <ele>95.9</ele>
        <time>2024-12-08T10:50:01.737Z</time>
      </trkpt>
      <trkpt lat="43.334476947784424" lon="6.536672115325928">
        <ele>96.51</ele>
        <time>2024-12-08T10:50:02.418Z</time>
      </trkpt>
      <trkpt lat="43.33448113873601" lon="6.536654680967331">
        <ele>97.09</ele>
        <time>2024-12-08T10:50:03.099Z</time>
      </trkpt>
      <trkpt lat="43.33459597080946" lon="6.536252098158002">
        <ele>97.68</ele>
        <time>2024-12-08T10:50:03.791Z</time>
      </trkpt>
      <trkpt lat="43.334695966914296" lon="6.535842809826136">
        <ele>98.17</ele>
        <time>2024-12-08T10:50:04.494Z</time>
      </trkpt>
      <trkpt lat="43.33479596301913" lon="6.535433521494269">
        <ele>98.6</ele>
        <time>2024-12-08T10:50:05.209Z</time>
      </trkpt>
      <trkpt lat="43.33482664078474" lon="6.53530796058476">
        <ele>99.03</ele>
        <time>2024-12-08T10:50:05.927Z</time>
      </trkpt>
      <trkpt lat="43.33483158610761" lon="6.5352880116552114">
        <ele>99.44</ele>
        <time>2024-12-08T10:50:06.645Z</time>
      </trkpt>
      <trkpt lat="43.33503040485084" lon="6.535054994747043">
        <ele>99.86</ele>
        <time>2024-12-08T10:50:07.373Z</time>
      </trkpt>
      <trkpt lat="43.33504222333431" lon="6.535041248425841">
        <ele>100.23</ele>
        <time>2024-12-08T10:50:08.101Z</time>
      </trkpt>
      <trkpt lat="43.3351378608495" lon="6.534727765247226">
        <ele>100.63</ele>
        <time>2024-12-08T10:50:08.838Z</time>
      </trkpt>
      <trkpt lat="43.33514372818172" lon="6.534708654507995">
        <ele>100.97</ele>
        <time>2024-12-08T10:50:09.575Z</time>
      </trkpt>
      <trkpt lat="43.33526459522545" lon="6.534561803564429">
        <ele>101.38</ele>
        <time>2024-12-08T10:50:10.318Z</time>
      </trkpt>
      <trkpt lat="43.33527632988989" lon="6.534547721967101">
        <ele>101.71</ele>
        <time>2024-12-08T10:50:11.062Z</time>
      </trkpt>
      <trkpt lat="43.33558931015432" lon="6.534497682005167">
        <ele>102.16</ele>
        <time>2024-12-08T10:50:11.817Z</time>
      </trkpt>
      <trkpt lat="43.33566281944513" lon="6.534485863521695">
        <ele>102.51</ele>
        <time>2024-12-08T10:50:12.574Z</time>
      </trkpt>
      <trkpt lat="43.335678577423096" lon="6.534483432769775">
        <ele>102.83</ele>
        <time>2024-12-08T10:50:13.332Z</time>
      </trkpt>
      <trkpt lat="43.335538851097226" lon="6.534150252118707">
        <ele>103.11</ele>
        <time>2024-12-08T10:50:14.100Z</time>
      </trkpt>
      <trkpt lat="43.33539962768555" lon="6.533818244934082">
        <ele>103.31</ele>
        <time>2024-12-08T10:50:14.877Z</time>
      </trkpt>
      <trkpt lat="43.33526006899774" lon="6.533678686246276">
        <ele>103.54</ele>
        <time>2024-12-08T10:50:15.660Z</time>
      </trkpt>
      <trkpt lat="43.335120677948" lon="6.533539295196533">
        <ele>103.8</ele>
        <time>2024-12-08T10:50:16.449Z</time>
      </trkpt>
      <trkpt lat="43.33505630493164" lon="6.533389091491699">
        <ele>104.1</ele>
        <time>2024-12-08T10:50:17.243Z</time>
      </trkpt>
      <trkpt lat="43.33505630493164" lon="6.533153057098389">
        <ele>104.47</ele>
        <time>2024-12-08T10:50:18.043Z</time>
      </trkpt>
      <trkpt lat="43.3350133895874" lon="6.532959938049316">
        <ele>104.89</ele>
        <time>2024-12-08T10:50:18.848Z</time>
      </trkpt>
      <trkpt lat="43.33490610122681" lon="6.532745361328125">
        <ele>105.37</ele>
        <time>2024-12-08T10:50:19.660Z</time>
      </trkpt>
      <trkpt lat="43.33488464355469" lon="6.532487869262695">
        <ele>105.93</ele>
        <time>2024-12-08T10:50:20.478Z</time>
      </trkpt>
      <trkpt lat="43.33490610122681" lon="6.532101631164551">
        <ele>106.44</ele>
        <time>2024-12-08T10:50:21.306Z</time>
      </trkpt>
      <trkpt lat="43.33477282896638" lon="6.5317662712186575">
        <ele>107.0</ele>
        <time>2024-12-08T10:50:22.144Z</time>
      </trkpt>
      <trkpt lat="43.33463955670595" lon="6.531430995091796">
        <ele>107.65</ele>
        <time>2024-12-08T10:50:22.992Z</time>
      </trkpt>
      <trkpt lat="43.334506284445524" lon="6.531095718964934">
        <ele>108.37</ele>
        <time>2024-12-08T10:50:23.850Z</time>
      </trkpt>
      <trkpt lat="43.33437309600413" lon="6.530760442838073">
        <ele>109.06</ele>
        <time>2024-12-08T10:50:24.717Z</time>
      </trkpt>
      <trkpt lat="43.33424091339111" lon="6.530427932739258">
        <ele>109.78</ele>
        <time>2024-12-08T10:50:25.594Z</time>
      </trkpt>
      <trkpt lat="43.33407444879413" lon="6.530191730707884">
        <ele>110.53</ele>
        <time>2024-12-08T10:50:26.479Z</time>
      </trkpt>
      <trkpt lat="43.33390806801617" lon="6.52995552867651">
        <ele>111.27</ele>
        <time>2024-12-08T10:50:27.373Z</time>
      </trkpt>
      <trkpt lat="43.333741603419185" lon="6.529719326645136">
        <ele>111.98</ele>
        <time>2024-12-08T10:50:28.275Z</time>
      </trkpt>
      <trkpt lat="43.33357572555542" lon="6.529483795166016">
        <ele>112.66</ele>
        <time>2024-12-08T10:50:29.186Z</time>
      </trkpt>
      <trkpt lat="43.3335542678833" lon="6.529355049133301">
        <ele>113.24</ele>
        <time>2024-12-08T10:50:30.100Z</time>
      </trkpt>
      <trkpt lat="43.33355435170233" lon="6.529355049133301">
        <ele>113.77</ele>
        <time>2024-12-08T10:50:31.014Z</time>
      </trkpt>
      <trkpt lat="43.33338964730501" lon="6.529118763282895">
        <ele>114.23</ele>
        <time>2024-12-08T10:50:31.936Z</time>
      </trkpt>
      <trkpt lat="43.33322502672672" lon="6.528882561251521">
        <ele>114.62</ele>
        <time>2024-12-08T10:50:32.867Z</time>
      </trkpt>
      <trkpt lat="43.33306074142456" lon="6.528646945953369">
        <ele>114.9</ele>
        <time>2024-12-08T10:50:33.806Z</time>
      </trkpt>
      <trkpt lat="43.3329963684082" lon="6.528410911560059">
        <ele>115.26</ele>
        <time>2024-12-08T10:50:34.751Z</time>
      </trkpt>
      <trkpt lat="43.33303936757147" lon="6.528185103088617">
        <ele>115.7</ele>
        <time>2024-12-08T10:50:35.702Z</time>
      </trkpt>
      <trkpt lat="43.33308219909668" lon="6.527960300445557">
        <ele>116.11</ele>
        <time>2024-12-08T10:50:36.659Z</time>
      </trkpt>
      <trkpt lat="43.333189487457275" lon="6.527659893035889">
        <ele>116.48</ele>
        <time>2024-12-08T10:50:37.625Z</time>
      </trkpt>
      <trkpt lat="43.333275401964784" lon="6.52745570987463">
        <ele>116.85</ele>
        <time>2024-12-08T10:50:38.597Z</time>
      </trkpt>
      <trkpt lat="43.33336114883423" lon="6.527252197265625">
        <ele>117.16</ele>
        <time>2024-12-08T10:50:39.575Z</time>
      </trkpt>
      <trkpt lat="43.33355435170233" lon="6.526973247528076">
        <ele>117.52</ele>
        <time>2024-12-08T10:50:40.563Z</time>
      </trkpt>
      <trkpt lat="43.33359726704657" lon="6.526908874511719">
        <ele>117.79</ele>
        <time>2024-12-08T10:50:41.553Z</time>
      </trkpt>
      <trkpt lat="43.333736741915345" lon="6.526694046333432">
        <ele>118.02</ele>
        <time>2024-12-08T10:50:42.550Z</time>
      </trkpt>
      <trkpt lat="43.33387613296509" lon="6.526479721069336">
        <ele>118.29</ele>
        <time>2024-12-08T10:50:43.555Z</time>
      </trkpt>
      <trkpt lat="43.333983421325684" lon="6.526222229003906">
        <ele>118.51</ele>
        <time>2024-12-08T10:50:44.567Z</time>
      </trkpt>
      <trkpt lat="43.333961963653564" lon="6.52613639831543">
        <ele>118.68</ele>
        <time>2024-12-08T10:50:45.582Z</time>
      </trkpt>
      <trkpt lat="43.33379030227661" lon="6.525964736938477">
        <ele>118.75</ele>
        <time>2024-12-08T10:50:46.604Z</time>
      </trkpt>
      <trkpt lat="43.33374738693237" lon="6.525835990905762">
        <ele>118.93</ele>
        <time>2024-12-08T10:50:47.630Z</time>
      </trkpt>
      <trkpt lat="43.33383321762085" lon="6.5254926681518555">
        <ele>119.17</ele>
        <time>2024-12-08T10:50:48.665Z</time>
      </trkpt>
      <trkpt lat="43.333961963653564" lon="6.525278091430664">
        <ele>119.4</ele>
        <time>2024-12-08T10:50:49.707Z</time>
      </trkpt>
      <trkpt lat="43.33423001691699" lon="6.525084972381592">
        <ele>119.72</ele>
        <time>2024-12-08T10:50:50.760Z</time>
      </trkpt>
      <trkpt lat="43.33449840545654" lon="6.5248918533325195">
        <ele>119.96</ele>
        <time>2024-12-08T10:50:51.823Z</time>
      </trkpt>
      <trkpt lat="43.3345627784729" lon="6.524827480316162">
        <ele>120.19</ele>
        <time>2024-12-08T10:50:52.889Z</time>
      </trkpt>
      <trkpt lat="43.33456286229193" lon="6.524763107299805">
        <ele>120.4</ele>
        <time>2024-12-08T10:50:53.957Z</time>
      </trkpt>
      <trkpt lat="43.33454132080078" lon="6.524720191955566">
        <ele>120.63</ele>
        <time>2024-12-08T10:50:55.026Z</time>
      </trkpt>
      <trkpt lat="43.334305537864566" lon="6.52463436126709">
        <ele>120.82</ele>
        <time>2024-12-08T10:50:56.104Z</time>
      </trkpt>
      <trkpt lat="43.33406933583319" lon="6.524548530578613">
        <ele>121.02</ele>
        <time>2024-12-08T10:50:57.190Z</time>
      </trkpt>
      <trkpt lat="43.3340048789978" lon="6.524462699890137">
        <ele>121.29</ele>
        <time>2024-12-08T10:50:58.279Z</time>
      </trkpt>
      <trkpt lat="43.33387613296509" lon="6.524162292480469">
        <ele>121.62</ele>
        <time>2024-12-08T10:50:59.377Z</time>
      </trkpt>
      <trkpt lat="43.33383321762085" lon="6.523990631103516">
        <ele>121.9</ele>
        <time>2024-12-08T10:51:00.480Z</time>
      </trkpt>
      <trkpt lat="43.33383321762085" lon="6.52388334274292">
        <ele>122.25</ele>
        <time>2024-12-08T10:51:01.586Z</time>
      </trkpt>
      <trkpt lat="43.333926340565085" lon="6.523481933400035">
        <ele>122.81</ele>
        <time>2024-12-08T10:51:02.702Z</time>
      </trkpt>
      <trkpt lat="43.33401954732835" lon="6.52308052405715">
        <ele>123.35</ele>
        <time>2024-12-08T10:51:03.829Z</time>
      </trkpt>
      <trkpt lat="43.3341121673584" lon="6.522681713104248">
        <ele>123.84</ele>
        <time>2024-12-08T10:51:04.967Z</time>
      </trkpt>
      <trkpt lat="43.334262454882264" lon="6.522445427253842">
        <ele>124.45</ele>
        <time>2024-12-08T10:51:06.113Z</time>
      </trkpt>
      <trkpt lat="43.334412574768066" lon="6.522209644317627">
        <ele>124.98</ele>
        <time>2024-12-08T10:51:07.267Z</time>
      </trkpt>
      <trkpt lat="43.33449840545654" lon="6.5219950675964355">
        <ele>125.49</ele>
        <time>2024-12-08T10:51:08.427Z</time>
      </trkpt>
      <trkpt lat="43.334555737674236" lon="6.5216222405433655">
        <ele>125.97</ele>
        <time>2024-12-08T10:51:09.597Z</time>
      </trkpt>
      <trkpt lat="43.33461306989193" lon="6.521249497309327">
        <ele>126.47</ele>
        <time>2024-12-08T10:51:10.777Z</time>
      </trkpt>
      <trkpt lat="43.334670066833496" lon="6.52087926864624">
        <ele>126.95</ele>
        <time>2024-12-08T10:51:11.966Z</time>
      </trkpt>
      <trkpt lat="43.334691524505615" lon="6.520653376355767">
        <ele>127.4</ele>
        <time>2024-12-08T10:51:13.161Z</time>
      </trkpt>
      <trkpt lat="43.334712982177734" lon="6.520428657531738">
        <ele>127.94</ele>
        <time>2024-12-08T10:51:14.362Z</time>
      </trkpt>
      <trkpt lat="43.334712982177734" lon="6.520192623138428">
        <ele>128.49</ele>
        <time>2024-12-08T10:51:15.569Z</time>
      </trkpt>
      <trkpt lat="43.33465917035937" lon="6.519956085830927">
        <ele>129.02</ele>
        <time>2024-12-08T10:51:16.782Z</time>
      </trkpt>
      <trkpt lat="43.33460569381714" lon="6.519720554351807">
        <ele>129.61</ele>
        <time>2024-12-08T10:51:18.001Z</time>
      </trkpt>
      <trkpt lat="43.33464869298041" lon="6.519483933225274">
        <ele>130.31</ele>
        <time>2024-12-08T10:51:19.227Z</time>
      </trkpt>
      <trkpt lat="43.334691524505615" lon="6.5192484855651855">
        <ele>131.05</ele>
        <time>2024-12-08T10:51:20.459Z</time>
      </trkpt>
      <trkpt lat="43.33464860916138" lon="6.519098281860352">
        <ele>131.71</ele>
        <time>2024-12-08T10:51:21.695Z</time>
      </trkpt>
      <trkpt lat="43.33449840545654" lon="6.518990993499756">
        <ele>132.35</ele>
        <time>2024-12-08T10:51:22.937Z</time>
      </trkpt>
      <trkpt lat="43.33426237106323" lon="6.5187764167785645">
        <ele>133.11</ele>
        <time>2024-12-08T10:51:24.189Z</time>
      </trkpt>
      <trkpt lat="43.33402633666992" lon="6.518561840057373">
        <ele>134.0</ele>
        <time>2024-12-08T10:51:25.451Z</time>
      </trkpt>
      <trkpt lat="43.33382240496576" lon="6.518325721845031">
        <ele>134.93</ele>
        <time>2024-12-08T10:51:26.722Z</time>
      </trkpt>
      <trkpt lat="43.33361864089966" lon="6.518089771270752">
        <ele>135.83</ele>
        <time>2024-12-08T10:51:28.003Z</time>
      </trkpt>
      <trkpt lat="43.333511184901" lon="6.517928671091795">
        <ele>136.76</ele>
        <time>2024-12-08T10:51:29.289Z</time>
      </trkpt>
      <trkpt lat="43.33340406417847" lon="6.517767906188965">
        <ele>137.73</ele>
        <time>2024-12-08T10:51:30.581Z</time>
      </trkpt>
      <trkpt lat="43.33340406417847" lon="6.517596244812012">
        <ele>138.72</ele>
        <time>2024-12-08T10:51:31.877Z</time>
      </trkpt>
      <trkpt lat="43.33351135253906" lon="6.517446041107178">
        <ele>139.77</ele>
        <time>2024-12-08T10:51:33.178Z</time>
      </trkpt>
      <trkpt lat="43.3335542678833" lon="6.517295837402344">
        <ele>140.85</ele>
        <time>2024-12-08T10:51:34.484Z</time>
      </trkpt>
      <trkpt lat="43.33353281021118" lon="6.516866683959961">
        <ele>142.03</ele>
        <time>2024-12-08T10:51:35.801Z</time>
      </trkpt>
      <trkpt lat="43.33344672806561" lon="6.516522606834769">
        <ele>143.13</ele>
        <time>2024-12-08T10:51:37.127Z</time>
      </trkpt>
      <trkpt lat="43.33336114883423" lon="6.516180038452148">
        <ele>144.28</ele>
        <time>2024-12-08T10:51:38.462Z</time>
      </trkpt>
      <trkpt lat="43.33341487683356" lon="6.515921959653497">
        <ele>145.53</ele>
        <time>2024-12-08T10:51:39.804Z</time>
      </trkpt>
      <trkpt lat="43.333468437194824" lon="6.515665054321289">
        <ele>146.73</ele>
        <time>2024-12-08T10:51:41.153Z</time>
      </trkpt>
      <trkpt lat="43.3336079120636" lon="6.515482496470213">
        <ele>147.86</ele>
        <time>2024-12-08T10:51:42.509Z</time>
      </trkpt>
      <trkpt lat="43.33374738693237" lon="6.515300273895264">
        <ele>149.16</ele>
        <time>2024-12-08T10:51:43.871Z</time>
      </trkpt>
      <trkpt lat="43.333747470751405" lon="6.515300273895264">
        <ele>150.38</ele>
        <time>2024-12-08T10:51:45.233Z</time>
      </trkpt>
      <trkpt lat="43.333725929260254" lon="6.515021324157715">
        <ele>151.63</ele>
        <time>2024-12-08T10:51:46.602Z</time>
      </trkpt>
      <trkpt lat="43.33374738693237" lon="6.514773974195123">
        <ele>152.98</ele>
        <time>2024-12-08T10:51:47.978Z</time>
      </trkpt>
      <trkpt lat="43.33376884460449" lon="6.514527797698975">
        <ele>154.36</ele>
        <time>2024-12-08T10:51:49.360Z</time>
      </trkpt>
      <trkpt lat="43.33370430395007" lon="6.5141944494098425">
        <ele>155.88</ele>
        <time>2024-12-08T10:51:50.751Z</time>
      </trkpt>
      <trkpt lat="43.33364009857178" lon="6.513862609863281">
        <ele>157.3</ele>
        <time>2024-12-08T10:51:52.151Z</time>
      </trkpt>
      <trkpt lat="43.33364009857178" lon="6.513454914093018">
        <ele>158.62</ele>
        <time>2024-12-08T10:51:53.561Z</time>
      </trkpt>
      <trkpt lat="43.333683013916016" lon="6.513068675994873">
        <ele>160.06</ele>
        <time>2024-12-08T10:51:54.981Z</time>
      </trkpt>
      <trkpt lat="43.333683013916016" lon="6.512681432068348">
        <ele>161.49</ele>
        <time>2024-12-08T10:51:56.411Z</time>
      </trkpt>
      <trkpt lat="43.333683013916016" lon="6.512296199798584">
        <ele>162.92</ele>
        <time>2024-12-08T10:51:57.851Z</time>
      </trkpt>
      <trkpt lat="43.33361864089966" lon="6.512124538421631">
        <ele>164.4</ele>
        <time>2024-12-08T10:51:59.296Z</time>
      </trkpt>
      <trkpt lat="43.333468437194824" lon="6.512103080749512">
        <ele>165.95</ele>
        <time>2024-12-08T10:52:00.746Z</time>
      </trkpt>
      <trkpt lat="43.333446979522705" lon="6.511974334716797">
        <ele>167.45</ele>
        <time>2024-12-08T10:52:02.200Z</time>
      </trkpt>
      <trkpt lat="43.33357572555542" lon="6.511867046356201">
        <ele>168.84</ele>
        <time>2024-12-08T10:52:03.659Z</time>
      </trkpt>
      <trkpt lat="43.33365451544523" lon="6.511530093848705">
        <ele>170.46</ele>
        <time>2024-12-08T10:52:05.127Z</time>
      </trkpt>
      <trkpt lat="43.33373338915408" lon="6.511193225160241">
        <ele>172.01</ele>
        <time>2024-12-08T10:52:06.604Z</time>
      </trkpt>
      <trkpt lat="43.33381175994873" lon="6.510858535766602">
        <ele>173.49</ele>
        <time>2024-12-08T10:52:08.090Z</time>
      </trkpt>
      <trkpt lat="43.333940505981445" lon="6.510515213012695">
        <ele>174.98</ele>
        <time>2024-12-08T10:52:09.586Z</time>
      </trkpt>
      <trkpt lat="43.333961963653564" lon="6.510214805603027">
        <ele>176.58</ele>
        <time>2024-12-08T10:52:11.089Z</time>
      </trkpt>
      <trkpt lat="43.333919048309326" lon="6.510021686553955">
        <ele>178.17</ele>
        <time>2024-12-08T10:52:12.598Z</time>
      </trkpt>
      <trkpt lat="43.33381175994873" lon="6.509828567504883">
        <ele>179.91</ele>
        <time>2024-12-08T10:52:14.113Z</time>
      </trkpt>
      <trkpt lat="43.33370422013104" lon="6.5094737615436316">
        <ele>181.79</ele>
        <time>2024-12-08T10:52:15.638Z</time>
      </trkpt>
      <trkpt lat="43.33359718322754" lon="6.509120464324951">
        <ele>183.59</ele>
        <time>2024-12-08T10:52:17.172Z</time>
      </trkpt>
      <trkpt lat="43.33364009857178" lon="6.509034633636475">
        <ele>185.12</ele>
        <time>2024-12-08T10:52:18.709Z</time>
      </trkpt>
      <trkpt lat="43.33379021845758" lon="6.509131109341979">
        <ele>186.47</ele>
        <time>2024-12-08T10:52:20.252Z</time>
      </trkpt>
      <trkpt lat="43.333940505981445" lon="6.509227752685547">
        <ele>187.82</ele>
        <time>2024-12-08T10:52:21.801Z</time>
      </trkpt>
      <trkpt lat="43.33404779434204" lon="6.509249210357666">
        <ele>189.27</ele>
        <time>2024-12-08T10:52:23.354Z</time>
      </trkpt>
      <trkpt lat="43.3341121673584" lon="6.509206295013428">
        <ele>190.81</ele>
        <time>2024-12-08T10:52:24.909Z</time>
      </trkpt>
      <trkpt lat="43.33413362503052" lon="6.509099006652832">
        <ele>192.43</ele>
        <time>2024-12-08T10:52:26.467Z</time>
      </trkpt>
      <trkpt lat="43.33414921537042" lon="6.508883507922292">
        <ele>194.12</ele>
        <time>2024-12-08T10:52:28.030Z</time>
      </trkpt>
      <trkpt lat="43.33416321314871" lon="6.508690221235156">
        <ele>195.81</ele>
        <time>2024-12-08T10:52:29.598Z</time>
      </trkpt>
      <trkpt lat="43.334164805710316" lon="6.5086691826581955">
        <ele>197.41</ele>
        <time>2024-12-08T10:52:31.167Z</time>
      </trkpt>
      <trkpt lat="43.334190202876925" lon="6.50831806473434">
        <ele>199.19</ele>
        <time>2024-12-08T10:52:32.745Z</time>
      </trkpt>
      <trkpt lat="43.334215600043535" lon="6.507966946810484">
        <ele>200.9</ele>
        <time>2024-12-08T10:52:34.332Z</time>
      </trkpt>
      <trkpt lat="43.33424091339111" lon="6.507618427276611">
        <ele>202.69</ele>
        <time>2024-12-08T10:52:35.928Z</time>
      </trkpt>
      <trkpt lat="43.334219455718994" lon="6.507468223571777">
        <ele>204.46</ele>
        <time>2024-12-08T10:52:37.528Z</time>
      </trkpt>
      <trkpt lat="43.33413362503052" lon="6.507253646850586">
        <ele>206.32</ele>
        <time>2024-12-08T10:52:39.134Z</time>
      </trkpt>
      <trkpt lat="43.33413362503052" lon="6.5071892738342285">
        <ele>208.01</ele>
        <time>2024-12-08T10:52:40.742Z</time>
      </trkpt>
      <trkpt lat="43.334197998046875" lon="6.50714635848999">
        <ele>209.64</ele>
        <time>2024-12-08T10:52:42.352Z</time>
      </trkpt>
      <trkpt lat="43.33439086563885" lon="6.507071256637573">
        <ele>211.22</ele>
        <time>2024-12-08T10:52:43.969Z</time>
      </trkpt>
      <trkpt lat="43.33458423614502" lon="6.506996154785156">
        <ele>212.81</ele>
        <time>2024-12-08T10:52:45.593Z</time>
      </trkpt>
      <trkpt lat="43.33462715148926" lon="6.506931781768799">
        <ele>214.48</ele>
        <time>2024-12-08T10:52:47.220Z</time>
      </trkpt>
      <trkpt lat="43.33474533632398" lon="6.506620058789849">
        <ele>216.33</ele>
        <time>2024-12-08T10:52:48.856Z</time>
      </trkpt>
      <trkpt lat="43.33486318588257" lon="6.506309509277344">
        <ele>218.16</ele>
        <time>2024-12-08T10:52:50.500Z</time>
      </trkpt>
      <trkpt lat="43.33488464355469" lon="6.505987644195557">
        <ele>220.1</ele>
        <time>2024-12-08T10:52:52.153Z</time>
      </trkpt>
      <trkpt lat="43.334927558898926" lon="6.50590181350708">
        <ele>221.75</ele>
        <time>2024-12-08T10:52:53.808Z</time>
      </trkpt>
      <trkpt lat="43.3350133895874" lon="6.505880355834961">
        <ele>223.39</ele>
        <time>2024-12-08T10:52:55.466Z</time>
      </trkpt>
      <trkpt lat="43.33513140678406" lon="6.506041372194886">
        <ele>224.93</ele>
        <time>2024-12-08T10:52:57.130Z</time>
      </trkpt>
      <trkpt lat="43.33524942398071" lon="6.506202220916748">
        <ele>226.51</ele>
        <time>2024-12-08T10:52:58.800Z</time>
      </trkpt>
      <trkpt lat="43.33548545837402" lon="6.506438255310059">
        <ele>228.18</ele>
        <time>2024-12-08T10:53:00.480Z</time>
      </trkpt>
      <trkpt lat="43.335742615163326" lon="6.506488211452961">
        <ele>229.91</ele>
        <time>2024-12-08T10:53:02.169Z</time>
      </trkpt>
      <trkpt lat="43.33599985577166" lon="6.506538251414895">
        <ele>231.67</ele>
        <time>2024-12-08T10:53:03.868Z</time>
      </trkpt>
      <trkpt lat="43.33625793457031" lon="6.506588459014893">
        <ele>233.58</ele>
        <time>2024-12-08T10:53:05.576Z</time>
      </trkpt>
      <trkpt lat="43.33651542663574" lon="6.506674289703369">
        <ele>235.33</ele>
        <time>2024-12-08T10:53:07.293Z</time>
      </trkpt>
      <trkpt lat="43.33676193840802" lon="6.506797503679991">
        <ele>237.0</ele>
        <time>2024-12-08T10:53:09.019Z</time>
      </trkpt>
      <trkpt lat="43.337008533999324" lon="6.506920801475644">
        <ele>238.74</ele>
        <time>2024-12-08T10:53:10.754Z</time>
      </trkpt>
      <trkpt lat="43.33725512959063" lon="6.5070440992712975">
        <ele>240.61</ele>
        <time>2024-12-08T10:53:12.499Z</time>
      </trkpt>
      <trkpt lat="43.33750247955322" lon="6.507167816162109">
        <ele>242.45</ele>
        <time>2024-12-08T10:53:14.253Z</time>
      </trkpt>
      <trkpt lat="43.3375883102417" lon="6.507103443145752">
        <ele>244.11</ele>
        <time>2024-12-08T10:53:16.010Z</time>
      </trkpt>
      <trkpt lat="43.33756685256958" lon="6.507060527801514">
        <ele>245.7</ele>
        <time>2024-12-08T10:53:17.769Z</time>
      </trkpt>
      <trkpt lat="43.337427377700806" lon="6.506931781768799">
        <ele>247.26</ele>
        <time>2024-12-08T10:53:19.533Z</time>
      </trkpt>
      <trkpt lat="43.33728790283203" lon="6.506803035736084">
        <ele>248.82</ele>
        <time>2024-12-08T10:53:21.303Z</time>
      </trkpt>
      <trkpt lat="43.33710894919932" lon="6.506573958322406">
        <ele>250.45</ele>
        <time>2024-12-08T10:53:23.082Z</time>
      </trkpt>
      <trkpt lat="43.33693007938564" lon="6.506344964727759">
        <ele>252.06</ele>
        <time>2024-12-08T10:53:24.869Z</time>
      </trkpt>
      <trkpt lat="43.33675146102905" lon="6.5061163902282715">
        <ele>253.59</ele>
        <time>2024-12-08T10:53:26.665Z</time>
      </trkpt>
      <trkpt lat="43.33651542663574" lon="6.50590181350708">
        <ele>255.14</ele>
        <time>2024-12-08T10:53:28.471Z</time>
      </trkpt>
      <trkpt lat="43.33623647689819" lon="6.505708694458008">
        <ele>256.62</ele>
        <time>2024-12-08T10:53:30.288Z</time>
      </trkpt>
      <trkpt lat="43.336107563227415" lon="6.505483137443662">
        <ele>258.24</ele>
        <time>2024-12-08T10:53:32.112Z</time>
      </trkpt>
      <trkpt lat="43.335978984832764" lon="6.505258083343506">
        <ele>259.73</ele>
        <time>2024-12-08T10:53:33.944Z</time>
      </trkpt>
      <trkpt lat="43.335914611816406" lon="6.505064964294434">
        <ele>261.23</ele>
        <time>2024-12-08T10:53:35.781Z</time>
      </trkpt>
      <trkpt lat="43.335882341489196" lon="6.504828343167901">
        <ele>262.82</ele>
        <time>2024-12-08T10:53:37.624Z</time>
      </trkpt>
      <trkpt lat="43.33585023880005" lon="6.5045928955078125">
        <ele>264.35</ele>
        <time>2024-12-08T10:53:39.473Z</time>
      </trkpt>
      <trkpt lat="43.33576440811157" lon="6.504507064819336">
        <ele>265.63</ele>
        <time>2024-12-08T10:53:41.326Z</time>
      </trkpt>
      <trkpt lat="43.33561420440674" lon="6.504185199737549">
        <ele>267.04</ele>
        <time>2024-12-08T10:53:43.189Z</time>
      </trkpt>
      <trkpt lat="43.33548520691693" lon="6.50386274792254">
        <ele>268.48</ele>
        <time>2024-12-08T10:53:45.061Z</time>
      </trkpt>
      <trkpt lat="43.33535671234131" lon="6.503541469573975">
        <ele>269.92</ele>
        <time>2024-12-08T10:53:46.942Z</time>
      </trkpt>
      <trkpt lat="43.33522779867053" lon="6.5033589117228985">
        <ele>271.28</ele>
        <time>2024-12-08T10:53:48.830Z</time>
      </trkpt>
      <trkpt lat="43.33509922027588" lon="6.503176689147949">
        <ele>272.79</ele>
        <time>2024-12-08T10:53:50.724Z</time>
      </trkpt>
      <trkpt lat="43.334970474243164" lon="6.503176689147949">
        <ele>274.11</ele>
        <time>2024-12-08T10:53:52.623Z</time>
      </trkpt>
      <trkpt lat="43.334841476753354" lon="6.503441641107202">
        <ele>275.3</ele>
        <time>2024-12-08T10:53:54.530Z</time>
      </trkpt>
      <trkpt lat="43.334712563082576" lon="6.503706676885486">
        <ele>276.49</ele>
        <time>2024-12-08T10:53:56.445Z</time>
      </trkpt>
      <trkpt lat="43.33458423614502" lon="6.503970623016357">
        <ele>277.78</ele>
        <time>2024-12-08T10:53:58.368Z</time>
      </trkpt>
      <trkpt lat="43.33446596749127" lon="6.504260720685124">
        <ele>279.13</ele>
        <time>2024-12-08T10:54:00.300Z</time>
      </trkpt>
      <trkpt lat="43.33434820175171" lon="6.504549980163574">
        <ele>280.56</ele>
        <time>2024-12-08T10:54:02.240Z</time>
      </trkpt>
      <trkpt lat="43.33420855924487" lon="6.504764724522829">
        <ele>282.13</ele>
        <time>2024-12-08T10:54:04.188Z</time>
      </trkpt>
      <trkpt lat="43.33406925201416" lon="6.504979133605957">
        <ele>283.51</ele>
        <time>2024-12-08T10:54:06.143Z</time>
      </trkpt>
      <trkpt lat="43.333983421325684" lon="6.505000591278076">
        <ele>284.93</ele>
        <time>2024-12-08T10:54:08.101Z</time>
      </trkpt>
      <trkpt lat="43.333961963653564" lon="6.504957675933838">
        <ele>286.4</ele>
        <time>2024-12-08T10:54:10.060Z</time>
      </trkpt>
      <trkpt lat="43.33404779434204" lon="6.504850387573242">
        <ele>287.84</ele>
        <time>2024-12-08T10:54:12.023Z</time>
      </trkpt>
      <trkpt lat="43.334176540374756" lon="6.504549980163574">
        <ele>289.24</ele>
        <time>2024-12-08T10:54:13.995Z</time>
      </trkpt>
      <trkpt lat="43.334257174283266" lon="6.5042059030383825">
        <ele>290.71</ele>
        <time>2024-12-08T10:54:15.977Z</time>
      </trkpt>
      <trkpt lat="43.334337808191776" lon="6.503861825913191">
        <ele>292.28</ele>
        <time>2024-12-08T10:54:17.968Z</time>
      </trkpt>
      <trkpt lat="43.33441844210029" lon="6.503517832607031">
        <ele>293.92</ele>
        <time>2024-12-08T10:54:19.968Z</time>
      </trkpt>
      <trkpt lat="43.33449840545654" lon="6.503176689147949">
        <ele>295.7</ele>
        <time>2024-12-08T10:54:21.977Z</time>
      </trkpt>
      <trkpt lat="43.33456286229193" lon="6.502768071368337">
        <ele>297.44</ele>
        <time>2024-12-08T10:54:23.997Z</time>
      </trkpt>
      <trkpt lat="43.33462715148926" lon="6.502361297607422">
        <ele>299.25</ele>
        <time>2024-12-08T10:54:26.028Z</time>
      </trkpt>
      <trkpt lat="43.33454132080078" lon="6.502468585968018">
        <ele>300.86</ele>
        <time>2024-12-08T10:54:28.063Z</time>
      </trkpt>
      <trkpt lat="43.3344660513103" lon="6.502705039456487">
        <ele>302.38</ele>
        <time>2024-12-08T10:54:30.104Z</time>
      </trkpt>
      <trkpt lat="43.33439111709595" lon="6.502940654754639">
        <ele>303.94</ele>
        <time>2024-12-08T10:54:32.152Z</time>
      </trkpt>
      <trkpt lat="43.33429438993335" lon="6.503155482932925">
        <ele>305.53</ele>
        <time>2024-12-08T10:54:34.206Z</time>
      </trkpt>
      <trkpt lat="43.334197998046875" lon="6.5033698081970215">
        <ele>307.14</ele>
        <time>2024-12-08T10:54:36.267Z</time>
      </trkpt>
      <trkpt lat="43.33407620899379" lon="6.503627635538578">
        <ele>308.82</ele>
        <time>2024-12-08T10:54:38.336Z</time>
      </trkpt>
      <trkpt lat="43.33395441994071" lon="6.503885462880135">
        <ele>310.47</ele>
        <time>2024-12-08T10:54:40.412Z</time>
      </trkpt>
      <trkpt lat="43.33383321762085" lon="6.5041422843933105">
        <ele>312.16</ele>
        <time>2024-12-08T10:54:42.496Z</time>
      </trkpt>
      <trkpt lat="43.333704471588135" lon="6.5042924880981445">
        <ele>313.85</ele>
        <time>2024-12-08T10:54:44.586Z</time>
      </trkpt>
      <trkpt lat="43.33355435170233" lon="6.504378234967589">
        <ele>315.59</ele>
        <time>2024-12-08T10:54:46.682Z</time>
      </trkpt>
      <trkpt lat="43.33340406417847" lon="6.504464149475098">
        <ele>317.34</ele>
        <time>2024-12-08T10:54:48.784Z</time>
      </trkpt>
      <trkpt lat="43.3331036567688" lon="6.504507064819336">
        <ele>319.21</ele>
        <time>2024-12-08T10:54:50.896Z</time>
      </trkpt>
      <trkpt lat="43.332931995391846" lon="6.504464149475098">
        <ele>320.94</ele>
        <time>2024-12-08T10:54:53.014Z</time>
      </trkpt>
      <trkpt lat="43.3328031655401" lon="6.504335319623351">
        <ele>322.75</ele>
        <time>2024-12-08T10:54:55.138Z</time>
      </trkpt>
      <trkpt lat="43.332674503326416" lon="6.504206657409668">
        <ele>324.57</ele>
        <time>2024-12-08T10:54:57.267Z</time>
      </trkpt>
      <trkpt lat="43.33258867263794" lon="6.504077911376953">
        <ele>326.41</ele>
        <time>2024-12-08T10:54:59.401Z</time>
      </trkpt>
      <trkpt lat="43.3326530456543" lon="6.504077911376953">
        <ele>328.11</ele>
        <time>2024-12-08T10:55:01.537Z</time>
      </trkpt>
      <trkpt lat="43.33288908004761" lon="6.504271030426025">
        <ele>329.59</ele>
        <time>2024-12-08T10:55:03.683Z</time>
      </trkpt>
      <trkpt lat="43.33308219909668" lon="6.5042924880981445">
        <ele>331.23</ele>
        <time>2024-12-08T10:55:05.836Z</time>
      </trkpt>
      <trkpt lat="43.33329677581787" lon="6.504206657409668">
        <ele>332.87</ele>
        <time>2024-12-08T10:55:07.996Z</time>
      </trkpt>
      <trkpt lat="43.33340406417847" lon="6.504099369049072">
        <ele>334.44</ele>
        <time>2024-12-08T10:55:10.161Z</time>
      </trkpt>
      <trkpt lat="43.3335542678833" lon="6.503798961639404">
        <ele>336.06</ele>
        <time>2024-12-08T10:55:12.335Z</time>
      </trkpt>
      <trkpt lat="43.33364018239081" lon="6.503508696332574">
        <ele>337.68</ele>
        <time>2024-12-08T10:55:14.517Z</time>
      </trkpt>
      <trkpt lat="43.333725929260254" lon="6.5032196044921875">
        <ele>339.37</ele>
        <time>2024-12-08T10:55:16.707Z</time>
      </trkpt>
      <trkpt lat="43.333768928423524" lon="6.502961525693536">
        <ele>341.11</ele>
        <time>2024-12-08T10:55:18.904Z</time>
      </trkpt>
      <trkpt lat="43.33381175994873" lon="6.502704620361328">
        <ele>342.64</ele>
        <time>2024-12-08T10:55:21.108Z</time>
      </trkpt>
      <trkpt lat="43.33383330143988" lon="6.502489456906915">
        <ele>344.08</ele>
        <time>2024-12-08T10:55:23.317Z</time>
      </trkpt>
      <trkpt lat="43.333854759112" lon="6.502275466918945">
        <ele>345.38</ele>
        <time>2024-12-08T10:55:25.532Z</time>
      </trkpt>
      <trkpt lat="43.33387621678412" lon="6.501931305974722">
        <ele>346.59</ele>
        <time>2024-12-08T10:55:27.756Z</time>
      </trkpt>
      <trkpt lat="43.33389759063721" lon="6.501588821411133">
        <ele>347.85</ele>
        <time>2024-12-08T10:55:29.988Z</time>
      </trkpt>
      <trkpt lat="43.333983421325684" lon="6.501352787017822">
        <ele>348.78</ele>
        <time>2024-12-08T10:55:32.227Z</time>
      </trkpt>
      <trkpt lat="43.3340048789978" lon="6.50115966796875">
        <ele>349.77</ele>
        <time>2024-12-08T10:55:34.471Z</time>
      </trkpt>
      <trkpt lat="43.33404779434204" lon="6.5007734298706055">
        <ele>350.69</ele>
        <time>2024-12-08T10:55:36.725Z</time>
      </trkpt>
      <trkpt lat="43.3340585231781" lon="6.500525996088982">
        <ele>351.56</ele>
        <time>2024-12-08T10:55:38.986Z</time>
      </trkpt>
      <trkpt lat="43.33406925201416" lon="6.500279903411865">
        <ele>352.29</ele>
        <time>2024-12-08T10:55:41.253Z</time>
      </trkpt>
      <trkpt lat="43.33409079350531" lon="6.5001726150512695">
        <ele>352.84</ele>
        <time>2024-12-08T10:55:43.523Z</time>
      </trkpt>
      <trkpt lat="43.33407126367092" lon="6.499978406354785">
        <ele>353.35</ele>
        <time>2024-12-08T10:55:45.798Z</time>
      </trkpt>
      <trkpt lat="43.33406916819513" lon="6.4999576192349195">
        <ele>353.71</ele>
        <time>2024-12-08T10:55:48.073Z</time>
      </trkpt>
      <trkpt lat="43.33406925201416" lon="6.499958038330078">
        <ele>353.99</ele>
        <time>2024-12-08T10:55:50.348Z</time>
      </trkpt>
      <trkpt lat="43.333918964490294" lon="6.499797021970153">
        <ele>354.17</ele>
        <time>2024-12-08T10:55:52.630Z</time>
      </trkpt>
      <trkpt lat="43.33376884460449" lon="6.499636173248291">
        <ele>354.24</ele>
        <time>2024-12-08T10:55:54.919Z</time>
      </trkpt>
      <trkpt lat="43.33366138860583" lon="6.499453531578183">
        <ele>354.21</ele>
        <time>2024-12-08T10:55:57.214Z</time>
      </trkpt>
      <trkpt lat="43.3335542678833" lon="6.499271392822266">
        <ele>354.12</ele>
        <time>2024-12-08T10:55:59.515Z</time>
      </trkpt>
      <trkpt lat="43.33346826955676" lon="6.499088751152158">
        <ele>354.01</ele>
        <time>2024-12-08T10:56:01.821Z</time>
      </trkpt>
      <trkpt lat="43.33338260650635" lon="6.49890661239624">
        <ele>353.88</ele>
        <time>2024-12-08T10:56:04.133Z</time>
      </trkpt>
      <trkpt lat="43.33329677581787" lon="6.498820781707764">
        <ele>353.77</ele>
        <time>2024-12-08T10:56:06.448Z</time>
      </trkpt>
      <trkpt lat="43.333189487457275" lon="6.498842239379883">
        <ele>353.68</ele>
        <time>2024-12-08T10:56:08.767Z</time>
      </trkpt>
      <trkpt lat="43.33302855491638" lon="6.498949443921447">
        <ele>353.65</ele>
        <time>2024-12-08T10:56:11.092Z</time>
      </trkpt>
      <trkpt lat="43.33286762237549" lon="6.499056816101074">
        <ele>353.57</ele>
        <time>2024-12-08T10:56:13.424Z</time>
      </trkpt>
      <trkpt lat="43.33278179168701" lon="6.499035358428955">
        <ele>353.41</ele>
        <time>2024-12-08T10:56:15.759Z</time>
      </trkpt>
      <trkpt lat="43.33280324935913" lon="6.498734951019287">
        <ele>353.15</ele>
        <time>2024-12-08T10:56:18.102Z</time>
      </trkpt>
      <trkpt lat="43.33278179168701" lon="6.498584747314453">
        <ele>352.97</ele>
        <time>2024-12-08T10:56:20.448Z</time>
      </trkpt>
      <trkpt lat="43.332717418670654" lon="6.498541831970215">
        <ele>352.9</ele>
        <time>2024-12-08T10:56:22.797Z</time>
      </trkpt>
      <trkpt lat="43.33261013031006" lon="6.498541831970215">
        <ele>352.94</ele>
        <time>2024-12-08T10:56:25.150Z</time>
      </trkpt>
      <trkpt lat="43.33239555358887" lon="6.498820781707764">
        <ele>353.24</ele>
        <time>2024-12-08T10:56:27.513Z</time>
      </trkpt>
      <trkpt lat="43.33224534988403" lon="6.498777866363525">
        <ele>353.44</ele>
        <time>2024-12-08T10:56:29.881Z</time>
      </trkpt>
      <trkpt lat="43.33218080922961" lon="6.498383581638336">
        <ele>353.49</ele>
        <time>2024-12-08T10:56:32.260Z</time>
      </trkpt>
      <trkpt lat="43.33211626857519" lon="6.497989296913147">
        <ele>353.56</ele>
        <time>2024-12-08T10:56:34.649Z</time>
      </trkpt>
      <trkpt lat="43.33205223083496" lon="6.497597694396973">
        <ele>353.54</ele>
        <time>2024-12-08T10:56:37.048Z</time>
      </trkpt>
      <trkpt lat="43.331923484802246" lon="6.4974045753479">
        <ele>353.77</ele>
        <time>2024-12-08T10:56:39.454Z</time>
      </trkpt>
      <trkpt lat="43.331665992736816" lon="6.49716854095459">
        <ele>354.12</ele>
        <time>2024-12-08T10:56:41.871Z</time>
      </trkpt>
      <trkpt lat="43.331451416015625" lon="6.49691104888916">
        <ele>354.46</ele>
        <time>2024-12-08T10:56:44.298Z</time>
      </trkpt>
      <trkpt lat="43.331215465441346" lon="6.496782386675477">
        <ele>354.93</ele>
        <time>2024-12-08T10:56:46.734Z</time>
      </trkpt>
      <trkpt lat="43.330979347229004" lon="6.4966535568237305">
        <ele>355.36</ele>
        <time>2024-12-08T10:56:49.179Z</time>
      </trkpt>
      <trkpt lat="43.33072177134454" lon="6.496406709775329">
        <ele>355.71</ele>
        <time>2024-12-08T10:56:51.635Z</time>
      </trkpt>
      <trkpt lat="43.330464363098145" lon="6.49616003036499">
        <ele>356.0</ele>
        <time>2024-12-08T10:56:54.102Z</time>
      </trkpt>
      <trkpt lat="43.33029270172119" lon="6.496095657348633">
        <ele>356.32</ele>
        <time>2024-12-08T10:56:56.575Z</time>
      </trkpt>
      <trkpt lat="43.33012104034424" lon="6.496117115020752">
        <ele>356.7</ele>
        <time>2024-12-08T10:56:59.054Z</time>
      </trkpt>
      <trkpt lat="43.329927921295166" lon="6.496224403381348">
        <ele>357.15</ele>
        <time>2024-12-08T10:57:01.540Z</time>
      </trkpt>
      <trkpt lat="43.32979917526245" lon="6.496224403381348">
        <ele>357.51</ele>
        <time>2024-12-08T10:57:04.031Z</time>
      </trkpt>
      <trkpt lat="43.32963824272156" lon="6.496084928512573">
        <ele>357.73</ele>
        <time>2024-12-08T10:57:06.528Z</time>
      </trkpt>
      <trkpt lat="43.329477310180664" lon="6.495945453643799">
        <ele>357.92</ele>
        <time>2024-12-08T10:57:09.032Z</time>
      </trkpt>
      <trkpt lat="43.32923431880772" lon="6.49586683139205">
        <ele>358.13</ele>
        <time>2024-12-08T10:57:11.545Z</time>
      </trkpt>
      <trkpt lat="43.32899132743478" lon="6.495788209140301">
        <ele>358.3</ele>
        <time>2024-12-08T10:57:14.067Z</time>
      </trkpt>
      <trkpt lat="43.32874774932861" lon="6.495709419250488">
        <ele>358.46</ele>
        <time>2024-12-08T10:57:16.597Z</time>
      </trkpt>
      <trkpt lat="43.328683376312256" lon="6.495602130889893">
        <ele>358.48</ele>
        <time>2024-12-08T10:57:19.131Z</time>
      </trkpt>
      <trkpt lat="43.32866191864014" lon="6.495215892791748">
        <ele>358.24</ele>
        <time>2024-12-08T10:57:21.675Z</time>
      </trkpt>
      <trkpt lat="43.32857608795166" lon="6.495022773742676">
        <ele>358.18</ele>
        <time>2024-12-08T10:57:24.225Z</time>
      </trkpt>
      <trkpt lat="43.328468799591064" lon="6.49491548538208">
        <ele>358.2</ele>
        <time>2024-12-08T10:57:26.779Z</time>
      </trkpt>
      <trkpt lat="43.3282614313066" lon="6.49475815705955">
        <ele>358.25</ele>
        <time>2024-12-08T10:57:29.342Z</time>
      </trkpt>
      <trkpt lat="43.32805406302214" lon="6.4946008287370205">
        <ele>358.25</ele>
        <time>2024-12-08T10:57:31.913Z</time>
      </trkpt>
      <trkpt lat="43.32784652709961" lon="6.494443416595459">
        <ele>358.27</ele>
        <time>2024-12-08T10:57:34.492Z</time>
      </trkpt>
      <trkpt lat="43.327653324231505" lon="6.494260942563415">
        <ele>358.29</ele>
        <time>2024-12-08T10:57:37.079Z</time>
      </trkpt>
      <trkpt lat="43.327460289001465" lon="6.494078636169434">
        <ele>358.32</ele>
        <time>2024-12-08T10:57:39.675Z</time>
      </trkpt>
      <trkpt lat="43.32732416689396" lon="6.493842350319028">
        <ele>358.39</ele>
        <time>2024-12-08T10:57:42.278Z</time>
      </trkpt>
      <trkpt lat="43.327188128605485" lon="6.493606064468622">
        <ele>358.49</ele>
        <time>2024-12-08T10:57:44.889Z</time>
      </trkpt>
      <trkpt lat="43.3270525932312" lon="6.493370532989502">
        <ele>358.59</ele>
        <time>2024-12-08T10:57:47.508Z</time>
      </trkpt>
      <trkpt lat="43.32690238952637" lon="6.493198871612549">
        <ele>358.74</ele>
        <time>2024-12-08T10:57:50.134Z</time>
      </trkpt>
      <trkpt lat="43.32683801651001" lon="6.492941379547119">
        <ele>358.99</ele>
        <time>2024-12-08T10:57:52.766Z</time>
      </trkpt>
      <trkpt lat="43.326709270477295" lon="6.492598056793213">
        <ele>359.32</ele>
        <time>2024-12-08T10:57:55.408Z</time>
      </trkpt>
      <trkpt lat="43.32655906677246" lon="6.492469310760498">
        <ele>359.64</ele>
        <time>2024-12-08T10:57:58.057Z</time>
      </trkpt>
      <trkpt lat="43.3263308275491" lon="6.492375265806913">
        <ele>360.07</ele>
        <time>2024-12-08T10:58:00.714Z</time>
      </trkpt>
      <trkpt lat="43.326315488666296" lon="6.492368979379535">
        <ele>360.5</ele>
        <time>2024-12-08T10:58:03.371Z</time>
      </trkpt>
      <trkpt lat="43.3263152372092" lon="6.492368895560503">
        <ele>360.98</ele>
        <time>2024-12-08T10:58:06.028Z</time>
      </trkpt>
      <trkpt lat="43.326266538351774" lon="6.492129927501082">
        <ele>361.75</ele>
        <time>2024-12-08T10:58:08.692Z</time>
      </trkpt>
      <trkpt lat="43.32626243121922" lon="6.492109559476376">
        <ele>362.35</ele>
        <time>2024-12-08T10:58:11.356Z</time>
      </trkpt>
      <trkpt lat="43.32626251503825" lon="6.492109810933471">
        <ele>362.96</ele>
        <time>2024-12-08T10:58:14.020Z</time>
      </trkpt>
      <trkpt lat="43.32611926831305" lon="6.49196220561862">
        <ele>363.83</ele>
        <time>2024-12-08T10:58:16.691Z</time>
      </trkpt>
      <trkpt lat="43.32610652782023" lon="6.491949046030641">
        <ele>364.54</ele>
        <time>2024-12-08T10:58:19.362Z</time>
      </trkpt>
      <trkpt lat="43.3261064440012" lon="6.491948962211609">
        <ele>365.25</ele>
        <time>2024-12-08T10:58:22.033Z</time>
      </trkpt>
      <trkpt lat="43.32580260001123" lon="6.491834633052349">
        <ele>366.19</ele>
        <time>2024-12-08T10:58:24.715Z</time>
      </trkpt>
      <trkpt lat="43.32575147040188" lon="6.4918153546750546">
        <ele>367.0</ele>
        <time>2024-12-08T10:58:27.399Z</time>
      </trkpt>
      <trkpt lat="43.325735963881016" lon="6.491809571161866">
        <ele>367.8</ele>
        <time>2024-12-08T10:58:30.084Z</time>
      </trkpt>
      <trkpt lat="43.32573571242392" lon="6.4918094873428345">
        <ele>368.63</ele>
        <time>2024-12-08T10:58:32.769Z</time>
      </trkpt>
      <trkpt lat="43.325494565069675" lon="6.491734050214291">
        <ele>369.57</ele>
        <time>2024-12-08T10:58:35.462Z</time>
      </trkpt>
      <trkpt lat="43.32547863945365" lon="6.491729104891419">
        <ele>370.45</ele>
        <time>2024-12-08T10:58:38.156Z</time>
      </trkpt>
      <trkpt lat="43.32547813653946" lon="6.491729021072388">
        <ele>371.34</ele>
        <time>2024-12-08T10:58:40.850Z</time>
      </trkpt>
      <trkpt lat="43.325334303081036" lon="6.49168074131012">
        <ele>372.31</ele>
        <time>2024-12-08T10:58:43.549Z</time>
      </trkpt>
      <trkpt lat="43.32531854510307" lon="6.491675460711122">
        <ele>373.26</ele>
        <time>2024-12-08T10:58:46.249Z</time>
      </trkpt>
      <trkpt lat="43.325318126007915" lon="6.49167537689209">
        <ele>374.22</ele>
        <time>2024-12-08T10:58:48.949Z</time>
      </trkpt>
      <trkpt lat="43.325150990858674" lon="6.491480665281415">
        <ele>375.26</ele>
        <time>2024-12-08T10:58:51.656Z</time>
      </trkpt>
      <trkpt lat="43.325138753280044" lon="6.491466332226992">
        <ele>376.27</ele>
        <time>2024-12-08T10:58:54.364Z</time>
      </trkpt>
      <trkpt lat="43.32513858564198" lon="6.4914660807698965">
        <ele>377.3</ele>
        <time>2024-12-08T10:58:57.072Z</time>
      </trkpt>
      <trkpt lat="43.325151577591896" lon="6.491353930905461">
        <ele>378.41</ele>
        <time>2024-12-08T10:58:59.783Z</time>
      </trkpt>
      <trkpt lat="43.32515417598188" lon="6.491332221776247">
        <ele>379.5</ele>
        <time>2024-12-08T10:59:02.494Z</time>
      </trkpt>
      <trkpt lat="43.32515425980091" lon="6.491332054138184">
        <ele>380.6</ele>
        <time>2024-12-08T10:59:05.205Z</time>
      </trkpt>
      <trkpt lat="43.325337152928114" lon="6.491243205964565">
        <ele>381.85</ele>
        <time>2024-12-08T10:59:07.923Z</time>
      </trkpt>
      <trkpt lat="43.32535265944898" lon="6.491235746070743">
        <ele>383.02</ele>
        <time>2024-12-08T10:59:10.642Z</time>
      </trkpt>
      <trkpt lat="43.3253532461822" lon="6.4912354946136475">
        <ele>384.21</ele>
        <time>2024-12-08T10:59:13.361Z</time>
      </trkpt>
      <trkpt lat="43.32550244405866" lon="6.491000214591622">
        <ele>385.63</ele>
        <time>2024-12-08T10:59:16.088Z</time>
      </trkpt>
      <trkpt lat="43.32551300525665" lon="6.490983618423343">
        <ele>386.88</ele>
        <time>2024-12-08T10:59:18.815Z</time>
      </trkpt>
      <trkpt lat="43.32551325671375" lon="6.490983366966248">
        <ele>388.13</ele>
        <time>2024-12-08T10:59:21.542Z</time>
      </trkpt>
      <trkpt lat="43.32561216317117" lon="6.490813298150897">
        <ele>389.55</ele>
        <time>2024-12-08T10:59:24.275Z</time>
      </trkpt>
      <trkpt lat="43.32562230527401" lon="6.490795947611332">
        <ele>390.86</ele>
        <time>2024-12-08T10:59:27.008Z</time>
      </trkpt>
      <trkpt lat="43.325622556731105" lon="6.490795612335205">
        <ele>392.17</ele>
        <time>2024-12-08T10:59:29.742Z</time>
      </trkpt>
      <trkpt lat="43.32549054175615" lon="6.490403758361936">
        <ele>393.63</ele>
        <time>2024-12-08T10:59:32.487Z</time>
      </trkpt>
      <trkpt lat="43.32545776851475" lon="6.490306779742241">
        <ele>394.98</ele>
        <time>2024-12-08T10:59:35.234Z</time>
      </trkpt>
      <trkpt lat="43.32545097917318" lon="6.490286495536566">
        <ele>396.32</ele>
        <time>2024-12-08T10:59:37.982Z</time>
      </trkpt>
      <trkpt lat="43.32545081153512" lon="6.4902859926223755">
        <ele>397.66</ele>
        <time>2024-12-08T10:59:40.730Z</time>
      </trkpt>
      <trkpt lat="43.32536615431309" lon="6.489947279915214">
        <ele>398.95</ele>
        <time>2024-12-08T10:59:43.487Z</time>
      </trkpt>
      <trkpt lat="43.32536104135215" lon="6.48992657661438">
        <ele>400.29</ele>
        <time>2024-12-08T10:59:46.245Z</time>
      </trkpt>
      <trkpt lat="43.32536104135215" lon="6.489926492795348">
        <ele>401.63</ele>
        <time>2024-12-08T10:59:49.003Z</time>
      </trkpt>
      <trkpt lat="43.32557989284396" lon="6.489616110920906">
        <ele>403.21</ele>
        <time>2024-12-08T10:59:51.772Z</time>
      </trkpt>
      <trkpt lat="43.32559489645064" lon="6.489594737067819">
        <ele>404.54</ele>
        <time>2024-12-08T10:59:54.541Z</time>
      </trkpt>
      <trkpt lat="43.325606379657984" lon="6.489578476175666">
        <ele>405.84</ele>
        <time>2024-12-08T10:59:57.311Z</time>
      </trkpt>
      <trkpt lat="43.325606882572174" lon="6.489577889442444">
        <ele>407.1</ele>
        <time>2024-12-08T11:00:00.081Z</time>
      </trkpt>
      <trkpt lat="43.32570847123861" lon="6.489313440397382">
        <ele>408.53</ele>
        <time>2024-12-08T11:00:02.859Z</time>
      </trkpt>
      <trkpt lat="43.32571601495147" lon="6.489293910562992">
        <ele>409.73</ele>
        <time>2024-12-08T11:00:05.637Z</time>
      </trkpt>
      <trkpt lat="43.32571618258953" lon="6.489293575286865">
        <ele>410.86</ele>
        <time>2024-12-08T11:00:08.415Z</time>
      </trkpt>
      <trkpt lat="43.32568299025297" lon="6.4889235980808735">
        <ele>412.01</ele>
        <time>2024-12-08T11:00:11.203Z</time>
      </trkpt>
      <trkpt lat="43.32568106241524" lon="6.488901972770691">
        <ele>413.0</ele>
        <time>2024-12-08T11:00:13.991Z</time>
      </trkpt>
      <trkpt lat="43.32568106241524" lon="6.488901888951659">
        <ele>413.92</ele>
        <time>2024-12-08T11:00:16.779Z</time>
      </trkpt>
      <trkpt lat="43.32573747262359" lon="6.488477345556021">
        <ele>414.86</ele>
        <time>2024-12-08T11:00:19.578Z</time>
      </trkpt>
      <trkpt lat="43.325759936124086" lon="6.488307528197765">
        <ele>415.57</ele>
        <time>2024-12-08T11:00:22.382Z</time>
      </trkpt>
      <trkpt lat="43.325762869790196" lon="6.488285651430488">
        <ele>416.18</ele>
        <time>2024-12-08T11:00:25.186Z</time>
      </trkpt>
      <trkpt lat="43.32576303742826" lon="6.488284980878234">
        <ele>416.68</ele>
        <time>2024-12-08T11:00:27.990Z</time>
      </trkpt>
      <trkpt lat="43.32597660832107" lon="6.4880165085196495">
        <ele>417.17</ele>
        <time>2024-12-08T11:00:30.804Z</time>
      </trkpt>
      <trkpt lat="43.32598876208067" lon="6.488001421093941">
        <ele>417.42</ele>
        <time>2024-12-08T11:00:33.619Z</time>
      </trkpt>
      <trkpt lat="43.32598934881389" lon="6.488000750541687">
        <ele>417.52</ele>
        <time>2024-12-08T11:00:36.434Z</time>
      </trkpt>
      <trkpt lat="43.326122369617224" lon="6.487746024504304">
        <ele>417.56</ele>
        <time>2024-12-08T11:00:39.257Z</time>
      </trkpt>
      <trkpt lat="43.32613192498684" lon="6.487727919593453">
        <ele>417.36</ele>
        <time>2024-12-08T11:00:42.081Z</time>
      </trkpt>
      <trkpt lat="43.326132344082" lon="6.4877272490412">
        <ele>416.99</ele>
        <time>2024-12-08T11:00:44.905Z</time>
      </trkpt>
      <trkpt lat="43.326237201690674" lon="6.487791538238525">
        <ele>416.46</ele>
        <time>2024-12-08T11:00:47.733Z</time>
      </trkpt>
      <trkpt lat="43.326451778411865" lon="6.487877368927002">
        <ele>415.79</ele>
        <time>2024-12-08T11:00:50.569Z</time>
      </trkpt>
      <trkpt lat="43.32674112170935" lon="6.487861275672913">
        <ele>414.8</ele>
        <time>2024-12-08T11:00:53.415Z</time>
      </trkpt>
      <trkpt lat="43.32703046500683" lon="6.487845182418823">
        <ele>413.5</ele>
        <time>2024-12-08T11:00:56.271Z</time>
      </trkpt>
      <trkpt lat="43.32731980830431" lon="6.487829089164734">
        <ele>412.08</ele>
        <time>2024-12-08T11:00:59.137Z</time>
      </trkpt>
      <trkpt lat="43.3276104927063" lon="6.4878129959106445">
        <ele>410.5</ele>
        <time>2024-12-08T11:01:02.013Z</time>
      </trkpt>
      <trkpt lat="43.32782506942749" lon="6.487898826599121">
        <ele>408.75</ele>
        <time>2024-12-08T11:01:04.897Z</time>
      </trkpt>
      <trkpt lat="43.327953815460205" lon="6.488027572631836">
        <ele>406.86</ele>
        <time>2024-12-08T11:01:07.787Z</time>
      </trkpt>
      <trkpt lat="43.32808264531195" lon="6.48825304582715">
        <ele>404.74</ele>
        <time>2024-12-08T11:01:10.684Z</time>
      </trkpt>
      <trkpt lat="43.328211307525635" lon="6.488478183746338">
        <ele>402.49</ele>
        <time>2024-12-08T11:01:13.588Z</time>
      </trkpt>
      <trkpt lat="43.32832932472229" lon="6.488639200106263">
        <ele>400.14</ele>
        <time>2024-12-08T11:01:16.498Z</time>
      </trkpt>
      <trkpt lat="43.328447341918945" lon="6.488800048828125">
        <ele>397.74</ele>
        <time>2024-12-08T11:01:19.414Z</time>
      </trkpt>
      <trkpt lat="43.328683376312256" lon="6.488864421844482">
        <ele>395.02</ele>
        <time>2024-12-08T11:01:22.338Z</time>
      </trkpt>
      <trkpt lat="43.32883358001709" lon="6.488885879516602">
        <ele>392.21</ele>
        <time>2024-12-08T11:01:25.268Z</time>
      </trkpt>
      <trkpt lat="43.329080091789365" lon="6.488767946138978">
        <ele>389.09</ele>
        <time>2024-12-08T11:01:28.207Z</time>
      </trkpt>
      <trkpt lat="43.32932710647583" lon="6.488649845123291">
        <ele>385.88</ele>
        <time>2024-12-08T11:01:31.155Z</time>
      </trkpt>
      <trkpt lat="43.3296275138855" lon="6.488692760467529">
        <ele>382.63</ele>
        <time>2024-12-08T11:01:34.113Z</time>
      </trkpt>
      <trkpt lat="43.329852567985654" lon="6.488789236173034">
        <ele>379.15</ele>
        <time>2024-12-08T11:01:37.080Z</time>
      </trkpt>
      <trkpt lat="43.330078125" lon="6.488885879516602">
        <ele>375.51</ele>
        <time>2024-12-08T11:01:40.055Z</time>
      </trkpt>
      <trkpt lat="43.33032103255391" lon="6.488928711041808">
        <ele>371.68</ele>
        <time>2024-12-08T11:01:43.039Z</time>
      </trkpt>
      <trkpt lat="43.33056394010782" lon="6.488971542567015">
        <ele>367.79</ele>
        <time>2024-12-08T11:01:46.031Z</time>
      </trkpt>
      <trkpt lat="43.33080768585205" lon="6.489014625549316">
        <ele>363.83</ele>
        <time>2024-12-08T11:01:49.032Z</time>
      </trkpt>
      <trkpt lat="43.33097909577191" lon="6.489003896713257">
        <ele>359.8</ele>
        <time>2024-12-08T11:01:52.039Z</time>
      </trkpt>
      <trkpt lat="43.33115100860596" lon="6.488993167877197">
        <ele>355.66</ele>
        <time>2024-12-08T11:01:55.052Z</time>
      </trkpt>
      <trkpt lat="43.33132250234485" lon="6.489100372418761">
        <ele>351.55</ele>
        <time>2024-12-08T11:01:58.071Z</time>
      </trkpt>
      <trkpt lat="43.33149433135986" lon="6.489207744598389">
        <ele>347.34</ele>
        <time>2024-12-08T11:02:01.097Z</time>
      </trkpt>
      <trkpt lat="43.33155870437622" lon="6.489057540893555">
        <ele>343.23</ele>
        <time>2024-12-08T11:02:04.127Z</time>
      </trkpt>
      <trkpt lat="43.33160161972046" lon="6.488907337188721">
        <ele>339.15</ele>
        <time>2024-12-08T11:02:07.162Z</time>
      </trkpt>
      <trkpt lat="43.33158016204834" lon="6.48867130279541">
        <ele>335.0</ele>
        <time>2024-12-08T11:02:10.203Z</time>
      </trkpt>
      <trkpt lat="43.3315372467041" lon="6.488499641418457">
        <ele>330.9</ele>
        <time>2024-12-08T11:02:13.248Z</time>
      </trkpt>
      <trkpt lat="43.33176590502262" lon="6.4885996375232935">
        <ele>326.88</ele>
        <time>2024-12-08T11:02:16.302Z</time>
      </trkpt>
      <trkpt lat="43.33199456334114" lon="6.488699717447162">
        <ele>322.83</ele>
        <time>2024-12-08T11:02:19.364Z</time>
      </trkpt>
      <trkpt lat="43.332223892211914" lon="6.488800048828125">
        <ele>318.86</ele>
        <time>2024-12-08T11:02:22.435Z</time>
      </trkpt>
      <trkpt lat="43.33249177783728" lon="6.488757133483887">
        <ele>314.93</ele>
        <time>2024-12-08T11:02:25.515Z</time>
      </trkpt>
      <trkpt lat="43.33276033401489" lon="6.488714218139648">
        <ele>311.26</ele>
        <time>2024-12-08T11:02:28.604Z</time>
      </trkpt>
      <trkpt lat="43.33291053771973" lon="6.488778591156006">
        <ele>307.82</ele>
        <time>2024-12-08T11:02:31.699Z</time>
      </trkpt>
      <trkpt lat="43.33307155407965" lon="6.4890039805322886">
        <ele>304.51</ele>
        <time>2024-12-08T11:02:34.802Z</time>
      </trkpt>
      <trkpt lat="43.333232402801514" lon="6.489229202270508">
        <ele>301.34</ele>
        <time>2024-12-08T11:02:37.913Z</time>
      </trkpt>
      <trkpt lat="43.333393251523376" lon="6.489357864484191">
        <ele>298.35</ele>
        <time>2024-12-08T11:02:41.031Z</time>
      </trkpt>
      <trkpt lat="43.3335542678833" lon="6.4894866943359375">
        <ele>295.56</ele>
        <time>2024-12-08T11:02:44.155Z</time>
      </trkpt>
      <trkpt lat="43.33385467529297" lon="6.489508152008057">
        <ele>292.77</ele>
        <time>2024-12-08T11:02:47.290Z</time>
      </trkpt>
      <trkpt lat="43.334058271721005" lon="6.4894866943359375">
        <ele>290.29</ele>
        <time>2024-12-08T11:02:50.432Z</time>
      </trkpt>
      <trkpt lat="43.33426237106323" lon="6.489465236663818">
        <ele>288.06</ele>
        <time>2024-12-08T11:02:53.581Z</time>
      </trkpt>
      <trkpt lat="43.334412574768066" lon="6.489529609680176">
        <ele>286.16</ele>
        <time>2024-12-08T11:02:56.736Z</time>
      </trkpt>
      <trkpt lat="43.33458423614502" lon="6.489658355712891">
        <ele>284.46</ele>
        <time>2024-12-08T11:02:59.897Z</time>
      </trkpt>
      <trkpt lat="43.33464860916138" lon="6.489808559417725">
        <ele>283.16</ele>
        <time>2024-12-08T11:03:03.063Z</time>
      </trkpt>
      <trkpt lat="43.33473443984985" lon="6.490216255187988">
        <ele>282.12</ele>
        <time>2024-12-08T11:03:06.240Z</time>
      </trkpt>
      <trkpt lat="43.334873830899596" lon="6.490334188565612">
        <ele>281.34</ele>
        <time>2024-12-08T11:03:09.422Z</time>
      </trkpt>
      <trkpt lat="43.3350133895874" lon="6.490452289581299">
        <ele>280.87</ele>
        <time>2024-12-08T11:03:12.610Z</time>
      </trkpt>
      <trkpt lat="43.334970474243164" lon="6.490795612335205">
        <ele>280.77</ele>
        <time>2024-12-08T11:03:15.807Z</time>
      </trkpt>
      <trkpt lat="43.33499193191528" lon="6.49092435836792">
        <ele>280.86</ele>
        <time>2024-12-08T11:03:19.007Z</time>
      </trkpt>
      <trkpt lat="43.33506711758673" lon="6.491214539855719">
        <ele>281.24</ele>
        <time>2024-12-08T11:03:22.215Z</time>
      </trkpt>
      <trkpt lat="43.33514213562012" lon="6.491503715515137">
        <ele>281.81</ele>
        <time>2024-12-08T11:03:25.431Z</time>
      </trkpt>
      <trkpt lat="43.33529233932495" lon="6.491739749908447">
        <ele>282.57</ele>
        <time>2024-12-08T11:03:28.655Z</time>
      </trkpt>
      <trkpt lat="43.33550691604614" lon="6.491975784301758">
        <ele>283.58</ele>
        <time>2024-12-08T11:03:31.889Z</time>
      </trkpt>
      <trkpt lat="43.33563566207886" lon="6.492276191711426">
        <ele>284.83</ele>
        <time>2024-12-08T11:03:35.132Z</time>
      </trkpt>
      <trkpt lat="43.335721492767334" lon="6.492319107055664">
        <ele>286.01</ele>
        <time>2024-12-08T11:03:38.378Z</time>
      </trkpt>
      <trkpt lat="43.335914611816406" lon="6.492254734039307">
        <ele>287.37</ele>
        <time>2024-12-08T11:03:41.631Z</time>
      </trkpt>
      <trkpt lat="43.33604335784912" lon="6.4919328689575195">
        <ele>288.56</ele>
        <time>2024-12-08T11:03:44.893Z</time>
      </trkpt>
      <trkpt lat="43.33608627319336" lon="6.491868495941162">
        <ele>289.91</ele>
        <time>2024-12-08T11:03:48.157Z</time>
      </trkpt>
      <trkpt lat="43.33623647689819" lon="6.491847038269043">
        <ele>291.43</ele>
        <time>2024-12-08T11:03:51.427Z</time>
      </trkpt>
      <trkpt lat="43.336488269269466" lon="6.4919166918843985">
        <ele>293.07</ele>
        <time>2024-12-08T11:03:54.706Z</time>
      </trkpt>
      <trkpt lat="43.33674014545977" lon="6.491986345499754">
        <ele>294.68</ele>
        <time>2024-12-08T11:03:57.994Z</time>
      </trkpt>
      <trkpt lat="43.336992021650076" lon="6.492055999115109">
        <ele>296.31</ele>
        <time>2024-12-08T11:04:01.291Z</time>
      </trkpt>
      <trkpt lat="43.33724498748779" lon="6.492125988006592">
        <ele>297.94</ele>
        <time>2024-12-08T11:04:04.597Z</time>
      </trkpt>
      <trkpt lat="43.337523601949215" lon="6.49213663302362">
        <ele>299.48</ele>
        <time>2024-12-08T11:04:07.913Z</time>
      </trkpt>
      <trkpt lat="43.33780288696289" lon="6.492147445678711">
        <ele>300.99</ele>
        <time>2024-12-08T11:04:11.238Z</time>
      </trkpt>
      <trkpt lat="43.337953090667725" lon="6.4920830726623535">
        <ele>302.44</ele>
        <time>2024-12-08T11:04:14.569Z</time>
      </trkpt>
      <trkpt lat="43.33817806094885" lon="6.492061614990234">
        <ele>303.88</ele>
        <time>2024-12-08T11:04:17.908Z</time>
      </trkpt>
      <trkpt lat="43.33840370178223" lon="6.492040157318115">
        <ele>305.28</ele>
        <time>2024-12-08T11:04:21.255Z</time>
      </trkpt>
      <trkpt lat="43.33857536315918" lon="6.4920830726623535">
        <ele>306.64</ele>
        <time>2024-12-08T11:04:24.608Z</time>
      </trkpt>
      <trkpt lat="43.33886479027569" lon="6.4922223798930645">
        <ele>307.97</ele>
        <time>2024-12-08T11:04:27.972Z</time>
      </trkpt>
      <trkpt lat="43.3391547203064" lon="6.492362022399902">
        <ele>309.3</ele>
        <time>2024-12-08T11:04:31.346Z</time>
      </trkpt>
      <trkpt lat="43.33936904557049" lon="6.4923083782196045">
        <ele>310.47</ele>
        <time>2024-12-08T11:04:34.728Z</time>
      </trkpt>
      <trkpt lat="43.33958387374878" lon="6.492254734039307">
        <ele>311.66</ele>
        <time>2024-12-08T11:04:38.118Z</time>
      </trkpt>
      <trkpt lat="43.33975553512573" lon="6.492297649383545">
        <ele>312.87</ele>
        <time>2024-12-08T11:04:41.514Z</time>
      </trkpt>
      <trkpt lat="43.340044878423214" lon="6.492222547531128">
        <ele>313.83</ele>
        <time>2024-12-08T11:04:44.920Z</time>
      </trkpt>
      <trkpt lat="43.34033489227295" lon="6.492147445678711">
        <ele>314.73</ele>
        <time>2024-12-08T11:04:48.336Z</time>
      </trkpt>
      <trkpt lat="43.34048509597778" lon="6.49216890335083">
        <ele>315.72</ele>
        <time>2024-12-08T11:04:51.758Z</time>
      </trkpt>
      <trkpt lat="43.34063529968262" lon="6.492276191711426">
        <ele>316.75</ele>
        <time>2024-12-08T11:04:55.186Z</time>
      </trkpt>
      <trkpt lat="43.34078550338745" lon="6.492469310760498">
        <ele>317.81</ele>
        <time>2024-12-08T11:04:58.621Z</time>
      </trkpt>
      <trkpt lat="43.340914249420166" lon="6.492748260498047">
        <ele>318.98</ele>
        <time>2024-12-08T11:05:02.064Z</time>
      </trkpt>
      <trkpt lat="43.34112145006657" lon="6.492826798930764">
        <ele>319.88</ele>
        <time>2024-12-08T11:05:05.515Z</time>
      </trkpt>
      <trkpt lat="43.34132865071297" lon="6.492905421182513">
        <ele>320.73</ele>
        <time>2024-12-08T11:05:08.973Z</time>
      </trkpt>
      <trkpt lat="43.34153652191162" lon="6.492984294891357">
        <ele>321.63</ele>
        <time>2024-12-08T11:05:12.439Z</time>
      </trkpt>
      <trkpt lat="43.341708183288574" lon="6.492919921875">
        <ele>322.48</ele>
        <time>2024-12-08T11:05:15.911Z</time>
      </trkpt>
      <trkpt lat="43.34185847081244" lon="6.492769718170166">
        <ele>323.34</ele>
        <time>2024-12-08T11:05:19.390Z</time>
      </trkpt>
      <trkpt lat="43.34213733673096" lon="6.492576599121094">
        <ele>324.32</ele>
        <time>2024-12-08T11:05:22.880Z</time>
      </trkpt>
      <trkpt lat="43.342201709747314" lon="6.492404937744141">
        <ele>325.17</ele>
        <time>2024-12-08T11:05:26.374Z</time>
      </trkpt>
      <trkpt lat="43.342201793566346" lon="6.492555141448975">
        <ele>325.97</ele>
        <time>2024-12-08T11:05:29.872Z</time>
      </trkpt>
      <trkpt lat="43.34218033589423" lon="6.492705345153809">
        <ele>326.78</ele>
        <time>2024-12-08T11:05:33.374Z</time>
      </trkpt>
      <trkpt lat="43.34211587905884" lon="6.492791175842285">
        <ele>327.56</ele>
        <time>2024-12-08T11:05:36.879Z</time>
      </trkpt>
      <trkpt lat="43.342266166582704" lon="6.493027210235596">
        <ele>328.49</ele>
        <time>2024-12-08T11:05:40.392Z</time>
      </trkpt>
      <trkpt lat="43.34226608276367" lon="6.493027210235596">
        <ele>329.27</ele>
        <time>2024-12-08T11:05:43.905Z</time>
      </trkpt>
      <trkpt lat="43.34239482879639" lon="6.493263244628906">
        <ele>330.13</ele>
        <time>2024-12-08T11:05:47.426Z</time>
      </trkpt>
      <trkpt lat="43.34254503250122" lon="6.493477821350098">
        <ele>330.96</ele>
        <time>2024-12-08T11:05:50.955Z</time>
      </trkpt>
      <trkpt lat="43.342673946172" lon="6.493778647854924">
        <ele>331.86</ele>
        <time>2024-12-08T11:05:54.492Z</time>
      </trkpt>
      <trkpt lat="43.34280252456665" lon="6.494078636169434">
        <ele>332.61</ele>
        <time>2024-12-08T11:05:58.038Z</time>
      </trkpt>
      <trkpt lat="43.34288852289319" lon="6.494390359148383">
        <ele>333.39</ele>
        <time>2024-12-08T11:06:01.593Z</time>
      </trkpt>
      <trkpt lat="43.3429741859436" lon="6.494700908660889">
        <ele>334.22</ele>
        <time>2024-12-08T11:06:05.156Z</time>
      </trkpt>
      <trkpt lat="43.34316738881171" lon="6.495001567527652">
        <ele>334.82</ele>
        <time>2024-12-08T11:06:08.730Z</time>
      </trkpt>
      <trkpt lat="43.34336042404175" lon="6.495301723480225">
        <ele>335.39</ele>
        <time>2024-12-08T11:06:12.314Z</time>
      </trkpt>
      <trkpt lat="43.3434356097132" lon="6.495516635477543">
        <ele>336.02</ele>
        <time>2024-12-08T11:06:15.904Z</time>
      </trkpt>
      <trkpt lat="43.34351062774658" lon="6.495730876922607">
        <ele>336.74</ele>
        <time>2024-12-08T11:06:19.500Z</time>
      </trkpt>
      <trkpt lat="43.343714559450746" lon="6.495988452807069">
        <ele>337.38</ele>
        <time>2024-12-08T11:06:23.106Z</time>
      </trkpt>
      <trkpt lat="43.343918323516846" lon="6.496245861053467">
        <ele>338.0</ele>
        <time>2024-12-08T11:06:26.721Z</time>
      </trkpt>
      <trkpt lat="43.34400415420532" lon="6.496460437774658">
        <ele>338.63</ele>
        <time>2024-12-08T11:06:30.343Z</time>
      </trkpt>
      <trkpt lat="43.3440363407135" lon="6.4967292454093695">
        <ele>339.24</ele>
        <time>2024-12-08T11:06:33.972Z</time>
      </trkpt>
      <trkpt lat="43.34406852722168" lon="6.496996879577637">
        <ele>339.73</ele>
        <time>2024-12-08T11:06:37.608Z</time>
      </trkpt>
      <trkpt lat="43.344197273254395" lon="6.497340202331543">
        <ele>340.02</ele>
        <time>2024-12-08T11:06:41.253Z</time>
      </trkpt>
      <trkpt lat="43.344197273254395" lon="6.497490406036377">
        <ele>340.37</ele>
        <time>2024-12-08T11:06:44.902Z</time>
      </trkpt>
      <trkpt lat="43.344154357910156" lon="6.497597694396973">
        <ele>340.75</ele>
        <time>2024-12-08T11:06:48.554Z</time>
      </trkpt>
      <trkpt lat="43.34400415420532" lon="6.497683525085449">
        <ele>341.17</ele>
        <time>2024-12-08T11:06:52.212Z</time>
      </trkpt>
      <trkpt lat="43.34384330548346" lon="6.497769271954894">
        <ele>341.52</ele>
        <time>2024-12-08T11:06:55.876Z</time>
      </trkpt>
      <trkpt lat="43.343682289123535" lon="6.497855186462402">
        <ele>341.9</ele>
        <time>2024-12-08T11:06:59.546Z</time>
      </trkpt>
      <trkpt lat="43.34343569353223" lon="6.497919475659728">
        <ele>342.35</ele>
        <time>2024-12-08T11:07:03.225Z</time>
      </trkpt>
      <trkpt lat="43.343188762664795" lon="6.497983932495117">
        <ele>342.88</ele>
        <time>2024-12-08T11:07:06.913Z</time>
      </trkpt>
      <trkpt lat="43.34301693364978" lon="6.49825232103467">
        <ele>343.18</ele>
        <time>2024-12-08T11:07:10.610Z</time>
      </trkpt>
      <trkpt lat="43.34284543991089" lon="6.498520374298096">
        <ele>343.67</ele>
        <time>2024-12-08T11:07:14.316Z</time>
      </trkpt>
      <trkpt lat="43.34282398223877" lon="6.4986491203308105">
        <ele>343.9</ele>
        <time>2024-12-08T11:07:18.025Z</time>
      </trkpt>
      <trkpt lat="43.34293143823743" lon="6.498993029817939">
        <ele>343.83</ele>
        <time>2024-12-08T11:07:21.744Z</time>
      </trkpt>
      <trkpt lat="43.34303889423609" lon="6.499337023124099">
        <ele>343.91</ele>
        <time>2024-12-08T11:07:25.473Z</time>
      </trkpt>
      <trkpt lat="43.34314584732056" lon="6.499679088592529">
        <ele>344.0</ele>
        <time>2024-12-08T11:07:29.211Z</time>
      </trkpt>
      <trkpt lat="43.34314584732056" lon="6.499850749969482">
        <ele>344.15</ele>
        <time>2024-12-08T11:07:32.953Z</time>
      </trkpt>
      <trkpt lat="43.34312438964844" lon="6.500000953674316">
        <ele>344.31</ele>
        <time>2024-12-08T11:07:36.699Z</time>
      </trkpt>
      <trkpt lat="43.34301710128784" lon="6.500129699707031">
        <ele>344.58</ele>
        <time>2024-12-08T11:07:40.450Z</time>
      </trkpt>
      <trkpt lat="43.34286698140204" lon="6.500215446576476">
        <ele>344.98</ele>
        <time>2024-12-08T11:07:44.207Z</time>
      </trkpt>
      <trkpt lat="43.342716693878174" lon="6.500301361083984">
        <ele>345.35</ele>
        <time>2024-12-08T11:07:47.970Z</time>
      </trkpt>
      <trkpt lat="43.342598509043455" lon="6.500473106279969">
        <ele>345.52</ele>
        <time>2024-12-08T11:07:51.739Z</time>
      </trkpt>
      <trkpt lat="43.34248065948486" lon="6.500644683837891">
        <ele>345.64</ele>
        <time>2024-12-08T11:07:55.514Z</time>
      </trkpt>
      <trkpt lat="43.34223406389356" lon="6.5007625333964825">
        <ele>346.09</ele>
        <time>2024-12-08T11:07:59.298Z</time>
      </trkpt>
      <trkpt lat="43.34198713302612" lon="6.500880718231201">
        <ele>346.59</ele>
        <time>2024-12-08T11:08:03.091Z</time>
      </trkpt>
      <trkpt lat="43.341944217681885" lon="6.500988006591797">
        <ele>346.71</ele>
        <time>2024-12-08T11:08:06.887Z</time>
      </trkpt>
      <trkpt lat="43.341944217681885" lon="6.501224040985107">
        <ele>346.64</ele>
        <time>2024-12-08T11:08:10.689Z</time>
      </trkpt>
      <trkpt lat="43.34197640419006" lon="6.501449849456549">
        <ele>346.62</ele>
        <time>2024-12-08T11:08:14.497Z</time>
      </trkpt>
      <trkpt lat="43.34200859069824" lon="6.501674652099609">
        <ele>346.68</ele>
        <time>2024-12-08T11:08:18.311Z</time>
      </trkpt>
      <trkpt lat="43.34195477887988" lon="6.5019111055880785">
        <ele>346.89</ele>
        <time>2024-12-08T11:08:22.131Z</time>
      </trkpt>
      <trkpt lat="43.34190130233765" lon="6.5021467208862305">
        <ele>347.09</ele>
        <time>2024-12-08T11:08:25.958Z</time>
      </trkpt>
      <trkpt lat="43.34190130233765" lon="6.502404799684882">
        <ele>347.19</ele>
        <time>2024-12-08T11:08:29.791Z</time>
      </trkpt>
      <trkpt lat="43.34190130233765" lon="6.50266170501709">
        <ele>347.28</ele>
        <time>2024-12-08T11:08:33.631Z</time>
      </trkpt>
      <trkpt lat="43.34181547164917" lon="6.502811908721924">
        <ele>347.51</ele>
        <time>2024-12-08T11:08:37.476Z</time>
      </trkpt>
      <trkpt lat="43.341708183288574" lon="6.502940654754639">
        <ele>347.72</ele>
        <time>2024-12-08T11:08:41.326Z</time>
      </trkpt>
      <trkpt lat="43.34147240035236" lon="6.502976361662149">
        <ele>348.16</ele>
        <time>2024-12-08T11:08:45.184Z</time>
      </trkpt>
      <trkpt lat="43.34123661741614" lon="6.50301206856966">
        <ele>348.62</ele>
        <time>2024-12-08T11:08:49.050Z</time>
      </trkpt>
      <trkpt lat="43.34100008010864" lon="6.503047943115234">
        <ele>349.15</ele>
        <time>2024-12-08T11:08:52.925Z</time>
      </trkpt>
      <trkpt lat="43.340957164764404" lon="6.503133773803711">
        <ele>349.43</ele>
        <time>2024-12-08T11:08:56.802Z</time>
      </trkpt>
      <trkpt lat="43.340935707092285" lon="6.5032196044921875">
        <ele>349.7</ele>
        <time>2024-12-08T11:09:00.682Z</time>
      </trkpt>
      <trkpt lat="43.340957164764404" lon="6.503456141799688">
        <ele>349.87</ele>
        <time>2024-12-08T11:09:04.568Z</time>
      </trkpt>
      <trkpt lat="43.34097862243652" lon="6.503691673278809">
        <ele>350.13</ele>
        <time>2024-12-08T11:09:08.460Z</time>
      </trkpt>
      <trkpt lat="43.34097862243652" lon="6.50391748175025">
        <ele>350.56</ele>
        <time>2024-12-08T11:09:12.358Z</time>
      </trkpt>
      <trkpt lat="43.34097862243652" lon="6.5041422843933105">
        <ele>351.09</ele>
        <time>2024-12-08T11:09:16.261Z</time>
      </trkpt>
      <trkpt lat="43.34104299545288" lon="6.504549980163574">
        <ele>351.73</ele>
        <time>2024-12-08T11:09:20.175Z</time>
      </trkpt>
      <trkpt lat="43.3411611802876" lon="6.504840077832341">
        <ele>352.27</ele>
        <time>2024-12-08T11:09:24.097Z</time>
      </trkpt>
      <trkpt lat="43.34127902984619" lon="6.505129337310791">
        <ele>352.84</ele>
        <time>2024-12-08T11:09:28.028Z</time>
      </trkpt>
      <trkpt lat="43.341336362063885" lon="6.505552288144827">
        <ele>353.52</ele>
        <time>2024-12-08T11:09:31.970Z</time>
      </trkpt>
      <trkpt lat="43.34139369428158" lon="6.505975238978863">
        <ele>354.16</ele>
        <time>2024-12-08T11:09:35.923Z</time>
      </trkpt>
      <trkpt lat="43.341450691223145" lon="6.50639533996582">
        <ele>354.97</ele>
        <time>2024-12-08T11:09:39.887Z</time>
      </trkpt>
      <trkpt lat="43.341429233551025" lon="6.506781578063965">
        <ele>355.88</ele>
        <time>2024-12-08T11:09:43.861Z</time>
      </trkpt>
      <trkpt lat="43.341407775878906" lon="6.50691032409668">
        <ele>356.78</ele>
        <time>2024-12-08T11:09:47.838Z</time>
      </trkpt>
      <trkpt lat="43.341407775878906" lon="6.507243672385812">
        <ele>357.76</ele>
        <time>2024-12-08T11:09:51.824Z</time>
      </trkpt>
      <trkpt lat="43.341407775878906" lon="6.507575511932373">
        <ele>359.0</ele>
        <time>2024-12-08T11:09:55.818Z</time>
      </trkpt>
      <trkpt lat="43.341375505551696" lon="6.507984129711986">
        <ele>360.45</ele>
        <time>2024-12-08T11:09:59.823Z</time>
      </trkpt>
      <trkpt lat="43.34134340286255" lon="6.5083909034729">
        <ele>362.02</ele>
        <time>2024-12-08T11:10:03.838Z</time>
      </trkpt>
      <trkpt lat="43.34125757217407" lon="6.508584022521973">
        <ele>363.31</ele>
        <time>2024-12-08T11:10:07.859Z</time>
      </trkpt>
      <trkpt lat="43.34104299545288" lon="6.508734226226807">
        <ele>364.41</ele>
        <time>2024-12-08T11:10:11.888Z</time>
      </trkpt>
      <trkpt lat="43.34081752225757" lon="6.509013259783387">
        <ele>365.92</ele>
        <time>2024-12-08T11:10:15.928Z</time>
      </trkpt>
      <trkpt lat="43.34059238433838" lon="6.509292125701904">
        <ele>367.55</ele>
        <time>2024-12-08T11:10:19.979Z</time>
      </trkpt>
      <trkpt lat="43.34043153561652" lon="6.50936714373529">
        <ele>368.91</ele>
        <time>2024-12-08T11:10:24.036Z</time>
      </trkpt>
      <trkpt lat="43.34027051925659" lon="6.509442329406738">
        <ele>370.27</ele>
        <time>2024-12-08T11:10:28.098Z</time>
      </trkpt>
      <trkpt lat="43.3400990255177" lon="6.509463703259826">
        <ele>371.66</ele>
        <time>2024-12-08T11:10:32.166Z</time>
      </trkpt>
      <trkpt lat="43.339927196502686" lon="6.509485244750977">
        <ele>373.1</ele>
        <time>2024-12-08T11:10:36.241Z</time>
      </trkpt>
      <trkpt lat="43.33979828283191" lon="6.509689260274172">
        <ele>374.91</ele>
        <time>2024-12-08T11:10:40.322Z</time>
      </trkpt>
      <trkpt lat="43.339669704437256" lon="6.50989294052124">
        <ele>376.56</ele>
        <time>2024-12-08T11:10:44.410Z</time>
      </trkpt>
      <trkpt lat="43.339669704437256" lon="6.510021686553955">
        <ele>378.25</ele>
        <time>2024-12-08T11:10:48.502Z</time>
      </trkpt>
      <trkpt lat="43.339941361919045" lon="6.510236179456115">
        <ele>380.31</ele>
        <time>2024-12-08T11:10:52.605Z</time>
      </trkpt>
      <trkpt lat="43.34021310321987" lon="6.5104506723582745">
        <ele>382.06</ele>
        <time>2024-12-08T11:10:56.719Z</time>
      </trkpt>
      <trkpt lat="43.34048509597778" lon="6.510665416717529">
        <ele>384.11</ele>
        <time>2024-12-08T11:11:00.844Z</time>
      </trkpt>
      <trkpt lat="43.340656757354736" lon="6.510879993438721">
        <ele>386.07</ele>
        <time>2024-12-08T11:11:04.977Z</time>
      </trkpt>
      <trkpt lat="43.340699672698975" lon="6.51113748550415">
        <ele>387.9</ele>
        <time>2024-12-08T11:11:09.116Z</time>
      </trkpt>
      <trkpt lat="43.34064946509898" lon="6.511553227901459">
        <ele>389.56</ele>
        <time>2024-12-08T11:11:13.266Z</time>
      </trkpt>
      <trkpt lat="43.34059925749898" lon="6.511969054117799">
        <ele>391.23</ele>
        <time>2024-12-08T11:11:17.427Z</time>
      </trkpt>
      <trkpt lat="43.34054946899414" lon="6.5123820304870605">
        <ele>392.83</ele>
        <time>2024-12-08T11:11:21.599Z</time>
      </trkpt>
      <trkpt lat="43.34057092666626" lon="6.51263952255249">
        <ele>394.61</ele>
        <time>2024-12-08T11:11:25.777Z</time>
      </trkpt>
      <trkpt lat="43.34073739126325" lon="6.512924088165164">
        <ele>396.65</ele>
        <time>2024-12-08T11:11:29.965Z</time>
      </trkpt>
      <trkpt lat="43.34090385586023" lon="6.513208653777838">
        <ele>398.56</ele>
        <time>2024-12-08T11:11:34.162Z</time>
      </trkpt>
      <trkpt lat="43.34107032045722" lon="6.513493303209543">
        <ele>400.45</ele>
        <time>2024-12-08T11:11:38.368Z</time>
      </trkpt>
      <trkpt lat="43.341236198320985" lon="6.513776779174805">
        <ele>402.47</ele>
        <time>2024-12-08T11:11:42.584Z</time>
      </trkpt>
      <trkpt lat="43.341450691223145" lon="6.513969898223877">
        <ele>404.76</ele>
        <time>2024-12-08T11:11:46.809Z</time>
      </trkpt>
      <trkpt lat="43.341515148058534" lon="6.514328308403492">
        <ele>406.62</ele>
        <time>2024-12-08T11:11:51.043Z</time>
      </trkpt>
      <trkpt lat="43.341579688712955" lon="6.514686718583107">
        <ele>408.5</ele>
        <time>2024-12-08T11:11:55.286Z</time>
      </trkpt>
      <trkpt lat="43.34164381027222" lon="6.515042781829834">
        <ele>410.56</ele>
        <time>2024-12-08T11:11:59.539Z</time>
      </trkpt>
      <trkpt lat="43.34160089492798" lon="6.515192985534668">
        <ele>412.37</ele>
        <time>2024-12-08T11:12:03.796Z</time>
      </trkpt>
      <trkpt lat="43.34145060740411" lon="6.515375375747681">
        <ele>413.99</ele>
        <time>2024-12-08T11:12:08.060Z</time>
      </trkpt>
      <trkpt lat="43.34130048751831" lon="6.515557765960693">
        <ele>415.72</ele>
        <time>2024-12-08T11:12:12.331Z</time>
      </trkpt>
      <trkpt lat="43.34107518196106" lon="6.5157615300267935">
        <ele>417.37</ele>
        <time>2024-12-08T11:12:16.611Z</time>
      </trkpt>
      <trkpt lat="43.34084987640381" lon="6.515965461730957">
        <ele>418.87</ele>
        <time>2024-12-08T11:12:20.901Z</time>
      </trkpt>
      <trkpt lat="43.34082841873169" lon="6.516072750091553">
        <ele>420.55</ele>
        <time>2024-12-08T11:12:25.194Z</time>
      </trkpt>
      <trkpt lat="43.34089279174805" lon="6.516330242156982">
        <ele>422.36</ele>
        <time>2024-12-08T11:12:29.494Z</time>
      </trkpt>
      <trkpt lat="43.34102153778076" lon="6.516523361206055">
        <ele>424.05</ele>
        <time>2024-12-08T11:12:33.800Z</time>
      </trkpt>
      <trkpt lat="43.341214656829834" lon="6.516673564910889">
        <ele>425.78</ele>
        <time>2024-12-08T11:12:38.114Z</time>
      </trkpt>
      <trkpt lat="43.34134340286255" lon="6.51688814163208">
        <ele>427.22</ele>
        <time>2024-12-08T11:12:42.435Z</time>
      </trkpt>
      <trkpt lat="43.34156862460077" lon="6.5170597191900015">
        <ele>428.99</ele>
        <time>2024-12-08T11:12:46.765Z</time>
      </trkpt>
      <trkpt lat="43.34179401397705" lon="6.517231464385986">
        <ele>430.54</ele>
        <time>2024-12-08T11:12:51.104Z</time>
      </trkpt>
      <trkpt lat="43.3420298807323" lon="6.517397677525878">
        <ele>431.96</ele>
        <time>2024-12-08T11:12:55.453Z</time>
      </trkpt>
      <trkpt lat="43.34226583130658" lon="6.51756389066577">
        <ele>433.35</ele>
        <time>2024-12-08T11:12:59.811Z</time>
      </trkpt>
      <trkpt lat="43.342501781880856" lon="6.517730103805661">
        <ele>434.79</ele>
        <time>2024-12-08T11:13:04.178Z</time>
      </trkpt>
      <trkpt lat="43.34273815155029" lon="6.51789665222168">
        <ele>436.29</ele>
        <time>2024-12-08T11:13:08.555Z</time>
      </trkpt>
      <trkpt lat="43.3427410852164" lon="6.517901262268424">
        <ele>437.43</ele>
        <time>2024-12-08T11:13:12.932Z</time>
      </trkpt>
      <trkpt lat="43.342751897871494" lon="6.517918528988957">
        <ele>438.49</ele>
        <time>2024-12-08T11:13:17.309Z</time>
      </trkpt>
      <trkpt lat="43.34275256842375" lon="6.517919534817338">
        <ele>439.52</ele>
        <time>2024-12-08T11:13:21.686Z</time>
      </trkpt>
      <trkpt lat="43.342768074944615" lon="6.517941495403647">
        <ele>440.47</ele>
        <time>2024-12-08T11:13:26.064Z</time>
      </trkpt>
      <trkpt lat="43.34279615432024" lon="6.517973681911826">
        <ele>441.37</ele>
        <time>2024-12-08T11:13:30.443Z</time>
      </trkpt>
      <trkpt lat="43.34293671883643" lon="6.5181841515004635">
        <ele>442.12</ele>
        <time>2024-12-08T11:13:34.830Z</time>
      </trkpt>
      <trkpt lat="43.34295951761305" lon="6.518219523131847">
        <ele>442.9</ele>
        <time>2024-12-08T11:13:39.218Z</time>
      </trkpt>
      <trkpt lat="43.34298709407449" lon="6.518246848136187">
        <ele>443.67</ele>
        <time>2024-12-08T11:13:43.607Z</time>
      </trkpt>
      <trkpt lat="43.34301425144076" lon="6.518273586407304">
        <ele>444.39</ele>
        <time>2024-12-08T11:13:47.997Z</time>
      </trkpt>
      <trkpt lat="43.343040654435754" lon="6.518298732116818">
        <ele>445.06</ele>
        <time>2024-12-08T11:13:52.388Z</time>
      </trkpt>
      <trkpt lat="43.34310385398567" lon="6.518332930281758">
        <ele>445.76</ele>
        <time>2024-12-08T11:13:56.782Z</time>
      </trkpt>
      <trkpt lat="43.343164790421724" lon="6.518367798998952">
        <ele>446.43</ele>
        <time>2024-12-08T11:14:01.178Z</time>
      </trkpt>
      <trkpt lat="43.343195552006364" lon="6.518384562805295">
        <ele>447.03</ele>
        <time>2024-12-08T11:14:05.575Z</time>
      </trkpt>
      <trkpt lat="43.343226816505194" lon="6.518398057669401">
        <ele>447.62</ele>
        <time>2024-12-08T11:14:09.973Z</time>
      </trkpt>
      <trkpt lat="43.34326285868883" lon="6.5184135641902685">
        <ele>448.19</ele>
        <time>2024-12-08T11:14:14.373Z</time>
      </trkpt>
      <trkpt lat="43.3432973921299" lon="6.518425885587931">
        <ele>448.73</ele>
        <time>2024-12-08T11:14:18.774Z</time>
      </trkpt>
      <trkpt lat="43.343355813995004" lon="6.518451115116477">
        <ele>449.28</ele>
        <time>2024-12-08T11:14:23.177Z</time>
      </trkpt>
      <trkpt lat="43.34341901354492" lon="6.518474584445357">
        <ele>449.8</ele>
        <time>2024-12-08T11:14:27.582Z</time>
      </trkpt>
      <trkpt lat="43.34345296025276" lon="6.5184904262423515">
        <ele>450.27</ele>
        <time>2024-12-08T11:14:31.989Z</time>
      </trkpt>
      <trkpt lat="43.34349000826478" lon="6.5185063518583775">
        <ele>450.73</ele>
        <time>2024-12-08T11:14:36.397Z</time>
      </trkpt>
      <trkpt lat="43.34352479316294" lon="6.518519427627325">
        <ele>451.17</ele>
        <time>2024-12-08T11:14:40.806Z</time>
      </trkpt>
      <trkpt lat="43.34356192499399" lon="6.518535604700446">
        <ele>451.59</ele>
        <time>2024-12-08T11:14:45.217Z</time>
      </trkpt>
      <trkpt lat="43.34373828023672" lon="6.518665524199605">
        <ele>452.01</ele>
        <time>2024-12-08T11:14:49.635Z</time>
      </trkpt>
      <trkpt lat="43.343768790364265" lon="6.51869066990912">
        <ele>452.36</ele>
        <time>2024-12-08T11:14:54.054Z</time>
      </trkpt>
      <trkpt lat="43.34379770793021" lon="6.518718162551522">
        <ele>452.69</ele>
        <time>2024-12-08T11:14:58.474Z</time>
      </trkpt>
      <trkpt lat="43.34382662549615" lon="6.518747750669718">
        <ele>453.0</ele>
        <time>2024-12-08T11:15:02.895Z</time>
      </trkpt>
      <trkpt lat="43.343851771205664" lon="6.518776500597596">
        <ele>453.29</ele>
        <time>2024-12-08T11:15:07.318Z</time>
      </trkpt>
      <trkpt lat="43.34394698962569" lon="6.518887812271714">
        <ele>453.55</ele>
        <time>2024-12-08T11:15:11.745Z</time>
      </trkpt>
      <trkpt lat="43.3439758233726" lon="6.518922932446003">
        <ele>453.78</ele>
        <time>2024-12-08T11:15:16.173Z</time>
      </trkpt>
      <trkpt lat="43.34400096908212" lon="6.51895847171545">
        <ele>454.01</ele>
        <time>2024-12-08T11:15:20.603Z</time>
      </trkpt>
      <trkpt lat="43.34402980282903" lon="6.518990322947502">
        <ele>454.23</ele>
        <time>2024-12-08T11:15:25.034Z</time>
      </trkpt>
      <trkpt lat="43.34405587054789" lon="6.519019827246666">
        <ele>454.46</ele>
        <time>2024-12-08T11:15:29.466Z</time>
      </trkpt>
      <trkpt lat="43.34411345422268" lon="6.519061233848333">
        <ele>454.71</ele>
        <time>2024-12-08T11:15:33.900Z</time>
      </trkpt>
      <trkpt lat="43.34425259381533" lon="6.519151674583554">
        <ele>455.09</ele>
        <time>2024-12-08T11:15:38.340Z</time>
      </trkpt>
      <trkpt lat="43.34428058937192" lon="6.519173970445991">
        <ele>455.33</ele>
        <time>2024-12-08T11:15:42.781Z</time>
      </trkpt>
      <trkpt lat="43.34431135095656" lon="6.51918226853013">
        <ele>455.62</ele>
        <time>2024-12-08T11:15:47.223Z</time>
      </trkpt>
      <trkpt lat="43.344338508322835" lon="6.519190734252334">
        <ele>455.88</ele>
        <time>2024-12-08T11:15:51.666Z</time>
      </trkpt>
      <trkpt lat="43.34436566568911" lon="6.519199283793569">
        <ele>456.12</ele>
        <time>2024-12-08T11:15:56.110Z</time>
      </trkpt>
      <trkpt lat="43.3445218205452" lon="6.519251335412264">
        <ele>456.41</ele>
        <time>2024-12-08T11:16:00.559Z</time>
      </trkpt>
      <trkpt lat="43.34458845667541" lon="6.519270529970527">
        <ele>456.59</ele>
        <time>2024-12-08T11:16:05.011Z</time>
      </trkpt>
      <trkpt lat="43.34462600760162" lon="6.5192850306630135">
        <ele>456.73</ele>
        <time>2024-12-08T11:16:09.464Z</time>
      </trkpt>
      <trkpt lat="43.34465844556689" lon="6.519301123917103">
        <ele>456.84</ele>
        <time>2024-12-08T11:16:13.918Z</time>
      </trkpt>
      <trkpt lat="43.34469004534185" lon="6.519307075068355">
        <ele>456.95</ele>
        <time>2024-12-08T11:16:18.374Z</time>
      </trkpt>
      <trkpt lat="43.344724494963884" lon="6.5193212404847145">
        <ele>457.01</ele>
        <time>2024-12-08T11:16:22.831Z</time>
      </trkpt>
      <trkpt lat="43.344885762780905" lon="6.5193962585181">
        <ele>457.0</ele>
        <time>2024-12-08T11:16:27.294Z</time>
      </trkpt>
      <trkpt lat="43.345024064183235" lon="6.5195294469594955">
        <ele>457.03</ele>
        <time>2024-12-08T11:16:31.763Z</time>
      </trkpt>
      <trkpt lat="43.34504820406437" lon="6.519559118896723">
        <ele>457.05</ele>
        <time>2024-12-08T11:16:36.233Z</time>
      </trkpt>
      <trkpt lat="43.34507133811712" lon="6.519590634852648">
        <ele>457.06</ele>
        <time>2024-12-08T11:16:40.704Z</time>
      </trkpt>
      <trkpt lat="43.34508935920894" lon="6.519634472206235">
        <ele>457.02</ele>
        <time>2024-12-08T11:16:45.176Z</time>
      </trkpt>
      <trkpt lat="43.345101680606604" lon="6.519673699513078">
        <ele>456.96</ele>
        <time>2024-12-08T11:16:49.649Z</time>
      </trkpt>
      <trkpt lat="43.34510385990143" lon="6.519789369776845">
        <ele>456.84</ele>
        <time>2024-12-08T11:16:54.125Z</time>
      </trkpt>
      <trkpt lat="43.34508374333382" lon="6.520040491595864">
        <ele>456.64</ele>
        <time>2024-12-08T11:16:58.608Z</time>
      </trkpt>
      <trkpt lat="43.345093969255686" lon="6.520134452730417">
        <ele>456.59</ele>
        <time>2024-12-08T11:17:03.093Z</time>
      </trkpt>
      <trkpt lat="43.34509698674083" lon="6.520180385559797">
        <ele>456.5</ele>
        <time>2024-12-08T11:17:07.579Z</time>
      </trkpt>
      <trkpt lat="43.345104698091745" lon="6.520220534875989">
        <ele>456.42</ele>
        <time>2024-12-08T11:17:12.066Z</time>
      </trkpt>
      <trkpt lat="43.34511366672814" lon="6.520268060266972">
        <ele>456.33</ele>
        <time>2024-12-08T11:17:16.555Z</time>
      </trkpt>
      <trkpt lat="43.345117438584566" lon="6.520320950075984">
        <ele>456.23</ele>
        <time>2024-12-08T11:17:21.045Z</time>
      </trkpt>
      <trkpt lat="43.345170160755515" lon="6.520612305030227">
        <ele>456.24</ele>
        <time>2024-12-08T11:17:25.543Z</time>
      </trkpt>
      <trkpt lat="43.34521005861461" lon="6.520737027749419">
        <ele>456.2</ele>
        <time>2024-12-08T11:17:30.044Z</time>
      </trkpt>
      <trkpt lat="43.34522372111678" lon="6.520777344703674">
        <ele>456.11</ele>
        <time>2024-12-08T11:17:34.546Z</time>
      </trkpt>
      <trkpt lat="43.34522992372513" lon="6.520817494019866">
        <ele>456.01</ele>
        <time>2024-12-08T11:17:39.049Z</time>
      </trkpt>
      <trkpt lat="43.34524308331311" lon="6.520859487354755">
        <ele>455.91</ele>
        <time>2024-12-08T11:17:43.554Z</time>
      </trkpt>
      <trkpt lat="43.34532774053514" lon="6.521110525354743">
        <ele>455.75</ele>
        <time>2024-12-08T11:17:48.066Z</time>
      </trkpt>
      <trkpt lat="43.3453522156924" lon="6.521192332729697">
        <ele>455.63</ele>
        <time>2024-12-08T11:17:52.580Z</time>
      </trkpt>
      <trkpt lat="43.34536671638489" lon="6.5212317276746035">
        <ele>455.55</ele>
        <time>2024-12-08T11:17:57.095Z</time>
      </trkpt>
      <trkpt lat="43.345380797982216" lon="6.521277241408825">
        <ele>455.48</ele>
        <time>2024-12-08T11:18:01.611Z</time>
      </trkpt>
      <trkpt lat="43.345392951741815" lon="6.521316803991795">
        <ele>455.44</ele>
        <time>2024-12-08T11:18:06.128Z</time>
      </trkpt>
      <trkpt lat="43.345402255654335" lon="6.521360306069255">
        <ele>455.41</ele>
        <time>2024-12-08T11:18:10.647Z</time>
      </trkpt>
      <trkpt lat="43.34541809745133" lon="6.52145242318511">
        <ele>455.36</ele>
        <time>2024-12-08T11:18:15.168Z</time>
      </trkpt>
      <trkpt lat="43.34545975551009" lon="6.521574296057224">
        <ele>455.37</ele>
        <time>2024-12-08T11:18:19.692Z</time>
      </trkpt>
      <trkpt lat="43.3454729989171" lon="6.521602459251881">
        <ele>455.47</ele>
        <time>2024-12-08T11:18:24.217Z</time>
      </trkpt>
      <trkpt lat="43.345490265637636" lon="6.521634226664901">
        <ele>455.6</ele>
        <time>2024-12-08T11:18:28.743Z</time>
      </trkpt>
      <trkpt lat="43.34551599808037" lon="6.521660378202796">
        <ele>455.81</ele>
        <time>2024-12-08T11:18:33.270Z</time>
      </trkpt>
      <trkpt lat="43.34554315544665" lon="6.521686613559723">
        <ele>456.02</ele>
        <time>2024-12-08T11:18:37.799Z</time>
      </trkpt>
      <trkpt lat="43.345627980306745" lon="6.521747801452875">
        <ele>456.28</ele>
        <time>2024-12-08T11:18:42.331Z</time>
      </trkpt>
      <trkpt lat="43.345662262290716" lon="6.521758949384093">
        <ele>456.6</ele>
        <time>2024-12-08T11:18:46.864Z</time>
      </trkpt>
      <trkpt lat="43.34569453261793" lon="6.521762469783425">
        <ele>456.98</ele>
        <time>2024-12-08T11:18:51.398Z</time>
      </trkpt>
      <trkpt lat="43.34573124535382" lon="6.521774036809802">
        <ele>457.39</ele>
        <time>2024-12-08T11:18:55.934Z</time>
      </trkpt>
      <trkpt lat="43.34576452150941" lon="6.521782921627164">
        <ele>457.83</ele>
        <time>2024-12-08T11:19:00.471Z</time>
      </trkpt>
      <trkpt lat="43.34583358839154" lon="6.521815191954374">
        <ele>458.28</ele>
        <time>2024-12-08T11:19:05.010Z</time>
      </trkpt>
      <trkpt lat="43.34605906158686" lon="6.521835140883923">
        <ele>458.88</ele>
        <time>2024-12-08T11:19:09.557Z</time>
      </trkpt>
      <trkpt lat="43.346086889505386" lon="6.521826172247529">
        <ele>459.42</ele>
        <time>2024-12-08T11:19:14.105Z</time>
      </trkpt>
      <trkpt lat="43.346117651090026" lon="6.52181301265955">
        <ele>459.97</ele>
        <time>2024-12-08T11:19:18.654Z</time>
      </trkpt>
      <trkpt lat="43.3461484964937" lon="6.521799685433507">
        <ele>460.55</ele>
        <time>2024-12-08T11:19:23.205Z</time>
      </trkpt>
      <trkpt lat="43.34618194028735" lon="6.52178518474102">
        <ele>461.14</ele>
        <time>2024-12-08T11:19:27.757Z</time>
      </trkpt>
      <trkpt lat="43.34621328860521" lon="6.521775210276246">
        <ele>461.71</ele>
        <time>2024-12-08T11:19:32.310Z</time>
      </trkpt>
      <trkpt lat="43.34624639712274" lon="6.52176414616406">
        <ele>462.29</ele>
        <time>2024-12-08T11:19:36.864Z</time>
      </trkpt>
      <trkpt lat="43.34643792361021" lon="6.521750232204795">
        <ele>462.92</ele>
        <time>2024-12-08T11:19:41.425Z</time>
      </trkpt>
      <trkpt lat="43.34646784700453" lon="6.521758865565062">
        <ele>463.44</ele>
        <time>2024-12-08T11:19:45.987Z</time>
      </trkpt>
      <trkpt lat="43.346499279141426" lon="6.521758614107966">
        <ele>463.97</ele>
        <time>2024-12-08T11:19:50.550Z</time>
      </trkpt>
      <trkpt lat="43.346533477306366" lon="6.52175635099411">
        <ele>464.48</ele>
        <time>2024-12-08T11:19:55.114Z</time>
      </trkpt>
      <trkpt lat="43.34669784642756" lon="6.521759368479252">
        <ele>464.95</ele>
        <time>2024-12-08T11:19:59.684Z</time>
      </trkpt>
      <trkpt lat="43.34673145785928" lon="6.52176121249795">
        <ele>465.43</ele>
        <time>2024-12-08T11:20:04.255Z</time>
      </trkpt>
      <trkpt lat="43.34676624275744" lon="6.521770181134343">
        <ele>465.89</ele>
        <time>2024-12-08T11:20:08.827Z</time>
      </trkpt>
      <trkpt lat="43.34680010564625" lon="6.5217758808285">
        <ele>466.33</ele>
        <time>2024-12-08T11:20:13.401Z</time>
      </trkpt>
      <trkpt lat="43.3468340523541" lon="6.521789291873574">
        <ele>466.72</ele>
        <time>2024-12-08T11:20:17.976Z</time>
      </trkpt>
      <trkpt lat="43.34686431102455" lon="6.52179884724319">
        <ele>467.1</ele>
        <time>2024-12-08T11:20:22.552Z</time>
      </trkpt>
      <trkpt lat="43.34692608565092" lon="6.521819969639182">
        <ele>467.44</ele>
        <time>2024-12-08T11:20:27.130Z</time>
      </trkpt>
      <trkpt lat="43.34718215279281" lon="6.521879229694605">
        <ele>467.89</ele>
        <time>2024-12-08T11:20:31.717Z</time>
      </trkpt>
      <trkpt lat="43.34742397069931" lon="6.521932287141681">
        <ele>468.3</ele>
        <time>2024-12-08T11:20:36.313Z</time>
      </trkpt>
      <trkpt lat="43.347616754472256" lon="6.521997498348355">
        <ele>468.54</ele>
        <time>2024-12-08T11:20:40.916Z</time>
      </trkpt>
      <trkpt lat="43.34765212610364" lon="6.5220151003450155">
        <ele>468.72</ele>
        <time>2024-12-08T11:20:45.520Z</time>
      </trkpt>
      <trkpt lat="43.34768833592534" lon="6.522031780332327">
        <ele>468.85</ele>
        <time>2024-12-08T11:20:50.125Z</time>
      </trkpt>
      <trkpt lat="43.347724713385105" lon="6.522050555795431">
        <ele>468.94</ele>
        <time>2024-12-08T11:20:54.732Z</time>
      </trkpt>
      <trkpt lat="43.3477611746639" lon="6.522070337086916">
        <ele>468.98</ele>
        <time>2024-12-08T11:20:59.340Z</time>
      </trkpt>
      <trkpt lat="43.34793392568827" lon="6.522171003744006">
        <ele>468.95</ele>
        <time>2024-12-08T11:21:03.955Z</time>
      </trkpt>
      <trkpt lat="43.34802604280412" lon="6.522244680672884">
        <ele>468.85</ele>
        <time>2024-12-08T11:21:08.573Z</time>
      </trkpt>
      <trkpt lat="43.348110783845186" lon="6.5223028510808945">
        <ele>468.7</ele>
        <time>2024-12-08T11:21:13.195Z</time>
      </trkpt>
      <trkpt lat="43.34813768975437" lon="6.522329756990075">
        <ele>468.54</ele>
        <time>2024-12-08T11:21:17.818Z</time>
      </trkpt>
      <trkpt lat="43.34814364090562" lon="6.522350711748004">
        <ele>468.35</ele>
        <time>2024-12-08T11:21:22.441Z</time>
      </trkpt>
      <trkpt lat="43.348143976181746" lon="6.522356998175383">
        <ele>468.14</ele>
        <time>2024-12-08T11:21:27.065Z</time>
      </trkpt>
      <trkpt lat="43.348141964524984" lon="6.522359764203429">
        <ele>467.9</ele>
        <time>2024-12-08T11:21:31.689Z</time>
      </trkpt>
      <trkpt lat="43.348144646734" lon="6.522363116964698">
        <ele>467.62</ele>
        <time>2024-12-08T11:21:36.313Z</time>
      </trkpt>
      <trkpt lat="43.34814322181046" lon="6.52236370369792">
        <ele>467.32</ele>
        <time>2024-12-08T11:21:40.937Z</time>
      </trkpt>
      <trkpt lat="43.34814422763884" lon="6.5223632007837296">
        <ele>466.98</ele>
        <time>2024-12-08T11:21:45.561Z</time>
      </trkpt>
      <trkpt lat="43.34814330562949" lon="6.522361859679222">
        <ele>466.61</ele>
        <time>2024-12-08T11:21:50.185Z</time>
      </trkpt>
      <trkpt lat="43.348153699189425" lon="6.52236370369792">
        <ele>466.21</ele>
        <time>2024-12-08T11:21:54.809Z</time>
      </trkpt>
      <trkpt lat="43.34816576912999" lon="6.522362111136317">
        <ele>465.78</ele>
        <time>2024-12-08T11:21:59.434Z</time>
      </trkpt>
      <trkpt lat="43.34822670556605" lon="6.5223826467990875">
        <ele>465.3</ele>
        <time>2024-12-08T11:22:04.061Z</time>
      </trkpt>
      <trkpt lat="43.34825470112264" lon="6.522397063672543">
        <ele>464.81</ele>
        <time>2024-12-08T11:22:08.689Z</time>
      </trkpt>
      <trkpt lat="43.34835972636938" lon="6.5224433317780495">
        <ele>464.26</ele>
        <time>2024-12-08T11:22:13.321Z</time>
      </trkpt>
      <trkpt lat="43.34844949655235" lon="6.522467723116279">
        <ele>463.72</ele>
        <time>2024-12-08T11:22:17.956Z</time>
      </trkpt>
      <trkpt lat="43.34849786013365" lon="6.522480295971036">
        <ele>463.17</ele>
        <time>2024-12-08T11:22:22.593Z</time>
      </trkpt>
      <trkpt lat="43.348548486828804" lon="6.522493036463857">
        <ele>462.6</ele>
        <time>2024-12-08T11:22:27.232Z</time>
      </trkpt>
      <trkpt lat="43.34860171191394" lon="6.522505609318614">
        <ele>461.99</ele>
        <time>2024-12-08T11:22:31.873Z</time>
      </trkpt>
      <trkpt lat="43.348658457398415" lon="6.522519690915942">
        <ele>461.36</ele>
        <time>2024-12-08T11:22:36.516Z</time>
      </trkpt>
      <trkpt lat="43.34871780127287" lon="6.522537879645824">
        <ele>460.71</ele>
        <time>2024-12-08T11:22:41.161Z</time>
      </trkpt>
      <trkpt lat="43.348780162632465" lon="6.522547015920281">
        <ele>460.05</ele>
        <time>2024-12-08T11:22:45.808Z</time>
      </trkpt>
      <trkpt lat="43.34889926947653" lon="6.522537544369698">
        <ele>459.38</ele>
        <time>2024-12-08T11:22:50.459Z</time>
      </trkpt>
      <trkpt lat="43.34895836189389" lon="6.522514410316944">
        <ele>458.73</ele>
        <time>2024-12-08T11:22:55.112Z</time>
      </trkpt>
      <trkpt lat="43.34900949150324" lon="6.52247317135334">
        <ele>458.1</ele>
        <time>2024-12-08T11:22:59.767Z</time>
      </trkpt>
      <trkpt lat="43.349052825942636" lon="6.5224238857626915">
        <ele>457.47</ele>
        <time>2024-12-08T11:23:04.424Z</time>
      </trkpt>
      <trkpt lat="43.34912281483412" lon="6.522288769483566">
        <ele>456.89</ele>
        <time>2024-12-08T11:23:09.085Z</time>
      </trkpt>
      <trkpt lat="43.34916598163545" lon="6.522217271849513">
        <ele>456.26</ele>
        <time>2024-12-08T11:23:13.749Z</time>
      </trkpt>
      <trkpt lat="43.34921174682677" lon="6.522144768387079">
        <ele>455.61</ele>
        <time>2024-12-08T11:23:18.415Z</time>
      </trkpt>
      <trkpt lat="43.34926128387451" lon="6.522079138085246">
        <ele>454.96</ele>
        <time>2024-12-08T11:23:23.084Z</time>
      </trkpt>
      <trkpt lat="43.349313251674175" lon="6.522006131708622">
        <ele>454.31</ele>
        <time>2024-12-08T11:23:27.755Z</time>
      </trkpt>
      <trkpt lat="43.349369494244456" lon="6.521931616589427">
        <ele>453.66</ele>
        <time>2024-12-08T11:23:32.429Z</time>
      </trkpt>
      <trkpt lat="43.34943898022175" lon="6.52186288498342">
        <ele>452.98</ele>
        <time>2024-12-08T11:23:37.106Z</time>
      </trkpt>
      <trkpt lat="43.349518440663815" lon="6.521812928840518">
        <ele>452.36</ele>
        <time>2024-12-08T11:23:41.786Z</time>
      </trkpt>
      <trkpt lat="43.349604019895196" lon="6.521784765645862">
        <ele>451.77</ele>
        <time>2024-12-08T11:23:46.469Z</time>
      </trkpt>
      <trkpt lat="43.34969907067716" lon="6.52177101932466">
        <ele>451.21</ele>
        <time>2024-12-08T11:23:51.156Z</time>
      </trkpt>
      <trkpt lat="43.34979487583041" lon="6.521762385964394">
        <ele>450.66</ele>
        <time>2024-12-08T11:23:55.846Z</time>
      </trkpt>
      <trkpt lat="43.3498939499259" lon="6.521766576915979">
        <ele>450.15</ele>
        <time>2024-12-08T11:24:00.539Z</time>
      </trkpt>
      <trkpt lat="43.34999277256429" lon="6.521778060123324">
        <ele>449.66</ele>
        <time>2024-12-08T11:24:05.236Z</time>
      </trkpt>
      <trkpt lat="43.35008891299367" lon="6.521795578300953">
        <ele>449.22</ele>
        <time>2024-12-08T11:24:09.936Z</time>
      </trkpt>
      <trkpt lat="43.350186478346586" lon="6.521832626312971">
        <ele>448.78</ele>
        <time>2024-12-08T11:24:14.640Z</time>
      </trkpt>
      <trkpt lat="43.35026929154992" lon="6.521891551092267">
        <ele>448.37</ele>
        <time>2024-12-08T11:24:19.347Z</time>
      </trkpt>
      <trkpt lat="43.35033274255693" lon="6.521960869431496">
        <ele>447.96</ele>
        <time>2024-12-08T11:24:24.057Z</time>
      </trkpt>
      <trkpt lat="43.35037582553923" lon="6.522023985162377">
        <ele>447.48</ele>
        <time>2024-12-08T11:24:28.769Z</time>
      </trkpt>
      <trkpt lat="43.35041329264641" lon="6.52208567596972">
        <ele>447.0</ele>
        <time>2024-12-08T11:24:33.483Z</time>
      </trkpt>
      <trkpt lat="43.350450340658426" lon="6.522149462252855">
        <ele>446.52</ele>
        <time>2024-12-08T11:24:38.199Z</time>
      </trkpt>
      <trkpt lat="43.35048998706043" lon="6.522217271849513">
        <ele>446.03</ele>
        <time>2024-12-08T11:24:42.917Z</time>
      </trkpt>
      <trkpt lat="43.350530387833714" lon="6.522284829989076">
        <ele>445.51</ele>
        <time>2024-12-08T11:24:47.638Z</time>
      </trkpt>
      <trkpt lat="43.35057958960533" lon="6.522347945719957">
        <ele>444.96</ele>
        <time>2024-12-08T11:24:52.361Z</time>
      </trkpt>
      <trkpt lat="43.35063574835658" lon="6.5223991591483355">
        <ele>444.42</ele>
        <time>2024-12-08T11:24:57.086Z</time>
      </trkpt>
      <trkpt lat="43.35070171393454" lon="6.522441990673542">
        <ele>443.88</ele>
        <time>2024-12-08T11:25:01.814Z</time>
      </trkpt>
      <trkpt lat="43.350767428055406" lon="6.522477613762021">
        <ele>443.34</ele>
        <time>2024-12-08T11:25:06.544Z</time>
      </trkpt>
      <trkpt lat="43.350835070014" lon="6.522507620975375">
        <ele>442.82</ele>
        <time>2024-12-08T11:25:11.277Z</time>
      </trkpt>
      <trkpt lat="43.35090698674321" lon="6.522529749199748">
        <ele>442.29</ele>
        <time>2024-12-08T11:25:16.013Z</time>
      </trkpt>
      <trkpt lat="43.350978065282106" lon="6.52255380526185">
        <ele>441.75</ele>
        <time>2024-12-08T11:25:20.751Z</time>
      </trkpt>
      <trkpt lat="43.35105216130614" lon="6.522569144144654">
        <ele>441.22</ele>
        <time>2024-12-08T11:25:25.492Z</time>
      </trkpt>
      <trkpt lat="43.35112977772951" lon="6.522573167458177">
        <ele>440.7</ele>
        <time>2024-12-08T11:25:30.235Z</time>
      </trkpt>
      <trkpt lat="43.35121292620897" lon="6.522568389773369">
        <ele>440.21</ele>
        <time>2024-12-08T11:25:34.981Z</time>
      </trkpt>
      <trkpt lat="43.35129238665104" lon="6.522556319832802">
        <ele>439.72</ele>
        <time>2024-12-08T11:25:39.730Z</time>
      </trkpt>
      <trkpt lat="43.35145474411547" lon="6.522556487470865">
        <ele>439.16</ele>
        <time>2024-12-08T11:25:44.485Z</time>
      </trkpt>
      <trkpt lat="43.35154275409877" lon="6.522571658715606">
        <ele>438.56</ele>
        <time>2024-12-08T11:25:49.243Z</time>
      </trkpt>
      <trkpt lat="43.35163218900561" lon="6.5225843992084265">
        <ele>437.96</ele>
        <time>2024-12-08T11:25:54.004Z</time>
      </trkpt>
      <trkpt lat="43.35172304883599" lon="6.522582555189729">
        <ele>437.32</ele>
        <time>2024-12-08T11:25:58.768Z</time>
      </trkpt>
      <trkpt lat="43.35181592032313" lon="6.522562522441149">
        <ele>436.69</ele>
        <time>2024-12-08T11:26:03.536Z</time>
      </trkpt>
      <trkpt lat="43.351896554231644" lon="6.5225254744291306">
        <ele>436.1</ele>
        <time>2024-12-08T11:26:08.307Z</time>
      </trkpt>
      <trkpt lat="43.35196788422763" lon="6.5224760212004185">
        <ele>435.56</ele>
        <time>2024-12-08T11:26:13.080Z</time>
      </trkpt>
      <trkpt lat="43.352042231708765" lon="6.522426903247833">
        <ele>435.0</ele>
        <time>2024-12-08T11:26:17.856Z</time>
      </trkpt>
      <trkpt lat="43.35212060250342" lon="6.522380635142326">
        <ele>434.45</ele>
        <time>2024-12-08T11:26:22.635Z</time>
      </trkpt>
      <trkpt lat="43.35219360888004" lon="6.522373091429472">
        <ele>433.88</ele>
        <time>2024-12-08T11:26:27.417Z</time>
      </trkpt>
      <trkpt lat="43.3522529527545" lon="6.522394213825464">
        <ele>433.34</ele>
        <time>2024-12-08T11:26:32.201Z</time>
      </trkpt>
      <trkpt lat="43.35230089724064" lon="6.522440230473876">
        <ele>432.75</ele>
        <time>2024-12-08T11:26:36.987Z</time>
      </trkpt>
      <trkpt lat="43.35233601741493" lon="6.522507118061185">
        <ele>432.1</ele>
        <time>2024-12-08T11:26:41.775Z</time>
      </trkpt>
      <trkpt lat="43.3523615822196" lon="6.522581381723285">
        <ele>431.42</ele>
        <time>2024-12-08T11:26:46.565Z</time>
      </trkpt>
      <trkpt lat="43.35239133797586" lon="6.522657237946987">
        <ele>430.73</ele>
        <time>2024-12-08T11:26:51.357Z</time>
      </trkpt>
      <trkpt lat="43.35242352448404" lon="6.522735357284546">
        <ele>430.03</ele>
        <time>2024-12-08T11:26:56.152Z</time>
      </trkpt>
      <trkpt lat="43.3524495922029" lon="6.522823199629784">
        <ele>429.31</ele>
        <time>2024-12-08T11:27:00.949Z</time>
      </trkpt>
      <trkpt lat="43.352470798417926" lon="6.522913975641131">
        <ele>428.57</ele>
        <time>2024-12-08T11:27:05.749Z</time>
      </trkpt>
      <trkpt lat="43.35249099880457" lon="6.523004164919257">
        <ele>427.83</ele>
        <time>2024-12-08T11:27:10.551Z</time>
      </trkpt>
      <trkpt lat="43.35251404903829" lon="6.523101394996047">
        <ele>427.07</ele>
        <time>2024-12-08T11:27:15.356Z</time>
      </trkpt>
      <trkpt lat="43.35253659635782" lon="6.52320172637701">
        <ele>426.31</ele>
        <time>2024-12-08T11:27:20.163Z</time>
      </trkpt>
      <trkpt lat="43.35256232880056" lon="6.523304237052798">
        <ele>425.56</ele>
        <time>2024-12-08T11:27:24.973Z</time>
      </trkpt>
      <trkpt lat="43.35258680395782" lon="6.523412866517901">
        <ele>424.8</ele>
        <time>2024-12-08T11:27:29.786Z</time>
      </trkpt>
      <trkpt lat="43.35260775871575" lon="6.523527782410383">
        <ele>424.02</ele>
        <time>2024-12-08T11:27:34.602Z</time>
      </trkpt>
      <trkpt lat="43.352620834484696" lon="6.523652505129576">
        <ele>423.24</ele>
        <time>2024-12-08T11:27:39.421Z</time>
      </trkpt>
      <trkpt lat="43.35261907428503" lon="6.523777060210705">
        <ele>422.47</ele>
        <time>2024-12-08T11:27:44.243Z</time>
      </trkpt>
      <trkpt lat="43.35260968655348" lon="6.523899184539914">
        <ele>421.69</ele>
        <time>2024-12-08T11:27:49.069Z</time>
      </trkpt>
      <trkpt lat="43.35259518586099" lon="6.524025332182646">
        <ele>420.86</ele>
        <time>2024-12-08T11:27:53.898Z</time>
      </trkpt>
      <trkpt lat="43.352582110092044" lon="6.524136224761605">
        <ele>420.1</ele>
        <time>2024-12-08T11:27:58.730Z</time>
      </trkpt>
      <trkpt lat="43.35258127190173" lon="6.524243261665106">
        <ele>419.34</ele>
        <time>2024-12-08T11:28:03.564Z</time>
      </trkpt>
      <trkpt lat="43.352595856413245" lon="6.524349041283131">
        <ele>418.61</ele>
        <time>2024-12-08T11:28:08.401Z</time>
      </trkpt>
      <trkpt lat="43.35262527689338" lon="6.524441745132208">
        <ele>417.93</ele>
        <time>2024-12-08T11:28:13.241Z</time>
      </trkpt>
      <trkpt lat="43.35267003625631" lon="6.524515002965927">
        <ele>417.25</ele>
        <time>2024-12-08T11:28:18.083Z</time>
      </trkpt>
      <trkpt lat="43.352726865559816" lon="6.524571580812335">
        <ele>416.64</ele>
        <time>2024-12-08T11:28:22.928Z</time>
      </trkpt>
      <trkpt lat="43.3527984470129" lon="6.524609215557575">
        <ele>416.01</ele>
        <time>2024-12-08T11:28:27.775Z</time>
      </trkpt>
      <trkpt lat="43.35287128575146" lon="6.524630086496472">
        <ele>415.41</ele>
        <time>2024-12-08T11:28:32.625Z</time>
      </trkpt>
      <trkpt lat="43.35294823162258" lon="6.524636875838041">
        <ele>414.87</ele>
        <time>2024-12-08T11:28:37.478Z</time>
      </trkpt>
      <trkpt lat="43.353027775883675" lon="6.524638971313834">
        <ele>414.36</ele>
        <time>2024-12-08T11:28:42.333Z</time>
      </trkpt>
      <trkpt lat="43.35310539230704" lon="6.524631679058075">
        <ele>413.85</ele>
        <time>2024-12-08T11:28:47.191Z</time>
      </trkpt>
      <trkpt lat="43.353179236873984" lon="6.5246044378727674">
        <ele>413.39</ele>
        <time>2024-12-08T11:28:52.052Z</time>
      </trkpt>
      <trkpt lat="43.35325123742223" lon="6.524557834491134">
        <ele>412.98</ele>
        <time>2024-12-08T11:28:56.916Z</time>
      </trkpt>
      <trkpt lat="43.353322986513376" lon="6.524506704881787">
        <ele>412.63</ele>
        <time>2024-12-08T11:29:01.782Z</time>
      </trkpt>
      <trkpt lat="43.35339599289" lon="6.524452473968267">
        <ele>412.29</ele>
        <time>2024-12-08T11:29:06.651Z</time>
      </trkpt>
      <trkpt lat="43.35347017273307" lon="6.524410732090473">
        <ele>411.94</ele>
        <time>2024-12-08T11:29:11.523Z</time>
      </trkpt>
      <trkpt lat="43.353543765842915" lon="6.524381982162595">
        <ele>411.57</ele>
        <time>2024-12-08T11:29:16.398Z</time>
      </trkpt>
      <trkpt lat="43.353620041161776" lon="6.524365302175283">
        <ele>411.22</ele>
        <time>2024-12-08T11:29:21.276Z</time>
      </trkpt>
      <trkpt lat="43.35369539447129" lon="6.524350633844733">
        <ele>410.89</ele>
        <time>2024-12-08T11:29:26.156Z</time>
      </trkpt>
      <trkpt lat="43.353763706982136" lon="6.524356501176953">
        <ele>410.52</ele>
        <time>2024-12-08T11:29:31.039Z</time>
      </trkpt>
      <trkpt lat="43.35381902754307" lon="6.524391118437052">
        <ele>410.09</ele>
        <time>2024-12-08T11:29:35.924Z</time>
      </trkpt>
      <trkpt lat="43.35386990569532" lon="6.524432357400656">
        <ele>409.68</ele>
        <time>2024-12-08T11:29:40.811Z</time>
      </trkpt>
      <trkpt lat="43.35389387793839" lon="6.524470914155245">
        <ele>409.24</ele>
        <time>2024-12-08T11:29:45.699Z</time>
      </trkpt>
      <trkpt lat="43.35388901643455" lon="6.524623464792967">
        <ele>408.6</ele>
        <time>2024-12-08T11:29:50.591Z</time>
      </trkpt>
      <trkpt lat="43.35389723069966" lon="6.5246963035315275">
        <ele>408.07</ele>
        <time>2024-12-08T11:29:55.485Z</time>
      </trkpt>
      <trkpt lat="43.35390997119248" lon="6.524773500859737">
        <ele>407.52</ele>
        <time>2024-12-08T11:30:00.381Z</time>
      </trkpt>
      <trkpt lat="43.35392598062754" lon="6.5248665399849415">
        <ele>406.99</ele>
        <time>2024-12-08T11:30:05.279Z</time>
      </trkpt>
      <trkpt lat="43.35394668392837" lon="6.524956813082099">
        <ele>406.44</ele>
        <time>2024-12-08T11:30:10.180Z</time>
      </trkpt>
      <trkpt lat="43.35396864451468" lon="6.5250535402446985">
        <ele>405.91</ele>
        <time>2024-12-08T11:30:15.083Z</time>
      </trkpt>
      <trkpt lat="43.35398574359715" lon="6.525156470015645">
        <ele>405.35</ele>
        <time>2024-12-08T11:30:19.989Z</time>
      </trkpt>
      <trkpt lat="43.354002172127366" lon="6.525266272947192">
        <ele>404.76</ele>
        <time>2024-12-08T11:30:24.898Z</time>
      </trkpt>
      <trkpt lat="43.35401298478246" lon="6.525378422811627">
        <ele>404.12</ele>
        <time>2024-12-08T11:30:29.810Z</time>
      </trkpt>
      <trkpt lat="43.35401834920049" lon="6.525498870760202">
        <ele>403.47</ele>
        <time>2024-12-08T11:30:34.725Z</time>
      </trkpt>
      <trkpt lat="43.354020193219185" lon="6.525623006746173">
        <ele>402.78</ele>
        <time>2024-12-08T11:30:39.643Z</time>
      </trkpt>
      <trkpt lat="43.35402731783688" lon="6.5257530100643635">
        <ele>402.05</ele>
        <time>2024-12-08T11:30:44.564Z</time>
      </trkpt>
      <trkpt lat="43.35404827259481" lon="6.525867925956845">
        <ele>401.32</ele>
        <time>2024-12-08T11:30:49.488Z</time>
      </trkpt>
      <trkpt lat="43.354085152968764" lon="6.525968927890062">
        <ele>400.58</ele>
        <time>2024-12-08T11:30:54.415Z</time>
      </trkpt>
      <trkpt lat="43.354131169617176" lon="6.526060290634632">
        <ele>399.86</ele>
        <time>2024-12-08T11:30:59.345Z</time>
      </trkpt>
      <trkpt lat="43.35418472997844" lon="6.526138829067349">
        <ele>399.14</ele>
        <time>2024-12-08T11:31:04.278Z</time>
      </trkpt>
      <trkpt lat="43.35424474440515" lon="6.526207476854324">
        <ele>398.38</ele>
        <time>2024-12-08T11:31:09.214Z</time>
      </trkpt>
      <trkpt lat="43.354309452697635" lon="6.526273526251316">
        <ele>397.63</ele>
        <time>2024-12-08T11:31:14.152Z</time>
      </trkpt>
      <trkpt lat="43.35437659174204" lon="6.526341922581196">
        <ele>396.87</ele>
        <time>2024-12-08T11:31:19.093Z</time>
      </trkpt>
      <trkpt lat="43.35445336997509" lon="6.526412917301059">
        <ele>396.06</ele>
        <time>2024-12-08T11:31:24.038Z</time>
      </trkpt>
      <trkpt lat="43.354530315846205" lon="6.526478547602892">
        <ele>395.22</ele>
        <time>2024-12-08T11:31:28.986Z</time>
      </trkpt>
      <trkpt lat="43.35460768081248" lon="6.526543674990535">
        <ele>394.38</ele>
        <time>2024-12-08T11:31:33.937Z</time>
      </trkpt>
      <trkpt lat="43.354684710502625" lon="6.526612238958478">
        <ele>393.53</ele>
        <time>2024-12-08T11:31:38.891Z</time>
      </trkpt>
      <trkpt lat="43.35476257838309" lon="6.526688011363149">
        <ele>392.69</ele>
        <time>2024-12-08T11:31:43.849Z</time>
      </trkpt>
      <trkpt lat="43.35483751259744" lon="6.526767387986183">
        <ele>391.87</ele>
        <time>2024-12-08T11:31:48.810Z</time>
      </trkpt>
      <trkpt lat="43.3549137879163" lon="6.526845088228583">
        <ele>391.06</ele>
        <time>2024-12-08T11:31:53.774Z</time>
      </trkpt>
      <trkpt lat="43.354996517300606" lon="6.526928404346108">
        <ele>390.24</ele>
        <time>2024-12-08T11:31:58.742Z</time>
      </trkpt>
      <trkpt lat="43.35507404990494" lon="6.527017671614885">
        <ele>389.49</ele>
        <time>2024-12-08T11:32:03.713Z</time>
      </trkpt>
      <trkpt lat="43.35514152422547" lon="6.5271177515387535">
        <ele>388.72</ele>
        <time>2024-12-08T11:32:08.688Z</time>
      </trkpt>
      <trkpt lat="43.35519080981612" lon="6.52723828330636">
        <ele>387.91</ele>
        <time>2024-12-08T11:32:13.666Z</time>
      </trkpt>
      <trkpt lat="43.35522542707622" lon="6.5273660235106945">
        <ele>387.1</ele>
        <time>2024-12-08T11:32:18.648Z</time>
      </trkpt>
      <trkpt lat="43.35524235852063" lon="6.527494769543409">
        <ele>386.25</ele>
        <time>2024-12-08T11:32:23.633Z</time>
      </trkpt>
      <trkpt lat="43.355251997709274" lon="6.52762234210968">
        <ele>385.42</ele>
        <time>2024-12-08T11:32:28.621Z</time>
      </trkpt>
      <trkpt lat="43.355255937203765" lon="6.5277530159801245">
        <ele>384.58</ele>
        <time>2024-12-08T11:32:33.613Z</time>
      </trkpt>
      <trkpt lat="43.35526046343148" lon="6.527875978499651">
        <ele>383.76</ele>
        <time>2024-12-08T11:32:38.608Z</time>
      </trkpt>
      <trkpt lat="43.3552663307637" lon="6.527992822229862">
        <ele>382.97</ele>
        <time>2024-12-08T11:32:43.606Z</time>
      </trkpt>
      <trkpt lat="43.35526934824884" lon="6.528111509978771">
        <ele>382.16</ele>
        <time>2024-12-08T11:32:48.607Z</time>
      </trkpt>
      <trkpt lat="43.3552626427263" lon="6.528226342052221">
        <ele>381.37</ele>
        <time>2024-12-08T11:32:53.611Z</time>
      </trkpt>
      <trkpt lat="43.355239760130644" lon="6.528336061164737">
        <ele>380.57</ele>
        <time>2024-12-08T11:32:58.618Z</time>
      </trkpt>
      <trkpt lat="43.355202125385404" lon="6.528438739478588">
        <ele>379.8</ele>
        <time>2024-12-08T11:33:03.628Z</time>
      </trkpt>
      <trkpt lat="43.35514613427222" lon="6.528536723926663">
        <ele>379.03</ele>
        <time>2024-12-08T11:33:08.641Z</time>
      </trkpt>
      <trkpt lat="43.35507832467556" lon="6.528608053922653">
        <ele>378.3</ele>
        <time>2024-12-08T11:33:13.657Z</time>
      </trkpt>
      <trkpt lat="43.35501546040177" lon="6.528665805235505">
        <ele>377.53</ele>
        <time>2024-12-08T11:33:18.676Z</time>
      </trkpt>
      <trkpt lat="43.35496458224952" lon="6.528717773035169">
        <ele>376.86</ele>
        <time>2024-12-08T11:33:23.697Z</time>
      </trkpt>
      <trkpt lat="43.35479702800512" lon="6.528966128826141">
        <ele>376.11</ele>
        <time>2024-12-08T11:33:28.726Z</time>
      </trkpt>
      <trkpt lat="43.35475109517574" lon="6.529037207365036">
        <ele>375.41</ele>
        <time>2024-12-08T11:33:33.758Z</time>
      </trkpt>
      <trkpt lat="43.35471245460212" lon="6.529101831838489">
        <ele>374.73</ele>
        <time>2024-12-08T11:33:38.792Z</time>
      </trkpt>
      <trkpt lat="43.35467481985688" lon="6.529169138520956">
        <ele>374.06</ele>
        <time>2024-12-08T11:33:43.828Z</time>
      </trkpt>
      <trkpt lat="43.354640789330006" lon="6.529251364991069">
        <ele>373.39</ele>
        <time>2024-12-08T11:33:48.867Z</time>
      </trkpt>
      <trkpt lat="43.354606591165066" lon="6.5293362736701965">
        <ele>372.73</ele>
        <time>2024-12-08T11:33:53.908Z</time>
      </trkpt>
      <trkpt lat="43.35457113571465" lon="6.529420092701912">
        <ele>372.09</ele>
        <time>2024-12-08T11:33:58.952Z</time>
      </trkpt>
      <trkpt lat="43.35453802719712" lon="6.529507767409086">
        <ele>371.43</ele>
        <time>2024-12-08T11:34:03.998Z</time>
      </trkpt>
      <trkpt lat="43.35450416430831" lon="6.529594520106912">
        <ele>370.77</ele>
        <time>2024-12-08T11:34:09.047Z</time>
      </trkpt>
      <trkpt lat="43.35446493700147" lon="6.529691498726606">
        <ele>370.16</ele>
        <time>2024-12-08T11:34:14.098Z</time>
      </trkpt>
      <trkpt lat="43.354425793513656" lon="6.529789315536618">
        <ele>369.55</ele>
        <time>2024-12-08T11:34:19.152Z</time>
      </trkpt>
      <trkpt lat="43.354386650025845" lon="6.529884450137615">
        <ele>368.92</ele>
        <time>2024-12-08T11:34:24.209Z</time>
      </trkpt>
      <trkpt lat="43.354350943118334" lon="6.5299795009195805">
        <ele>368.27</ele>
        <time>2024-12-08T11:34:29.269Z</time>
      </trkpt>
      <trkpt lat="43.354326635599136" lon="6.530078994110227">
        <ele>367.61</ele>
        <time>2024-12-08T11:34:34.332Z</time>
      </trkpt>
      <trkpt lat="43.35431473329663" lon="6.530169351026416">
        <ele>366.95</ele>
        <time>2024-12-08T11:34:39.397Z</time>
      </trkpt>
      <trkpt lat="43.35429646074772" lon="6.530257863923907">
        <ele>366.29</ele>
        <time>2024-12-08T11:34:44.464Z</time>
      </trkpt>
      <trkpt lat="43.35425346158445" lon="6.530421478673816">
        <ele>365.52</ele>
        <time>2024-12-08T11:34:49.536Z</time>
      </trkpt>
      <trkpt lat="43.354223202914" lon="6.530486438423395">
        <ele>364.79</ele>
        <time>2024-12-08T11:34:54.610Z</time>
      </trkpt>
      <trkpt lat="43.35417374968529" lon="6.530531365424395">
        <ele>364.05</ele>
        <time>2024-12-08T11:34:59.686Z</time>
      </trkpt>
      <trkpt lat="43.35411474108696" lon="6.530547374859452">
        <ele>363.29</ele>
        <time>2024-12-08T11:35:04.764Z</time>
      </trkpt>
      <trkpt lat="43.354061180725694" lon="6.5305375680327415">
        <ele>362.51</ele>
        <time>2024-12-08T11:35:09.844Z</time>
      </trkpt>
      <trkpt lat="43.35401155985892" lon="6.5304861869663">
        <ele>361.71</ele>
        <time>2024-12-08T11:35:14.926Z</time>
      </trkpt>
      <trkpt lat="43.353967387229204" lon="6.53041779063642">
        <ele>360.89</ele>
        <time>2024-12-08T11:35:20.010Z</time>
      </trkpt>
      <trkpt lat="43.35390745662153" lon="6.530330199748278">
        <ele>360.05</ele>
        <time>2024-12-08T11:35:25.097Z</time>
      </trkpt>
      <trkpt lat="43.35384559817612" lon="6.530313184484839">
        <ele>359.16</ele>
        <time>2024-12-08T11:35:30.186Z</time>
      </trkpt>
      <trkpt lat="43.35378457792103" lon="6.530344113707542">
        <ele>358.2</ele>
        <time>2024-12-08T11:35:35.278Z</time>
      </trkpt>
      <trkpt lat="43.353733364492655" lon="6.530391974374652">
        <ele>357.22</ele>
        <time>2024-12-08T11:35:40.372Z</time>
      </trkpt>
      <trkpt lat="43.353688856586814" lon="6.530468417331576">
        <ele>356.23</ele>
        <time>2024-12-08T11:35:45.468Z</time>
      </trkpt>
      <trkpt lat="43.35365105420351" lon="6.530551901087165">
        <ele>355.24</ele>
        <time>2024-12-08T11:35:50.567Z</time>
      </trkpt>
      <trkpt lat="43.35361643694341" lon="6.530651059001684">
        <ele>354.21</ele>
        <time>2024-12-08T11:35:55.669Z</time>
      </trkpt>
      <trkpt lat="43.353582825511694" lon="6.5307640470564365">
        <ele>353.18</ele>
        <time>2024-12-08T11:36:00.774Z</time>
      </trkpt>
      <trkpt lat="43.35356807336211" lon="6.5308550745248795">
        <ele>352.15</ele>
        <time>2024-12-08T11:36:05.881Z</time>
      </trkpt>
      <trkpt lat="43.35357687436044" lon="6.530939564108849">
        <ele>351.09</ele>
        <time>2024-12-08T11:36:10.990Z</time>
      </trkpt>
      <trkpt lat="43.35360562428832" lon="6.531029334291816">
        <ele>350.03</ele>
        <time>2024-12-08T11:36:16.102Z</time>
      </trkpt>
      <trkpt lat="43.35364267230034" lon="6.531134191900492">
        <ele>348.93</ele>
        <time>2024-12-08T11:36:21.217Z</time>
      </trkpt>
      <trkpt lat="43.353681145235896" lon="6.531249191612005">
        <ele>347.76</ele>
        <time>2024-12-08T11:36:26.335Z</time>
      </trkpt>
      <trkpt lat="43.35372003726661" lon="6.5313689690083265">
        <ele>346.56</ele>
        <time>2024-12-08T11:36:31.457Z</time>
      </trkpt>
      <trkpt lat="43.353758342564106" lon="6.531490925699472">
        <ele>345.34</ele>
        <time>2024-12-08T11:36:36.582Z</time>
      </trkpt>
      <trkpt lat="43.35379949770868" lon="6.531619084998965">
        <ele>344.1</ele>
        <time>2024-12-08T11:36:41.710Z</time>
      </trkpt>
      <trkpt lat="43.35382807999849" lon="6.531743640080094">
        <ele>342.85</ele>
        <time>2024-12-08T11:36:46.842Z</time>
      </trkpt>
      <trkpt lat="43.35384065285325" lon="6.531878840178251">
        <ele>341.58</ele>
        <time>2024-12-08T11:36:51.977Z</time>
      </trkpt>
      <trkpt lat="43.35384216159582" lon="6.532012699171901">
        <ele>340.3</ele>
        <time>2024-12-08T11:36:57.116Z</time>
      </trkpt>
      <trkpt lat="43.35382363758981" lon="6.532149072736502">
        <ele>339.03</ele>
        <time>2024-12-08T11:37:02.258Z</time>
      </trkpt>
      <trkpt lat="43.35378306917846" lon="6.532282093539834">
        <ele>337.77</ele>
        <time>2024-12-08T11:37:07.404Z</time>
      </trkpt>
      <trkpt lat="43.353748954832554" lon="6.532406900078058">
        <ele>336.54</ele>
        <time>2024-12-08T11:37:12.553Z</time>
      </trkpt>
      <trkpt lat="43.35371668450534" lon="6.53251544572413">
        <ele>335.36</ele>
        <time>2024-12-08T11:37:17.705Z</time>
      </trkpt>
      <trkpt lat="43.353684581816196" lon="6.532601360231638">
        <ele>334.19</ele>
        <time>2024-12-08T11:37:22.860Z</time>
      </trkpt>
      <trkpt lat="43.35366144776344" lon="6.532685346901417">
        <ele>333.04</ele>
        <time>2024-12-08T11:37:28.017Z</time>
      </trkpt>
      <trkpt lat="43.35366312414408" lon="6.532750558108091">
        <ele>331.92</ele>
        <time>2024-12-08T11:37:33.176Z</time>
      </trkpt>
      <trkpt lat="43.353673769161105" lon="6.53280571103096">
        <ele>330.81</ele>
        <time>2024-12-08T11:37:38.336Z</time>
      </trkpt>
      <trkpt lat="43.35368852131069" lon="6.53285943903029">
        <ele>329.71</ele>
        <time>2024-12-08T11:37:43.498Z</time>
      </trkpt>
      <trkpt lat="43.353705452755094" lon="6.532901935279369">
        <ele>328.64</ele>
        <time>2024-12-08T11:37:48.661Z</time>
      </trkpt>
      <trkpt lat="43.353735879063606" lon="6.5329422522336245">
        <ele>327.59</ele>
        <time>2024-12-08T11:37:53.825Z</time>
      </trkpt>
      <trkpt lat="43.35376345552504" lon="6.532994639128447">
        <ele>326.54</ele>
        <time>2024-12-08T11:37:58.991Z</time>
      </trkpt>
      <trkpt lat="43.35379220545292" lon="6.533052222803235">
        <ele>325.52</ele>
        <time>2024-12-08T11:38:04.159Z</time>
      </trkpt>
      <trkpt lat="43.35381978191435" lon="6.533111231401563">
        <ele>324.51</ele>
        <time>2024-12-08T11:38:09.329Z</time>
      </trkpt>
      <trkpt lat="43.35384937003255" lon="6.533169988542795">
        <ele>323.53</ele>
        <time>2024-12-08T11:38:14.500Z</time>
      </trkpt>
      <trkpt lat="43.3538777846843" lon="6.533230757340789">
        <ele>322.55</ele>
        <time>2024-12-08T11:38:19.673Z</time>
      </trkpt>
      <trkpt lat="43.35390863008797" lon="6.533294711261988">
        <ele>321.59</ele>
        <time>2024-12-08T11:38:24.848Z</time>
      </trkpt>
      <trkpt lat="43.35393947549164" lon="6.533342320472002">
        <ele>320.65</ele>
        <time>2024-12-08T11:38:30.025Z</time>
      </trkpt>
      <trkpt lat="43.35397434420884" lon="6.533379536122084">
        <ele>319.72</ele>
        <time>2024-12-08T11:38:35.203Z</time>
      </trkpt>
      <trkpt lat="43.35399848408997" lon="6.533440891653299">
        <ele>318.8</ele>
        <time>2024-12-08T11:38:40.383Z</time>
      </trkpt>
      <trkpt lat="43.35400762036443" lon="6.533513059839606">
        <ele>317.88</ele>
        <time>2024-12-08T11:38:45.565Z</time>
      </trkpt>
      <trkpt lat="43.35400192067027" lon="6.533589670434594">
        <ele>317.0</ele>
        <time>2024-12-08T11:38:50.749Z</time>
      </trkpt>
      <trkpt lat="43.35398121736944" lon="6.5336739923805">
        <ele>316.12</ele>
        <time>2024-12-08T11:38:55.935Z</time>
      </trkpt>
      <trkpt lat="43.353949869051576" lon="6.533741634339094">
        <ele>315.28</ele>
        <time>2024-12-08T11:39:01.123Z</time>
      </trkpt>
      <trkpt lat="43.35390955209732" lon="6.533793183043599">
        <ele>314.49</ele>
        <time>2024-12-08T11:39:06.313Z</time>
      </trkpt>
      <trkpt lat="43.35388516075909" lon="6.533845737576485">
        <ele>313.71</ele>
        <time>2024-12-08T11:39:11.505Z</time>
      </trkpt>
      <trkpt lat="43.35388373583555" lon="6.533910362049937">
        <ele>312.94</ele>
        <time>2024-12-08T11:39:16.699Z</time>
      </trkpt>
      <trkpt lat="43.35388792678714" lon="6.533983200788498">
        <ele>312.2</ele>
        <time>2024-12-08T11:39:21.894Z</time>
      </trkpt>
      <trkpt lat="43.35389815270901" lon="6.534042125567794">
        <ele>311.49</ele>
        <time>2024-12-08T11:39:27.091Z</time>
      </trkpt>
      <trkpt lat="43.35391525179148" lon="6.534101217985153">
        <ele>310.8</ele>
        <time>2024-12-08T11:39:32.290Z</time>
      </trkpt>
      <trkpt lat="43.353910222649574" lon="6.534162238240242">
        <ele>310.15</ele>
        <time>2024-12-08T11:39:37.490Z</time>
      </trkpt>
      <trkpt lat="43.35389580577612" lon="6.534244967624545">
        <ele>309.53</ele>
        <time>2024-12-08T11:39:42.692Z</time>
      </trkpt>
      <trkpt lat="43.353872084990144" lon="6.534312358126044">
        <ele>308.96</ele>
        <time>2024-12-08T11:39:47.896Z</time>
      </trkpt>
      <trkpt lat="43.35386001504958" lon="6.534381425008178">
        <ele>308.4</ele>
        <time>2024-12-08T11:39:53.102Z</time>
      </trkpt>
      <trkpt lat="43.35384987294674" lon="6.53444848023355">
        <ele>307.87</ele>
        <time>2024-12-08T11:39:58.310Z</time>
      </trkpt>
      <trkpt lat="43.35383612662554" lon="6.534500112757087">
        <ele>307.37</ele>
        <time>2024-12-08T11:40:03.519Z</time>
      </trkpt>
      <trkpt lat="43.353833612054586" lon="6.534564569592476">
        <ele>306.89</ele>
        <time>2024-12-08T11:40:08.730Z</time>
      </trkpt>
      <trkpt lat="43.35383805446327" lon="6.534623075276613">
        <ele>306.45</ele>
        <time>2024-12-08T11:40:13.942Z</time>
      </trkpt>
      <trkpt lat="43.35384107194841" lon="6.534684430807829">
        <ele>306.02</ele>
        <time>2024-12-08T11:40:19.156Z</time>
      </trkpt>
      <trkpt lat="43.35384006612003" lon="6.5347266755998135">
        <ele>305.62</ele>
        <time>2024-12-08T11:40:24.371Z</time>
      </trkpt>
      <trkpt lat="43.35381659679115" lon="6.5348082315176725">
        <ele>305.25</ele>
        <time>2024-12-08T11:40:29.588Z</time>
      </trkpt>
      <trkpt lat="43.353806622326374" lon="6.5348803997039795">
        <ele>304.9</ele>
        <time>2024-12-08T11:40:34.807Z</time>
      </trkpt>
      <trkpt lat="43.35380486212671" lon="6.53495516628027">
        <ele>304.56</ele>
        <time>2024-12-08T11:40:40.028Z</time>
      </trkpt>
      <trkpt lat="43.35381047800183" lon="6.535013085231185">
        <ele>304.24</ele>
        <time>2024-12-08T11:40:45.251Z</time>
      </trkpt>
      <trkpt lat="43.35381718352437" lon="6.535054240375757">
        <ele>303.95</ele>
        <time>2024-12-08T11:40:50.475Z</time>
      </trkpt>
      <trkpt lat="43.35382631979883" lon="6.535079888999462">
        <ele>303.66</ele>
        <time>2024-12-08T11:40:55.699Z</time>
      </trkpt>
      <trkpt lat="43.3538365457207" lon="6.53510277159512">
        <ele>303.38</ele>
        <time>2024-12-08T11:41:00.924Z</time>
      </trkpt>
      <trkpt lat="43.35385238751769" lon="6.535116098821163">
        <ele>303.1</ele>
        <time>2024-12-08T11:41:06.150Z</time>
      </trkpt>
      <trkpt lat="43.353867810219526" lon="6.5351121593266726">
        <ele>302.81</ele>
        <time>2024-12-08T11:41:11.376Z</time>
      </trkpt>
      <trkpt lat="43.35389253683388" lon="6.535086343064904">
        <ele>302.5</ele>
        <time>2024-12-08T11:41:16.603Z</time>
      </trkpt>
      <trkpt lat="43.35389287211001" lon="6.535084247589111">
        <ele>302.2</ele>
        <time>2024-12-08T11:41:21.830Z</time>
      </trkpt>
      <trkpt lat="43.353893123567104" lon="6.535083744674921">
        <ele>301.9</ele>
        <time>2024-12-08T11:41:27.057Z</time>
      </trkpt>
      <trkpt lat="43.35389387793839" lon="6.535084750503302">
        <ele>301.58</ele>
        <time>2024-12-08T11:41:32.284Z</time>
      </trkpt>
      <trkpt lat="43.35389354266226" lon="6.535082152113318">
        <ele>301.24</ele>
        <time>2024-12-08T11:41:37.512Z</time>
      </trkpt>
      <trkpt lat="43.353893123567104" lon="6.53508416377008">
        <ele>300.89</ele>
        <time>2024-12-08T11:41:42.740Z</time>
      </trkpt>
      <trkpt lat="43.353892704471946" lon="6.53508416377008">
        <ele>300.52</ele>
        <time>2024-12-08T11:41:47.968Z</time>
      </trkpt>
      <trkpt lat="43.35393444634974" lon="6.535045523196459">
        <ele>300.11</ele>
        <time>2024-12-08T11:41:53.197Z</time>
      </trkpt>
      <trkpt lat="43.35400736890733" lon="6.534989029169083">
        <ele>299.67</ele>
        <time>2024-12-08T11:41:58.429Z</time>
      </trkpt>
      <trkpt lat="43.35405698977411" lon="6.534953992813826">
        <ele>299.22</ele>
        <time>2024-12-08T11:42:03.663Z</time>
      </trkpt>
      <trkpt lat="43.35410987958312" lon="6.534917280077934">
        <ele>298.77</ele>
        <time>2024-12-08T11:42:08.899Z</time>
      </trkpt>
      <trkpt lat="43.35416712798178" lon="6.534878555685282">
        <ele>298.27</ele>
        <time>2024-12-08T11:42:14.138Z</time>
      </trkpt>
      <trkpt lat="43.35420970804989" lon="6.534848045557737">
        <ele>297.77</ele>
        <time>2024-12-08T11:42:19.378Z</time>
      </trkpt>
      <trkpt lat="43.354264022782445" lon="6.534817200154066">
        <ele>297.24</ele>
        <time>2024-12-08T11:42:24.620Z</time>
      </trkpt>
      <trkpt lat="43.35431884042919" lon="6.534774536266923">
        <ele>296.7</ele>
        <time>2024-12-08T11:42:29.865Z</time>
      </trkpt>
      <trkpt lat="43.354382207617164" lon="6.534748636186123">
        <ele>296.14</ele>
        <time>2024-12-08T11:42:35.112Z</time>
      </trkpt>
      <trkpt lat="43.354444820433855" lon="6.534734219312668">
        <ele>295.55</ele>
        <time>2024-12-08T11:42:40.361Z</time>
      </trkpt>
      <trkpt lat="43.354515144601464" lon="6.534733548760414">
        <ele>294.95</ele>
        <time>2024-12-08T11:42:45.613Z</time>
      </trkpt>
      <trkpt lat="43.35457792505622" lon="6.534685268998146">
        <ele>294.37</ele>
        <time>2024-12-08T11:42:50.867Z</time>
      </trkpt>
      <trkpt lat="43.3546360116452" lon="6.534631960093975">
        <ele>293.8</ele>
        <time>2024-12-08T11:42:56.123Z</time>
      </trkpt>
      <trkpt lat="43.3546859677881" lon="6.534556690603495">
        <ele>293.26</ele>
        <time>2024-12-08T11:43:01.382Z</time>
      </trkpt>
      <trkpt lat="43.35472343489528" lon="6.53447144664824">
        <ele>292.73</ele>
        <time>2024-12-08T11:43:06.644Z</time>
      </trkpt>
      <trkpt lat="43.35475159808993" lon="6.534379664808512">
        <ele>292.25</ele>
        <time>2024-12-08T11:43:11.908Z</time>
      </trkpt>
      <trkpt lat="43.35477590560913" lon="6.534283105283976">
        <ele>291.8</ele>
        <time>2024-12-08T11:43:17.175Z</time>
      </trkpt>
      <trkpt lat="43.35480566136539" lon="6.53416994959116">
        <ele>291.32</ele>
        <time>2024-12-08T11:43:22.445Z</time>
      </trkpt>
      <trkpt lat="43.35483927279711" lon="6.534099206328392">
        <ele>290.87</ele>
        <time>2024-12-08T11:43:27.717Z</time>
      </trkpt>
      <trkpt lat="43.35492745041847" lon="6.533825118094683">
        <ele>290.4</ele>
        <time>2024-12-08T11:43:32.997Z</time>
      </trkpt>
      <trkpt lat="43.35493910126388" lon="6.533740377053618">
        <ele>290.06</ele>
        <time>2024-12-08T11:43:38.279Z</time>
      </trkpt>
      <trkpt lat="43.354961816221476" lon="6.533650606870651">
        <ele>289.72</ele>
        <time>2024-12-08T11:43:43.563Z</time>
      </trkpt>
      <trkpt lat="43.35499911569059" lon="6.533544408157468">
        <ele>289.37</ele>
        <time>2024-12-08T11:43:48.850Z</time>
      </trkpt>
      <trkpt lat="43.355040438473225" lon="6.533428654074669">
        <ele>289.04</ele>
        <time>2024-12-08T11:43:54.141Z</time>
      </trkpt>
      <trkpt lat="43.355086371302605" lon="6.533324047923088">
        <ele>288.77</ele>
        <time>2024-12-08T11:43:59.435Z</time>
      </trkpt>
      <trkpt lat="43.35512090474367" lon="6.533216005191207">
        <ele>288.54</ele>
        <time>2024-12-08T11:44:04.732Z</time>
      </trkpt>
      <trkpt lat="43.35513004101813" lon="6.533114667981863">
        <ele>288.44</ele>
        <time>2024-12-08T11:44:10.031Z</time>
      </trkpt>
      <trkpt lat="43.35515275597572" lon="6.53302020393312">
        <ele>288.31</ele>
        <time>2024-12-08T11:44:15.333Z</time>
      </trkpt>
      <trkpt lat="43.35519039072096" lon="6.532924817875028">
        <ele>288.17</ele>
        <time>2024-12-08T11:44:20.638Z</time>
      </trkpt>
      <trkpt lat="43.355223666876554" lon="6.532853320240974">
        <ele>288.05</ele>
        <time>2024-12-08T11:44:25.945Z</time>
      </trkpt>
      <trkpt lat="43.3552819211036" lon="6.532820798456669">
        <ele>287.89</ele>
        <time>2024-12-08T11:44:31.254Z</time>
      </trkpt>
      <trkpt lat="43.35533288307488" lon="6.532796071842313">
        <ele>287.78</ele>
        <time>2024-12-08T11:44:36.565Z</time>
      </trkpt>
      <trkpt lat="43.35537982173264" lon="6.532763885334134">
        <ele>287.7</ele>
        <time>2024-12-08T11:44:41.878Z</time>
      </trkpt>
      <trkpt lat="43.35546615533531" lon="6.5326992608606815">
        <ele>287.62</ele>
        <time>2024-12-08T11:44:47.194Z</time>
      </trkpt>
      <trkpt lat="43.35560747422278" lon="6.5325805731117725">
        <ele>287.59</ele>
        <time>2024-12-08T11:44:52.516Z</time>
      </trkpt>
      <trkpt lat="43.35570286028087" lon="6.532497592270374">
        <ele>287.59</ele>
        <time>2024-12-08T11:44:57.842Z</time>
      </trkpt>
      <trkpt lat="43.35574518889189" lon="6.532480660825968">
        <ele>287.56</ele>
        <time>2024-12-08T11:45:03.170Z</time>
      </trkpt>
      <trkpt lat="43.35579531267285" lon="6.53247831389308">
        <ele>287.49</ele>
        <time>2024-12-08T11:45:08.499Z</time>
      </trkpt>
      <trkpt lat="43.35584593936801" lon="6.532503543421626">
        <ele>287.42</ele>
        <time>2024-12-08T11:45:13.830Z</time>
      </trkpt>
      <trkpt lat="43.35587720386684" lon="6.532550314441323">
        <ele>287.33</ele>
        <time>2024-12-08T11:45:19.163Z</time>
      </trkpt>
      <trkpt lat="43.35593294352293" lon="6.532656932249665">
        <ele>287.19</ele>
        <time>2024-12-08T11:45:24.499Z</time>
      </trkpt>
      <trkpt lat="43.355964878574014" lon="6.532708313316107">
        <ele>287.07</ele>
        <time>2024-12-08T11:45:29.837Z</time>
      </trkpt>
      <trkpt lat="43.356053894385695" lon="6.532854242250323">
        <ele>286.9</ele>
        <time>2024-12-08T11:45:35.180Z</time>
      </trkpt>
      <trkpt lat="43.35611038841307" lon="6.53294937685132">
        <ele>286.78</ele>
        <time>2024-12-08T11:45:40.526Z</time>
      </trkpt>
      <trkpt lat="43.356136875227094" lon="6.53299774043262">
        <ele>286.64</ele>
        <time>2024-12-08T11:45:45.873Z</time>
      </trkpt>
      <trkpt lat="43.35622957907617" lon="6.533109052106738">
        <ele>286.51</ele>
        <time>2024-12-08T11:45:51.225Z</time>
      </trkpt>
      <trkpt lat="43.3562973048538" lon="6.53315800242126">
        <ele>286.35</ele>
        <time>2024-12-08T11:45:56.579Z</time>
      </trkpt>
      <trkpt lat="43.35635991767049" lon="6.533245341852307">
        <ele>286.12</ele>
        <time>2024-12-08T11:46:01.937Z</time>
      </trkpt>
      <trkpt lat="43.35641079582274" lon="6.533356988802552">
        <ele>285.82</ele>
        <time>2024-12-08T11:46:07.298Z</time>
      </trkpt>
      <trkpt lat="43.35645371116698" lon="6.533587323501706">
        <ele>285.35</ele>
        <time>2024-12-08T11:46:12.665Z</time>
      </trkpt>
      <trkpt lat="43.35652118548751" lon="6.5337376948446035">
        <ele>284.92</ele>
        <time>2024-12-08T11:46:18.036Z</time>
      </trkpt>
      <trkpt lat="43.35655161179602" lon="6.5337806940078735">
        <ele>284.46</ele>
        <time>2024-12-08T11:46:23.409Z</time>
      </trkpt>
      <trkpt lat="43.35660056211054" lon="6.533875074237585">
        <ele>283.93</ele>
        <time>2024-12-08T11:46:28.785Z</time>
      </trkpt>
      <trkpt lat="43.35665420629084" lon="6.533971633762121">
        <ele>283.36</ele>
        <time>2024-12-08T11:46:34.164Z</time>
      </trkpt>
      <trkpt lat="43.35672209970653" lon="6.534059811383486">
        <ele>282.77</ele>
        <time>2024-12-08T11:46:39.546Z</time>
      </trkpt>
      <trkpt lat="43.35676065646112" lon="6.534109013155103">
        <ele>282.07</ele>
        <time>2024-12-08T11:46:44.930Z</time>
      </trkpt>
      <trkpt lat="43.35682368837297" lon="6.534228539094329">
        <ele>281.29</ele>
        <time>2024-12-08T11:46:50.318Z</time>
      </trkpt>
      <trkpt lat="43.35692871361971" lon="6.534429034218192">
        <ele>280.39</ele>
        <time>2024-12-08T11:46:55.712Z</time>
      </trkpt>
      <trkpt lat="43.356943717226386" lon="6.5345110930502415">
        <ele>279.39</ele>
        <time>2024-12-08T11:47:01.108Z</time>
      </trkpt>
      <trkpt lat="43.35695209912956" lon="6.534597175195813">
        <ele>278.31</ele>
        <time>2024-12-08T11:47:06.507Z</time>
      </trkpt>
      <trkpt lat="43.356956792995334" lon="6.534680742770433">
        <ele>277.16</ele>
        <time>2024-12-08T11:47:11.908Z</time>
      </trkpt>
      <trkpt lat="43.35696483962238" lon="6.534744864329696">
        <ele>275.98</ele>
        <time>2024-12-08T11:47:17.310Z</time>
      </trkpt>
      <trkpt lat="43.35697481408715" lon="6.534826839342713">
        <ele>274.71</ele>
        <time>2024-12-08T11:47:22.715Z</time>
      </trkpt>
      <trkpt lat="43.356993924826384" lon="6.5349142625927925">
        <ele>273.38</ele>
        <time>2024-12-08T11:47:28.122Z</time>
      </trkpt>
      <trkpt lat="43.35700633004308" lon="6.534995650872588">
        <ele>272.01</ele>
        <time>2024-12-08T11:47:33.531Z</time>
      </trkpt>
      <trkpt lat="43.357011107727885" lon="6.535080140456557">
        <ele>270.59</ele>
        <time>2024-12-08T11:47:38.942Z</time>
      </trkpt>
      <trkpt lat="43.35700943134725" lon="6.535161444917321">
        <ele>269.15</ele>
        <time>2024-12-08T11:47:44.355Z</time>
      </trkpt>
      <trkpt lat="43.357008676975965" lon="6.5352455992251635">
        <ele>267.7</ele>
        <time>2024-12-08T11:47:49.770Z</time>
      </trkpt>
      <trkpt lat="43.35698596201837" lon="6.535329334437847">
        <ele>266.18</ele>
        <time>2024-12-08T11:47:55.188Z</time>
      </trkpt>
      <trkpt lat="43.3569810166955" lon="6.535402005538344">
        <ele>264.69</ele>
        <time>2024-12-08T11:48:00.608Z</time>
      </trkpt>
      <trkpt lat="43.35698202252388" lon="6.535472916439176">
        <ele>263.21</ele>
        <time>2024-12-08T11:48:06.029Z</time>
      </trkpt>
      <trkpt lat="43.35698646493256" lon="6.535540139302611">
        <ele>261.75</ele>
        <time>2024-12-08T11:48:11.452Z</time>
      </trkpt>
      <trkpt lat="43.35699266754091" lon="6.53560409322381">
        <ele>260.3</ele>
        <time>2024-12-08T11:48:16.877Z</time>
      </trkpt>
      <trkpt lat="43.35700213909149" lon="6.5356699749827385">
        <ele>258.87</ele>
        <time>2024-12-08T11:48:22.303Z</time>
      </trkpt>
      <trkpt lat="43.35701462812722" lon="6.535741053521633">
        <ele>257.45</ele>
        <time>2024-12-08T11:48:27.731Z</time>
      </trkpt>
      <trkpt lat="43.35702518932521" lon="6.5358110424131155">
        <ele>256.06</ele>
        <time>2024-12-08T11:48:33.161Z</time>
      </trkpt>
      <trkpt lat="43.35704790428281" lon="6.535880360752344">
        <ele>254.71</ele>
        <time>2024-12-08T11:48:38.593Z</time>
      </trkpt>
      <trkpt lat="43.35708545520902" lon="6.535909781232476">
        <ele>253.47</ele>
        <time>2024-12-08T11:48:44.027Z</time>
      </trkpt>
      <trkpt lat="43.35713096894324" lon="6.5359497629106045">
        <ele>252.25</ele>
        <time>2024-12-08T11:48:49.463Z</time>
      </trkpt>
      <trkpt lat="43.357171788811684" lon="6.535996031016111">
        <ele>251.06</ele>
        <time>2024-12-08T11:48:54.900Z</time>
      </trkpt>
      <trkpt lat="43.357221661135554" lon="6.536039533093572">
        <ele>249.9</ele>
        <time>2024-12-08T11:49:00.339Z</time>
      </trkpt>
      <trkpt lat="43.357275389134884" lon="6.5360775869339705">
        <ele>248.77</ele>
        <time>2024-12-08T11:49:05.781Z</time>
      </trkpt>
      <trkpt lat="43.35732853040099" lon="6.536114299669862">
        <ele>247.68</ele>
        <time>2024-12-08T11:49:11.225Z</time>
      </trkpt>
      <trkpt lat="43.35737773217261" lon="6.536154029890895">
        <ele>246.63</ele>
        <time>2024-12-08T11:49:16.671Z</time>
      </trkpt>
      <trkpt lat="43.35742928087711" lon="6.536201890558004">
        <ele>245.61</ele>
        <time>2024-12-08T11:49:22.119Z</time>
      </trkpt>
      <trkpt lat="43.35748434998095" lon="6.536258719861507">
        <ele>244.59</ele>
        <time>2024-12-08T11:49:27.569Z</time>
      </trkpt>
      <trkpt lat="43.3575423527509" lon="6.536313872784376">
        <ele>243.6</ele>
        <time>2024-12-08T11:49:33.022Z</time>
      </trkpt>
      <trkpt lat="43.35760203190148" lon="6.536362320184708">
        <ele>242.65</ele>
        <time>2024-12-08T11:49:38.477Z</time>
      </trkpt>
      <trkpt lat="43.357665818184614" lon="6.536403223872185">
        <ele>241.73</ele>
        <time>2024-12-08T11:49:43.935Z</time>
      </trkpt>
      <trkpt lat="43.357726419344544" lon="6.536445636302233">
        <ele>240.83</ele>
        <time>2024-12-08T11:49:49.395Z</time>
      </trkpt>
      <trkpt lat="43.35778618231416" lon="6.536491150036454">
        <ele>239.96</ele>
        <time>2024-12-08T11:49:54.857Z</time>
      </trkpt>
      <trkpt lat="43.35784452036023" lon="6.536534400656819">
        <ele>239.1</ele>
        <time>2024-12-08T11:50:00.322Z</time>
      </trkpt>
      <trkpt lat="43.35790101438761" lon="6.536577483639121">
        <ele>238.27</ele>
        <time>2024-12-08T11:50:05.789Z</time>
      </trkpt>
      <trkpt lat="43.357958598062396" lon="6.536601539701223">
        <ele>237.46</ele>
        <time>2024-12-08T11:50:11.258Z</time>
      </trkpt>
      <trkpt lat="43.35799832828343" lon="6.536625511944294">
        <ele>236.66</ele>
        <time>2024-12-08T11:50:16.729Z</time>
      </trkpt>
      <trkpt lat="43.35802280344069" lon="6.536642862483859">
        <ele>235.87</ele>
        <time>2024-12-08T11:50:22.201Z</time>
      </trkpt>
      <trkpt lat="43.35804342292249" lon="6.536655351519585">
        <ele>235.1</ele>
        <time>2024-12-08T11:50:27.673Z</time>
      </trkpt>
      <trkpt lat="43.35806345567107" lon="6.536669433116913">
        <ele>234.32</ele>
        <time>2024-12-08T11:50:33.146Z</time>
      </trkpt>
      <trkpt lat="43.35807896219194" lon="6.536690052598715">
        <ele>233.52</ele>
        <time>2024-12-08T11:50:38.620Z</time>
      </trkpt>
      <trkpt lat="43.35809304378927" lon="6.536712432280183">
        <ele>232.72</ele>
        <time>2024-12-08T11:50:44.095Z</time>
      </trkpt>
      <trkpt lat="43.35811500437558" lon="6.536748642101884">
        <ele>231.9</ele>
        <time>2024-12-08T11:50:49.571Z</time>
      </trkpt>
      <trkpt lat="43.358184322714806" lon="6.536826426163316">
        <ele>231.04</ele>
        <time>2024-12-08T11:50:55.050Z</time>
      </trkpt>
      <trkpt lat="43.35822497494519" lon="6.536874622106552">
        <ele>230.19</ele>
        <time>2024-12-08T11:51:00.531Z</time>
      </trkpt>
      <trkpt lat="43.35826277732849" lon="6.536928182467818">
        <ele>229.33</ele>
        <time>2024-12-08T11:51:06.014Z</time>
      </trkpt>
      <trkpt lat="43.35830636322498" lon="6.536989286541939">
        <ele>228.44</ele>
        <time>2024-12-08T11:51:11.499Z</time>
      </trkpt>
      <trkpt lat="43.35834927856922" lon="6.53705139644444">
        <ele>227.53</ele>
        <time>2024-12-08T11:51:16.986Z</time>
      </trkpt>
      <trkpt lat="43.358389008790255" lon="6.53712959960103">
        <ele>226.59</ele>
        <time>2024-12-08T11:51:22.476Z</time>
      </trkpt>
      <trkpt lat="43.35844826884568" lon="6.537213921546936">
        <ele>225.64</ele>
        <time>2024-12-08T11:51:27.969Z</time>
      </trkpt>
      <trkpt lat="43.358494034036994" lon="6.537284580990672">
        <ele>224.71</ele>
        <time>2024-12-08T11:51:33.464Z</time>
      </trkpt>
      <trkpt lat="43.358527813106775" lon="6.537349205464125">
        <ele>223.8</ele>
        <time>2024-12-08T11:51:38.961Z</time>
      </trkpt>
      <trkpt lat="43.35855983197689" lon="6.53740419074893">
        <ele>222.9</ele>
        <time>2024-12-08T11:51:44.460Z</time>
      </trkpt>
      <trkpt lat="43.358596209436655" lon="6.537455739453435">
        <ele>222.0</ele>
        <time>2024-12-08T11:51:49.961Z</time>
      </trkpt>
      <trkpt lat="43.35863795131445" lon="6.537498906254768">
        <ele>221.12</ele>
        <time>2024-12-08T11:51:55.464Z</time>
      </trkpt>
      <trkpt lat="43.35868162102997" lon="6.537533355876803">
        <ele>220.26</ele>
        <time>2024-12-08T11:52:00.968Z</time>
      </trkpt>
      <trkpt lat="43.35873459465802" lon="6.537558417767286">
        <ele>219.43</ele>
        <time>2024-12-08T11:52:06.474Z</time>
      </trkpt>
      <trkpt lat="43.358781365677714" lon="6.537589346989989">
        <ele>218.6</ele>
        <time>2024-12-08T11:52:11.982Z</time>
      </trkpt>
      <trkpt lat="43.35882989689708" lon="6.537623293697834">
        <ele>217.78</ele>
        <time>2024-12-08T11:52:17.492Z</time>
      </trkpt>
      <trkpt lat="43.358883541077375" lon="6.537662353366613">
        <ele>216.98</ele>
        <time>2024-12-08T11:52:23.004Z</time>
      </trkpt>
      <trkpt lat="43.35894271731377" lon="6.53770761564374">
        <ele>216.19</ele>
        <time>2024-12-08T11:52:28.518Z</time>
      </trkpt>
      <trkpt lat="43.3590033184737" lon="6.5377536322921515">
        <ele>215.43</ele>
        <time>2024-12-08T11:52:34.035Z</time>
      </trkpt>
      <trkpt lat="43.3590617403388" lon="6.5378007385879755">
        <ele>214.68</ele>
        <time>2024-12-08T11:52:39.554Z</time>
      </trkpt>
      <trkpt lat="43.35911622270942" lon="6.537855891510844">
        <ele>213.93</ele>
        <time>2024-12-08T11:52:45.076Z</time>
      </trkpt>
      <trkpt lat="43.3591690286994" lon="6.537905931472778">
        <ele>213.21</ele>
        <time>2024-12-08T11:52:50.600Z</time>
      </trkpt>
      <trkpt lat="43.35922200232744" lon="6.537945996969938">
        <ele>212.5</ele>
        <time>2024-12-08T11:52:56.126Z</time>
      </trkpt>
      <trkpt lat="43.359270449727774" lon="6.537977596744895">
        <ele>211.83</ele>
        <time>2024-12-08T11:53:01.654Z</time>
      </trkpt>
      <trkpt lat="43.35932048968971" lon="6.5380066819489">
        <ele>211.17</ele>
        <time>2024-12-08T11:53:07.184Z</time>
      </trkpt>
      <trkpt lat="43.35937296040356" lon="6.538040125742555">
        <ele>210.54</ele>
        <time>2024-12-08T11:53:12.716Z</time>
      </trkpt>
      <trkpt lat="43.35943297483027" lon="6.538086896762252">
        <ele>209.91</ele>
        <time>2024-12-08T11:53:18.250Z</time>
      </trkpt>
      <trkpt lat="43.35950145497918" lon="6.538125704973936">
        <ele>209.3</ele>
        <time>2024-12-08T11:53:23.787Z</time>
      </trkpt>
      <trkpt lat="43.35957563482225" lon="6.5381482522934675">
        <ele>208.73</ele>
        <time>2024-12-08T11:53:29.326Z</time>
      </trkpt>
      <trkpt lat="43.3596473839134" lon="6.5381597355008125">
        <ele>208.19</ele>
        <time>2024-12-08T11:53:34.868Z</time>
      </trkpt>
      <trkpt lat="43.35971552878618" lon="6.5381774213165045">
        <ele>207.68</ele>
        <time>2024-12-08T11:53:40.412Z</time>
      </trkpt>
      <trkpt lat="43.35977747105062" lon="6.538215726613998">
        <ele>207.18</ele>
        <time>2024-12-08T11:53:45.959Z</time>
      </trkpt>
      <trkpt lat="43.35983564145863" lon="6.538260150700808">
        <ele>206.71</ele>
        <time>2024-12-08T11:53:51.508Z</time>
      </trkpt>
      <trkpt lat="43.35989615879953" lon="6.538288649171591">
        <ele>206.28</ele>
        <time>2024-12-08T11:53:57.059Z</time>
      </trkpt>
      <trkpt lat="43.35995927453041" lon="6.5383087657392025">
        <ele>205.89</ele>
        <time>2024-12-08T11:54:02.613Z</time>
      </trkpt>
      <trkpt lat="43.36001643911004" lon="6.538345394656062">
        <ele>205.53</ele>
        <time>2024-12-08T11:54:08.169Z</time>
      </trkpt>
      <trkpt lat="43.36005172692239" lon="6.538403397426009">
        <ele>205.2</ele>
        <time>2024-12-08T11:54:13.727Z</time>
      </trkpt>
      <trkpt lat="43.360062623396516" lon="6.538464417681098">
        <ele>204.91</ele>
        <time>2024-12-08T11:54:19.286Z</time>
      </trkpt>
      <trkpt lat="43.36005742661655" lon="6.538504064083099">
        <ele>204.68</ele>
        <time>2024-12-08T11:54:24.846Z</time>
      </trkpt>
      <trkpt lat="43.3600411657244" lon="6.5385175589472055">
        <ele>204.49</ele>
        <time>2024-12-08T11:54:30.407Z</time>
      </trkpt>
      <trkpt lat="43.36001727730036" lon="6.538512781262398">
        <ele>204.36</ele>
        <time>2024-12-08T11:54:35.969Z</time>
      </trkpt>
      <trkpt lat="43.35999338887632" lon="6.538502974435687">
        <ele>204.25</ele>
        <time>2024-12-08T11:54:41.532Z</time>
      </trkpt>
      <trkpt lat="43.35997427813709" lon="6.538492580875754">
        <ele>204.19</ele>
        <time>2024-12-08T11:54:47.096Z</time>
      </trkpt>
      <trkpt lat="43.35995642468333" lon="6.538479924201965">
        <ele>204.16</ele>
        <time>2024-12-08T11:54:52.660Z</time>
      </trkpt>
      <trkpt lat="43.35989221930504" lon="6.538451677188277">
        <ele>204.17</ele>
        <time>2024-12-08T11:54:58.227Z</time>
      </trkpt>
      <trkpt lat="43.359885178506374" lon="6.538450587540865">
        <ele>204.2</ele>
        <time>2024-12-08T11:55:03.794Z</time>
      </trkpt>
      <trkpt lat="43.35987067781389" lon="6.538446564227343">
        <ele>204.26</ele>
        <time>2024-12-08T11:55:09.361Z</time>
      </trkpt>
      <trkpt lat="43.359859865158796" lon="6.538439020514488">
        <ele>204.35</ele>
        <time>2024-12-08T11:55:14.929Z</time>
      </trkpt>
      <trkpt lat="43.35984871722758" lon="6.5384424570947886">
        <ele>204.47</ele>
        <time>2024-12-08T11:55:20.497Z</time>
      </trkpt>
      <trkpt lat="43.35979364812374" lon="6.538458131253719">
        <ele>204.62</ele>
        <time>2024-12-08T11:55:26.067Z</time>
      </trkpt>
      <trkpt lat="43.35971628315747" lon="6.538558043539524">
        <ele>204.8</ele>
        <time>2024-12-08T11:55:31.641Z</time>
      </trkpt>
      <trkpt lat="43.35968124680221" lon="6.538602719083428">
        <ele>205.0</ele>
        <time>2024-12-08T11:55:37.217Z</time>
      </trkpt>
      <trkpt lat="43.359612012282014" lon="6.538644963875413">
        <ele>205.23</ele>
        <time>2024-12-08T11:55:42.795Z</time>
      </trkpt>
      <trkpt lat="43.35951084271073" lon="6.538653681054711">
        <ele>205.49</ele>
        <time>2024-12-08T11:55:48.377Z</time>
      </trkpt>
      <trkpt lat="43.359461557120085" lon="6.538662565872073">
        <ele>205.77</ele>
        <time>2024-12-08T11:55:53.961Z</time>
      </trkpt>
      <trkpt lat="43.35941000841558" lon="6.538659380748868">
        <ele>206.07</ele>
        <time>2024-12-08T11:55:59.546Z</time>
      </trkpt>
      <trkpt lat="43.359383856877685" lon="6.538659380748868">
        <ele>206.38</ele>
        <time>2024-12-08T11:56:05.132Z</time>
      </trkpt>
      <trkpt lat="43.35933071561158" lon="6.538659883663058">
        <ele>206.71</ele>
        <time>2024-12-08T11:56:10.720Z</time>
      </trkpt>
      <trkpt lat="43.35930305533111" lon="6.538659632205963">
        <ele>207.06</ele>
        <time>2024-12-08T11:56:16.309Z</time>
      </trkpt>
      <trkpt lat="43.35927715525031" lon="6.538658710196614">
        <ele>207.42</ele>
        <time>2024-12-08T11:56:21.899Z</time>
      </trkpt>
      <trkpt lat="43.359251422807574" lon="6.538658710196614">
        <ele>207.8</ele>
        <time>2024-12-08T11:56:27.490Z</time>
      </trkpt>
      <trkpt lat="43.35922518745065" lon="6.538655860349536">
        <ele>208.19</ele>
        <time>2024-12-08T11:56:33.082Z</time>
      </trkpt>
      <trkpt lat="43.359146900475025" lon="6.538638845086098">
        <ele>208.6</ele>
        <time>2024-12-08T11:56:38.677Z</time>
      </trkpt>
      <trkpt lat="43.35909686051309" lon="6.538615878671408">
        <ele>209.03</ele>
        <time>2024-12-08T11:56:44.273Z</time>
      </trkpt>
      <trkpt lat="43.3590720500797" lon="6.538598528131843">
        <ele>209.46</ele>
        <time>2024-12-08T11:56:49.870Z</time>
      </trkpt>
      <trkpt lat="43.359045730903745" lon="6.5385805908590555">
        <ele>209.91</ele>
        <time>2024-12-08T11:56:55.468Z</time>
      </trkpt>
      <trkpt lat="43.359019411727786" lon="6.538562988862395">
        <ele>210.37</ele>
        <time>2024-12-08T11:57:01.067Z</time>
      </trkpt>
      <trkpt lat="43.3589927572757" lon="6.538542453199625">
        <ele>210.83</ele>
        <time>2024-12-08T11:57:06.668Z</time>
      </trkpt>
      <trkpt lat="43.358968114480376" lon="6.538520576432347">
        <ele>211.3</ele>
        <time>2024-12-08T11:57:12.270Z</time>
      </trkpt>
      <trkpt lat="43.35886627435684" lon="6.538437092676759">
        <ele>211.8</ele>
        <time>2024-12-08T11:57:17.876Z</time>
      </trkpt>
      <trkpt lat="43.358727637678385" lon="6.538333240896463">
        <ele>212.34</ele>
        <time>2024-12-08T11:57:23.487Z</time>
      </trkpt>
      <trkpt lat="43.35870525799692" lon="6.538312621414661">
        <ele>212.82</ele>
        <time>2024-12-08T11:57:29.099Z</time>
      </trkpt>
      <trkpt lat="43.35868287831545" lon="6.538290660828352">
        <ele>213.3</ele>
        <time>2024-12-08T11:57:34.712Z</time>
      </trkpt>
      <trkpt lat="43.3586610853672" lon="6.538267945870757">
        <ele>213.77</ele>
        <time>2024-12-08T11:57:40.326Z</time>
      </trkpt>
      <trkpt lat="43.35864147171378" lon="6.538243889808655">
        <ele>214.24</ele>
        <time>2024-12-08T11:57:45.941Z</time>
      </trkpt>
      <trkpt lat="43.35858481004834" lon="6.538160406053066">
        <ele>214.73</ele>
        <time>2024-12-08T11:57:51.559Z</time>
      </trkpt>
      <trkpt lat="43.35844608955085" lon="6.538078095763922">
        <ele>215.24</ele>
        <time>2024-12-08T11:57:57.182Z</time>
      </trkpt>
      <trkpt lat="43.35841909982264" lon="6.538069546222687">
        <ele>215.69</ele>
        <time>2024-12-08T11:58:02.806Z</time>
      </trkpt>
      <trkpt lat="43.35839261300862" lon="6.5380593203008175">
        <ele>216.14</ele>
        <time>2024-12-08T11:58:08.431Z</time>
      </trkpt>
      <trkpt lat="43.35836721584201" lon="6.538050435483456">
        <ele>216.57</ele>
        <time>2024-12-08T11:58:14.057Z</time>
      </trkpt>
      <trkpt lat="43.35834148339927" lon="6.538042640313506">
        <ele>217.0</ele>
        <time>2024-12-08T11:58:19.684Z</time>
      </trkpt>
      <trkpt lat="43.358316672965884" lon="6.538039958104491">
        <ele>217.41</ele>
        <time>2024-12-08T11:58:25.312Z</time>
      </trkpt>
      <trkpt lat="43.35829018615186" lon="6.5380375273525715">
        <ele>217.81</ele>
        <time>2024-12-08T11:58:30.941Z</time>
      </trkpt>
      <trkpt lat="43.35818264633417" lon="6.538048340007663">
        <ele>218.24</ele>
        <time>2024-12-08T11:58:36.574Z</time>
      </trkpt>
      <trkpt lat="43.358159847557545" lon="6.538049345836043">
        <ele>218.62</ele>
        <time>2024-12-08T11:58:42.207Z</time>
      </trkpt>
      <trkpt lat="43.35814015008509" lon="6.538051273673773">
        <ele>218.98</ele>
        <time>2024-12-08T11:58:47.841Z</time>
      </trkpt>
      <trkpt lat="43.35812145844102" lon="6.538059068843722">
        <ele>219.33</ele>
        <time>2024-12-08T11:58:53.476Z</time>
      </trkpt>
      <trkpt lat="43.35810142569244" lon="6.538074743002653">
        <ele>219.68</ele>
        <time>2024-12-08T11:58:59.112Z</time>
      </trkpt>
      <trkpt lat="43.35806052200496" lon="6.538114221766591">
        <ele>220.02</ele>
        <time>2024-12-08T11:59:04.749Z</time>
      </trkpt>
      <trkpt lat="43.35803998634219" lon="6.538128303363919">
        <ele>220.34</ele>
        <time>2024-12-08T11:59:10.387Z</time>
      </trkpt>
      <trkpt lat="43.358021629974246" lon="6.538133751600981">
        <ele>220.65</ele>
        <time>2024-12-08T11:59:16.026Z</time>
      </trkpt>
      <trkpt lat="43.35800285451114" lon="6.538139870390296">
        <ele>220.96</ele>
        <time>2024-12-08T11:59:21.665Z</time>
      </trkpt>
      <trkpt lat="43.35798550397158" lon="6.538147917017341">
        <ele>221.26</ele>
        <time>2024-12-08T11:59:27.305Z</time>
      </trkpt>
      <trkpt lat="43.3579689078033" lon="6.538158897310495">
        <ele>221.56</ele>
        <time>2024-12-08T11:59:32.946Z</time>
      </trkpt>
      <trkpt lat="43.35795105434954" lon="6.538171470165253">
        <ele>221.85</ele>
        <time>2024-12-08T11:59:38.587Z</time>
      </trkpt>
      <trkpt lat="43.35793336853385" lon="6.5381785947829485">
        <ele>222.14</ele>
        <time>2024-12-08T11:59:44.229Z</time>
      </trkpt>
      <trkpt lat="43.35791484452784" lon="6.538179097697139">
        <ele>222.43</ele>
        <time>2024-12-08T11:59:49.872Z</time>
      </trkpt>
      <trkpt lat="43.357894057407975" lon="6.538171889260411">
        <ele>222.73</ele>
        <time>2024-12-08T11:59:55.516Z</time>
      </trkpt>
      <trkpt lat="43.35787410847843" lon="6.53816057369113">
        <ele>223.02</ele>
        <time>2024-12-08T12:00:01.160Z</time>
      </trkpt>
      <trkpt lat="43.35785524919629" lon="6.53814640827477">
        <ele>223.32</ele>
        <time>2024-12-08T12:00:06.805Z</time>
      </trkpt>
      <trkpt lat="43.35783622227609" lon="6.538135092705488">
        <ele>223.62</ele>
        <time>2024-12-08T12:00:12.451Z</time>
      </trkpt>
      <trkpt lat="43.35781719535589" lon="6.538120089098811">
        <ele>223.93</ele>
        <time>2024-12-08T12:00:18.098Z</time>
      </trkpt>
      <trkpt lat="43.357721138745546" lon="6.538120424374938">
        <ele>224.31</ele>
        <time>2024-12-08T12:00:23.748Z</time>
      </trkpt>
      <trkpt lat="43.35770169273019" lon="6.538127884268761">
        <ele>224.65</ele>
        <time>2024-12-08T12:00:29.399Z</time>
      </trkpt>
      <trkpt lat="43.35768769495189" lon="6.538140038028359">
        <ele>224.98</ele>
        <time>2024-12-08T12:00:35.050Z</time>
      </trkpt>
      <trkpt lat="43.357678055763245" lon="6.538158813491464">
        <ele>225.32</ele>
        <time>2024-12-08T12:00:40.702Z</time>
      </trkpt>
      <trkpt lat="43.357669757679105" lon="6.5381774213165045">
        <ele>225.67</ele>
        <time>2024-12-08T12:00:46.354Z</time>
      </trkpt>
      <trkpt lat="43.35766405798495" lon="6.538200471550226">
        <ele>226.03</ele>
        <time>2024-12-08T12:00:52.007Z</time>
      </trkpt>
      <trkpt lat="43.35766020230949" lon="6.538222683593631">
        <ele>226.4</ele>
        <time>2024-12-08T12:00:57.661Z</time>
      </trkpt>
      <trkpt lat="43.35765450261533" lon="6.538244811818004">
        <ele>226.78</ele>
        <time>2024-12-08T12:01:03.315Z</time>
      </trkpt>
      <trkpt lat="43.35764989256859" lon="6.538265682756901">
        <ele>227.16</ele>
        <time>2024-12-08T12:01:08.970Z</time>
      </trkpt>
      <trkpt lat="43.357646372169256" lon="6.538287978619337">
        <ele>227.56</ele>
        <time>2024-12-08T12:01:14.625Z</time>
      </trkpt>
      <trkpt lat="43.357642935588956" lon="6.538311531767249">
        <ele>227.98</ele>
        <time>2024-12-08T12:01:20.281Z</time>
      </trkpt>
      <trkpt lat="43.35763832554221" lon="6.538335671648383">
        <ele>228.4</ele>
        <time>2024-12-08T12:01:25.938Z</time>
      </trkpt>
      <trkpt lat="43.357631703838706" lon="6.538358302786946">
        <ele>228.84</ele>
        <time>2024-12-08T12:01:31.595Z</time>
      </trkpt>
      <trkpt lat="43.35762441158295" lon="6.538381604477763">
        <ele>229.3</ele>
        <time>2024-12-08T12:01:37.253Z</time>
      </trkpt>
      <trkpt lat="43.357591554522514" lon="6.538465339690447">
        <ele>229.8</ele>
        <time>2024-12-08T12:01:42.913Z</time>
      </trkpt>
      <trkpt lat="43.35758074186742" lon="6.538480846211314">
        <ele>230.28</ele>
        <time>2024-12-08T12:01:48.574Z</time>
      </trkpt>
      <trkpt lat="43.35757261142135" lon="6.538501130416989">
        <ele>230.79</ele>
        <time>2024-12-08T12:01:54.235Z</time>
      </trkpt>
      <trkpt lat="43.35756557062268" lon="6.538526779040694">
        <ele>231.31</ele>
        <time>2024-12-08T12:01:59.897Z</time>
      </trkpt>
      <trkpt lat="43.35755945183337" lon="6.538549913093448">
        <ele>231.83</ele>
        <time>2024-12-08T12:02:05.560Z</time>
      </trkpt>
      <trkpt lat="43.35754604078829" lon="6.538596013560891">
        <ele>232.39</ele>
        <time>2024-12-08T12:02:11.224Z</time>
      </trkpt>
      <trkpt lat="43.35753824561834" lon="6.53861939907074">
        <ele>232.94</ele>
        <time>2024-12-08T12:02:16.889Z</time>
      </trkpt>
      <trkpt lat="43.35753254592419" lon="6.538644544780254">
        <ele>233.5</ele>
        <time>2024-12-08T12:02:22.554Z</time>
      </trkpt>
      <trkpt lat="43.35752726532519" lon="6.5386677626520395">
        <ele>234.05</ele>
        <time>2024-12-08T12:02:28.220Z</time>
      </trkpt>
      <trkpt lat="43.35752248764038" lon="6.538691651076078">
        <ele>234.61</ele>
        <time>2024-12-08T12:02:33.887Z</time>
      </trkpt>
      <trkpt lat="43.3574990183115" lon="6.5387605503201485">
        <ele>235.19</ele>
        <time>2024-12-08T12:02:39.555Z</time>
      </trkpt>
      <trkpt lat="43.3574921451509" lon="6.538781588897109">
        <ele>235.75</ele>
        <time>2024-12-08T12:02:45.224Z</time>
      </trkpt>
      <trkpt lat="43.35748401470482" lon="6.538803800940514">
        <ele>236.31</ele>
        <time>2024-12-08T12:02:50.894Z</time>
      </trkpt>
      <trkpt lat="43.35747689008713" lon="6.538824252784252">
        <ele>236.88</ele>
        <time>2024-12-08T12:02:56.564Z</time>
      </trkpt>
      <trkpt lat="43.35744956508279" lon="6.538888039067388">
        <ele>237.48</ele>
        <time>2024-12-08T12:03:02.236Z</time>
      </trkpt>
      <trkpt lat="43.357439171522856" lon="6.538902623578906">
        <ele>238.05</ele>
        <time>2024-12-08T12:03:07.909Z</time>
      </trkpt>
      <trkpt lat="43.357425509020686" lon="6.538915615528822">
        <ele>238.63</ele>
        <time>2024-12-08T12:03:13.582Z</time>
      </trkpt>
      <trkpt lat="43.35741410963237" lon="6.538930367678404">
        <ele>239.2</ele>
        <time>2024-12-08T12:03:19.256Z</time>
      </trkpt>
      <trkpt lat="43.35740354843438" lon="6.538948221132159">
        <ele>239.77</ele>
        <time>2024-12-08T12:03:24.930Z</time>
      </trkpt>
      <trkpt lat="43.357379073277116" lon="6.539002368226647">
        <ele>240.36</ele>
        <time>2024-12-08T12:03:30.606Z</time>
      </trkpt>
      <trkpt lat="43.35736842826009" lon="6.53902156278491">
        <ele>240.92</ele>
        <time>2024-12-08T12:03:36.283Z</time>
      </trkpt>
      <trkpt lat="43.35735769942403" lon="6.5390456188470125">
        <ele>241.47</ele>
        <time>2024-12-08T12:03:41.960Z</time>
      </trkpt>
      <trkpt lat="43.357347305864096" lon="6.539069004356861">
        <ele>242.01</ele>
        <time>2024-12-08T12:03:47.638Z</time>
      </trkpt>
      <trkpt lat="43.35733573883772" lon="6.5390894562006">
        <ele>242.54</ele>
        <time>2024-12-08T12:03:53.317Z</time>
      </trkpt>
      <trkpt lat="43.35730346851051" lon="6.539145698770881">
        <ele>243.09</ele>
        <time>2024-12-08T12:03:58.998Z</time>
      </trkpt>
      <trkpt lat="43.35729424841702" lon="6.539165899157524">
        <ele>243.59</ele>
        <time>2024-12-08T12:04:04.679Z</time>
      </trkpt>
      <trkpt lat="43.35728435777128" lon="6.539184171706438">
        <ele>244.09</ele>
        <time>2024-12-08T12:04:10.361Z</time>
      </trkpt>
      <trkpt lat="43.35727480240166" lon="6.539204455912113">
        <ele>244.58</ele>
        <time>2024-12-08T12:04:16.043Z</time>
      </trkpt>
      <trkpt lat="43.35726440884173" lon="6.539228428155184">
        <ele>245.05</ele>
        <time>2024-12-08T12:04:21.726Z</time>
      </trkpt>
      <trkpt lat="43.357252506539226" lon="6.539249885827303">
        <ele>245.52</ele>
        <time>2024-12-08T12:04:27.410Z</time>
      </trkpt>
      <trkpt lat="43.35723222233355" lon="6.53929858468473">
        <ele>245.99</ele>
        <time>2024-12-08T12:04:33.095Z</time>
      </trkpt>
      <trkpt lat="43.357223169878125" lon="6.5393236465752125">
        <ele>246.42</ele>
        <time>2024-12-08T12:04:38.781Z</time>
      </trkpt>
      <trkpt lat="43.35721747018397" lon="6.5393501333892345">
        <ele>246.84</ele>
        <time>2024-12-08T12:04:44.468Z</time>
      </trkpt>
      <trkpt lat="43.35721210576594" lon="6.539375362917781">
        <ele>247.24</ele>
        <time>2024-12-08T12:04:50.155Z</time>
      </trkpt>
      <trkpt lat="43.3571985270828" lon="6.539420122280717">
        <ele>247.65</ele>
        <time>2024-12-08T12:04:55.844Z</time>
      </trkpt>
      <trkpt lat="43.357193833217025" lon="6.539444178342819">
        <ele>248.03</ele>
        <time>2024-12-08T12:05:01.533Z</time>
      </trkpt>
      <trkpt lat="43.357188468798995" lon="6.539470832794905">
        <ele>248.41</ele>
        <time>2024-12-08T12:05:07.223Z</time>
      </trkpt>
      <trkpt lat="43.357182182371616" lon="6.539496565237641">
        <ele>248.78</ele>
        <time>2024-12-08T12:05:12.914Z</time>
      </trkpt>
      <trkpt lat="43.357173800468445" lon="6.539518190547824">
        <ele>249.15</ele>
        <time>2024-12-08T12:05:18.605Z</time>
      </trkpt>
      <trkpt lat="43.35716659203172" lon="6.539541073143482">
        <ele>249.51</ele>
        <time>2024-12-08T12:05:24.297Z</time>
      </trkpt>
      <trkpt lat="43.357160640880466" lon="6.539561944082379">
        <ele>249.86</ele>
        <time>2024-12-08T12:05:29.989Z</time>
      </trkpt>
      <trkpt lat="43.35714572109282" lon="6.53960251249373">
        <ele>250.23</ele>
        <time>2024-12-08T12:05:35.683Z</time>
      </trkpt>
      <trkpt lat="43.357135746628046" lon="6.539641320705414">
        <ele>250.58</ele>
        <time>2024-12-08T12:05:41.378Z</time>
      </trkpt>
      <trkpt lat="43.357129292562604" lon="6.53966361656785">
        <ele>250.92</ele>
        <time>2024-12-08T12:05:47.073Z</time>
      </trkpt>
      <trkpt lat="43.35712225176394" lon="6.539685493335128">
        <ele>251.26</ele>
        <time>2024-12-08T12:05:52.769Z</time>
      </trkpt>
      <trkpt lat="43.35711822845042" lon="6.539707705378532">
        <ele>251.58</ele>
        <time>2024-12-08T12:05:58.465Z</time>
      </trkpt>
      <trkpt lat="43.35711454041302" lon="6.539727905765176">
        <ele>251.9</ele>
        <time>2024-12-08T12:06:04.162Z</time>
      </trkpt>
      <trkpt lat="43.35711336694658" lon="6.5397497825324535">
        <ele>252.22</ele>
        <time>2024-12-08T12:06:09.860Z</time>
      </trkpt>
      <trkpt lat="43.357106409966946" lon="6.539771072566509">
        <ele>252.55</ele>
        <time>2024-12-08T12:06:15.558Z</time>
      </trkpt>
      <trkpt lat="43.35709920153022" lon="6.539792278781533">
        <ele>252.89</ele>
        <time>2024-12-08T12:06:21.257Z</time>
      </trkpt>
      <trkpt lat="43.357095094397664" lon="6.539815245196223">
        <ele>253.21</ele>
        <time>2024-12-08T12:06:26.956Z</time>
      </trkpt>
      <trkpt lat="43.35709081962705" lon="6.5398363675922155">
        <ele>253.54</ele>
        <time>2024-12-08T12:06:32.656Z</time>
      </trkpt>
      <trkpt lat="43.35708428174257" lon="6.539857406169176">
        <ele>253.86</ele>
        <time>2024-12-08T12:06:38.356Z</time>
      </trkpt>
      <trkpt lat="43.35707883350551" lon="6.53988154605031">
        <ele>254.2</ele>
        <time>2024-12-08T12:06:44.057Z</time>
      </trkpt>
      <trkpt lat="43.357072630897164" lon="6.539904847741127">
        <ele>254.53</ele>
        <time>2024-12-08T12:06:49.759Z</time>
      </trkpt>
      <trkpt lat="43.35706709884107" lon="6.539928652346134">
        <ele>254.86</ele>
        <time>2024-12-08T12:06:55.461Z</time>
      </trkpt>
      <trkpt lat="43.35706357844174" lon="6.5399527084082365">
        <ele>255.19</ele>
        <time>2024-12-08T12:07:01.164Z</time>
      </trkpt>
      <trkpt lat="43.35705829784274" lon="6.539978608489037">
        <ele>255.51</ele>
        <time>2024-12-08T12:07:06.868Z</time>
      </trkpt>
      <trkpt lat="43.35703331977129" lon="6.540078688412905">
        <ele>255.91</ele>
        <time>2024-12-08T12:07:12.574Z</time>
      </trkpt>
      <trkpt lat="43.35702368058264" lon="6.5401034988462925">
        <ele>256.25</ele>
        <time>2024-12-08T12:07:18.281Z</time>
      </trkpt>
      <trkpt lat="43.35701521486044" lon="6.540128728374839">
        <ele>256.6</ele>
        <time>2024-12-08T12:07:23.989Z</time>
      </trkpt>
      <trkpt lat="43.35700783878565" lon="6.540154712274671">
        <ele>256.93</ele>
        <time>2024-12-08T12:07:29.698Z</time>
      </trkpt>
      <trkpt lat="43.35700046271086" lon="6.540175834670663">
        <ele>257.25</ele>
        <time>2024-12-08T12:07:35.407Z</time>
      </trkpt>
      <trkpt lat="43.3569826092571" lon="6.54022210277617">
        <ele>257.6</ele>
        <time>2024-12-08T12:07:41.117Z</time>
      </trkpt>
      <trkpt lat="43.35698168724775" lon="6.540244650095701">
        <ele>257.91</ele>
        <time>2024-12-08T12:07:46.828Z</time>
      </trkpt>
      <trkpt lat="43.356983279809356" lon="6.540268454700708">
        <ele>258.22</ele>
        <time>2024-12-08T12:07:52.540Z</time>
      </trkpt>
      <trkpt lat="43.356976825743914" lon="6.5402967017143965">
        <ele>258.54</ele>
        <time>2024-12-08T12:07:58.252Z</time>
      </trkpt>
      <trkpt lat="43.35696936585009" lon="6.5403237752616405">
        <ele>258.87</ele>
        <time>2024-12-08T12:08:03.965Z</time>
      </trkpt>
      <trkpt lat="43.35695469751954" lon="6.5404091868549585">
        <ele>259.21</ele>
        <time>2024-12-08T12:08:09.680Z</time>
      </trkpt>
      <trkpt lat="43.356951931491494" lon="6.540466267615557">
        <ele>259.52</ele>
        <time>2024-12-08T12:08:15.397Z</time>
      </trkpt>
      <trkpt lat="43.35695176385343" lon="6.5404940117150545">
        <ele>259.82</ele>
        <time>2024-12-08T12:08:21.115Z</time>
      </trkpt>
      <trkpt lat="43.35695452988148" lon="6.540521504357457">
        <ele>260.12</ele>
        <time>2024-12-08T12:08:26.833Z</time>
      </trkpt>
      <trkpt lat="43.35695528425276" lon="6.540553020313382">
        <ele>260.41</ele>
        <time>2024-12-08T12:08:32.552Z</time>
      </trkpt>
      <trkpt lat="43.35695260204375" lon="6.540583865717053">
        <ele>260.72</ele>
        <time>2024-12-08T12:08:38.272Z</time>
      </trkpt>
      <trkpt lat="43.35694866254926" lon="6.540642874315381">
        <ele>261.04</ele>
        <time>2024-12-08T12:08:43.993Z</time>
      </trkpt>
      <trkpt lat="43.356929551810026" lon="6.540747312828898">
        <ele>261.36</ele>
        <time>2024-12-08T12:08:49.717Z</time>
      </trkpt>
      <trkpt lat="43.35692678578198" lon="6.540773967280984">
        <ele>261.65</ele>
        <time>2024-12-08T12:08:55.442Z</time>
      </trkpt>
      <trkpt lat="43.35692326538265" lon="6.540799867361784">
        <ele>261.95</ele>
        <time>2024-12-08T12:09:01.168Z</time>
      </trkpt>
      <trkpt lat="43.356915805488825" lon="6.540824258700013">
        <ele>262.24</ele>
        <time>2024-12-08T12:09:06.894Z</time>
      </trkpt>
      <trkpt lat="43.35690742358565" lon="6.540847225114703">
        <ele>262.54</ele>
        <time>2024-12-08T12:09:12.621Z</time>
      </trkpt>
      <trkpt lat="43.35689946077764" lon="6.5409292839467525">
        <ele>262.85</ele>
        <time>2024-12-08T12:09:18.350Z</time>
      </trkpt>
      <trkpt lat="43.356956876814365" lon="6.541141513735056">
        <ele>263.14</ele>
        <time>2024-12-08T12:09:24.085Z</time>
      </trkpt>
      <trkpt lat="43.3569707069546" lon="6.541173197329044">
        <ele>263.44</ele>
        <time>2024-12-08T12:09:29.821Z</time>
      </trkpt>
      <trkpt lat="43.35698436945677" lon="6.54120571911335">
        <ele>263.74</ele>
        <time>2024-12-08T12:09:35.558Z</time>
      </trkpt>
      <trkpt lat="43.35699727758765" lon="6.541234133765101">
        <ele>264.05</ele>
        <time>2024-12-08T12:09:41.296Z</time>
      </trkpt>
      <trkpt lat="43.357009096071124" lon="6.541261542588472">
        <ele>264.36</ele>
        <time>2024-12-08T12:09:47.034Z</time>
      </trkpt>
      <trkpt lat="43.357041450217366" lon="6.5413545817136765">
        <ele>264.7</ele>
        <time>2024-12-08T12:09:52.775Z</time>
      </trkpt>
      <trkpt lat="43.35711487568915" lon="6.541587682440877">
        <ele>265.06</ele>
        <time>2024-12-08T12:09:58.522Z</time>
      </trkpt>
      <trkpt lat="43.35712174884975" lon="6.541619198396802">
        <ele>265.4</ele>
        <time>2024-12-08T12:10:04.270Z</time>
      </trkpt>
      <trkpt lat="43.35713163949549" lon="6.541658090427518">
        <ele>265.74</ele>
        <time>2024-12-08T12:10:10.019Z</time>
      </trkpt>
      <trkpt lat="43.35713784210384" lon="6.541696731001139">
        <ele>266.09</ele>
        <time>2024-12-08T12:10:15.769Z</time>
      </trkpt>
      <trkpt lat="43.357137674465775" lon="6.541731683537364">
        <ele>266.45</ele>
        <time>2024-12-08T12:10:21.520Z</time>
      </trkpt>
      <trkpt lat="43.35713692009449" lon="6.541765965521336">
        <ele>266.83</ele>
        <time>2024-12-08T12:10:27.272Z</time>
      </trkpt>
      <trkpt lat="43.35712485015392" lon="6.5419677179306746">
        <ele>267.27</ele>
        <time>2024-12-08T12:10:33.029Z</time>
      </trkpt>
      <trkpt lat="43.35711680352688" lon="6.541996216401458">
        <ele>267.66</ele>
        <time>2024-12-08T12:10:38.787Z</time>
      </trkpt>
      <trkpt lat="43.357106829062104" lon="6.54202270321548">
        <ele>268.06</ele>
        <time>2024-12-08T12:10:44.546Z</time>
      </trkpt>
      <trkpt lat="43.357101548463106" lon="6.542050866410136">
        <ele>268.47</ele>
        <time>2024-12-08T12:10:50.306Z</time>
      </trkpt>
      <trkpt lat="43.35708134807646" lon="6.542144324630499">
        <ele>268.92</ele>
        <time>2024-12-08T12:10:56.068Z</time>
      </trkpt>
      <trkpt lat="43.357080509886146" lon="6.542173828929663">
        <ele>269.34</ele>
        <time>2024-12-08T12:11:01.831Z</time>
      </trkpt>
      <trkpt lat="43.35707732476294" lon="6.542200734838843">
        <ele>269.77</ele>
        <time>2024-12-08T12:11:07.595Z</time>
      </trkpt>
      <trkpt lat="43.35707003250718" lon="6.542227892205119">
        <ele>270.22</ele>
        <time>2024-12-08T12:11:13.359Z</time>
      </trkpt>
      <trkpt lat="43.35706223733723" lon="6.5422531217336655">
        <ele>270.66</ele>
        <time>2024-12-08T12:11:19.124Z</time>
      </trkpt>
      <trkpt lat="43.3570568729192" lon="6.5422796085476875">
        <ele>271.11</ele>
        <time>2024-12-08T12:11:24.890Z</time>
      </trkpt>
      <trkpt lat="43.35705192759633" lon="6.542306514456868">
        <ele>271.56</ele>
        <time>2024-12-08T12:11:30.656Z</time>
      </trkpt>
      <trkpt lat="43.35704505443573" lon="6.542332414537668">
        <ele>272.02</ele>
        <time>2024-12-08T12:11:36.423Z</time>
      </trkpt>
      <trkpt lat="43.35703977383673" lon="6.542359236627817">
        <ele>272.49</ele>
        <time>2024-12-08T12:11:42.191Z</time>
      </trkpt>
      <trkpt lat="43.35703432559967" lon="6.542383627966046">
        <ele>272.98</ele>
        <time>2024-12-08T12:11:47.959Z</time>
      </trkpt>
      <trkpt lat="43.35702468641102" lon="6.5424080193042755">
        <ele>273.47</ele>
        <time>2024-12-08T12:11:53.728Z</time>
      </trkpt>
      <trkpt lat="43.357012616470456" lon="6.542432410642505">
        <ele>273.97</ele>
        <time>2024-12-08T12:11:59.498Z</time>
      </trkpt>
      <trkpt lat="43.35700314491987" lon="6.542452024295926">
        <ele>274.48</ele>
        <time>2024-12-08T12:12:05.269Z</time>
      </trkpt>
      <trkpt lat="43.35699073970318" lon="6.54247373342514">
        <ele>275.0</ele>
        <time>2024-12-08T12:12:11.040Z</time>
      </trkpt>
      <trkpt lat="43.35697716102004" lon="6.542494772002101">
        <ele>275.52</ele>
        <time>2024-12-08T12:12:16.812Z</time>
      </trkpt>
      <trkpt lat="43.35696207359433" lon="6.542511871084571">
        <ele>276.04</ele>
        <time>2024-12-08T12:12:22.585Z</time>
      </trkpt>
      <trkpt lat="43.35694732144475" lon="6.5425284672528505">
        <ele>276.56</ele>
        <time>2024-12-08T12:12:28.358Z</time>
      </trkpt>
      <trkpt lat="43.356932904571295" lon="6.542543722316623">
        <ele>277.08</ele>
        <time>2024-12-08T12:12:34.132Z</time>
      </trkpt>
      <trkpt lat="43.356918320059776" lon="6.542558139190078">
        <ele>277.59</ele>
        <time>2024-12-08T12:12:39.907Z</time>
      </trkpt>
      <trkpt lat="43.356890911236405" lon="6.542590158060193">
        <ele>278.12</ele>
        <time>2024-12-08T12:12:45.683Z</time>
      </trkpt>
      <trkpt lat="43.35687800310552" lon="6.542603820562363">
        <ele>278.64</ele>
        <time>2024-12-08T12:12:51.459Z</time>
      </trkpt>
      <trkpt lat="43.356862077489495" lon="6.542619662359357">
        <ele>279.15</ele>
        <time>2024-12-08T12:12:57.236Z</time>
      </trkpt>
      <trkpt lat="43.35684799589217" lon="6.542634917423129">
        <ele>279.65</ele>
        <time>2024-12-08T12:13:03.014Z</time>
      </trkpt>
      <trkpt lat="43.35683014243841" lon="6.542650507763028">
        <ele>280.15</ele>
        <time>2024-12-08T12:13:08.792Z</time>
      </trkpt>
      <trkpt lat="43.35681262426078" lon="6.5426648408174515">
        <ele>280.64</ele>
        <time>2024-12-08T12:13:14.571Z</time>
      </trkpt>
      <trkpt lat="43.35679435171187" lon="6.5426733903586864">
        <ele>281.13</ele>
        <time>2024-12-08T12:13:20.351Z</time>
      </trkpt>
      <trkpt lat="43.356776582077146" lon="6.542683616280556">
        <ele>281.6</ele>
        <time>2024-12-08T12:13:26.132Z</time>
      </trkpt>
      <trkpt lat="43.3567632548511" lon="6.542700296267867">
        <ele>282.05</ele>
        <time>2024-12-08T12:13:31.913Z</time>
      </trkpt>
      <trkpt lat="43.35674305446446" lon="6.542724184691906">
        <ele>282.5</ele>
        <time>2024-12-08T12:13:37.695Z</time>
      </trkpt>
      <trkpt lat="43.35672981105745" lon="6.542733320966363">
        <ele>282.93</ele>
        <time>2024-12-08T12:13:43.478Z</time>
      </trkpt>
      <trkpt lat="43.35671707056463" lon="6.54274296015501">
        <ele>283.34</ele>
        <time>2024-12-08T12:13:49.261Z</time>
      </trkpt>
      <trkpt lat="43.35670407861471" lon="6.542754611000419">
        <ele>283.73</ele>
        <time>2024-12-08T12:13:55.045Z</time>
      </trkpt>
      <trkpt lat="43.35668974556029" lon="6.542768105864525">
        <ele>284.11</ele>
        <time>2024-12-08T12:14:00.829Z</time>
      </trkpt>
      <trkpt lat="43.35666552186012" lon="6.5427938383072615">
        <ele>284.48</ele>
        <time>2024-12-08T12:14:06.614Z</time>
      </trkpt>
      <trkpt lat="43.356650937348604" lon="6.542806830257177">
        <ele>284.82</ele>
        <time>2024-12-08T12:14:12.400Z</time>
      </trkpt>
      <trkpt lat="43.356636352837086" lon="6.542823510244489">
        <ele>285.13</ele>
        <time>2024-12-08T12:14:18.187Z</time>
      </trkpt>
      <trkpt lat="43.35662193596363" lon="6.542841196060181">
        <ele>285.43</ele>
        <time>2024-12-08T12:14:23.974Z</time>
      </trkpt>
      <trkpt lat="43.356609866023064" lon="6.542859887704253">
        <ele>285.69</ele>
        <time>2024-12-08T12:14:29.762Z</time>
      </trkpt>
      <trkpt lat="43.35659746080637" lon="6.542879585176706">
        <ele>285.94</ele>
        <time>2024-12-08T12:14:35.551Z</time>
      </trkpt>
      <trkpt lat="43.35655546747148" lon="6.542973211035132">
        <ele>286.2</ele>
        <time>2024-12-08T12:14:41.342Z</time>
      </trkpt>
      <trkpt lat="43.356548342853785" lon="6.5429934952408075">
        <ele>286.39</ele>
        <time>2024-12-08T12:14:47.134Z</time>
      </trkpt>
      <trkpt lat="43.35655094124377" lon="6.543014869093895">
        <ele>286.56</ele>
        <time>2024-12-08T12:14:52.927Z</time>
      </trkpt>
      <trkpt lat="43.356550773605704" lon="6.543038925155997">
        <ele>286.7</ele>
        <time>2024-12-08T12:14:58.720Z</time>
      </trkpt>
      <trkpt lat="43.35654800757766" lon="6.543060885742307">
        <ele>286.82</ele>
        <time>2024-12-08T12:15:04.514Z</time>
      </trkpt>
      <trkpt lat="43.356550270691514" lon="6.5431442856788635">
        <ele>286.92</ele>
        <time>2024-12-08T12:15:10.310Z</time>
      </trkpt>
      <trkpt lat="43.3565560542047" lon="6.54316951520741">
        <ele>287.01</ele>
        <time>2024-12-08T12:15:16.107Z</time>
      </trkpt>
      <trkpt lat="43.3565613348037" lon="6.543197091668844">
        <ele>287.08</ele>
        <time>2024-12-08T12:15:21.904Z</time>
      </trkpt>
      <trkpt lat="43.35656334646046" lon="6.543225925415754">
        <ele>287.13</ele>
        <time>2024-12-08T12:15:27.702Z</time>
      </trkpt>
      <trkpt lat="43.35656527429819" lon="6.543245539069176">
        <ele>287.17</ele>
        <time>2024-12-08T12:15:33.500Z</time>
      </trkpt>
      <trkpt lat="43.35656611248851" lon="6.543266074731946">
        <ele>287.2</ele>
        <time>2024-12-08T12:15:39.299Z</time>
      </trkpt>
      <trkpt lat="43.35655923932791" lon="6.543350899592042">
        <ele>287.22</ele>
        <time>2024-12-08T12:15:45.100Z</time>
      </trkpt>
      <trkpt lat="43.35655689239502" lon="6.543381912633777">
        <ele>287.25</ele>
        <time>2024-12-08T12:15:50.902Z</time>
      </trkpt>
      <trkpt lat="43.35655437782407" lon="6.543413596227765">
        <ele>287.27</ele>
        <time>2024-12-08T12:15:56.705Z</time>
      </trkpt>
      <trkpt lat="43.35655010305345" lon="6.5434446930885315">
        <ele>287.29</ele>
        <time>2024-12-08T12:16:02.509Z</time>
      </trkpt>
      <trkpt lat="43.35654482245445" lon="6.543475957587361">
        <ele>287.31</ele>
        <time>2024-12-08T12:16:08.313Z</time>
      </trkpt>
      <trkpt lat="43.356485310941935" lon="6.543691540136933">
        <ele>287.35</ele>
        <time>2024-12-08T12:16:14.123Z</time>
      </trkpt>
      <trkpt lat="43.35641456767917" lon="6.543870409950614">
        <ele>287.36</ele>
        <time>2024-12-08T12:16:19.939Z</time>
      </trkpt>
      <trkpt lat="43.356419429183006" lon="6.543913073837757">
        <ele>287.38</ele>
        <time>2024-12-08T12:16:25.756Z</time>
      </trkpt>
      <trkpt lat="43.356425212696195" lon="6.5439298376441">
        <ele>287.4</ele>
        <time>2024-12-08T12:16:31.573Z</time>
      </trkpt>
      <trkpt lat="43.3564302418381" lon="6.543941991403699">
        <ele>287.44</ele>
        <time>2024-12-08T12:16:37.390Z</time>
      </trkpt>
      <trkpt lat="43.356435438618064" lon="6.543953642249107">
        <ele>287.49</ele>
        <time>2024-12-08T12:16:43.208Z</time>
      </trkpt>
      <trkpt lat="43.356441389769316" lon="6.543960515409708">
        <ele>287.56</ele>
        <time>2024-12-08T12:16:49.026Z</time>
      </trkpt>
      <trkpt lat="43.35646326653659" lon="6.54397526755929">
        <ele>287.63</ele>
        <time>2024-12-08T12:16:54.845Z</time>
      </trkpt>
      <trkpt lat="43.356478018686175" lon="6.543992450460792">
        <ele>287.73</ele>
        <time>2024-12-08T12:17:00.665Z</time>
      </trkpt>
      <trkpt lat="43.35649042390287" lon="6.544005610048771">
        <ele>287.84</ele>
        <time>2024-12-08T12:17:06.485Z</time>
      </trkpt>
      <trkpt lat="43.35650559514761" lon="6.544017177075148">
        <ele>287.97</ele>
        <time>2024-12-08T12:17:12.306Z</time>
      </trkpt>
      <trkpt lat="43.35653870366514" lon="6.544046178460121">
        <ele>288.12</ele>
        <time>2024-12-08T12:17:18.128Z</time>
      </trkpt>
      <trkpt lat="43.35658765397966" lon="6.544098732993007">
        <ele>288.29</ele>
        <time>2024-12-08T12:17:23.952Z</time>
      </trkpt>
      <trkpt lat="43.3566340059042" lon="6.544135110452771">
        <ele>288.49</ele>
        <time>2024-12-08T12:17:29.778Z</time>
      </trkpt>
      <trkpt lat="43.35667499341071" lon="6.544200489297509">
        <ele>288.72</ele>
        <time>2024-12-08T12:17:35.606Z</time>
      </trkpt>
      <trkpt lat="43.35676074028015" lon="6.544283470138907">
        <ele>289.0</ele>
        <time>2024-12-08T12:17:41.438Z</time>
      </trkpt>
      <trkpt lat="43.35678555071354" lon="6.544321943074465">
        <ele>289.28</ele>
        <time>2024-12-08T12:17:47.271Z</time>
      </trkpt>
      <trkpt lat="43.35680960677564" lon="6.5443598292768">
        <ele>289.58</ele>
        <time>2024-12-08T12:17:53.106Z</time>
      </trkpt>
      <trkpt lat="43.35687833838165" lon="6.5444636810570955">
        <ele>289.93</ele>
        <time>2024-12-08T12:17:58.944Z</time>
      </trkpt>
      <trkpt lat="43.35690289735794" lon="6.544499639421701">
        <ele>290.27</ele>
        <time>2024-12-08T12:18:04.784Z</time>
      </trkpt>
      <trkpt lat="43.3569551166147" lon="6.544565185904503">
        <ele>290.65</ele>
        <time>2024-12-08T12:18:10.626Z</time>
      </trkpt>
      <trkpt lat="43.35700096562505" lon="6.544640036299825">
        <ele>291.04</ele>
        <time>2024-12-08T12:18:16.470Z</time>
      </trkpt>
      <trkpt lat="43.35702845826745" lon="6.544671719893813">
        <ele>291.43</ele>
        <time>2024-12-08T12:18:22.316Z</time>
      </trkpt>
      <trkpt lat="43.35705544799566" lon="6.5447066724300385">
        <ele>291.83</ele>
        <time>2024-12-08T12:18:28.163Z</time>
      </trkpt>
      <trkpt lat="43.3570758998394" lon="6.544745732098818">
        <ele>292.24</ele>
        <time>2024-12-08T12:18:34.011Z</time>
      </trkpt>
      <trkpt lat="43.35709081962705" lon="6.544788312166929">
        <ele>292.66</ele>
        <time>2024-12-08T12:18:39.860Z</time>
      </trkpt>
      <trkpt lat="43.35713004693389" lon="6.544857798144221">
        <ele>293.1</ele>
        <time>2024-12-08T12:18:45.712Z</time>
      </trkpt>
      <trkpt lat="43.35715192370117" lon="6.544893840327859">
        <ele>293.52</ele>
        <time>2024-12-08T12:18:51.565Z</time>
      </trkpt>
      <trkpt lat="43.35716952569783" lon="6.544925607740879">
        <ele>293.94</ele>
        <time>2024-12-08T12:18:57.419Z</time>
      </trkpt>
      <trkpt lat="43.35718922317028" lon="6.544955866411328">
        <ele>294.34</ele>
        <time>2024-12-08T12:19:03.274Z</time>
      </trkpt>
      <trkpt lat="43.35720967501402" lon="6.544984867796302">
        <ele>294.74</ele>
        <time>2024-12-08T12:19:09.130Z</time>
      </trkpt>
      <trkpt lat="43.35723121650517" lon="6.545006576925516">
        <ele>295.12</ele>
        <time>2024-12-08T12:19:14.987Z</time>
      </trkpt>
      <trkpt lat="43.357255859300494" lon="6.545025687664747">
        <ele>295.48</ele>
        <time>2024-12-08T12:19:20.845Z</time>
      </trkpt>
      <trkpt lat="43.35728242993355" lon="6.545048234984279">
        <ele>295.83</ele>
        <time>2024-12-08T12:19:26.704Z</time>
      </trkpt>
      <trkpt lat="43.357305312529206" lon="6.545078996568918">
        <ele>296.16</ele>
        <time>2024-12-08T12:19:32.564Z</time>
      </trkpt>
      <trkpt lat="43.35731972940266" lon="6.545115793123841">
        <ele>296.46</ele>
        <time>2024-12-08T12:19:38.425Z</time>
      </trkpt>
      <trkpt lat="43.357331212610006" lon="6.545154433697462">
        <ele>296.73</ele>
        <time>2024-12-08T12:19:44.287Z</time>
      </trkpt>
      <trkpt lat="43.357344875112176" lon="6.545191146433353">
        <ele>296.97</ele>
        <time>2024-12-08T12:19:50.150Z</time>
      </trkpt>
      <trkpt lat="43.35740321315825" lon="6.545322323217988">
        <ele>297.21</ele>
        <time>2024-12-08T12:19:56.017Z</time>
      </trkpt>
      <trkpt lat="43.35742567665875" lon="6.545353587716818">
        <ele>297.38</ele>
        <time>2024-12-08T12:20:01.885Z</time>
      </trkpt>
      <trkpt lat="43.35744579322636" lon="6.545385103672743">
        <ele>297.52</ele>
        <time>2024-12-08T12:20:07.754Z</time>
      </trkpt>
      <trkpt lat="43.35746490396559" lon="6.545415949076414">
        <ele>297.61</ele>
        <time>2024-12-08T12:20:13.625Z</time>
      </trkpt>
      <trkpt lat="43.35748493671417" lon="6.545438412576914">
        <ele>297.66</ele>
        <time>2024-12-08T12:20:19.496Z</time>
      </trkpt>
      <trkpt lat="43.357530953362584" lon="6.545490380376577">
        <ele>297.68</ele>
        <time>2024-12-08T12:20:25.369Z</time>
      </trkpt>
      <trkpt lat="43.357552075758576" lon="6.5455186273902655">
        <ele>297.66</ele>
        <time>2024-12-08T12:20:31.244Z</time>
      </trkpt>
      <trkpt lat="43.35757043212652" lon="6.545553160831332">
        <ele>297.59</ele>
        <time>2024-12-08T12:20:37.120Z</time>
      </trkpt>
      <trkpt lat="43.357583256438375" lon="6.545587358996272">
        <ele>297.48</ele>
        <time>2024-12-08T12:20:42.997Z</time>
      </trkpt>
      <trkpt lat="43.35759725421667" lon="6.545614516362548">
        <ele>297.33</ele>
        <time>2024-12-08T12:20:48.874Z</time>
      </trkpt>
      <trkpt lat="43.35761150345206" lon="6.5456384886056185">
        <ele>297.14</ele>
        <time>2024-12-08T12:20:54.752Z</time>
      </trkpt>
      <trkpt lat="43.35766062140465" lon="6.545805037021637">
        <ele>296.91</ele>
        <time>2024-12-08T12:21:00.635Z</time>
      </trkpt>
      <trkpt lat="43.357692724093795" lon="6.545916013419628">
        <ele>296.64</ele>
        <time>2024-12-08T12:21:06.521Z</time>
      </trkpt>
      <trkpt lat="43.3577426802367" lon="6.5460472740232944">
        <ele>296.33</ele>
        <time>2024-12-08T12:21:12.411Z</time>
      </trkpt>
      <trkpt lat="43.35776438936591" lon="6.546122543513775">
        <ele>296.0</ele>
        <time>2024-12-08T12:21:18.303Z</time>
      </trkpt>
      <trkpt lat="43.35778048262" lon="6.546310968697071">
        <ele>295.61</ele>
        <time>2024-12-08T12:21:24.200Z</time>
      </trkpt>
      <trkpt lat="43.357786517590284" lon="6.546416329219937">
        <ele>295.23</ele>
        <time>2024-12-08T12:21:30.099Z</time>
      </trkpt>
      <trkpt lat="43.35779917426407" lon="6.546514816582203">
        <ele>294.84</ele>
        <time>2024-12-08T12:21:36.001Z</time>
      </trkpt>
      <trkpt lat="43.3578219730407" lon="6.546608190983534">
        <ele>294.44</ele>
        <time>2024-12-08T12:21:41.905Z</time>
      </trkpt>
      <trkpt lat="43.35785860195756" lon="6.546692261472344">
        <ele>294.04</ele>
        <time>2024-12-08T12:21:47.812Z</time>
      </trkpt>
      <trkpt lat="43.35790000855923" lon="6.546773985028267">
        <ele>293.67</ele>
        <time>2024-12-08T12:21:53.721Z</time>
      </trkpt>
      <trkpt lat="43.35794225335121" lon="6.546848667785525">
        <ele>293.3</ele>
        <time>2024-12-08T12:21:59.633Z</time>
      </trkpt>
      <trkpt lat="43.35798617452383" lon="6.546913962811232">
        <ele>292.94</ele>
        <time>2024-12-08T12:22:05.547Z</time>
      </trkpt>
      <trkpt lat="43.35807175375521" lon="6.54704581014812">
        <ele>292.59</ele>
        <time>2024-12-08T12:22:11.466Z</time>
      </trkpt>
      <trkpt lat="43.35815490223467" lon="6.547174891456962">
        <ele>292.26</ele>
        <time>2024-12-08T12:22:17.389Z</time>
      </trkpt>
      <trkpt lat="43.35819924250245" lon="6.547239851206541">
        <ele>291.96</ele>
        <time>2024-12-08T12:22:23.314Z</time>
      </trkpt>
      <trkpt lat="43.35824500769377" lon="6.547309001907706">
        <ele>291.69</ele>
        <time>2024-12-08T12:22:29.242Z</time>
      </trkpt>
      <trkpt lat="43.358289767056704" lon="6.5473769791424274">
        <ele>291.43</ele>
        <time>2024-12-08T12:22:35.172Z</time>
      </trkpt>
      <trkpt lat="43.35833251476288" lon="6.5474452916532755">
        <ele>291.2</ele>
        <time>2024-12-08T12:22:41.104Z</time>
      </trkpt>
      <trkpt lat="43.3584108017385" lon="6.547585688531399">
        <ele>290.99</ele>
        <time>2024-12-08T12:22:47.041Z</time>
      </trkpt>
      <trkpt lat="43.35844290442765" lon="6.5476529113948345">
        <ele>290.83</ele>
        <time>2024-12-08T12:22:52.980Z</time>
      </trkpt>
      <trkpt lat="43.35847240872681" lon="6.547717954963446">
        <ele>290.69</ele>
        <time>2024-12-08T12:22:58.921Z</time>
      </trkpt>
      <trkpt lat="43.35850015282631" lon="6.547779813408852">
        <ele>290.59</ele>
        <time>2024-12-08T12:23:04.864Z</time>
      </trkpt>
      <trkpt lat="43.35852571763098" lon="6.547844521701336">
        <ele>290.52</ele>
        <time>2024-12-08T12:23:10.809Z</time>
      </trkpt>
      <trkpt lat="43.3585558924824" lon="6.5479406621307135">
        <ele>290.48</ele>
        <time>2024-12-08T12:23:16.756Z</time>
      </trkpt>
      <trkpt lat="43.358562430366874" lon="6.547961365431547">
        <ele>290.46</ele>
        <time>2024-12-08T12:23:22.704Z</time>
      </trkpt>
      <trkpt lat="43.358562514185905" lon="6.547961449250579">
        <ele>290.46</ele>
        <time>2024-12-08T12:23:28.652Z</time>
      </trkpt>
      <trkpt lat="43.358636274933815" lon="6.548195471987128">
        <ele>290.51</ele>
        <time>2024-12-08T12:23:34.606Z</time>
      </trkpt>
      <trkpt lat="43.35866695269942" lon="6.548340981826186">
        <ele>290.57</ele>
        <time>2024-12-08T12:23:40.564Z</time>
      </trkpt>
      <trkpt lat="43.35868773981929" lon="6.548574585467577">
        <ele>290.63</ele>
        <time>2024-12-08T12:23:46.528Z</time>
      </trkpt>
      <trkpt lat="43.35878849029541" lon="6.549164168536663">
        <ele>290.72</ele>
        <time>2024-12-08T12:23:52.508Z</time>
      </trkpt>
      <trkpt lat="43.35882134735584" lon="6.5493042301386595">
        <ele>290.81</ele>
        <time>2024-12-08T12:23:58.491Z</time>
      </trkpt>
      <trkpt lat="43.35886619053781" lon="6.549433981999755">
        <ele>290.91</ele>
        <time>2024-12-08T12:24:04.478Z</time>
      </trkpt>
      <trkpt lat="43.35892134346068" lon="6.549559123814106">
        <ele>291.0</ele>
        <time>2024-12-08T12:24:10.469Z</time>
      </trkpt>
      <trkpt lat="43.35894975811243" lon="6.549615366384387">
        <ele>291.06</ele>
        <time>2024-12-08T12:24:16.462Z</time>
      </trkpt>
      <trkpt lat="43.3589755743742" lon="6.54967563226819">
        <ele>291.12</ele>
        <time>2024-12-08T12:24:22.456Z</time>
      </trkpt>
      <trkpt lat="43.35900734178722" lon="6.549740005284548">
        <ele>291.17</ele>
        <time>2024-12-08T12:24:28.452Z</time>
      </trkpt>
      <trkpt lat="43.35903860628605" lon="6.54980949126184">
        <ele>291.19</ele>
        <time>2024-12-08T12:24:34.450Z</time>
      </trkpt>
      <trkpt lat="43.35906953550875" lon="6.549880485981703">
        <ele>291.2</ele>
        <time>2024-12-08T12:24:40.451Z</time>
      </trkpt>
      <trkpt lat="43.35930414497852" lon="6.550353728234768">
        <ele>291.14</ele>
        <time>2024-12-08T12:24:46.466Z</time>
      </trkpt>
      <trkpt lat="43.3595176320523" lon="6.550693530589342">
        <ele>291.03</ele>
        <time>2024-12-08T12:24:52.493Z</time>
      </trkpt>
      <trkpt lat="43.35956348106265" lon="6.550738960504532">
        <ele>290.96</ele>
        <time>2024-12-08T12:24:58.522Z</time>
      </trkpt>
      <trkpt lat="43.35966808721423" lon="6.550816157832742">
        <ele>290.87</ele>
        <time>2024-12-08T12:25:04.555Z</time>
      </trkpt>
      <trkpt lat="43.35972416214645" lon="6.550846751779318">
        <ele>290.76</ele>
        <time>2024-12-08T12:25:10.590Z</time>
      </trkpt>
      <trkpt lat="43.35978367365897" lon="6.550875166431069">
        <ele>290.63</ele>
        <time>2024-12-08T12:25:16.627Z</time>
      </trkpt>
      <trkpt lat="43.359839748591185" lon="6.550899054855108">
        <ele>290.47</ele>
        <time>2024-12-08T12:25:22.666Z</time>
      </trkpt>
      <trkpt lat="43.35989381186664" lon="6.550924871116877">
        <ele>290.29</ele>
        <time>2024-12-08T12:25:28.707Z</time>
      </trkpt>
      <trkpt lat="43.35999389179051" lon="6.550987316295505">
        <ele>290.07</ele>
        <time>2024-12-08T12:25:34.752Z</time>
      </trkpt>
      <trkpt lat="43.36007787846029" lon="6.5511018969118595">
        <ele>289.8</ele>
        <time>2024-12-08T12:25:40.801Z</time>
      </trkpt>
      <trkpt lat="43.360160356387496" lon="6.551390904933214">
        <ele>289.5</ele>
        <time>2024-12-08T12:25:46.858Z</time>
      </trkpt>
      <trkpt lat="43.360185753554106" lon="6.551459301263094">
        <ele>289.21</ele>
        <time>2024-12-08T12:25:52.917Z</time>
      </trkpt>
      <trkpt lat="43.36028994061053" lon="6.5516323037445545">
        <ele>288.88</ele>
        <time>2024-12-08T12:25:58.982Z</time>
      </trkpt>
      <trkpt lat="43.360331347212195" lon="6.5516856126487255">
        <ele>288.53</ele>
        <time>2024-12-08T12:26:05.049Z</time>
      </trkpt>
      <trkpt lat="43.36055480875075" lon="6.552058439701796">
        <ele>288.14</ele>
        <time>2024-12-08T12:26:11.128Z</time>
      </trkpt>
      <trkpt lat="43.36070677265525" lon="6.552439732477069">
        <ele>287.76</ele>
        <time>2024-12-08T12:26:17.218Z</time>
      </trkpt>
      <trkpt lat="43.36081339046359" lon="6.552707618102431">
        <ele>287.27</ele>
        <time>2024-12-08T12:26:23.316Z</time>
      </trkpt>
      <trkpt lat="43.36086954921484" lon="6.5528639405965805">
        <ele>286.76</ele>
        <time>2024-12-08T12:26:29.418Z</time>
      </trkpt>
      <trkpt lat="43.360899640247226" lon="6.5529487654566765">
        <ele>286.26</ele>
        <time>2024-12-08T12:26:35.523Z</time>
      </trkpt>
      <trkpt lat="43.360930820927024" lon="6.553027890622616">
        <ele>285.73</ele>
        <time>2024-12-08T12:26:41.630Z</time>
      </trkpt>
      <trkpt lat="43.36096493527293" lon="6.553104082122445">
        <ele>285.19</ele>
        <time>2024-12-08T12:26:47.739Z</time>
      </trkpt>
      <trkpt lat="43.36099988780916" lon="6.553178681060672">
        <ele>284.64</ele>
        <time>2024-12-08T12:26:53.851Z</time>
      </trkpt>
      <trkpt lat="43.361036432906985" lon="6.553257554769516">
        <ele>284.06</ele>
        <time>2024-12-08T12:26:59.965Z</time>
      </trkpt>
      <trkpt lat="43.36106928996742" lon="6.553345397114754">
        <ele>283.48</ele>
        <time>2024-12-08T12:27:06.082Z</time>
      </trkpt>
      <trkpt lat="43.361094016581774" lon="6.553431982174516">
        <ele>282.89</ele>
        <time>2024-12-08T12:27:12.201Z</time>
      </trkpt>
      <trkpt lat="43.36111622862518" lon="6.553519740700722">
        <ele>282.3</ele>
        <time>2024-12-08T12:27:18.322Z</time>
      </trkpt>
      <trkpt lat="43.361134668812156" lon="6.55360858887434">
        <ele>281.7</ele>
        <time>2024-12-08T12:27:24.446Z</time>
      </trkpt>
      <trkpt lat="43.361145397648215" lon="6.553685534745455">
        <ele>281.11</ele>
        <time>2024-12-08T12:27:30.572Z</time>
      </trkpt>
      <trkpt lat="43.36114866659045" lon="6.553758792579174">
        <ele>280.51</ele>
        <time>2024-12-08T12:27:36.700Z</time>
      </trkpt>
      <trkpt lat="43.3611445594579" lon="6.553830876946449">
        <ele>279.9</ele>
        <time>2024-12-08T12:27:42.829Z</time>
      </trkpt>
      <trkpt lat="43.36113726720214" lon="6.553907319903374">
        <ele>279.29</ele>
        <time>2024-12-08T12:27:48.960Z</time>
      </trkpt>
      <trkpt lat="43.361125783994794" lon="6.55398728325963">
        <ele>278.66</ele>
        <time>2024-12-08T12:27:55.094Z</time>
      </trkpt>
      <trkpt lat="43.36111228913069" lon="6.554070431739092">
        <ele>278.02</ele>
        <time>2024-12-08T12:28:01.230Z</time>
      </trkpt>
      <trkpt lat="43.361096531152725" lon="6.554152825847268">
        <ele>277.38</ele>
        <time>2024-12-08T12:28:07.368Z</time>
      </trkpt>
      <trkpt lat="43.361082868650556" lon="6.554228849709034">
        <ele>276.73</ele>
        <time>2024-12-08T12:28:13.508Z</time>
      </trkpt>
      <trkpt lat="43.361069709062576" lon="6.554301688447595">
        <ele>276.09</ele>
        <time>2024-12-08T12:28:19.650Z</time>
      </trkpt>
      <trkpt lat="43.36105537600815" lon="6.554373353719711">
        <ele>275.44</ele>
        <time>2024-12-08T12:28:25.794Z</time>
      </trkpt>
      <trkpt lat="43.36104288697243" lon="6.554444013163447">
        <ele>274.79</ele>
        <time>2024-12-08T12:28:31.940Z</time>
      </trkpt>
      <trkpt lat="43.36103475652635" lon="6.554512828588486">
        <ele>274.13</ele>
        <time>2024-12-08T12:28:38.087Z</time>
      </trkpt>
      <trkpt lat="43.361020339652896" lon="6.55464987270534">
        <ele>273.45</ele>
        <time>2024-12-08T12:28:44.238Z</time>
      </trkpt>
      <trkpt lat="43.36092436686158" lon="6.554976347833872">
        <ele>272.75</ele>
        <time>2024-12-08T12:28:50.398Z</time>
      </trkpt>
      <trkpt lat="43.36088824085891" lon="6.555066788569093">
        <ele>272.09</ele>
        <time>2024-12-08T12:28:56.561Z</time>
      </trkpt>
      <trkpt lat="43.36084616370499" lon="6.55515605583787">
        <ele>271.44</ele>
        <time>2024-12-08T12:29:02.726Z</time>
      </trkpt>
      <trkpt lat="43.360796961933374" lon="6.555241718888283">
        <ele>270.78</ele>
        <time>2024-12-08T12:29:08.894Z</time>
      </trkpt>
      <trkpt lat="43.36073719896376" lon="6.555322855710983">
        <ele>270.12</ele>
        <time>2024-12-08T12:29:15.065Z</time>
      </trkpt>
      <trkpt lat="43.36067374795675" lon="6.555397035554051">
        <ele>269.46</ele>
        <time>2024-12-08T12:29:21.239Z</time>
      </trkpt>
      <trkpt lat="43.3606107160449" lon="6.555474987253547">
        <ele>268.8</ele>
        <time>2024-12-08T12:29:27.416Z</time>
      </trkpt>
      <trkpt lat="43.36054868996143" lon="6.555557632818818">
        <ele>268.14</ele>
        <time>2024-12-08T12:29:33.596Z</time>
      </trkpt>
      <trkpt lat="43.360489094629884" lon="6.555643128231168">
        <ele>267.49</ele>
        <time>2024-12-08T12:29:39.779Z</time>
      </trkpt>
      <trkpt lat="43.36043955758214" lon="6.555733401328325">
        <ele>266.84</ele>
        <time>2024-12-08T12:29:45.965Z</time>
      </trkpt>
      <trkpt lat="43.36040770635009" lon="6.55583381652832">
        <ele>266.2</ele>
        <time>2024-12-08T12:29:52.154Z</time>
      </trkpt>
      <trkpt lat="43.36040209047496" lon="6.555947056040168">
        <ele>265.57</ele>
        <time>2024-12-08T12:29:58.346Z</time>
      </trkpt>
      <trkpt lat="43.36041717790067" lon="6.556063564494252">
        <ele>264.95</ele>
        <time>2024-12-08T12:30:04.541Z</time>
      </trkpt>
      <trkpt lat="43.3604486938566" lon="6.556171607226133">
        <ele>264.36</ele>
        <time>2024-12-08T12:30:10.739Z</time>
      </trkpt>
      <trkpt lat="43.36048632860184" lon="6.5562808234244585">
        <ele>263.8</ele>
        <time>2024-12-08T12:30:16.940Z</time>
      </trkpt>
      <trkpt lat="43.36052396334708" lon="6.556396661326289">
        <ele>263.26</ele>
        <time>2024-12-08T12:30:23.144Z</time>
      </trkpt>
      <trkpt lat="43.36056084372103" lon="6.556515349075198">
        <ele>262.76</ele>
        <time>2024-12-08T12:30:29.351Z</time>
      </trkpt>
      <trkpt lat="43.36059303022921" lon="6.556639485061169">
        <ele>262.28</ele>
        <time>2024-12-08T12:30:35.561Z</time>
      </trkpt>
      <trkpt lat="43.36062270216644" lon="6.5567549876868725">
        <ele>261.83</ele>
        <time>2024-12-08T12:30:41.775Z</time>
      </trkpt>
      <trkpt lat="43.36064809933305" lon="6.556868897750974">
        <ele>261.4</ele>
        <time>2024-12-08T12:30:47.992Z</time>
      </trkpt>
      <trkpt lat="43.360673412680626" lon="6.556986076757312">
        <ele>261.0</ele>
        <time>2024-12-08T12:30:54.212Z</time>
      </trkpt>
      <trkpt lat="43.36070308461785" lon="6.557094370946288">
        <ele>260.62</ele>
        <time>2024-12-08T12:31:00.435Z</time>
      </trkpt>
      <trkpt lat="43.36074147373438" lon="6.557194367051125">
        <ele>260.27</ele>
        <time>2024-12-08T12:31:06.661Z</time>
      </trkpt>
      <trkpt lat="43.360810708254576" lon="6.557399136945605">
        <ele>259.93</ele>
        <time>2024-12-08T12:31:12.892Z</time>
      </trkpt>
      <trkpt lat="43.36081967689097" lon="6.557621760293841">
        <ele>259.61</ele>
        <time>2024-12-08T12:31:19.129Z</time>
      </trkpt>
      <trkpt lat="43.36081590503454" lon="6.557734832167625">
        <ele>259.36</ele>
        <time>2024-12-08T12:31:25.369Z</time>
      </trkpt>
      <trkpt lat="43.36081909015775" lon="6.557838683947921">
        <ele>259.16</ele>
        <time>2024-12-08T12:31:31.612Z</time>
      </trkpt>
      <trkpt lat="43.36082931607962" lon="6.557931303977966">
        <ele>259.0</ele>
        <time>2024-12-08T12:31:37.857Z</time>
      </trkpt>
      <trkpt lat="43.3608438167721" lon="6.558009339496493">
        <ele>258.88</ele>
        <time>2024-12-08T12:31:44.104Z</time>
      </trkpt>
      <trkpt lat="43.36086208932102" lon="6.5580829326063395">
        <ele>258.8</ele>
        <time>2024-12-08T12:31:50.353Z</time>
      </trkpt>
      <trkpt lat="43.3609061781317" lon="6.558238249272108">
        <ele>258.76</ele>
        <time>2024-12-08T12:31:56.606Z</time>
      </trkpt>
      <trkpt lat="43.36095898412168" lon="6.558511750772595">
        <ele>258.72</ele>
        <time>2024-12-08T12:32:02.867Z</time>
      </trkpt>
      <trkpt lat="43.36101237684488" lon="6.5589281637221575">
        <ele>258.75</ele>
        <time>2024-12-08T12:32:09.138Z</time>
      </trkpt>
      <trkpt lat="43.36103458888829" lon="6.5590347815304995">
        <ele>258.8</ele>
        <time>2024-12-08T12:32:15.412Z</time>
      </trkpt>
      <trkpt lat="43.361087227240205" lon="6.55935094691813">
        <ele>258.87</ele>
        <time>2024-12-08T12:32:21.695Z</time>
      </trkpt>
      <trkpt lat="43.361109774559736" lon="6.559553956612945">
        <ele>258.96</ele>
        <time>2024-12-08T12:32:27.983Z</time>
      </trkpt>
      <trkpt lat="43.36112704128027" lon="6.559740621596575">
        <ele>259.11</ele>
        <time>2024-12-08T12:32:34.276Z</time>
      </trkpt>
      <trkpt lat="43.36113190278411" lon="6.55992217361927">
        <ele>259.26</ele>
        <time>2024-12-08T12:32:40.573Z</time>
      </trkpt>
      <trkpt lat="43.361141458153725" lon="6.560019655153155">
        <ele>259.43</ele>
        <time>2024-12-08T12:32:46.873Z</time>
      </trkpt>
      <trkpt lat="43.361231898888946" lon="6.560278404504061">
        <ele>259.58</ele>
        <time>2024-12-08T12:32:53.180Z</time>
      </trkpt>
      <trkpt lat="43.361286548897624" lon="6.560438331216574">
        <ele>259.76</ele>
        <time>2024-12-08T12:32:59.492Z</time>
      </trkpt>
      <trkpt lat="43.361286632716656" lon="6.560609824955463">
        <ele>259.96</ele>
        <time>2024-12-08T12:33:05.808Z</time>
      </trkpt>
      <trkpt lat="43.361268024891615" lon="6.5608342085033655">
        <ele>260.19</ele>
        <time>2024-12-08T12:33:12.130Z</time>
      </trkpt>
      <trkpt lat="43.36127841845155" lon="6.560979466885328">
        <ele>260.41</ele>
        <time>2024-12-08T12:33:18.455Z</time>
      </trkpt>
      <trkpt lat="43.361292416229844" lon="6.561059597879648">
        <ele>260.64</ele>
        <time>2024-12-08T12:33:24.783Z</time>
      </trkpt>
      <trkpt lat="43.36130926385522" lon="6.561144003644586">
        <ele>260.87</ele>
        <time>2024-12-08T12:33:31.113Z</time>
      </trkpt>
      <trkpt lat="43.36132309399545" lon="6.561229331418872">
        <ele>261.11</ele>
        <time>2024-12-08T12:33:37.445Z</time>
      </trkpt>
      <trkpt lat="43.361333571374416" lon="6.561316838487983">
        <ele>261.34</ele>
        <time>2024-12-08T12:33:43.779Z</time>
      </trkpt>
      <trkpt lat="43.361342791467905" lon="6.561410548165441">
        <ele>261.57</ele>
        <time>2024-12-08T12:33:50.116Z</time>
      </trkpt>
      <trkpt lat="43.36135050281882" lon="6.561587490141392">
        <ele>261.77</ele>
        <time>2024-12-08T12:33:56.457Z</time>
      </trkpt>
      <trkpt lat="43.36132753640413" lon="6.5617619175463915">
        <ele>261.94</ele>
        <time>2024-12-08T12:34:02.803Z</time>
      </trkpt>
      <trkpt lat="43.361303731799126" lon="6.561932070180774">
        <ele>262.1</ele>
        <time>2024-12-08T12:34:09.153Z</time>
      </trkpt>
      <trkpt lat="43.36131722666323" lon="6.562190987169743">
        <ele>262.22</ele>
        <time>2024-12-08T12:34:15.510Z</time>
      </trkpt>
      <trkpt lat="43.36132409982383" lon="6.5623703598976135">
        <ele>262.34</ele>
        <time>2024-12-08T12:34:21.871Z</time>
      </trkpt>
      <trkpt lat="43.361303228884935" lon="6.562640676274896">
        <ele>262.44</ele>
        <time>2024-12-08T12:34:28.239Z</time>
      </trkpt>
      <trkpt lat="43.361226031556726" lon="6.563072260469198">
        <ele>262.53</ele>
        <time>2024-12-08T12:34:34.619Z</time>
      </trkpt>
      <trkpt lat="43.36120222695172" lon="6.563151301816106">
        <ele>262.61</ele>
        <time>2024-12-08T12:34:41.001Z</time>
      </trkpt>
      <trkpt lat="43.361161071807146" lon="6.563299912959337">
        <ele>262.67</ele>
        <time>2024-12-08T12:34:47.387Z</time>
      </trkpt>
      <trkpt lat="43.361085718497634" lon="6.563586238771677">
        <ele>262.72</ele>
        <time>2024-12-08T12:34:53.781Z</time>
      </trkpt>
      <trkpt lat="43.360982118174434" lon="6.564011871814728">
        <ele>262.7</ele>
        <time>2024-12-08T12:35:00.186Z</time>
      </trkpt>
      <trkpt lat="43.360856138169765" lon="6.564531298354268">
        <ele>262.71</ele>
        <time>2024-12-08T12:35:06.605Z</time>
      </trkpt>
      <trkpt lat="43.36082571186125" lon="6.564611764624715">
        <ele>262.64</ele>
        <time>2024-12-08T12:35:13.027Z</time>
      </trkpt>
      <trkpt lat="43.36078891530633" lon="6.56468384899199">
        <ele>262.52</ele>
        <time>2024-12-08T12:35:19.451Z</time>
      </trkpt>
      <trkpt lat="43.360673328861594" lon="6.564886691048741">
        <ele>262.36</ele>
        <time>2024-12-08T12:35:25.881Z</time>
      </trkpt>
      <trkpt lat="43.360348362475634" lon="6.565325735136867">
        <ele>262.21</ele>
        <time>2024-12-08T12:35:32.327Z</time>
      </trkpt>
      <trkpt lat="43.360255071893334" lon="6.565436879172921">
        <ele>261.95</ele>
        <time>2024-12-08T12:35:38.778Z</time>
      </trkpt>
      <trkpt lat="43.36010344326496" lon="6.565566128119826">
        <ele>261.6</ele>
        <time>2024-12-08T12:35:45.235Z</time>
      </trkpt>
      <trkpt lat="43.360050385817885" lon="6.5655881725251675">
        <ele>261.22</ele>
        <time>2024-12-08T12:35:51.694Z</time>
      </trkpt>
      <trkpt lat="43.359997831285" lon="6.565603679046035">
        <ele>260.8</ele>
        <time>2024-12-08T12:35:58.155Z</time>
      </trkpt>
      <trkpt lat="43.35994519293308" lon="6.56561616808176">
        <ele>260.33</ele>
        <time>2024-12-08T12:36:04.618Z</time>
      </trkpt>
      <trkpt lat="43.35989506915212" lon="6.565631339326501">
        <ele>259.82</ele>
        <time>2024-12-08T12:36:11.082Z</time>
      </trkpt>
      <trkpt lat="43.35984637029469" lon="6.565660508349538">
        <ele>259.26</ele>
        <time>2024-12-08T12:36:17.548Z</time>
      </trkpt>
      <trkpt lat="43.35976330563426" lon="6.5657952055335045">
        <ele>258.67</ele>
        <time>2024-12-08T12:36:24.019Z</time>
      </trkpt>
      <trkpt lat="43.35969926789403" lon="6.566126877442002">
        <ele>258.06</ele>
        <time>2024-12-08T12:36:30.499Z</time>
      </trkpt>
      <trkpt lat="43.359679989516735" lon="6.566255372017622">
        <ele>257.43</ele>
        <time>2024-12-08T12:36:36.982Z</time>
      </trkpt>
      <trkpt lat="43.35965861566365" lon="6.566394930705428">
        <ele>256.76</ele>
        <time>2024-12-08T12:36:43.469Z</time>
      </trkpt>
      <trkpt lat="43.35963187739253" lon="6.566538931801915">
        <ele>256.06</ele>
        <time>2024-12-08T12:36:49.959Z</time>
      </trkpt>
      <trkpt lat="43.35959801450372" lon="6.566683519631624">
        <ele>255.37</ele>
        <time>2024-12-08T12:36:56.453Z</time>
      </trkpt>
      <trkpt lat="43.359560295939445" lon="6.5668301191180944">
        <ele>254.65</ele>
        <time>2024-12-08T12:37:02.951Z</time>
      </trkpt>
      <trkpt lat="43.35951989516616" lon="6.566973617300391">
        <ele>253.95</ele>
        <time>2024-12-08T12:37:09.453Z</time>
      </trkpt>
      <trkpt lat="43.35947790183127" lon="6.567123653367162">
        <ele>253.22</ele>
        <time>2024-12-08T12:37:15.959Z</time>
      </trkpt>
      <trkpt lat="43.359437081962824" lon="6.5672648046165705">
        <ele>252.51</ele>
        <time>2024-12-08T12:37:22.469Z</time>
      </trkpt>
      <trkpt lat="43.359394166618586" lon="6.567401932552457">
        <ele>251.81</ele>
        <time>2024-12-08T12:37:28.983Z</time>
      </trkpt>
      <trkpt lat="43.359349742531776" lon="6.56753646209836">
        <ele>251.13</ele>
        <time>2024-12-08T12:37:35.501Z</time>
      </trkpt>
      <trkpt lat="43.35931118577719" lon="6.567670488730073">
        <ele>250.46</ele>
        <time>2024-12-08T12:37:42.022Z</time>
      </trkpt>
      <trkpt lat="43.35927816107869" lon="6.567802838981152">
        <ele>249.85</ele>
        <time>2024-12-08T12:37:48.547Z</time>
      </trkpt>
      <trkpt lat="43.35925251245499" lon="6.56793418340385">
        <ele>249.26</ele>
        <time>2024-12-08T12:37:55.075Z</time>
      </trkpt>
      <trkpt lat="43.35921110585332" lon="6.568205254152417">
        <ele>248.74</ele>
        <time>2024-12-08T12:38:01.610Z</time>
      </trkpt>
      <trkpt lat="43.35919048637152" lon="6.568336933851242">
        <ele>248.24</ele>
        <time>2024-12-08T12:38:08.149Z</time>
      </trkpt>
      <trkpt lat="43.35915142670274" lon="6.568457968533039">
        <ele>247.75</ele>
        <time>2024-12-08T12:38:14.691Z</time>
      </trkpt>
      <trkpt lat="43.35910054855049" lon="6.568566430360079">
        <ele>247.25</ele>
        <time>2024-12-08T12:38:21.237Z</time>
      </trkpt>
      <trkpt lat="43.35905528627336" lon="6.568659972399473">
        <ele>246.75</ele>
        <time>2024-12-08T12:38:27.785Z</time>
      </trkpt>
      <trkpt lat="43.35901161655784" lon="6.568733397871256">
        <ele>246.27</ele>
        <time>2024-12-08T12:38:34.336Z</time>
      </trkpt>
      <trkpt lat="43.35896987468004" lon="6.568770864978433">
        <ele>245.82</ele>
        <time>2024-12-08T12:38:40.889Z</time>
      </trkpt>
      <trkpt lat="43.35893324576318" lon="6.568768434226513">
        <ele>245.41</ele>
        <time>2024-12-08T12:38:47.443Z</time>
      </trkpt>
      <trkpt lat="43.35890851914883" lon="6.568752592429519">
        <ele>245.02</ele>
        <time>2024-12-08T12:38:53.998Z</time>
      </trkpt>
      <trkpt lat="43.35889368318021" lon="6.568735241889954">
        <ele>244.65</ele>
        <time>2024-12-08T12:39:00.554Z</time>
      </trkpt>
      <trkpt lat="43.35888463072479" lon="6.568723591044545">
        <ele>244.31</ele>
        <time>2024-12-08T12:39:07.110Z</time>
      </trkpt>
      <trkpt lat="43.35888186469674" lon="6.568724261596799">
        <ele>243.98</ele>
        <time>2024-12-08T12:39:13.666Z</time>
      </trkpt>
      <trkpt lat="43.358876248821616" lon="6.568721663206816">
        <ele>243.66</ele>
        <time>2024-12-08T12:39:20.222Z</time>
      </trkpt>
      <trkpt lat="43.358866693452" lon="6.5687143709510565">
        <ele>243.37</ele>
        <time>2024-12-08T12:39:26.779Z</time>
      </trkpt>
      <trkpt lat="43.3588529471308" lon="6.568714873865247">
        <ele>243.08</ele>
        <time>2024-12-08T12:39:33.336Z</time>
      </trkpt>
      <trkpt lat="43.35883140563965" lon="6.568723758682609">
        <ele>242.81</ele>
        <time>2024-12-08T12:39:39.894Z</time>
      </trkpt>
      <trkpt lat="43.358821012079716" lon="6.5688050631433725">
        <ele>242.52</ele>
        <time>2024-12-08T12:39:46.454Z</time>
      </trkpt>
      <trkpt lat="43.35881640203297" lon="6.568896342068911">
        <ele>242.27</ele>
        <time>2024-12-08T12:39:53.016Z</time>
      </trkpt>
      <trkpt lat="43.3587905857712" lon="6.568925175815821">
        <ele>242.04</ele>
        <time>2024-12-08T12:39:59.580Z</time>
      </trkpt>
      <trkpt lat="43.35867566987872" lon="6.569083845242858">
        <ele>241.78</ele>
        <time>2024-12-08T12:40:06.149Z</time>
      </trkpt>
      <trkpt lat="43.3586351852864" lon="6.569143524393439">
        <ele>241.59</ele>
        <time>2024-12-08T12:40:12.720Z</time>
      </trkpt>
      <trkpt lat="43.35859604179859" lon="6.569207478314638">
        <ele>241.4</ele>
        <time>2024-12-08T12:40:19.294Z</time>
      </trkpt>
      <trkpt lat="43.35855782032013" lon="6.569270929321647">
        <ele>241.24</ele>
        <time>2024-12-08T12:40:25.870Z</time>
      </trkpt>
      <trkpt lat="43.358519431203604" lon="6.569335805252194">
        <ele>241.09</ele>
        <time>2024-12-08T12:40:32.448Z</time>
      </trkpt>
      <trkpt lat="43.358485819771886" lon="6.569403447210789">
        <ele>240.97</ele>
        <time>2024-12-08T12:40:39.028Z</time>
      </trkpt>
      <trkpt lat="43.35845681838691" lon="6.569470753893256">
        <ele>240.87</ele>
        <time>2024-12-08T12:40:45.610Z</time>
      </trkpt>
      <trkpt lat="43.35839227773249" lon="6.569672338664532">
        <ele>240.75</ele>
        <time>2024-12-08T12:40:52.197Z</time>
      </trkpt>
      <trkpt lat="43.35836495272815" lon="6.569788344204426">
        <ele>240.69</ele>
        <time>2024-12-08T12:40:58.788Z</time>
      </trkpt>
      <trkpt lat="43.358345590531826" lon="6.569902505725622">
        <ele>240.7</ele>
        <time>2024-12-08T12:41:05.382Z</time>
      </trkpt>
      <trkpt lat="43.35832052864134" lon="6.570118926465511">
        <ele>240.75</ele>
        <time>2024-12-08T12:41:11.981Z</time>
      </trkpt>
      <trkpt lat="43.358258502557874" lon="6.570302490144968">
        <ele>240.83</ele>
        <time>2024-12-08T12:41:18.585Z</time>
      </trkpt>
      <trkpt lat="43.35823059082031" lon="6.570336939767003">
        <ele>240.88</ele>
        <time>2024-12-08T12:41:25.191Z</time>
      </trkpt>
      <trkpt lat="43.35816806182265" lon="6.570389410480857">
        <ele>240.96</ele>
        <time>2024-12-08T12:41:31.799Z</time>
      </trkpt>
      <trkpt lat="43.35810938850045" lon="6.570467194542289">
        <ele>241.06</ele>
        <time>2024-12-08T12:41:38.410Z</time>
      </trkpt>
      <trkpt lat="43.35807644762099" lon="6.5705200005322695">
        <ele>241.15</ele>
        <time>2024-12-08T12:41:45.023Z</time>
      </trkpt>
      <trkpt lat="43.357987934723496" lon="6.570675820112228">
        <ele>241.26</ele>
        <time>2024-12-08T12:41:51.641Z</time>
      </trkpt>
      <trkpt lat="43.35792356170714" lon="6.570777324959636">
        <ele>241.32</ele>
        <time>2024-12-08T12:41:58.262Z</time>
      </trkpt>
      <trkpt lat="43.3578875195235" lon="6.570819821208715">
        <ele>241.37</ele>
        <time>2024-12-08T12:42:04.885Z</time>
      </trkpt>
      <trkpt lat="43.35774217732251" lon="6.5710400976240635">
        <ele>241.43</ele>
        <time>2024-12-08T12:42:11.516Z</time>
      </trkpt>
      <trkpt lat="43.35767973214388" lon="6.571196923032403">
        <ele>241.43</ele>
        <time>2024-12-08T12:42:18.151Z</time>
      </trkpt>
      <trkpt lat="43.35762784816325" lon="6.571325333788991">
        <ele>241.41</ele>
        <time>2024-12-08T12:42:24.790Z</time>
      </trkpt>
      <trkpt lat="43.35756213404238" lon="6.571500850841403">
        <ele>241.42</ele>
        <time>2024-12-08T12:42:31.434Z</time>
      </trkpt>
      <trkpt lat="43.357527097687125" lon="6.571622220799327">
        <ele>241.37</ele>
        <time>2024-12-08T12:42:38.081Z</time>
      </trkpt>
      <trkpt lat="43.35749608464539" lon="6.571685839444399">
        <ele>241.3</ele>
        <time>2024-12-08T12:42:44.730Z</time>
      </trkpt>
      <trkpt lat="43.357406817376614" lon="6.571862446144223">
        <ele>241.19</ele>
        <time>2024-12-08T12:42:51.385Z</time>
      </trkpt>
      <trkpt lat="43.35737396031618" lon="6.571919526904821">
        <ele>241.08</ele>
        <time>2024-12-08T12:42:58.042Z</time>
      </trkpt>
      <trkpt lat="43.357314532622695" lon="6.572031006217003">
        <ele>240.93</ele>
        <time>2024-12-08T12:43:04.702Z</time>
      </trkpt>
      <trkpt lat="43.35729961283505" lon="6.572094205766916">
        <ele>240.75</ele>
        <time>2024-12-08T12:43:11.364Z</time>
      </trkpt>
      <trkpt lat="43.357298355549574" lon="6.572162685915828">
        <ele>240.55</ele>
        <time>2024-12-08T12:43:18.028Z</time>
      </trkpt>
      <trkpt lat="43.35729810409248" lon="6.57222043722868">
        <ele>240.32</ele>
        <time>2024-12-08T12:43:24.693Z</time>
      </trkpt>
      <trkpt lat="43.35729634389281" lon="6.5722717344760895">
        <ele>240.05</ele>
        <time>2024-12-08T12:43:31.359Z</time>
      </trkpt>
      <trkpt lat="43.3572743833065" lon="6.572461165487766">
        <ele>239.71</ele>
        <time>2024-12-08T12:43:38.030Z</time>
      </trkpt>
      <trkpt lat="43.357240771874785" lon="6.572684878483415">
        <ele>239.3</ele>
        <time>2024-12-08T12:43:44.707Z</time>
      </trkpt>
      <trkpt lat="43.35722878575325" lon="6.572738187387586">
        <ele>238.92</ele>
        <time>2024-12-08T12:43:51.386Z</time>
      </trkpt>
      <trkpt lat="43.35721361450851" lon="6.572794010862708">
        <ele>238.51</ele>
        <time>2024-12-08T12:43:58.066Z</time>
      </trkpt>
      <trkpt lat="43.357206992805004" lon="6.572849499061704">
        <ele>238.06</ele>
        <time>2024-12-08T12:44:04.747Z</time>
      </trkpt>
      <trkpt lat="43.35719794034958" lon="6.572905406355858">
        <ele>237.61</ele>
        <time>2024-12-08T12:44:11.430Z</time>
      </trkpt>
      <trkpt lat="43.35719316266477" lon="6.572970198467374">
        <ele>237.12</ele>
        <time>2024-12-08T12:44:18.115Z</time>
      </trkpt>
      <trkpt lat="43.35718243382871" lon="6.573035325855017">
        <ele>236.6</ele>
        <time>2024-12-08T12:44:24.801Z</time>
      </trkpt>
      <trkpt lat="43.35717405192554" lon="6.573108332231641">
        <ele>236.04</ele>
        <time>2024-12-08T12:44:31.489Z</time>
      </trkpt>
      <trkpt lat="43.35715318098664" lon="6.573170693591237">
        <ele>235.45</ele>
        <time>2024-12-08T12:44:38.179Z</time>
      </trkpt>
      <trkpt lat="43.35713205859065" lon="6.573224253952503">
        <ele>234.83</ele>
        <time>2024-12-08T12:44:44.871Z</time>
      </trkpt>
      <trkpt lat="43.357109259814024" lon="6.573277227580547">
        <ele>234.19</ele>
        <time>2024-12-08T12:44:51.564Z</time>
      </trkpt>
      <trkpt lat="43.357091741636395" lon="6.573336571455002">
        <ele>233.53</ele>
        <time>2024-12-08T12:44:58.259Z</time>
      </trkpt>
      <trkpt lat="43.35707154124975" lon="6.573396334424615">
        <ele>232.83</ele>
        <time>2024-12-08T12:45:04.955Z</time>
      </trkpt>
      <trkpt lat="43.35705083794892" lon="6.5734559297561646">
        <ele>232.09</ele>
        <time>2024-12-08T12:45:11.653Z</time>
      </trkpt>
      <trkpt lat="43.35702762007713" lon="6.573514603078365">
        <ele>231.33</ele>
        <time>2024-12-08T12:45:18.353Z</time>
      </trkpt>
      <trkpt lat="43.356987638399005" lon="6.573565062135458">
        <ele>230.58</ele>
        <time>2024-12-08T12:45:25.055Z</time>
      </trkpt>
      <trkpt lat="43.35693759843707" lon="6.57360328361392">
        <ele>229.81</ele>
        <time>2024-12-08T12:45:31.759Z</time>
      </trkpt>
      <trkpt lat="43.356884038075805" lon="6.573634883388877">
        <ele>229.0</ele>
        <time>2024-12-08T12:45:38.465Z</time>
      </trkpt>
      <trkpt lat="43.35682913661003" lon="6.573662459850311">
        <ele>228.16</ele>
        <time>2024-12-08T12:45:45.173Z</time>
      </trkpt>
      <trkpt lat="43.356769289821386" lon="6.573683079332113">
        <ele>227.3</ele>
        <time>2024-12-08T12:45:51.883Z</time>
      </trkpt>
      <trkpt lat="43.35671187378466" lon="6.573708476498723">
        <ele>226.4</ele>
        <time>2024-12-08T12:45:58.595Z</time>
      </trkpt>
      <trkpt lat="43.356654876843095" lon="6.573728006333113">
        <ele>225.5</ele>
        <time>2024-12-08T12:46:05.309Z</time>
      </trkpt>
      <trkpt lat="43.35653820075095" lon="6.573774358257651">
        <ele>224.52</ele>
        <time>2024-12-08T12:46:12.027Z</time>
      </trkpt>
      <trkpt lat="43.3564817905426" lon="6.573813082650304">
        <ele>223.54</ele>
        <time>2024-12-08T12:46:18.748Z</time>
      </trkpt>
      <trkpt lat="43.356422362849116" lon="6.57386127859354">
        <ele>222.54</ele>
        <time>2024-12-08T12:46:25.471Z</time>
      </trkpt>
      <trkpt lat="43.356371903792024" lon="6.5739168506115675">
        <ele>221.51</ele>
        <time>2024-12-08T12:46:32.196Z</time>
      </trkpt>
      <trkpt lat="43.35633720271289" lon="6.57398491166532">
        <ele>220.43</ele>
        <time>2024-12-08T12:46:38.923Z</time>
      </trkpt>
      <trkpt lat="43.35631800815463" lon="6.574056576937437">
        <ele>219.32</ele>
        <time>2024-12-08T12:46:45.652Z</time>
      </trkpt>
      <trkpt lat="43.35628632456064" lon="6.574121788144112">
        <ele>218.18</ele>
        <time>2024-12-08T12:46:52.383Z</time>
      </trkpt>
      <trkpt lat="43.35623796097934" lon="6.574160344898701">
        <ele>217.03</ele>
        <time>2024-12-08T12:46:59.116Z</time>
      </trkpt>
      <trkpt lat="43.3561781141907" lon="6.574194375425577">
        <ele>215.84</ele>
        <time>2024-12-08T12:47:05.852Z</time>
      </trkpt>
      <trkpt lat="43.35612044669688" lon="6.574226310476661">
        <ele>214.63</ele>
        <time>2024-12-08T12:47:12.590Z</time>
      </trkpt>
      <trkpt lat="43.35606479085982" lon="6.574266543611884">
        <ele>213.42</ele>
        <time>2024-12-08T12:47:19.330Z</time>
      </trkpt>
      <trkpt lat="43.356004944071174" lon="6.574314320459962">
        <ele>212.17</ele>
        <time>2024-12-08T12:47:26.072Z</time>
      </trkpt>
      <trkpt lat="43.35595741868019" lon="6.574375424534082">
        <ele>210.91</ele>
        <time>2024-12-08T12:47:32.817Z</time>
      </trkpt>
      <trkpt lat="43.3559207059443" lon="6.574453627690673">
        <ele>209.64</ele>
        <time>2024-12-08T12:47:39.564Z</time>
      </trkpt>
      <trkpt lat="43.35589220747352" lon="6.574527723714709">
        <ele>208.38</ele>
        <time>2024-12-08T12:47:46.313Z</time>
      </trkpt>
      <trkpt lat="43.355873515829444" lon="6.574603915214539">
        <ele>207.13</ele>
        <time>2024-12-08T12:47:53.064Z</time>
      </trkpt>
      <trkpt lat="43.35585817694664" lon="6.574674993753433">
        <ele>205.89</ele>
        <time>2024-12-08T12:47:59.817Z</time>
      </trkpt>
      <trkpt lat="43.35584359243512" lon="6.574742300435901">
        <ele>204.65</ele>
        <time>2024-12-08T12:48:06.572Z</time>
      </trkpt>
      <trkpt lat="43.3558290079236" lon="6.5747924242168665">
        <ele>203.41</ele>
        <time>2024-12-08T12:48:13.328Z</time>
      </trkpt>
      <trkpt lat="43.35582045838237" lon="6.574840871617198">
        <ele>202.21</ele>
        <time>2024-12-08T12:48:20.086Z</time>
      </trkpt>
      <trkpt lat="43.355812495574355" lon="6.574874063953757">
        <ele>201.02</ele>
        <time>2024-12-08T12:48:26.844Z</time>
      </trkpt>
      <trkpt lat="43.355809058994055" lon="6.574911028146744">
        <ele>199.83</ele>
        <time>2024-12-08T12:48:33.603Z</time>
      </trkpt>
      <trkpt lat="43.35579430684447" lon="6.574929468333721">
        <ele>198.65</ele>
        <time>2024-12-08T12:48:40.363Z</time>
      </trkpt>
      <trkpt lat="43.355779303237796" lon="6.574949417263269">
        <ele>197.45</ele>
        <time>2024-12-08T12:48:47.124Z</time>
      </trkpt>
      <trkpt lat="43.35575885139406" lon="6.574982944875956">
        <ele>196.25</ele>
        <time>2024-12-08T12:48:53.886Z</time>
      </trkpt>
      <trkpt lat="43.35573001764715" lon="6.575035080313683">
        <ele>195.03</ele>
        <time>2024-12-08T12:49:00.650Z</time>
      </trkpt>
      <trkpt lat="43.3556894492358" lon="6.575094759464264">
        <ele>193.8</ele>
        <time>2024-12-08T12:49:07.416Z</time>
      </trkpt>
      <trkpt lat="43.355642007663846" lon="6.5751611441373825">
        <ele>192.56</ele>
        <time>2024-12-08T12:49:14.184Z</time>
      </trkpt>
      <trkpt lat="43.3555840048939" lon="6.575239263474941">
        <ele>191.4</ele>
        <time>2024-12-08T12:49:20.955Z</time>
      </trkpt>
      <trkpt lat="43.355535892769694" lon="6.575313862413168">
        <ele>190.24</ele>
        <time>2024-12-08T12:49:27.729Z</time>
      </trkpt>
      <trkpt lat="43.355490965768695" lon="6.575393741950393">
        <ele>189.05</ele>
        <time>2024-12-08T12:49:34.505Z</time>
      </trkpt>
      <trkpt lat="43.35544838570058" lon="6.575481751933694">
        <ele>187.85</ele>
        <time>2024-12-08T12:49:41.284Z</time>
      </trkpt>
      <trkpt lat="43.355417205020785" lon="6.575581496581435">
        <ele>186.69</ele>
        <time>2024-12-08T12:49:48.066Z</time>
      </trkpt>
      <trkpt lat="43.35538426414132" lon="6.575701357796788">
        <ele>185.49</ele>
        <time>2024-12-08T12:49:54.851Z</time>
      </trkpt>
      <trkpt lat="43.3553630579263" lon="6.575837898999453">
        <ele>184.37</ele>
        <time>2024-12-08T12:50:01.639Z</time>
      </trkpt>
      <trkpt lat="43.35534671321511" lon="6.575961364433169">
        <ele>183.22</ele>
        <time>2024-12-08T12:50:08.431Z</time>
      </trkpt>
      <trkpt lat="43.35533615201712" lon="6.5760767832398415">
        <ele>182.11</ele>
        <time>2024-12-08T12:50:15.226Z</time>
      </trkpt>
      <trkpt lat="43.35532911121845" lon="6.576177701354027">
        <ele>181.01</ele>
        <time>2024-12-08T12:50:22.023Z</time>
      </trkpt>
      <trkpt lat="43.355323914438486" lon="6.57626629807055">
        <ele>179.95</ele>
        <time>2024-12-08T12:50:28.822Z</time>
      </trkpt>
      <trkpt lat="43.355306731536984" lon="6.576347099617124">
        <ele>178.95</ele>
        <time>2024-12-08T12:50:35.624Z</time>
      </trkpt>
      <trkpt lat="43.35528108291328" lon="6.576419938355684">
        <ele>177.97</ele>
        <time>2024-12-08T12:50:42.428Z</time>
      </trkpt>
      <trkpt lat="43.35524344816804" lon="6.576473666355014">
        <ele>177.02</ele>
        <time>2024-12-08T12:50:49.234Z</time>
      </trkpt>
      <trkpt lat="43.35519231855869" lon="6.57653359696269">
        <ele>176.07</ele>
        <time>2024-12-08T12:50:56.042Z</time>
      </trkpt>
      <trkpt lat="43.35514051839709" lon="6.576608112081885">
        <ele>175.13</ele>
        <time>2024-12-08T12:51:02.853Z</time>
      </trkpt>
      <trkpt lat="43.355106487870216" lon="6.576711963862181">
        <ele>174.27</ele>
        <time>2024-12-08T12:51:09.666Z</time>
      </trkpt>
      <trkpt lat="43.35509232245386" lon="6.576817324385047">
        <ele>173.44</ele>
        <time>2024-12-08T12:51:16.482Z</time>
      </trkpt>
      <trkpt lat="43.35507346317172" lon="6.576915560290217">
        <ele>172.67</ele>
        <time>2024-12-08T12:51:23.301Z</time>
      </trkpt>
      <trkpt lat="43.35504085756838" lon="6.576990829780698">
        <ele>171.93</ele>
        <time>2024-12-08T12:51:30.122Z</time>
      </trkpt>
      <trkpt lat="43.35500741377473" lon="6.577046569436789">
        <ele>171.23</ele>
        <time>2024-12-08T12:51:36.945Z</time>
      </trkpt>
      <trkpt lat="43.35496894083917" lon="6.5770981181412935">
        <ele>170.58</ele>
        <time>2024-12-08T12:51:43.770Z</time>
      </trkpt>
      <trkpt lat="43.35493549704552" lon="6.577143212780356">
        <ele>169.96</ele>
        <time>2024-12-08T12:51:50.596Z</time>
      </trkpt>
      <trkpt lat="43.35490733385086" lon="6.577186128124595">
        <ele>169.38</ele>
        <time>2024-12-08T12:51:57.424Z</time>
      </trkpt>
      <trkpt lat="43.354886965826154" lon="6.577213453128934">
        <ele>168.86</ele>
        <time>2024-12-08T12:52:04.253Z</time>
      </trkpt>
      <trkpt lat="43.354847403243184" lon="6.577260810881853">
        <ele>168.38</ele>
        <time>2024-12-08T12:52:11.084Z</time>
      </trkpt>
      <trkpt lat="43.354840613901615" lon="6.57727338373661">
        <ele>167.94</ele>
        <time>2024-12-08T12:52:17.915Z</time>
      </trkpt>
      <trkpt lat="43.354833237826824" lon="6.577277909964323">
        <ele>167.54</ele>
        <time>2024-12-08T12:52:24.746Z</time>
      </trkpt>
      <trkpt lat="43.35483348928392" lon="6.577283442020416">
        <ele>167.18</ele>
        <time>2024-12-08T12:52:31.578Z</time>
      </trkpt>
      <trkpt lat="43.354828376322985" lon="6.5772839449346066">
        <ele>166.86</ele>
        <time>2024-12-08T12:52:38.410Z</time>
      </trkpt>
      <trkpt lat="43.35480524227023" lon="6.5772981103509665">
        <ele>166.56</ele>
        <time>2024-12-08T12:52:45.243Z</time>
      </trkpt>
      <trkpt lat="43.35472301580012" lon="6.577359968796372">
        <ele>166.29</ele>
        <time>2024-12-08T12:52:52.079Z</time>
      </trkpt>
      <trkpt lat="43.35469569079578" lon="6.577382683753967">
        <ele>166.07</ele>
        <time>2024-12-08T12:52:58.916Z</time>
      </trkpt>
      <trkpt lat="43.354666186496615" lon="6.577402967959642">
        <ele>165.87</ele>
        <time>2024-12-08T12:53:05.754Z</time>
      </trkpt>
      <trkpt lat="43.35460768081248" lon="6.577448733150959">
        <ele>165.69</ele>
        <time>2024-12-08T12:53:12.595Z</time>
      </trkpt>
      <trkpt lat="43.354538613930345" lon="6.577526433393359">
        <ele>165.58</ele>
        <time>2024-12-08T12:53:19.439Z</time>
      </trkpt>
      <trkpt lat="43.35445940494537" lon="6.577659538015723">
        <ele>165.45</ele>
        <time>2024-12-08T12:53:26.287Z</time>
      </trkpt>
      <trkpt lat="43.354378854855895" lon="6.577764814719558">
        <ele>165.38</ele>
        <time>2024-12-08T12:53:33.139Z</time>
      </trkpt>
      <trkpt lat="43.354228399693966" lon="6.577853746712208">
        <ele>165.33</ele>
        <time>2024-12-08T12:53:39.997Z</time>
      </trkpt>
      <trkpt lat="43.35417374968529" lon="6.577880149707198">
        <ele>165.32</ele>
        <time>2024-12-08T12:53:46.857Z</time>
      </trkpt>
      <trkpt lat="43.35411147214472" lon="6.577909989282489">
        <ele>165.35</ele>
        <time>2024-12-08T12:53:53.719Z</time>
      </trkpt>
      <trkpt lat="43.35403905250132" lon="6.577932871878147">
        <ele>165.39</ele>
        <time>2024-12-08T12:54:00.584Z</time>
      </trkpt>
      <trkpt lat="43.353977194055915" lon="6.5779312793165445">
        <ele>165.47</ele>
        <time>2024-12-08T12:54:07.451Z</time>
      </trkpt>
      <trkpt lat="43.353916173800826" lon="6.577943097800016">
        <ele>165.58</ele>
        <time>2024-12-08T12:54:14.320Z</time>
      </trkpt>
      <trkpt lat="43.35386370308697" lon="6.577961202710867">
        <ele>165.72</ele>
        <time>2024-12-08T12:54:21.191Z</time>
      </trkpt>
      <trkpt lat="43.35381466895342" lon="6.577986516058445">
        <ele>165.89</ele>
        <time>2024-12-08T12:54:28.064Z</time>
      </trkpt>
      <trkpt lat="43.35377032868564" lon="6.57800629734993">
        <ele>166.08</ele>
        <time>2024-12-08T12:54:34.938Z</time>
      </trkpt>
      <trkpt lat="43.353671841323376" lon="6.578068574890494">
        <ele>166.35</ele>
        <time>2024-12-08T12:54:41.816Z</time>
      </trkpt>
      <trkpt lat="43.353639068081975" lon="6.578098414465785">
        <ele>166.59</ele>
        <time>2024-12-08T12:54:48.696Z</time>
      </trkpt>
      <trkpt lat="43.35360428318381" lon="6.578106041997671">
        <ele>166.86</ele>
        <time>2024-12-08T12:54:55.577Z</time>
      </trkpt>
      <trkpt lat="43.35356606170535" lon="6.578119033947587">
        <ele>167.16</ele>
        <time>2024-12-08T12:55:02.459Z</time>
      </trkpt>
      <trkpt lat="43.35352725349367" lon="6.57813529483974">
        <ele>167.47</ele>
        <time>2024-12-08T12:55:09.343Z</time>
      </trkpt>
      <trkpt lat="43.35344695486128" lon="6.578140240162611">
        <ele>167.81</ele>
        <time>2024-12-08T12:55:16.229Z</time>
      </trkpt>
      <trkpt lat="43.35340730845928" lon="6.578134037554264">
        <ele>168.15</ele>
        <time>2024-12-08T12:55:23.117Z</time>
      </trkpt>
      <trkpt lat="43.353365482762456" lon="6.57811869867146">
        <ele>168.51</ele>
        <time>2024-12-08T12:55:30.006Z</time>
      </trkpt>
      <trkpt lat="43.35332793183625" lon="6.578101012855768">
        <ele>168.87</ele>
        <time>2024-12-08T12:55:36.897Z</time>
      </trkpt>
      <trkpt lat="43.35328702814877" lon="6.5780808962881565">
        <ele>169.23</ele>
        <time>2024-12-08T12:55:43.789Z</time>
      </trkpt>
      <trkpt lat="43.35316859185696" lon="6.578091960400343">
        <ele>169.62</ele>
        <time>2024-12-08T12:55:50.685Z</time>
      </trkpt>
      <trkpt lat="43.353107906877995" lon="6.578230848535895">
        <ele>169.97</ele>
        <time>2024-12-08T12:55:57.585Z</time>
      </trkpt>
      <trkpt lat="43.35308753885329" lon="6.578337466344237">
        <ele>170.33</ele>
        <time>2024-12-08T12:56:04.488Z</time>
      </trkpt>
      <trkpt lat="43.35305836983025" lon="6.578549360856414">
        <ele>170.68</ele>
        <time>2024-12-08T12:56:11.397Z</time>
      </trkpt>
      <trkpt lat="43.35304839536548" lon="6.578659834340215">
        <ele>171.02</ele>
        <time>2024-12-08T12:56:18.309Z</time>
      </trkpt>
      <trkpt lat="43.35304596461356" lon="6.5787173341959715">
        <ele>171.36</ele>
        <time>2024-12-08T12:56:25.222Z</time>
      </trkpt>
      <trkpt lat="43.35303347557783" lon="6.578763015568256">
        <ele>171.7</ele>
        <time>2024-12-08T12:56:32.136Z</time>
      </trkpt>
      <trkpt lat="43.35302618332207" lon="6.578806936740875">
        <ele>172.04</ele>
        <time>2024-12-08T12:56:39.052Z</time>
      </trkpt>
      <trkpt lat="43.35301377810538" lon="6.578854713588953">
        <ele>172.38</ele>
        <time>2024-12-08T12:56:45.969Z</time>
      </trkpt>
      <trkpt lat="43.35295921191573" lon="6.579159060493112">
        <ele>172.72</ele>
        <time>2024-12-08T12:56:52.894Z</time>
      </trkpt>
      <trkpt lat="43.35285997018218" lon="6.579197868704796">
        <ele>173.02</ele>
        <time>2024-12-08T12:56:59.822Z</time>
      </trkpt>
      <trkpt lat="43.35283013060689" lon="6.57918437384069">
        <ele>173.35</ele>
        <time>2024-12-08T12:57:06.752Z</time>
      </trkpt>
      <trkpt lat="43.3528055716306" lon="6.579165766015649">
        <ele>173.67</ele>
        <time>2024-12-08T12:57:13.683Z</time>
      </trkpt>
      <trkpt lat="43.352785957977176" lon="6.579140285030007">
        <ele>174.0</ele>
        <time>2024-12-08T12:57:20.614Z</time>
      </trkpt>
      <trkpt lat="43.35277313366532" lon="6.579101895913482">
        <ele>174.33</ele>
        <time>2024-12-08T12:57:27.547Z</time>
      </trkpt>
      <trkpt lat="43.35277975536883" lon="6.579068200662732">
        <ele>174.65</ele>
        <time>2024-12-08T12:57:34.480Z</time>
      </trkpt>
      <trkpt lat="43.35278025828302" lon="6.579031236469746">
        <ele>174.97</ele>
        <time>2024-12-08T12:57:41.414Z</time>
      </trkpt>
      <trkpt lat="43.352783527225256" lon="6.578987902030349">
        <ele>175.28</ele>
        <time>2024-12-08T12:57:48.350Z</time>
      </trkpt>
      <trkpt lat="43.35278796963394" lon="6.578956302255392">
        <ele>175.57</ele>
        <time>2024-12-08T12:57:55.286Z</time>
      </trkpt>
      <trkpt lat="43.352793250232935" lon="6.578926462680101">
        <ele>175.82</ele>
        <time>2024-12-08T12:58:02.223Z</time>
      </trkpt>
      <trkpt lat="43.35278193466365" lon="6.578889079391956">
        <ele>176.08</ele>
        <time>2024-12-08T12:58:09.161Z</time>
      </trkpt>
      <trkpt lat="43.35276081226766" lon="6.5788504388183355">
        <ele>176.33</ele>
        <time>2024-12-08T12:58:16.100Z</time>
      </trkpt>
      <trkpt lat="43.35266106761992" lon="6.5787438210099936">
        <ele>176.57</ele>
        <time>2024-12-08T12:58:23.044Z</time>
      </trkpt>
      <trkpt lat="43.352636341005564" lon="6.5787420608103275">
        <ele>176.78</ele>
        <time>2024-12-08T12:58:29.989Z</time>
      </trkpt>
      <trkpt lat="43.35261421278119" lon="6.578748347237706">
        <ele>176.98</ele>
        <time>2024-12-08T12:58:36.934Z</time>
      </trkpt>
      <trkpt lat="43.352590911090374" lon="6.57874952070415">
        <ele>177.17</ele>
        <time>2024-12-08T12:58:43.880Z</time>
      </trkpt>
      <trkpt lat="43.35256836377084" lon="6.578751616179943">
        <ele>177.33</ele>
        <time>2024-12-08T12:58:50.827Z</time>
      </trkpt>
      <trkpt lat="43.35249703377485" lon="6.578736612573266">
        <ele>177.45</ele>
        <time>2024-12-08T12:58:57.777Z</time>
      </trkpt>
      <trkpt lat="43.35236887447536" lon="6.578626642003655">
        <ele>177.57</ele>
        <time>2024-12-08T12:59:04.732Z</time>
      </trkpt>
      <trkpt lat="43.35234205238521" lon="6.578591102734208">
        <ele>177.69</ele>
        <time>2024-12-08T12:59:11.688Z</time>
      </trkpt>
      <trkpt lat="43.352320259436965" lon="6.5785647835582495">
        <ele>177.79</ele>
        <time>2024-12-08T12:59:18.645Z</time>
      </trkpt>
      <trkpt lat="43.35229846648872" lon="6.578528322279453">
        <ele>177.88</ele>
        <time>2024-12-08T12:59:25.603Z</time>
      </trkpt>
      <trkpt lat="43.35228245705366" lon="6.578493285924196">
        <ele>177.95</ele>
        <time>2024-12-08T12:59:32.562Z</time>
      </trkpt>
      <trkpt lat="43.35228195413947" lon="6.5784799586981535">
        <ele>178.01</ele>
        <time>2024-12-08T12:59:39.522Z</time>
      </trkpt>
      <trkpt lat="43.352292347699404" lon="6.578451544046402">
        <ele>178.06</ele>
        <time>2024-12-08T12:59:46.483Z</time>
      </trkpt>
      <trkpt lat="43.352289414033294" lon="6.578437127172947">
        <ele>178.07</ele>
        <time>2024-12-08T12:59:53.444Z</time>
      </trkpt>
      <trkpt lat="43.35227658972144" lon="6.578396642580628">
        <ele>178.06</ele>
        <time>2024-12-08T13:00:00.406Z</time>
      </trkpt>
      <trkpt lat="43.35227608680725" lon="6.578389350324869">
        <ele>178.02</ele>
        <time>2024-12-08T13:00:07.368Z</time>
      </trkpt>
      <trkpt lat="43.35227550007403" lon="6.578388176858425">
        <ele>177.95</ele>
        <time>2024-12-08T13:00:14.330Z</time>
      </trkpt>
      <trkpt lat="43.35227156057954" lon="6.578380800783634">
        <ele>177.86</ele>
        <time>2024-12-08T13:00:21.293Z</time>
      </trkpt>
      <trkpt lat="43.352246414870024" lon="6.5783153381198645">
        <ele>177.73</ele>
        <time>2024-12-08T13:00:28.257Z</time>
      </trkpt>
      <trkpt lat="43.35215915925801" lon="6.578152980655432">
        <ele>177.55</ele>
        <time>2024-12-08T13:00:35.227Z</time>
      </trkpt>
      <trkpt lat="43.35213049314916" lon="6.578097576275468">
        <ele>177.34</ele>
        <time>2024-12-08T13:00:42.198Z</time>
      </trkpt>
      <trkpt lat="43.35211616009474" lon="6.578052062541246">
        <ele>177.1</ele>
        <time>2024-12-08T13:00:49.171Z</time>
      </trkpt>
      <trkpt lat="43.352090595290065" lon="6.578015936538577">
        <ele>176.81</ele>
        <time>2024-12-08T13:00:56.145Z</time>
      </trkpt>
      <trkpt lat="43.352066203951836" lon="6.57800680026412">
        <ele>176.48</ele>
        <time>2024-12-08T13:01:03.120Z</time>
      </trkpt>
      <trkpt lat="43.35204985924065" lon="6.578016187995672">
        <ele>176.11</ele>
        <time>2024-12-08T13:01:10.095Z</time>
      </trkpt>
      <trkpt lat="43.35203820839524" lon="6.578043764457107">
        <ele>175.69</ele>
        <time>2024-12-08T13:01:17.071Z</time>
      </trkpt>
      <trkpt lat="43.352034855633974" lon="6.578086679801345">
        <ele>175.23</ele>
        <time>2024-12-08T13:01:24.048Z</time>
      </trkpt>
      <trkpt lat="43.35203762166202" lon="6.578147364780307">
        <ele>174.71</ele>
        <time>2024-12-08T13:01:31.027Z</time>
      </trkpt>
      <trkpt lat="43.352038376033306" lon="6.578215174376965">
        <ele>174.14</ele>
        <time>2024-12-08T13:01:38.008Z</time>
      </trkpt>
      <trkpt lat="43.352024126797915" lon="6.5782873425632715">
        <ele>173.49</ele>
        <time>2024-12-08T13:01:44.991Z</time>
      </trkpt>
      <trkpt lat="43.35202278569341" lon="6.5783739276230335">
        <ele>172.8</ele>
        <time>2024-12-08T13:01:51.976Z</time>
      </trkpt>
      <trkpt lat="43.35202496498823" lon="6.578466799110174">
        <ele>172.06</ele>
        <time>2024-12-08T13:01:58.963Z</time>
      </trkpt>
      <trkpt lat="43.352029491215944" lon="6.578568974509835">
        <ele>171.24</ele>
        <time>2024-12-08T13:02:05.953Z</time>
      </trkpt>
      <trkpt lat="43.35202823393047" lon="6.57866595312953">
        <ele>170.37</ele>
        <time>2024-12-08T13:02:12.945Z</time>
      </trkpt>
      <trkpt lat="43.35202747955918" lon="6.578756645321846">
        <ele>169.46</ele>
        <time>2024-12-08T13:02:19.940Z</time>
      </trkpt>
      <trkpt lat="43.352034352719784" lon="6.5788389556109905">
        <ele>168.49</ele>
        <time>2024-12-08T13:02:26.937Z</time>
      </trkpt>
      <trkpt lat="43.352039717137814" lon="6.578910620883107">
        <ele>167.49</ele>
        <time>2024-12-08T13:02:33.936Z</time>
      </trkpt>
      <trkpt lat="43.35204156115651" lon="6.578983291983604">
        <ele>166.45</ele>
        <time>2024-12-08T13:02:40.936Z</time>
      </trkpt>
      <trkpt lat="43.352051032707095" lon="6.579063590615988">
        <ele>165.38</ele>
        <time>2024-12-08T13:02:47.938Z</time>
      </trkpt>
      <trkpt lat="43.352062264457345" lon="6.5791520196944475">
        <ele>164.26</ele>
        <time>2024-12-08T13:02:54.943Z</time>
      </trkpt>
      <trkpt lat="43.35208606906235" lon="6.5792471542954445">
        <ele>163.11</ele>
        <time>2024-12-08T13:03:01.950Z</time>
      </trkpt>
      <trkpt lat="43.35208984091878" lon="6.579332733526826">
        <ele>161.9</ele>
        <time>2024-12-08T13:03:08.960Z</time>
      </trkpt>
      <trkpt lat="43.352090427652" lon="6.579440189525485">
        <ele>160.63</ele>
        <time>2024-12-08T13:03:15.972Z</time>
      </trkpt>
      <trkpt lat="43.35207584314048" lon="6.579536581411958">
        <ele>159.34</ele>
        <time>2024-12-08T13:03:22.987Z</time>
      </trkpt>
      <trkpt lat="43.35206218063831" lon="6.579640181735158">
        <ele>158.01</ele>
        <time>2024-12-08T13:03:30.004Z</time>
      </trkpt>
      <trkpt lat="43.35204675793648" lon="6.579741518944502">
        <ele>156.64</ele>
        <time>2024-12-08T13:03:37.024Z</time>
      </trkpt>
      <trkpt lat="43.352040220052004" lon="6.579840844497085">
        <ele>155.25</ele>
        <time>2024-12-08T13:03:44.047Z</time>
      </trkpt>
      <trkpt lat="43.35203988477588" lon="6.579950312152505">
        <ele>153.87</ele>
        <time>2024-12-08T13:03:51.072Z</time>
      </trkpt>
      <trkpt lat="43.35203477181494" lon="6.580066988244653">
        <ele>152.49</ele>
        <time>2024-12-08T13:03:58.100Z</time>
      </trkpt>
      <trkpt lat="43.35201214067638" lon="6.580196991562843">
        <ele>151.08</ele>
        <time>2024-12-08T13:04:05.132Z</time>
      </trkpt>
      <trkpt lat="43.35198171436787" lon="6.580312578007579">
        <ele>149.7</ele>
        <time>2024-12-08T13:04:12.167Z</time>
      </trkpt>
      <trkpt lat="43.351947935298085" lon="6.580437636002898">
        <ele>148.32</ele>
        <time>2024-12-08T13:04:19.205Z</time>
      </trkpt>
      <trkpt lat="43.351899571716785" lon="6.5805584192276">
        <ele>146.94</ele>
        <time>2024-12-08T13:04:26.247Z</time>
      </trkpt>
      <trkpt lat="43.3518607635051" lon="6.580692026764154">
        <ele>145.58</ele>
        <time>2024-12-08T13:04:33.293Z</time>
      </trkpt>
      <trkpt lat="43.35183234885335" lon="6.58082521520555">
        <ele>144.27</ele>
        <time>2024-12-08T13:04:40.342Z</time>
      </trkpt>
      <trkpt lat="43.351804688572884" lon="6.580949183553457">
        <ele>143.06</ele>
        <time>2024-12-08T13:04:47.394Z</time>
      </trkpt>
      <trkpt lat="43.35180343128741" lon="6.581080695614219">
        <ele>141.89</ele>
        <time>2024-12-08T13:04:54.450Z</time>
      </trkpt>
      <trkpt lat="43.35182438604534" lon="6.581210866570473">
        <ele>140.8</ele>
        <time>2024-12-08T13:05:01.509Z</time>
      </trkpt>
      <trkpt lat="43.35187643766403" lon="6.581319244578481">
        <ele>139.76</ele>
        <time>2024-12-08T13:05:08.572Z</time>
      </trkpt>
      <trkpt lat="43.35193796083331" lon="6.58141890540719">
        <ele>138.74</ele>
        <time>2024-12-08T13:05:15.638Z</time>
      </trkpt>
      <trkpt lat="43.35197878070176" lon="6.581526696681976">
        <ele>137.73</ele>
        <time>2024-12-08T13:05:22.707Z</time>
      </trkpt>
      <trkpt lat="43.35200250148773" lon="6.581628788262606">
        <ele>136.77</ele>
        <time>2024-12-08T13:05:29.779Z</time>
      </trkpt>
      <trkpt lat="43.35199696943164" lon="6.581718139350414">
        <ele>135.86</ele>
        <time>2024-12-08T13:05:36.853Z</time>
      </trkpt>
      <trkpt lat="43.35197266191244" lon="6.581790642812848">
        <ele>134.99</ele>
        <time>2024-12-08T13:05:43.929Z</time>
      </trkpt>
      <trkpt lat="43.351906361058354" lon="6.581908660009503">
        <ele>134.17</ele>
        <time>2024-12-08T13:05:51.009Z</time>
      </trkpt>
      <trkpt lat="43.35186411626637" lon="6.581960627809167">
        <ele>133.35</ele>
        <time>2024-12-08T13:05:58.091Z</time>
      </trkpt>
      <trkpt lat="43.351816004142165" lon="6.582018714398146">
        <ele>132.55</ele>
        <time>2024-12-08T13:06:05.175Z</time>
      </trkpt>
      <trkpt lat="43.351767137646675" lon="6.5820900443941355">
        <ele>131.77</ele>
        <time>2024-12-08T13:06:12.262Z</time>
      </trkpt>
      <trkpt lat="43.35172346793115" lon="6.582167576998472">
        <ele>131.03</ele>
        <time>2024-12-08T13:06:19.351Z</time>
      </trkpt>
      <trkpt lat="43.35168365389109" lon="6.582254832610488">
        <ele>130.33</ele>
        <time>2024-12-08T13:06:26.443Z</time>
      </trkpt>
      <trkpt lat="43.35164459422231" lon="6.582336723804474">
        <ele>129.66</ele>
        <time>2024-12-08T13:06:33.537Z</time>
      </trkpt>
      <trkpt lat="43.35159346461296" lon="6.582418866455555">
        <ele>129.01</ele>
        <time>2024-12-08T13:06:40.634Z</time>
      </trkpt>
      <trkpt lat="43.35153688676655" lon="6.582488436251879">
        <ele>128.39</ele>
        <time>2024-12-08T13:06:47.734Z</time>
      </trkpt>
      <trkpt lat="43.351467568427324" lon="6.582539649680257">
        <ele>127.81</ele>
        <time>2024-12-08T13:06:54.836Z</time>
      </trkpt>
      <trkpt lat="43.351391796022654" lon="6.5825786255300045">
        <ele>127.24</ele>
        <time>2024-12-08T13:07:01.941Z</time>
      </trkpt>
      <trkpt lat="43.35132775828242" lon="6.582622714340687">
        <ele>126.73</ele>
        <time>2024-12-08T13:07:09.049Z</time>
      </trkpt>
      <trkpt lat="43.35127713158727" lon="6.582686668261886">
        <ele>126.22</ele>
        <time>2024-12-08T13:07:16.159Z</time>
      </trkpt>
      <trkpt lat="43.35122264921665" lon="6.5827391389757395">
        <ele>125.76</ele>
        <time>2024-12-08T13:07:23.272Z</time>
      </trkpt>
      <trkpt lat="43.351161712780595" lon="6.582783730700612">
        <ele>125.36</ele>
        <time>2024-12-08T13:07:30.387Z</time>
      </trkpt>
      <trkpt lat="43.35109608247876" lon="6.582825807854533">
        <ele>124.98</ele>
        <time>2024-12-08T13:07:37.504Z</time>
      </trkpt>
      <trkpt lat="43.351035146042705" lon="6.582871992141008">
        <ele>124.66</ele>
        <time>2024-12-08T13:07:44.624Z</time>
      </trkpt>
      <trkpt lat="43.35098267532885" lon="6.582934437319636">
        <ele>124.36</ele>
        <time>2024-12-08T13:07:51.746Z</time>
      </trkpt>
      <trkpt lat="43.35093665868044" lon="6.583022112026811">
        <ele>124.12</ele>
        <time>2024-12-08T13:07:58.871Z</time>
      </trkpt>
      <trkpt lat="43.35089659318328" lon="6.583109116181731">
        <ele>123.93</ele>
        <time>2024-12-08T13:08:05.999Z</time>
      </trkpt>
      <trkpt lat="43.350853929296136" lon="6.58319067209959">
        <ele>123.77</ele>
        <time>2024-12-08T13:08:13.129Z</time>
      </trkpt>
      <trkpt lat="43.35080975666642" lon="6.583276251330972">
        <ele>123.68</ele>
        <time>2024-12-08T13:08:20.262Z</time>
      </trkpt>
      <trkpt lat="43.35075594484806" lon="6.583362417295575">
        <ele>123.6</ele>
        <time>2024-12-08T13:08:27.398Z</time>
      </trkpt>
      <trkpt lat="43.350684363394976" lon="6.583440117537975">
        <ele>123.53</ele>
        <time>2024-12-08T13:08:34.537Z</time>
      </trkpt>
      <trkpt lat="43.35061328485608" lon="6.583535671234131">
        <ele>123.49</ele>
        <time>2024-12-08T13:08:41.680Z</time>
      </trkpt>
      <trkpt lat="43.35054597817361" lon="6.583623513579369">
        <ele>123.49</ele>
        <time>2024-12-08T13:08:48.826Z</time>
      </trkpt>
      <trkpt lat="43.35047456435859" lon="6.583689143881202">
        <ele>123.49</ele>
        <time>2024-12-08T13:08:55.975Z</time>
      </trkpt>
      <trkpt lat="43.35042016580701" lon="6.583761228248477">
        <ele>123.5</ele>
        <time>2024-12-08T13:09:03.126Z</time>
      </trkpt>
      <trkpt lat="43.35036987438798" lon="6.583831133320928">
        <ele>123.54</ele>
        <time>2024-12-08T13:09:10.280Z</time>
      </trkpt>
      <trkpt lat="43.35031941533089" lon="6.583901708945632">
        <ele>123.6</ele>
        <time>2024-12-08T13:09:17.437Z</time>
      </trkpt>
      <trkpt lat="43.35023107007146" lon="6.584049314260483">
        <ele>123.63</ele>
        <time>2024-12-08T13:09:24.598Z</time>
      </trkpt>
      <trkpt lat="43.3501925971359" lon="6.584117207676172">
        <ele>123.62</ele>
        <time>2024-12-08T13:09:31.762Z</time>
      </trkpt>
      <trkpt lat="43.350088242441416" lon="6.584286857396364">
        <ele>123.62</ele>
        <time>2024-12-08T13:09:38.931Z</time>
      </trkpt>
      <trkpt lat="43.350059827789664" lon="6.5843371488153934">
        <ele>123.59</ele>
        <time>2024-12-08T13:09:46.102Z</time>
      </trkpt>
      <trkpt lat="43.35001364350319" lon="6.584432702511549">
        <ele>123.54</ele>
        <time>2024-12-08T13:09:53.276Z</time>
      </trkpt>
      <trkpt lat="43.34999813698232" lon="6.584482742473483">
        <ele>123.44</ele>
        <time>2024-12-08T13:10:00.451Z</time>
      </trkpt>
      <trkpt lat="43.349981708452106" lon="6.584529262036085">
        <ele>123.29</ele>
        <time>2024-12-08T13:10:07.628Z</time>
      </trkpt>
      <trkpt lat="43.34996284916997" lon="6.5845706686377525">
        <ele>123.1</ele>
        <time>2024-12-08T13:10:14.806Z</time>
      </trkpt>
      <trkpt lat="43.349949857220054" lon="6.584613248705864">
        <ele>122.85</ele>
        <time>2024-12-08T13:10:21.985Z</time>
      </trkpt>
      <trkpt lat="43.34992814809084" lon="6.584780132398009">
        <ele>122.56</ele>
        <time>2024-12-08T13:10:29.168Z</time>
      </trkpt>
      <trkpt lat="43.3498574886471" lon="6.58499076962471">
        <ele>122.21</ele>
        <time>2024-12-08T13:10:36.357Z</time>
      </trkpt>
      <trkpt lat="43.34968431852758" lon="6.585083892568946">
        <ele>121.74</ele>
        <time>2024-12-08T13:10:43.553Z</time>
      </trkpt>
      <trkpt lat="43.349617682397366" lon="6.585086239501834">
        <ele>121.21</ele>
        <time>2024-12-08T13:10:50.751Z</time>
      </trkpt>
      <trkpt lat="43.34955138154328" lon="6.585061009973288">
        <ele>120.6</ele>
        <time>2024-12-08T13:10:57.951Z</time>
      </trkpt>
      <trkpt lat="43.34948164410889" lon="6.585027147084475">
        <ele>119.91</ele>
        <time>2024-12-08T13:11:05.154Z</time>
      </trkpt>
      <trkpt lat="43.349405033513904" lon="6.584983561187983">
        <ele>119.14</ele>
        <time>2024-12-08T13:11:12.360Z</time>
      </trkpt>
      <trkpt lat="43.349322471767664" lon="6.584941819310188">
        <ele>118.25</ele>
        <time>2024-12-08T13:11:19.569Z</time>
      </trkpt>
      <trkpt lat="43.3492290135473" lon="6.584914494305849">
        <ele>117.31</ele>
        <time>2024-12-08T13:11:26.781Z</time>
      </trkpt>
      <trkpt lat="43.349123653024435" lon="6.58489546738565">
        <ele>116.3</ele>
        <time>2024-12-08T13:11:33.997Z</time>
      </trkpt>
      <trkpt lat="43.349020052701235" lon="6.584881721064448">
        <ele>115.22</ele>
        <time>2024-12-08T13:11:41.217Z</time>
      </trkpt>
      <trkpt lat="43.348916033282876" lon="6.584836710244417">
        <ele>114.07</ele>
        <time>2024-12-08T13:11:48.441Z</time>
      </trkpt>
      <trkpt lat="43.34880916401744" lon="6.58478457480669">
        <ele>112.88</ele>
        <time>2024-12-08T13:11:55.669Z</time>
      </trkpt>
      <trkpt lat="43.34870380349457" lon="6.584729589521885">
        <ele>111.67</ele>
        <time>2024-12-08T13:12:02.901Z</time>
      </trkpt>
      <trkpt lat="43.348594922572374" lon="6.58470737747848">
        <ele>110.45</ele>
        <time>2024-12-08T13:12:10.136Z</time>
      </trkpt>
      <trkpt lat="43.3484813477844" lon="6.58468633890152">
        <ele>109.19</ele>
        <time>2024-12-08T13:12:17.375Z</time>
      </trkpt>
      <trkpt lat="43.34837858565152" lon="6.584678124636412">
        <ele>107.91</ele>
        <time>2024-12-08T13:12:24.618Z</time>
      </trkpt>
      <trkpt lat="43.34828822873533" lon="6.584694720804691">
        <ele>106.64</ele>
        <time>2024-12-08T13:12:31.864Z</time>
      </trkpt>
      <trkpt lat="43.34820440970361" lon="6.584717268124223">
        <ele>105.34</ele>
        <time>2024-12-08T13:12:39.113Z</time>
      </trkpt>
      <trkpt lat="43.34812109358609" lon="6.584746353328228">
        <ele>104.03</ele>
        <time>2024-12-08T13:12:46.365Z</time>
      </trkpt>
      <trkpt lat="43.34803995676339" lon="6.584777953103185">
        <ele>102.7</ele>
        <time>2024-12-08T13:12:53.620Z</time>
      </trkpt>
      <trkpt lat="43.347966028377414" lon="6.584781305864453">
        <ele>101.35</ele>
        <time>2024-12-08T13:13:00.878Z</time>
      </trkpt>
      <trkpt lat="43.3478975482285" lon="6.584747275337577">
        <ele>99.99</ele>
        <time>2024-12-08T13:13:08.138Z</time>
      </trkpt>
      <trkpt lat="43.34785404615104" lon="6.5846796333789825">
        <ele>98.58</ele>
        <time>2024-12-08T13:13:15.401Z</time>
      </trkpt>
      <trkpt lat="43.34783820435405" lon="6.5845712553709745">
        <ele>97.15</ele>
        <time>2024-12-08T13:13:22.666Z</time>
      </trkpt>
      <trkpt lat="43.34785345941782" lon="6.584471259266138">
        <ele>95.76</ele>
        <time>2024-12-08T13:13:29.934Z</time>
      </trkpt>
      <trkpt lat="43.34785035811365" lon="6.584379393607378">
        <ele>94.38</ele>
        <time>2024-12-08T13:13:37.204Z</time>
      </trkpt>
      <trkpt lat="43.34781339392066" lon="6.5843000169843435">
        <ele>93.02</ele>
        <time>2024-12-08T13:13:44.477Z</time>
      </trkpt>
      <trkpt lat="43.34775044582784" lon="6.584245702251792">
        <ele>91.68</ele>
        <time>2024-12-08T13:13:51.752Z</time>
      </trkpt>
      <trkpt lat="43.3476800378412" lon="6.584212090820074">
        <ele>90.42</ele>
        <time>2024-12-08T13:13:59.030Z</time>
      </trkpt>
      <trkpt lat="43.347600158303976" lon="6.584188872948289">
        <ele>89.2</ele>
        <time>2024-12-08T13:14:06.311Z</time>
      </trkpt>
      <trkpt lat="43.34752421826124" lon="6.584134390577674">
        <ele>88.02</ele>
        <time>2024-12-08T13:14:13.595Z</time>
      </trkpt>
      <trkpt lat="43.347445260733366" lon="6.584073035046458">
        <ele>86.86</ele>
        <time>2024-12-08T13:14:20.882Z</time>
      </trkpt>
      <trkpt lat="43.34737275727093" lon="6.583983935415745">
        <ele>85.73</ele>
        <time>2024-12-08T13:14:28.172Z</time>
      </trkpt>
      <trkpt lat="43.3473036903888" lon="6.583882514387369">
        <ele>84.63</ele>
        <time>2024-12-08T13:14:35.466Z</time>
      </trkpt>
      <trkpt lat="43.34724459797144" lon="6.583755277097225">
        <ele>83.56</ele>
        <time>2024-12-08T13:14:42.764Z</time>
      </trkpt>
      <trkpt lat="43.34718944504857" lon="6.58363432623446">
        <ele>82.54</ele>
        <time>2024-12-08T13:14:50.065Z</time>
      </trkpt>
      <trkpt lat="43.34714527241886" lon="6.583510274067521">
        <ele>81.56</ele>
        <time>2024-12-08T13:14:57.370Z</time>
      </trkpt>
      <trkpt lat="43.347101770341396" lon="6.583371302112937">
        <ele>80.62</ele>
        <time>2024-12-08T13:15:04.679Z</time>
      </trkpt>
      <trkpt lat="43.34707318805158" lon="6.583236353471875">
        <ele>79.76</ele>
        <time>2024-12-08T13:15:11.991Z</time>
      </trkpt>
      <trkpt lat="43.34703614003956" lon="6.583101488649845">
        <ele>78.94</ele>
        <time>2024-12-08T13:15:19.307Z</time>
      </trkpt>
      <trkpt lat="43.34698174148798" lon="6.583005767315626">
        <ele>78.18</ele>
        <time>2024-12-08T13:15:26.626Z</time>
      </trkpt>
      <trkpt lat="43.346909154206514" lon="6.582930246368051">
        <ele>77.48</ele>
        <time>2024-12-08T13:15:33.948Z</time>
      </trkpt>
      <trkpt lat="43.34683329798281" lon="6.582875763997436">
        <ele>76.82</ele>
        <time>2024-12-08T13:15:41.273Z</time>
      </trkpt>
      <trkpt lat="43.34675844758749" lon="6.582825304940343">
        <ele>76.21</ele>
        <time>2024-12-08T13:15:48.601Z</time>
      </trkpt>
      <trkpt lat="43.346676053479314" lon="6.5827850718051195">
        <ele>75.64</ele>
        <time>2024-12-08T13:15:55.932Z</time>
      </trkpt>
      <trkpt lat="43.34659734740853" lon="6.582755902782083">
        <ele>75.13</ele>
        <time>2024-12-08T13:16:03.266Z</time>
      </trkpt>
      <trkpt lat="43.34652962163091" lon="6.5827232133597136">
        <ele>74.68</ele>
        <time>2024-12-08T13:16:10.603Z</time>
      </trkpt>
      <trkpt lat="43.34645108319819" lon="6.582683064043522">
        <ele>74.27</ele>
        <time>2024-12-08T13:16:17.943Z</time>
      </trkpt>
      <trkpt lat="43.346368269994855" lon="6.582645680755377">
        <ele>73.9</ele>
        <time>2024-12-08T13:16:25.286Z</time>
      </trkpt>
      <trkpt lat="43.346284199506044" lon="6.582606285810471">
        <ele>73.57</ele>
        <time>2024-12-08T13:16:32.632Z</time>
      </trkpt>
      <trkpt lat="43.346199626103044" lon="6.58257158473134">
        <ele>73.27</ele>
        <time>2024-12-08T13:16:39.981Z</time>
      </trkpt>
      <trkpt lat="43.34611932747066" lon="6.582568231970072">
        <ele>73.01</ele>
        <time>2024-12-08T13:16:47.333Z</time>
      </trkpt>
      <trkpt lat="43.34604959003627" lon="6.582609219476581">
        <ele>72.77</ele>
        <time>2024-12-08T13:16:54.687Z</time>
      </trkpt>
      <trkpt lat="43.34598538465798" lon="6.582661187276244">
        <ele>72.56</ele>
        <time>2024-12-08T13:17:02.044Z</time>
      </trkpt>
      <trkpt lat="43.345918664708734" lon="6.582719441503286">
        <ele>72.38</ele>
        <time>2024-12-08T13:17:09.404Z</time>
      </trkpt>
      <trkpt lat="43.345848424360156" lon="6.58275724388659">
        <ele>72.22</ele>
        <time>2024-12-08T13:17:16.766Z</time>
      </trkpt>
      <trkpt lat="43.34578128531575" lon="6.5827930346131325">
        <ele>72.09</ele>
        <time>2024-12-08T13:17:24.131Z</time>
      </trkpt>
      <trkpt lat="43.345704674720764" lon="6.582813318818808">
        <ele>72.0</ele>
        <time>2024-12-08T13:17:31.499Z</time>
      </trkpt>
      <trkpt lat="43.34549395367503" lon="6.58291750587523">
        <ele>71.92</ele>
        <time>2024-12-08T13:17:38.875Z</time>
      </trkpt>
      <trkpt lat="43.345397897064686" lon="6.583056813105941">
        <ele>71.89</ele>
        <time>2024-12-08T13:17:46.256Z</time>
      </trkpt>
      <trkpt lat="43.34536185488105" lon="6.583120599389076">
        <ele>71.89</ele>
        <time>2024-12-08T13:17:53.639Z</time>
      </trkpt>
      <trkpt lat="43.345328914001584" lon="6.583166867494583">
        <ele>71.9</ele>
        <time>2024-12-08T13:18:01.023Z</time>
      </trkpt>
      <trkpt lat="43.3452969789505" lon="6.583195785060525">
        <ele>71.93</ele>
        <time>2024-12-08T13:18:08.409Z</time>
      </trkpt>
      <trkpt lat="43.34526194259524" lon="6.583210621029139">
        <ele>71.96</ele>
        <time>2024-12-08T13:18:15.796Z</time>
      </trkpt>
      <trkpt lat="43.34520259872079" lon="6.583236018195748">
        <ele>72.0</ele>
        <time>2024-12-08T13:18:23.185Z</time>
      </trkpt>
      <trkpt lat="43.345171585679054" lon="6.583259906619787">
        <ele>72.05</ele>
        <time>2024-12-08T13:18:30.575Z</time>
      </trkpt>
      <trkpt lat="43.345167730003595" lon="6.583258984610438">
        <ele>72.08</ele>
        <time>2024-12-08T13:18:37.965Z</time>
      </trkpt>
      <trkpt lat="43.345167646184564" lon="6.583260744810104">
        <ele>72.12</ele>
        <time>2024-12-08T13:18:45.355Z</time>
      </trkpt>
      <trkpt lat="43.3451690711081" lon="6.583264349028468">
        <ele>72.15</ele>
        <time>2024-12-08T13:18:52.746Z</time>
      </trkpt>
      <trkpt lat="43.34516789764166" lon="6.58326543867588">
        <ele>72.17</ele>
        <time>2024-12-08T13:19:00.137Z</time>
      </trkpt>
      <trkpt lat="43.34516664035618" lon="6.58326250500977">
        <ele>72.17</ele>
        <time>2024-12-08T13:19:07.528Z</time>
      </trkpt>
      <trkpt lat="43.345155073329806" lon="6.583263678476214">
        <ele>72.16</ele>
        <time>2024-12-08T13:19:14.919Z</time>
      </trkpt>
      <trkpt lat="43.34514023736119" lon="6.583279017359018">
        <ele>72.14</ele>
        <time>2024-12-08T13:19:22.311Z</time>
      </trkpt>
      <trkpt lat="43.345127161592245" lon="6.583298547193408">
        <ele>72.09</ele>
        <time>2024-12-08T13:19:29.703Z</time>
      </trkpt>
      <trkpt lat="43.345108637586236" lon="6.5833281353116035">
        <ele>72.01</ele>
        <time>2024-12-08T13:19:37.096Z</time>
      </trkpt>
      <trkpt lat="43.345075780525804" lon="6.583397705107927">
        <ele>71.91</ele>
        <time>2024-12-08T13:19:44.492Z</time>
      </trkpt>
      <trkpt lat="43.345055831596255" lon="6.583435172215104">
        <ele>71.79</ele>
        <time>2024-12-08T13:19:51.889Z</time>
      </trkpt>
      <trkpt lat="43.34500621072948" lon="6.5835201647132635">
        <ele>71.64</ele>
        <time>2024-12-08T13:19:59.289Z</time>
      </trkpt>
      <trkpt lat="43.344983998686075" lon="6.583570959046483">
        <ele>71.47</ele>
        <time>2024-12-08T13:20:06.690Z</time>
      </trkpt>
      <trkpt lat="43.344903783872724" lon="6.583719402551651">
        <ele>71.27</ele>
        <time>2024-12-08T13:20:14.096Z</time>
      </trkpt>
      <trkpt lat="43.34485382772982" lon="6.583809172734618">
        <ele>71.04</ele>
        <time>2024-12-08T13:20:21.505Z</time>
      </trkpt>
      <trkpt lat="43.344801440835" lon="6.583910845220089">
        <ele>70.75</ele>
        <time>2024-12-08T13:20:28.917Z</time>
      </trkpt>
      <trkpt lat="43.34477411583066" lon="6.583962393924594">
        <ele>70.44</ele>
        <time>2024-12-08T13:20:36.330Z</time>
      </trkpt>
      <trkpt lat="43.34474972449243" lon="6.5840143617242575">
        <ele>70.1</ele>
        <time>2024-12-08T13:20:43.745Z</time>
      </trkpt>
      <trkpt lat="43.34468023851514" lon="6.58418208360672">
        <ele>69.69</ele>
        <time>2024-12-08T13:20:51.165Z</time>
      </trkpt>
      <trkpt lat="43.344642855226994" lon="6.584310494363308">
        <ele>69.29</ele>
        <time>2024-12-08T13:20:58.588Z</time>
      </trkpt>
      <trkpt lat="43.344608657062054" lon="6.584490705281496">
        <ele>68.85</ele>
        <time>2024-12-08T13:21:06.016Z</time>
      </trkpt>
      <trkpt lat="43.344586780294776" lon="6.584778875112534">
        <ele>68.44</ele>
        <time>2024-12-08T13:21:13.452Z</time>
      </trkpt>
      <trkpt lat="43.344574039801955" lon="6.584839140996337">
        <ele>67.98</ele>
        <time>2024-12-08T13:21:20.889Z</time>
      </trkpt>
      <trkpt lat="43.3445614669472" lon="6.584901250898838">
        <ele>67.5</ele>
        <time>2024-12-08T13:21:28.328Z</time>
      </trkpt>
      <trkpt lat="43.34455526433885" lon="6.584969311952591">
        <ele>66.99</ele>
        <time>2024-12-08T13:21:35.769Z</time>
      </trkpt>
      <trkpt lat="43.34454780444503" lon="6.585038211196661">
        <ele>66.47</ele>
        <time>2024-12-08T13:21:43.211Z</time>
      </trkpt>
      <trkpt lat="43.34453422576189" lon="6.585108954459429">
        <ele>65.94</ele>
        <time>2024-12-08T13:21:50.655Z</time>
      </trkpt>
      <trkpt lat="43.344507152214646" lon="6.585327722132206">
        <ele>65.38</ele>
        <time>2024-12-08T13:21:58.105Z</time>
      </trkpt>
      <trkpt lat="43.34449307061732" lon="6.585401734337211">
        <ele>64.83</ele>
        <time>2024-12-08T13:22:05.557Z</time>
      </trkpt>
      <trkpt lat="43.34444881416857" lon="6.585614886134863">
        <ele>64.26</ele>
        <time>2024-12-08T13:22:13.015Z</time>
      </trkpt>
      <trkpt lat="43.34442861378193" lon="6.585690826177597">
        <ele>63.73</ele>
        <time>2024-12-08T13:22:20.475Z</time>
      </trkpt>
      <trkpt lat="43.344406904652715" lon="6.585770035162568">
        <ele>63.21</ele>
        <time>2024-12-08T13:22:27.937Z</time>
      </trkpt>
      <trkpt lat="43.34438905119896" lon="6.585855446755886">
        <ele>62.72</ele>
        <time>2024-12-08T13:22:35.401Z</time>
      </trkpt>
      <trkpt lat="43.34436750970781" lon="6.585933901369572">
        <ele>62.25</ele>
        <time>2024-12-08T13:22:42.867Z</time>
      </trkpt>
      <trkpt lat="43.344283774495125" lon="6.586141102015972">
        <ele>61.78</ele>
        <time>2024-12-08T13:22:50.339Z</time>
      </trkpt>
      <trkpt lat="43.344183191657066" lon="6.5863268449902534">
        <ele>61.31</ele>
        <time>2024-12-08T13:22:57.817Z</time>
      </trkpt>
      <trkpt lat="43.34407162852585" lon="6.586554162204266">
        <ele>60.87</ele>
        <time>2024-12-08T13:23:05.302Z</time>
      </trkpt>
      <trkpt lat="43.3440500870347" lon="6.586609650403261">
        <ele>60.56</ele>
        <time>2024-12-08T13:23:12.789Z</time>
      </trkpt>
      <trkpt lat="43.3439602330327" lon="6.5868740156292915">
        <ele>60.25</ele>
        <time>2024-12-08T13:23:20.283Z</time>
      </trkpt>
      <trkpt lat="43.343836264684796" lon="6.587328398600221">
        <ele>60.1</ele>
        <time>2024-12-08T13:23:27.790Z</time>
      </trkpt>
      <trkpt lat="43.34373475983739" lon="6.587623525410891">
        <ele>60.06</ele>
        <time>2024-12-08T13:23:35.305Z</time>
      </trkpt>
      <trkpt lat="43.343727719038725" lon="6.587644563987851">
        <ele>60.03</ele>
        <time>2024-12-08T13:23:42.821Z</time>
      </trkpt>
      <trkpt lat="43.34361799992621" lon="6.587870121002197">
        <ele>60.04</ele>
        <time>2024-12-08T13:23:50.344Z</time>
      </trkpt>
      <trkpt lat="43.34349973127246" lon="6.588192488998175">
        <ele>60.14</ele>
        <time>2024-12-08T13:23:57.876Z</time>
      </trkpt>
      <trkpt lat="43.34338188171387" lon="6.5885138511657715">
        <ele>60.34</ele>
        <time>2024-12-08T13:24:05.417Z</time>
      </trkpt>
      <trkpt lat="43.343317341059446" lon="6.5887610334903">
        <ele>60.66</ele>
        <time>2024-12-08T13:24:12.965Z</time>
      </trkpt>
      <trkpt lat="43.34325313568115" lon="6.589007377624512">
        <ele>61.08</ele>
        <time>2024-12-08T13:24:20.519Z</time>
      </trkpt>
      <trkpt lat="43.34327459335327" lon="6.588706215843558">
        <ele>61.66</ele>
        <time>2024-12-08T13:24:28.081Z</time>
      </trkpt>
      <trkpt lat="43.34329605102539" lon="6.588406562805176">
        <ele>62.34</ele>
        <time>2024-12-08T13:24:35.651Z</time>
      </trkpt>
      <trkpt lat="43.34303855895996" lon="6.588320732116699">
        <ele>63.13</ele>
        <time>2024-12-08T13:24:43.230Z</time>
      </trkpt>
      <trkpt lat="43.34289908409119" lon="6.588449394330382">
        <ele>64.06</ele>
        <time>2024-12-08T13:24:50.815Z</time>
      </trkpt>
      <trkpt lat="43.34275960922241" lon="6.588578224182129">
        <ele>65.1</ele>
        <time>2024-12-08T13:24:58.406Z</time>
      </trkpt>
      <trkpt lat="43.34251309745014" lon="6.588610326871276">
        <ele>66.35</ele>
        <time>2024-12-08T13:25:06.006Z</time>
      </trkpt>
      <trkpt lat="43.34226608276367" lon="6.588642597198486">
        <ele>67.73</ele>
        <time>2024-12-08T13:25:13.614Z</time>
      </trkpt>
      <trkpt lat="43.342030216008425" lon="6.588706886395812">
        <ele>69.26</ele>
        <time>2024-12-08T13:25:21.231Z</time>
      </trkpt>
      <trkpt lat="43.34179401397705" lon="6.588771343231201">
        <ele>70.85</ele>
        <time>2024-12-08T13:25:28.856Z</time>
      </trkpt>
      <trkpt lat="43.34164381027222" lon="6.588921546936035">
        <ele>72.37</ele>
        <time>2024-12-08T13:25:36.488Z</time>
      </trkpt>
      <trkpt lat="43.34157943725586" lon="6.588921546936035">
        <ele>74.02</ele>
        <time>2024-12-08T13:25:44.122Z</time>
      </trkpt>
      <trkpt lat="43.34149360656738" lon="6.5886640548706055">
        <ele>75.98</ele>
        <time>2024-12-08T13:25:51.763Z</time>
      </trkpt>
      <trkpt lat="43.3415150642395" lon="6.588492393493652">
        <ele>77.81</ele>
        <time>2024-12-08T13:25:59.409Z</time>
      </trkpt>
      <trkpt lat="43.34162252023816" lon="6.588162733241916">
        <ele>79.76</ele>
        <time>2024-12-08T13:26:07.064Z</time>
      </trkpt>
      <trkpt lat="43.34172997623682" lon="6.587833156809211">
        <ele>81.68</ele>
        <time>2024-12-08T13:26:14.728Z</time>
      </trkpt>
      <trkpt lat="43.34183692932129" lon="6.587505340576172">
        <ele>83.69</ele>
        <time>2024-12-08T13:26:22.401Z</time>
      </trkpt>
      <trkpt lat="43.34187984466553" lon="6.587269306182861">
        <ele>85.64</ele>
        <time>2024-12-08T13:26:30.080Z</time>
      </trkpt>
      <trkpt lat="43.34187984466553" lon="6.586947441101074">
        <ele>87.66</ele>
        <time>2024-12-08T13:26:37.768Z</time>
      </trkpt>
      <trkpt lat="43.34183692932129" lon="6.586904525756836">
        <ele>89.67</ele>
        <time>2024-12-08T13:26:45.457Z</time>
      </trkpt>
      <trkpt lat="43.34179401397705" lon="6.586947441101074">
        <ele>91.69</ele>
        <time>2024-12-08T13:26:53.148Z</time>
      </trkpt>
      <trkpt lat="43.341708183288574" lon="6.587162017822266">
        <ele>93.72</ele>
        <time>2024-12-08T13:27:00.846Z</time>
      </trkpt>
      <trkpt lat="43.34149360656738" lon="6.5874409675598145">
        <ele>95.8</ele>
        <time>2024-12-08T13:27:08.554Z</time>
      </trkpt>
      <trkpt lat="43.341407775878906" lon="6.587483882904053">
        <ele>97.85</ele>
        <time>2024-12-08T13:27:16.265Z</time>
      </trkpt>
      <trkpt lat="43.34136486053467" lon="6.587462425231934">
        <ele>99.92</ele>
        <time>2024-12-08T13:27:23.978Z</time>
      </trkpt>
      <trkpt lat="43.34134340286255" lon="6.587398052215576">
        <ele>102.04</ele>
        <time>2024-12-08T13:27:31.693Z</time>
      </trkpt>
      <trkpt lat="43.34138631820679" lon="6.5873122215271">
        <ele>104.14</ele>
        <time>2024-12-08T13:27:39.410Z</time>
      </trkpt>
      <trkpt lat="43.341450691223145" lon="6.587247848510742">
        <ele>106.2</ele>
        <time>2024-12-08T13:27:47.130Z</time>
      </trkpt>
      <trkpt lat="43.341504419222474" lon="6.587043581530452">
        <ele>108.31</ele>
        <time>2024-12-08T13:27:54.856Z</time>
      </trkpt>
      <trkpt lat="43.34155797958374" lon="6.5868401527404785">
        <ele>110.46</ele>
        <time>2024-12-08T13:28:02.587Z</time>
      </trkpt>
      <trkpt lat="43.341450691223145" lon="6.586754322052002">
        <ele>112.75</ele>
        <time>2024-12-08T13:28:10.322Z</time>
      </trkpt>
      <trkpt lat="43.34136486053467" lon="6.586904525756836">
        <ele>114.98</ele>
        <time>2024-12-08T13:28:18.062Z</time>
      </trkpt>
      <trkpt lat="43.34130048751831" lon="6.586947441101074">
        <ele>117.25</ele>
        <time>2024-12-08T13:28:25.805Z</time>
      </trkpt>
      <trkpt lat="43.34125757217407" lon="6.586883068084717">
        <ele>119.57</ele>
        <time>2024-12-08T13:28:33.550Z</time>
      </trkpt>
      <trkpt lat="43.341171741485596" lon="6.586518287658691">
        <ele>122.07</ele>
        <time>2024-12-08T13:28:41.305Z</time>
      </trkpt>
      <trkpt lat="43.34102153778076" lon="6.586325168609619">
        <ele>124.58</ele>
        <time>2024-12-08T13:28:49.067Z</time>
      </trkpt>
      <trkpt lat="43.34089279174805" lon="6.58604621887207">
        <ele>127.13</ele>
        <time>2024-12-08T13:28:56.837Z</time>
      </trkpt>
      <trkpt lat="43.34097862243652" lon="6.585681438446045">
        <ele>129.63</ele>
        <time>2024-12-08T13:29:04.617Z</time>
      </trkpt>
      <trkpt lat="43.34097862243652" lon="6.585348006337881">
        <ele>132.16</ele>
        <time>2024-12-08T13:29:12.406Z</time>
      </trkpt>
      <trkpt lat="43.34097862243652" lon="6.585016250610352">
        <ele>134.78</ele>
        <time>2024-12-08T13:29:20.203Z</time>
      </trkpt>
      <trkpt lat="43.340914249420166" lon="6.584951877593994">
        <ele>137.38</ele>
        <time>2024-12-08T13:29:28.003Z</time>
      </trkpt>
      <trkpt lat="43.34084987640381" lon="6.584951877593994">
        <ele>139.94</ele>
        <time>2024-12-08T13:29:35.805Z</time>
      </trkpt>
      <trkpt lat="43.34074258804321" lon="6.58505916595459">
        <ele>142.5</ele>
        <time>2024-12-08T13:29:43.612Z</time>
      </trkpt>
      <trkpt lat="43.34057092666626" lon="6.585144996643066">
        <ele>145.15</ele>
        <time>2024-12-08T13:29:51.425Z</time>
      </trkpt>
      <trkpt lat="43.3405065536499" lon="6.585016250610352">
        <ele>147.83</ele>
        <time>2024-12-08T13:29:59.242Z</time>
      </trkpt>
      <trkpt lat="43.34056028164923" lon="6.584704359993339">
        <ele>150.43</ele>
        <time>2024-12-08T13:30:07.068Z</time>
      </trkpt>
      <trkpt lat="43.3406138420105" lon="6.5843939781188965">
        <ele>152.87</ele>
        <time>2024-12-08T13:30:14.902Z</time>
      </trkpt>
      <trkpt lat="43.34054946899414" lon="6.584351062774658">
        <ele>155.4</ele>
        <time>2024-12-08T13:30:22.738Z</time>
      </trkpt>
      <trkpt lat="43.34048509597778" lon="6.584329605102539">
        <ele>157.9</ele>
        <time>2024-12-08T13:30:30.577Z</time>
      </trkpt>
      <trkpt lat="43.34033489227295" lon="6.584608554840088">
        <ele>160.37</ele>
        <time>2024-12-08T13:30:38.424Z</time>
      </trkpt>
      <trkpt lat="43.34024906158447" lon="6.584651470184326">
        <ele>162.76</ele>
        <time>2024-12-08T13:30:46.275Z</time>
      </trkpt>
      <trkpt lat="43.340206146240234" lon="6.584587097167969">
        <ele>165.11</ele>
        <time>2024-12-08T13:30:54.128Z</time>
      </trkpt>
      <trkpt lat="43.340216875076294" lon="6.584296664223075">
        <ele>167.44</ele>
        <time>2024-12-08T13:31:01.988Z</time>
      </trkpt>
      <trkpt lat="43.34022760391235" lon="6.584007740020752">
        <ele>169.67</ele>
        <time>2024-12-08T13:31:09.856Z</time>
      </trkpt>
      <trkpt lat="43.34009885787964" lon="6.583857536315918">
        <ele>171.97</ele>
        <time>2024-12-08T13:31:17.730Z</time>
      </trkpt>
      <trkpt lat="43.34003448486328" lon="6.583857536315918">
        <ele>174.07</ele>
        <time>2024-12-08T13:31:25.606Z</time>
      </trkpt>
      <trkpt lat="43.339927196502686" lon="6.584157943725586">
        <ele>175.99</ele>
        <time>2024-12-08T13:31:33.490Z</time>
      </trkpt>
      <trkpt lat="43.33984136581421" lon="6.584157943725586">
        <ele>177.92</ele>
        <time>2024-12-08T13:31:41.377Z</time>
      </trkpt>
      <trkpt lat="43.33979845046997" lon="6.584115028381348">
        <ele>179.73</ele>
        <time>2024-12-08T13:31:49.266Z</time>
      </trkpt>
      <trkpt lat="43.33980917930603" lon="6.583867594599724">
        <ele>181.49</ele>
        <time>2024-12-08T13:31:57.162Z</time>
      </trkpt>
      <trkpt lat="43.33981990814209" lon="6.583621501922607">
        <ele>183.09</ele>
        <time>2024-12-08T13:32:05.064Z</time>
      </trkpt>
      <trkpt lat="43.339791325852275" lon="6.583450092002749">
        <ele>184.55</ele>
        <time>2024-12-08T13:32:12.970Z</time>
      </trkpt>
      <trkpt lat="43.33975184708834" lon="6.583213387057185">
        <ele>185.9</ele>
        <time>2024-12-08T13:32:20.883Z</time>
      </trkpt>
      <trkpt lat="43.339712619781494" lon="6.582977771759033">
        <ele>187.09</ele>
        <time>2024-12-08T13:32:28.802Z</time>
      </trkpt>
      <trkpt lat="43.339723348617554" lon="6.582612069323659">
        <ele>188.09</ele>
        <time>2024-12-08T13:32:36.730Z</time>
      </trkpt>
      <trkpt lat="43.33973407745361" lon="6.582248210906982">
        <ele>188.81</ele>
        <time>2024-12-08T13:32:44.667Z</time>
      </trkpt>
      <trkpt lat="43.3396053314209" lon="6.582119464874268">
        <ele>189.46</ele>
        <time>2024-12-08T13:32:52.610Z</time>
      </trkpt>
      <trkpt lat="43.33962678909302" lon="6.582012176513672">
        <ele>189.85</ele>
        <time>2024-12-08T13:33:00.556Z</time>
      </trkpt>
      <trkpt lat="43.339498126879334" lon="6.581883430480957">
        <ele>190.11</ele>
        <time>2024-12-08T13:33:08.507Z</time>
      </trkpt>
      <trkpt lat="43.3394980430603" lon="6.581883430480957">
        <ele>190.12</ele>
        <time>2024-12-08T13:33:16.458Z</time>
      </trkpt>
      <trkpt lat="43.33963751792908" lon="6.581711685284972">
        <ele>189.97</ele>
        <time>2024-12-08T13:33:24.416Z</time>
      </trkpt>
      <trkpt lat="43.33977699279785" lon="6.581540107727051">
        <ele>189.59</ele>
        <time>2024-12-08T13:33:32.381Z</time>
      </trkpt>
      <trkpt lat="43.339927196502686" lon="6.581411361694336">
        <ele>189.02</ele>
        <time>2024-12-08T13:33:40.352Z</time>
      </trkpt>
      <trkpt lat="43.3400559425354" lon="6.581325531005859">
        <ele>188.17</ele>
        <time>2024-12-08T13:33:48.328Z</time>
      </trkpt>
      <trkpt lat="43.34022760391235" lon="6.581132411956787">
        <ele>187.21</ele>
        <time>2024-12-08T13:33:56.312Z</time>
      </trkpt>
      <trkpt lat="43.340456346049905" lon="6.580982208251953">
        <ele>186.01</ele>
        <time>2024-12-08T13:34:04.304Z</time>
      </trkpt>
      <trkpt lat="43.340685088187456" lon="6.580832088366151">
        <ele>184.73</ele>
        <time>2024-12-08T13:34:12.305Z</time>
      </trkpt>
      <trkpt lat="43.340914249420166" lon="6.580681800842285">
        <ele>183.22</ele>
        <time>2024-12-08T13:34:20.315Z</time>
      </trkpt>
      <trkpt lat="43.341171741485596" lon="6.58055305480957">
        <ele>181.54</ele>
        <time>2024-12-08T13:34:28.335Z</time>
      </trkpt>
      <trkpt lat="43.341343151405454" lon="6.580585157498717">
        <ele>179.8</ele>
        <time>2024-12-08T13:34:36.361Z</time>
      </trkpt>
      <trkpt lat="43.3415150642395" lon="6.580617427825928">
        <ele>177.86</ele>
        <time>2024-12-08T13:34:44.393Z</time>
      </trkpt>
      <trkpt lat="43.341665267944336" lon="6.5805745124816895">
        <ele>175.79</ele>
        <time>2024-12-08T13:34:52.430Z</time>
      </trkpt>
      <trkpt lat="43.34187984466553" lon="6.5804243087768555">
        <ele>173.48</ele>
        <time>2024-12-08T13:35:00.476Z</time>
      </trkpt>
      <trkpt lat="43.341922760009766" lon="6.58031702041626">
        <ele>171.28</ele>
        <time>2024-12-08T13:35:08.525Z</time>
      </trkpt>
      <trkpt lat="43.3420230075717" lon="6.580023234710097">
        <ele>168.96</ele>
        <time>2024-12-08T13:35:16.582Z</time>
      </trkpt>
      <trkpt lat="43.34212333895266" lon="6.579729449003935">
        <ele>166.63</ele>
        <time>2024-12-08T13:35:24.648Z</time>
      </trkpt>
      <trkpt lat="43.342223167419434" lon="6.579437255859375">
        <ele>164.14</ele>
        <time>2024-12-08T13:35:32.722Z</time>
      </trkpt>
      <trkpt lat="43.34226608276367" lon="6.579415798187256">
        <ele>161.75</ele>
        <time>2024-12-08T13:35:40.797Z</time>
      </trkpt>
      <trkpt lat="43.34233045578003" lon="6.579437255859375">
        <ele>159.36</ele>
        <time>2024-12-08T13:35:48.875Z</time>
      </trkpt>
      <trkpt lat="43.34237337112427" lon="6.57956600189209">
        <ele>157.0</ele>
        <time>2024-12-08T13:35:56.956Z</time>
      </trkpt>
      <trkpt lat="43.342416286468506" lon="6.579608917236328">
        <ele>154.6</ele>
        <time>2024-12-08T13:36:05.039Z</time>
      </trkpt>
      <trkpt lat="43.342437744140625" lon="6.579587459564209">
        <ele>152.18</ele>
        <time>2024-12-08T13:36:13.123Z</time>
      </trkpt>
      <trkpt lat="43.34250211715698" lon="6.579179763793945">
        <ele>149.46</ele>
        <time>2024-12-08T13:36:21.218Z</time>
      </trkpt>
      <trkpt lat="43.34248065948486" lon="6.578965187072754">
        <ele>146.98</ele>
        <time>2024-12-08T13:36:29.318Z</time>
      </trkpt>
      <trkpt lat="43.34250211715698" lon="6.578922271728516">
        <ele>144.62</ele>
        <time>2024-12-08T13:36:37.420Z</time>
      </trkpt>
      <trkpt lat="43.342652320861816" lon="6.578922271728516">
        <ele>142.22</ele>
        <time>2024-12-08T13:36:45.527Z</time>
      </trkpt>
      <trkpt lat="43.34273815155029" lon="6.578986644744873">
        <ele>139.97</ele>
        <time>2024-12-08T13:36:53.637Z</time>
      </trkpt>
      <trkpt lat="43.34282398223877" lon="6.579158306121826">
        <ele>137.82</ele>
        <time>2024-12-08T13:37:01.753Z</time>
      </trkpt>
      <trkpt lat="43.34286689758301" lon="6.579115390777588">
        <ele>135.68</ele>
        <time>2024-12-08T13:37:09.870Z</time>
      </trkpt>
      <trkpt lat="43.34282398223877" lon="6.578772068023682">
        <ele>133.55</ele>
        <time>2024-12-08T13:37:17.996Z</time>
      </trkpt>
      <trkpt lat="43.34269506856799" lon="6.578514240682125">
        <ele>131.56</ele>
        <time>2024-12-08T13:37:26.130Z</time>
      </trkpt>
      <trkpt lat="43.34256649017334" lon="6.578257083892822">
        <ele>129.65</ele>
        <time>2024-12-08T13:37:34.272Z</time>
      </trkpt>
      <trkpt lat="43.34256649017334" lon="6.577892303466797">
        <ele>127.77</ele>
        <time>2024-12-08T13:37:42.424Z</time>
      </trkpt>
      <trkpt lat="43.34266673773527" lon="6.577634392306209">
        <ele>126.03</ele>
        <time>2024-12-08T13:37:50.583Z</time>
      </trkpt>
      <trkpt lat="43.342767069116235" lon="6.57737648114562">
        <ele>124.42</ele>
        <time>2024-12-08T13:37:58.750Z</time>
      </trkpt>
      <trkpt lat="43.34286689758301" lon="6.577119827270508">
        <ele>122.96</ele>
        <time>2024-12-08T13:38:06.924Z</time>
      </trkpt>
      <trkpt lat="43.34301710128784" lon="6.57705545425415">
        <ele>121.68</ele>
        <time>2024-12-08T13:38:15.104Z</time>
      </trkpt>
      <trkpt lat="43.343188762664795" lon="6.576905250549316">
        <ele>120.47</ele>
        <time>2024-12-08T13:38:23.291Z</time>
      </trkpt>
      <trkpt lat="43.34336042404175" lon="6.576733505353332">
        <ele>119.46</ele>
        <time>2024-12-08T13:38:31.485Z</time>
      </trkpt>
      <trkpt lat="43.3435320854187" lon="6.57656192779541">
        <ele>118.6</ele>
        <time>2024-12-08T13:38:39.687Z</time>
      </trkpt>
      <trkpt lat="43.343698466196656" lon="6.5762988198548555">
        <ele>117.88</ele>
        <time>2024-12-08T13:38:47.897Z</time>
      </trkpt>
      <trkpt lat="43.34386493079364" lon="6.576035711914301">
        <ele>117.26</ele>
        <time>2024-12-08T13:38:56.116Z</time>
      </trkpt>
      <trkpt lat="43.34403139539063" lon="6.575772603973746">
        <ele>116.75</ele>
        <time>2024-12-08T13:39:04.344Z</time>
      </trkpt>
      <trkpt lat="43.344197273254395" lon="6.575510501861572">
        <ele>116.4</ele>
        <time>2024-12-08T13:39:12.581Z</time>
      </trkpt>
      <trkpt lat="43.3443315513432" lon="6.575161227956414">
        <ele>116.2</ele>
        <time>2024-12-08T13:39:20.828Z</time>
      </trkpt>
      <trkpt lat="43.34446591325104" lon="6.574811954051256">
        <ele>116.07</ele>
        <time>2024-12-08T13:39:29.085Z</time>
      </trkpt>
      <trkpt lat="43.34460019133985" lon="6.574462680146098">
        <ele>116.03</ele>
        <time>2024-12-08T13:39:37.352Z</time>
      </trkpt>
      <trkpt lat="43.34473371505737" lon="6.574115753173828">
        <ele>115.99</ele>
        <time>2024-12-08T13:39:45.629Z</time>
      </trkpt>
      <trkpt lat="43.34490554407239" lon="6.573825739324093">
        <ele>116.06</ele>
        <time>2024-12-08T13:39:53.916Z</time>
      </trkpt>
      <trkpt lat="43.34507703781128" lon="6.573536396026611">
        <ele>116.19</ele>
        <time>2024-12-08T13:40:02.213Z</time>
      </trkpt>
      <trkpt lat="43.34517376497388" lon="6.573246130719781">
        <ele>116.35</ele>
        <time>2024-12-08T13:40:10.518Z</time>
      </trkpt>
      <trkpt lat="43.34527015686035" lon="6.5729570388793945">
        <ele>116.46</ele>
        <time>2024-12-08T13:40:18.831Z</time>
      </trkpt>
      <trkpt lat="43.34537744522095" lon="6.572721004486084">
        <ele>116.62</ele>
        <time>2024-12-08T13:40:27.151Z</time>
      </trkpt>
      <trkpt lat="43.345656394958496" lon="6.572527885437012">
        <ele>116.83</ele>
        <time>2024-12-08T13:40:35.482Z</time>
      </trkpt>
      <trkpt lat="43.34576368331909" lon="6.572377681732178">
        <ele>116.97</ele>
        <time>2024-12-08T13:40:43.818Z</time>
      </trkpt>
      <trkpt lat="43.34596401080489" lon="6.572098480537534">
        <ele>117.06</ele>
        <time>2024-12-08T13:40:52.164Z</time>
      </trkpt>
      <trkpt lat="43.34616442210972" lon="6.5718193631619215">
        <ele>117.17</ele>
        <time>2024-12-08T13:41:00.520Z</time>
      </trkpt>
      <trkpt lat="43.34636449813843" lon="6.571540832519531">
        <ele>117.34</ele>
        <time>2024-12-08T13:41:08.886Z</time>
      </trkpt>
      <trkpt lat="43.34636458195746" lon="6.571540832519531">
        <ele>117.55</ele>
        <time>2024-12-08T13:41:17.252Z</time>
      </trkpt>
      <trkpt lat="43.346493327990174" lon="6.5713475458323956">
        <ele>117.74</ele>
        <time>2024-12-08T13:41:25.625Z</time>
      </trkpt>
      <trkpt lat="43.34662199020386" lon="6.571154594421387">
        <ele>118.01</ele>
        <time>2024-12-08T13:41:34.005Z</time>
      </trkpt>
      <trkpt lat="43.346740091219544" lon="6.570918224751949">
        <ele>118.21</ele>
        <time>2024-12-08T13:41:42.392Z</time>
      </trkpt>
      <trkpt lat="43.34685802459717" lon="6.570682525634766">
        <ele>118.53</ele>
        <time>2024-12-08T13:41:50.786Z</time>
      </trkpt>
      <trkpt lat="43.346900939941406" lon="6.570274829864502">
        <ele>118.85</ele>
        <time>2024-12-08T13:41:59.191Z</time>
      </trkpt>
      <trkpt lat="43.346954667940736" lon="6.57005975022912">
        <ele>119.11</ele>
        <time>2024-12-08T13:42:07.602Z</time>
      </trkpt>
      <trkpt lat="43.347008228302" lon="6.569845676422119">
        <ele>119.42</ele>
        <time>2024-12-08T13:42:16.018Z</time>
      </trkpt>
      <trkpt lat="43.34714787080884" lon="6.5694694966077805">
        <ele>119.68</ele>
        <time>2024-12-08T13:42:24.445Z</time>
      </trkpt>
      <trkpt lat="43.34728717803955" lon="6.569094657897949">
        <ele>119.99</ele>
        <time>2024-12-08T13:42:32.883Z</time>
      </trkpt>
      <trkpt lat="43.34741609171033" lon="6.568808080628514">
        <ele>120.45</ele>
        <time>2024-12-08T13:42:41.330Z</time>
      </trkpt>
      <trkpt lat="43.34754500538111" lon="6.568521587178111">
        <ele>120.97</ele>
        <time>2024-12-08T13:42:49.785Z</time>
      </trkpt>
      <trkpt lat="43.347673416137695" lon="6.568236351013184">
        <ele>121.59</ele>
        <time>2024-12-08T13:42:58.249Z</time>
      </trkpt>
      <trkpt lat="43.34788799285889" lon="6.567935943603516">
        <ele>122.26</ele>
        <time>2024-12-08T13:43:06.723Z</time>
      </trkpt>
      <trkpt lat="43.34809158928692" lon="6.567871570587158">
        <ele>123.03</ele>
        <time>2024-12-08T13:43:15.205Z</time>
      </trkpt>
      <trkpt lat="43.34829568862915" lon="6.567807197570801">
        <ele>123.91</ele>
        <time>2024-12-08T13:43:23.694Z</time>
      </trkpt>
      <trkpt lat="43.34836006164551" lon="6.567699909210205">
        <ele>124.79</ele>
        <time>2024-12-08T13:43:32.187Z</time>
      </trkpt>
      <trkpt lat="43.348499704152346" lon="6.567409811541438">
        <ele>125.79</ele>
        <time>2024-12-08T13:43:40.689Z</time>
      </trkpt>
      <trkpt lat="43.34863901138306" lon="6.567120552062988">
        <ele>126.84</ele>
        <time>2024-12-08T13:43:49.199Z</time>
      </trkpt>
      <trkpt lat="43.348746383562684" lon="6.566959451884031">
        <ele>127.9</ele>
        <time>2024-12-08T13:43:57.715Z</time>
      </trkpt>
      <trkpt lat="43.34885367192328" lon="6.566798686981201">
        <ele>129.02</ele>
        <time>2024-12-08T13:44:06.237Z</time>
      </trkpt>
      <trkpt lat="43.34900379180908" lon="6.56658411026001">
        <ele>130.15</ele>
        <time>2024-12-08T13:44:14.766Z</time>
      </trkpt>
      <trkpt lat="43.34912189282477" lon="6.566369282081723">
        <ele>131.38</ele>
        <time>2024-12-08T13:44:23.302Z</time>
      </trkpt>
      <trkpt lat="43.34923982620239" lon="6.566154956817627">
        <ele>132.68</ele>
        <time>2024-12-08T13:44:31.845Z</time>
      </trkpt>
      <trkpt lat="43.34937946870923" lon="6.5658541303128">
        <ele>134.05</ele>
        <time>2024-12-08T13:44:40.397Z</time>
      </trkpt>
      <trkpt lat="43.34951877593994" lon="6.565554141998291">
        <ele>135.22</ele>
        <time>2024-12-08T13:44:48.958Z</time>
      </trkpt>
      <trkpt lat="43.34956169128418" lon="6.565361022949219">
        <ele>136.25</ele>
        <time>2024-12-08T13:44:57.524Z</time>
      </trkpt>
      <trkpt lat="43.34959387779236" lon="6.564941592514515">
        <ele>137.25</ele>
        <time>2024-12-08T13:45:06.101Z</time>
      </trkpt>
      <trkpt lat="43.34962606430054" lon="6.564524173736572">
        <ele>138.32</ele>
        <time>2024-12-08T13:45:14.689Z</time>
      </trkpt>
      <trkpt lat="43.3496367931366" lon="6.564158471301198">
        <ele>139.34</ele>
        <time>2024-12-08T13:45:23.286Z</time>
      </trkpt>
      <trkpt lat="43.349647521972656" lon="6.5637946128845215">
        <ele>140.22</ele>
        <time>2024-12-08T13:45:31.892Z</time>
      </trkpt>
      <trkpt lat="43.349701249971986" lon="6.563434358686209">
        <ele>141.01</ele>
        <time>2024-12-08T13:45:40.508Z</time>
      </trkpt>
      <trkpt lat="43.349754977971315" lon="6.563074104487896">
        <ele>141.77</ele>
        <time>2024-12-08T13:45:49.133Z</time>
      </trkpt>
      <trkpt lat="43.34980878978968" lon="6.562713850289583">
        <ele>142.43</ele>
        <time>2024-12-08T13:45:57.768Z</time>
      </trkpt>
      <trkpt lat="43.34986209869385" lon="6.562356948852539">
        <ele>142.97</ele>
        <time>2024-12-08T13:46:06.412Z</time>
      </trkpt>
      <trkpt lat="43.34987282752991" lon="6.562077244743705">
        <ele>143.43</ele>
        <time>2024-12-08T13:46:15.063Z</time>
      </trkpt>
      <trkpt lat="43.34988355636597" lon="6.561799049377441">
        <ele>143.8</ele>
        <time>2024-12-08T13:46:23.721Z</time>
      </trkpt>
      <trkpt lat="43.349883640185" lon="6.561799049377441">
        <ele>144.13</ele>
        <time>2024-12-08T13:46:32.379Z</time>
      </trkpt>
      <trkpt lat="43.349926471710205" lon="6.561498641967773">
        <ele>144.37</ele>
        <time>2024-12-08T13:46:41.045Z</time>
      </trkpt>
      <trkpt lat="43.349980199709535" lon="6.561251292005181">
        <ele>144.55</ele>
        <time>2024-12-08T13:46:49.718Z</time>
      </trkpt>
      <trkpt lat="43.3500337600708" lon="6.561005115509033">
        <ele>144.65</ele>
        <time>2024-12-08T13:46:58.397Z</time>
      </trkpt>
      <trkpt lat="43.349969470873475" lon="6.560726165771484">
        <ele>144.73</ele>
        <time>2024-12-08T13:47:07.084Z</time>
      </trkpt>
      <trkpt lat="43.349947929382324" lon="6.560533046722412">
        <ele>144.68</ele>
        <time>2024-12-08T13:47:15.776Z</time>
      </trkpt>
      <trkpt lat="43.349990928545594" lon="6.560199614614248">
        <ele>144.56</ele>
        <time>2024-12-08T13:47:24.476Z</time>
      </trkpt>
      <trkpt lat="43.3500337600708" lon="6.559867858886719">
        <ele>144.39</ele>
        <time>2024-12-08T13:47:33.185Z</time>
      </trkpt>
      <trkpt lat="43.3501304872334" lon="6.559534594416618">
        <ele>144.23</ele>
        <time>2024-12-08T13:47:41.903Z</time>
      </trkpt>
      <trkpt lat="43.35022687911987" lon="6.559202671051025">
        <ele>143.98</ele>
        <time>2024-12-08T13:47:50.630Z</time>
      </trkpt>
      <trkpt lat="43.35036652162671" lon="6.558880303055048">
        <ele>143.76</ele>
        <time>2024-12-08T13:47:59.367Z</time>
      </trkpt>
      <trkpt lat="43.35050582885742" lon="6.558558940887451">
        <ele>143.59</ele>
        <time>2024-12-08T13:48:08.113Z</time>
      </trkpt>
      <trkpt lat="43.35054882802069" lon="6.558236321434379">
        <ele>143.48</ele>
        <time>2024-12-08T13:48:16.868Z</time>
      </trkpt>
      <trkpt lat="43.3505916595459" lon="6.557915210723877">
        <ele>143.36</ele>
        <time>2024-12-08T13:48:25.631Z</time>
      </trkpt>
      <trkpt lat="43.35060238838196" lon="6.557484967634082">
        <ele>143.24</ele>
        <time>2024-12-08T13:48:34.405Z</time>
      </trkpt>
      <trkpt lat="43.35061311721802" lon="6.557056903839111">
        <ele>143.03</ele>
        <time>2024-12-08T13:48:43.190Z</time>
      </trkpt>
      <trkpt lat="43.35065611638129" lon="6.556809553876519">
        <ele>142.89</ele>
        <time>2024-12-08T13:48:51.982Z</time>
      </trkpt>
      <trkpt lat="43.350698947906494" lon="6.556563377380371">
        <ele>142.8</ele>
        <time>2024-12-08T13:49:00.780Z</time>
      </trkpt>
      <trkpt lat="43.350709676742554" lon="6.556235309690237">
        <ele>142.66</ele>
        <time>2024-12-08T13:49:09.586Z</time>
      </trkpt>
      <trkpt lat="43.35072040557861" lon="6.555907325819135">
        <ele>142.5</ele>
        <time>2024-12-08T13:49:18.401Z</time>
      </trkpt>
      <trkpt lat="43.35073113441467" lon="6.555579258129001">
        <ele>142.35</ele>
        <time>2024-12-08T13:49:27.224Z</time>
      </trkpt>
      <trkpt lat="43.35074186325073" lon="6.5552544593811035">
        <ele>142.29</ele>
        <time>2024-12-08T13:49:36.055Z</time>
      </trkpt>
      <trkpt lat="43.35076332092285" lon="6.554845757782459">
        <ele>142.36</ele>
        <time>2024-12-08T13:49:44.897Z</time>
      </trkpt>
      <trkpt lat="43.350784862414" lon="6.554437056183815">
        <ele>142.4</ele>
        <time>2024-12-08T13:49:53.749Z</time>
      </trkpt>
      <trkpt lat="43.35080640390515" lon="6.554028354585171">
        <ele>142.39</ele>
        <time>2024-12-08T13:50:02.612Z</time>
      </trkpt>
      <trkpt lat="43.350827945396304" lon="6.553619736805558">
        <ele>142.25</ele>
        <time>2024-12-08T13:50:11.485Z</time>
      </trkpt>
      <trkpt lat="43.350849486887455" lon="6.553211035206914">
        <ele>142.04</ele>
        <time>2024-12-08T13:50:20.369Z</time>
      </trkpt>
      <trkpt lat="43.35087069310248" lon="6.5528082847595215">
        <ele>141.8</ele>
        <time>2024-12-08T13:50:29.263Z</time>
      </trkpt>
      <trkpt lat="43.3508921507746" lon="6.552571663632989">
        <ele>141.55</ele>
        <time>2024-12-08T13:50:38.163Z</time>
      </trkpt>
      <trkpt lat="43.350913524627686" lon="6.5523362159729">
        <ele>141.26</ele>
        <time>2024-12-08T13:50:47.069Z</time>
      </trkpt>
      <trkpt lat="43.350977981463075" lon="6.5520566795021296">
        <ele>141.04</ele>
        <time>2024-12-08T13:50:55.983Z</time>
      </trkpt>
      <trkpt lat="43.3510422706604" lon="6.551778316497803">
        <ele>140.82</ele>
        <time>2024-12-08T13:51:04.904Z</time>
      </trkpt>
      <trkpt lat="43.3510422706604" lon="6.5515851974487305">
        <ele>140.57</ele>
        <time>2024-12-08T13:51:13.830Z</time>
      </trkpt>
      <trkpt lat="43.35104235447943" lon="6.5515851974487305">
        <ele>140.36</ele>
        <time>2024-12-08T13:51:22.756Z</time>
      </trkpt>
      <trkpt lat="43.35103045217693" lon="6.55140733346343">
        <ele>140.12</ele>
        <time>2024-12-08T13:51:31.687Z</time>
      </trkpt>
      <trkpt lat="43.351028775796294" lon="6.55138336122036">
        <ele>139.93</ele>
        <time>2024-12-08T13:51:40.618Z</time>
      </trkpt>
      <trkpt lat="43.35102089680731" lon="6.551263332366943">
        <ele>139.76</ele>
        <time>2024-12-08T13:51:49.552Z</time>
      </trkpt>
      <trkpt lat="43.350913524627686" lon="6.55109167098999">
        <ele>139.56</ele>
        <time>2024-12-08T13:51:58.492Z</time>
      </trkpt>
      <trkpt lat="43.35091360844672" lon="6.55109167098999">
        <ele>139.45</ele>
        <time>2024-12-08T13:52:07.432Z</time>
      </trkpt>
      <trkpt lat="43.35070950910449" lon="6.550769470632076">
        <ele>139.29</ele>
        <time>2024-12-08T13:52:16.383Z</time>
      </trkpt>
      <trkpt lat="43.35050582885742" lon="6.550447940826416">
        <ele>139.26</ele>
        <time>2024-12-08T13:52:25.345Z</time>
      </trkpt>
      <trkpt lat="43.35030726157129" lon="6.550238644704223">
        <ele>139.28</ele>
        <time>2024-12-08T13:52:34.316Z</time>
      </trkpt>
      <trkpt lat="43.350108778104186" lon="6.550029432401061">
        <ele>139.3</ele>
        <time>2024-12-08T13:52:43.296Z</time>
      </trkpt>
      <trkpt lat="43.34991021081805" lon="6.549820136278868">
        <ele>139.32</ele>
        <time>2024-12-08T13:52:52.284Z</time>
      </trkpt>
      <trkpt lat="43.349711894989014" lon="6.5496110916137695">
        <ele>139.35</ele>
        <time>2024-12-08T13:53:01.281Z</time>
      </trkpt>
      <trkpt lat="43.34973335266113" lon="6.549482345581055">
        <ele>139.74</ele>
        <time>2024-12-08T13:53:10.282Z</time>
      </trkpt>
      <trkpt lat="43.349647521972656" lon="6.549246311187744">
        <ele>140.1</ele>
        <time>2024-12-08T13:53:19.289Z</time>
      </trkpt>
      <trkpt lat="43.349647521972656" lon="6.549053192138672">
        <ele>140.59</ele>
        <time>2024-12-08T13:53:28.301Z</time>
      </trkpt>
      <trkpt lat="43.34965514950454" lon="6.548960488289595">
        <ele>141.11</ele>
        <time>2024-12-08T13:53:37.316Z</time>
      </trkpt>
      <trkpt lat="43.349657244980335" lon="6.548936348408461">
        <ele>141.67</ele>
        <time>2024-12-08T13:53:46.331Z</time>
      </trkpt>
      <trkpt lat="43.349684569984674" lon="6.548607693985105">
        <ele>142.33</ele>
        <time>2024-12-08T13:53:55.355Z</time>
      </trkpt>
      <trkpt lat="43.349711894989014" lon="6.548280715942383">
        <ele>143.07</ele>
        <time>2024-12-08T13:54:04.387Z</time>
      </trkpt>
      <trkpt lat="43.34976562298834" lon="6.548033365979791">
        <ele>143.83</ele>
        <time>2024-12-08T13:54:13.426Z</time>
      </trkpt>
      <trkpt lat="43.34981926716864" lon="6.547787189483643">
        <ele>144.59</ele>
        <time>2024-12-08T13:54:22.471Z</time>
      </trkpt>
      <trkpt lat="43.34986218251288" lon="6.547551155090332">
        <ele>145.39</ele>
        <time>2024-12-08T13:54:31.522Z</time>
      </trkpt>
      <trkpt lat="43.349990928545594" lon="6.547293663024902">
        <ele>146.34</ele>
        <time>2024-12-08T13:54:40.581Z</time>
      </trkpt>
      <trkpt lat="43.34999084472656" lon="6.547293663024902">
        <ele>147.19</ele>
        <time>2024-12-08T13:54:49.640Z</time>
      </trkpt>
      <trkpt lat="43.35007667541504" lon="6.547143459320068">
        <ele>148.09</ele>
        <time>2024-12-08T13:54:58.704Z</time>
      </trkpt>
      <trkpt lat="43.35018404759467" lon="6.546950340270996">
        <ele>148.99</ele>
        <time>2024-12-08T13:55:07.774Z</time>
      </trkpt>
      <trkpt lat="43.35033416748047" lon="6.546585559844971">
        <ele>149.92</ele>
        <time>2024-12-08T13:55:16.855Z</time>
      </trkpt>
      <trkpt lat="43.35039862431586" lon="6.546499729156494">
        <ele>150.82</ele>
        <time>2024-12-08T13:55:25.939Z</time>
      </trkpt>
      <trkpt lat="43.350462997332215" lon="6.546435356140137">
        <ele>151.71</ele>
        <time>2024-12-08T13:55:35.026Z</time>
      </trkpt>
      <trkpt lat="43.35052737034857" lon="6.546392440795898">
        <ele>152.57</ele>
        <time>2024-12-08T13:55:44.116Z</time>
      </trkpt>
      <trkpt lat="43.35052728652954" lon="6.546392440795898">
        <ele>153.35</ele>
        <time>2024-12-08T13:55:53.206Z</time>
      </trkpt>
      <trkpt lat="43.35067757405341" lon="6.546166883781552">
        <ele>154.11</ele>
        <time>2024-12-08T13:56:02.303Z</time>
      </trkpt>
      <trkpt lat="43.35082769393921" lon="6.5459418296813965">
        <ele>154.93</ele>
        <time>2024-12-08T13:56:11.408Z</time>
      </trkpt>
      <trkpt lat="43.35090287961066" lon="6.5455869399011135">
        <ele>155.61</ele>
        <time>2024-12-08T13:56:20.523Z</time>
      </trkpt>
      <trkpt lat="43.35097789764404" lon="6.545233726501465">
        <ele>156.29</ele>
        <time>2024-12-08T13:56:29.647Z</time>
      </trkpt>
      <trkpt lat="43.350993152707815" lon="6.54506491497159">
        <ele>156.75</ele>
        <time>2024-12-08T13:56:38.775Z</time>
      </trkpt>
      <trkpt lat="43.35099541582167" lon="6.545040858909488">
        <ele>156.98</ele>
        <time>2024-12-08T13:56:47.904Z</time>
      </trkpt>
      <trkpt lat="43.35102081298828" lon="6.544761657714844">
        <ele>157.24</ele>
        <time>2024-12-08T13:56:57.040Z</time>
      </trkpt>
      <trkpt lat="43.35088117048144" lon="6.544503830373287">
        <ele>157.08</ele>
        <time>2024-12-08T13:57:06.184Z</time>
      </trkpt>
      <trkpt lat="43.35074186325073" lon="6.544246673583984">
        <ele>156.8</ele>
        <time>2024-12-08T13:57:15.337Z</time>
      </trkpt>
      <trkpt lat="43.350656032562256" lon="6.543989181518555">
        <ele>156.44</ele>
        <time>2024-12-08T13:57:24.497Z</time>
      </trkpt>
      <trkpt lat="43.35063457489014" lon="6.543838977813721">
        <ele>156.01</ele>
        <time>2024-12-08T13:57:33.661Z</time>
      </trkpt>
      <trkpt lat="43.35070112720132" lon="6.543506048619747">
        <ele>155.5</ele>
        <time>2024-12-08T13:57:42.834Z</time>
      </trkpt>
      <trkpt lat="43.35076273418963" lon="6.54319784604013">
        <ele>154.72</ele>
        <time>2024-12-08T13:57:52.015Z</time>
      </trkpt>
      <trkpt lat="43.350767428055406" lon="6.543174711987376">
        <ele>153.96</ele>
        <time>2024-12-08T13:58:01.196Z</time>
      </trkpt>
      <trkpt lat="43.35078477859497" lon="6.543087959289551">
        <ele>153.04</ele>
        <time>2024-12-08T13:58:10.380Z</time>
      </trkpt>
      <trkpt lat="43.3505916595459" lon="6.543302536010742">
        <ele>151.92</ele>
        <time>2024-12-08T13:58:19.572Z</time>
      </trkpt>
      <trkpt lat="43.35054874420166" lon="6.543302536010742">
        <ele>150.79</ele>
        <time>2024-12-08T13:58:28.766Z</time>
      </trkpt>
      <trkpt lat="43.350656032562256" lon="6.542937755584717">
        <ele>149.54</ele>
        <time>2024-12-08T13:58:37.970Z</time>
      </trkpt>
      <trkpt lat="43.35061311721802" lon="6.5428948402404785">
        <ele>148.24</ele>
        <time>2024-12-08T13:58:47.176Z</time>
      </trkpt>
      <trkpt lat="43.350441455841064" lon="6.543152332305908">
        <ele>146.9</ele>
        <time>2024-12-08T13:58:56.391Z</time>
      </trkpt>
      <trkpt lat="43.350248420611024" lon="6.543302536010742">
        <ele>145.42</ele>
        <time>2024-12-08T13:59:05.614Z</time>
      </trkpt>
      <trkpt lat="43.34999084472656" lon="6.543538570404053">
        <ele>143.76</ele>
        <time>2024-12-08T13:59:14.847Z</time>
      </trkpt>
      <trkpt lat="43.349947929382324" lon="6.54360294342041">
        <ele>142.37</ele>
        <time>2024-12-08T13:59:24.083Z</time>
      </trkpt>
      <trkpt lat="43.349947929382324" lon="6.543903350830078">
        <ele>141.03</ele>
        <time>2024-12-08T13:59:33.326Z</time>
      </trkpt>
      <trkpt lat="43.349958658218384" lon="6.54415070079267">
        <ele>139.64</ele>
        <time>2024-12-08T13:59:42.576Z</time>
      </trkpt>
      <trkpt lat="43.34996938705444" lon="6.544396877288818">
        <ele>138.2</ele>
        <time>2024-12-08T13:59:51.832Z</time>
      </trkpt>
      <trkpt lat="43.35003384388983" lon="6.544762412086129">
        <ele>136.77</ele>
        <time>2024-12-08T14:00:01.098Z</time>
      </trkpt>
      <trkpt lat="43.35009838454425" lon="6.545128030702472">
        <ele>135.38</ele>
        <time>2024-12-08T14:00:10.373Z</time>
      </trkpt>
      <trkpt lat="43.350162506103516" lon="6.5454912185668945">
        <ele>134.04</ele>
        <time>2024-12-08T14:00:19.658Z</time>
      </trkpt>
      <trkpt lat="43.350162506103516" lon="6.545662879943848">
        <ele>132.74</ele>
        <time>2024-12-08T14:00:28.947Z</time>
      </trkpt>
      <trkpt lat="43.35009813308716" lon="6.54585599899292">
        <ele>131.39</ele>
        <time>2024-12-08T14:00:38.242Z</time>
      </trkpt>
      <trkpt lat="43.34984064102173" lon="6.546027660369873">
        <ele>129.89</ele>
        <time>2024-12-08T14:00:47.547Z</time>
      </trkpt>
      <trkpt lat="43.34984072484076" lon="6.546027660369873">
        <ele>128.58</ele>
        <time>2024-12-08T14:00:56.852Z</time>
      </trkpt>
      <trkpt lat="43.34962606430054" lon="6.546285152435303">
        <ele>127.19</ele>
        <time>2024-12-08T14:01:06.167Z</time>
      </trkpt>
      <trkpt lat="43.3494758605957" lon="6.546628475189209">
        <ele>125.98</ele>
        <time>2024-12-08T14:01:15.492Z</time>
      </trkpt>
      <trkpt lat="43.34932565689087" lon="6.5468430519104">
        <ele>124.62</ele>
        <time>2024-12-08T14:01:24.824Z</time>
      </trkpt>
      <trkpt lat="43.3491325378418" lon="6.546928882598877">
        <ele>123.17</ele>
        <time>2024-12-08T14:01:34.163Z</time>
      </trkpt>
      <trkpt lat="43.3490252494812" lon="6.5471649169921875">
        <ele>121.99</ele>
        <time>2024-12-08T14:01:43.510Z</time>
      </trkpt>
      <trkpt lat="43.348960960283875" lon="6.5474653244018555">
        <ele>120.76</ele>
        <time>2024-12-08T14:01:52.865Z</time>
      </trkpt>
      <trkpt lat="43.34881075657904" lon="6.5474653244018555">
        <ele>119.35</ele>
        <time>2024-12-08T14:02:02.225Z</time>
      </trkpt>
      <trkpt lat="43.348703384399414" lon="6.547572612762451">
        <ele>118.07</ele>
        <time>2024-12-08T14:02:11.589Z</time>
      </trkpt>
      <trkpt lat="43.348574386909604" lon="6.547851897776127">
        <ele>116.79</ele>
        <time>2024-12-08T14:02:20.962Z</time>
      </trkpt>
      <trkpt lat="43.348445892333984" lon="6.548130512237549">
        <ele>115.5</ele>
        <time>2024-12-08T14:02:30.343Z</time>
      </trkpt>
      <trkpt lat="43.348413622006774" lon="6.54836704954505">
        <ele>114.28</ele>
        <time>2024-12-08T14:02:39.731Z</time>
      </trkpt>
      <trkpt lat="43.34838151931763" lon="6.54860258102417">
        <ele>113.04</ele>
        <time>2024-12-08T14:02:49.125Z</time>
      </trkpt>
      <trkpt lat="43.34833860397339" lon="6.5486884117126465">
        <ele>111.75</ele>
        <time>2024-12-08T14:02:58.521Z</time>
      </trkpt>
      <trkpt lat="43.348188484087586" lon="6.548817157745361">
        <ele>110.39</ele>
        <time>2024-12-08T14:03:07.924Z</time>
      </trkpt>
      <trkpt lat="43.34808111190796" lon="6.548752784729004">
        <ele>109.05</ele>
        <time>2024-12-08T14:03:17.331Z</time>
      </trkpt>
      <trkpt lat="43.347887909039855" lon="6.548538124188781">
        <ele>107.63</ele>
        <time>2024-12-08T14:03:26.746Z</time>
      </trkpt>
      <trkpt lat="43.347694873809814" lon="6.548323631286621">
        <ele>106.19</ele>
        <time>2024-12-08T14:03:36.170Z</time>
      </trkpt>
      <trkpt lat="43.3475661277771" lon="6.548216342926025">
        <ele>104.79</ele>
        <time>2024-12-08T14:03:45.599Z</time>
      </trkpt>
      <trkpt lat="43.347437381744385" lon="6.548173427581787">
        <ele>103.41</ele>
        <time>2024-12-08T14:03:55.033Z</time>
      </trkpt>
      <trkpt lat="43.34743746556342" lon="6.548173427581787">
        <ele>102.11</ele>
        <time>2024-12-08T14:04:04.467Z</time>
      </trkpt>
      <trkpt lat="43.347179889678955" lon="6.5482378005981445">
        <ele>100.68</ele>
        <time>2024-12-08T14:04:13.910Z</time>
      </trkpt>
      <trkpt lat="43.34698677062988" lon="6.548366546630859">
        <ele>99.34</ele>
        <time>2024-12-08T14:04:23.361Z</time>
      </trkpt>
      <trkpt lat="43.34672927856445" lon="6.54860258102417">
        <ele>97.97</ele>
        <time>2024-12-08T14:04:32.822Z</time>
      </trkpt>
      <trkpt lat="43.34681519307196" lon="6.54834458604455">
        <ele>96.62</ele>
        <time>2024-12-08T14:04:42.291Z</time>
      </trkpt>
      <trkpt lat="43.346900939941406" lon="6.5480875968933105">
        <ele>95.25</ele>
        <time>2024-12-08T14:04:51.767Z</time>
      </trkpt>
      <trkpt lat="43.34685802459717" lon="6.548066139221191">
        <ele>93.98</ele>
        <time>2024-12-08T14:05:01.245Z</time>
      </trkpt>
      <trkpt lat="43.34677219390869" lon="6.547873020172119">
        <ele>92.62</ele>
        <time>2024-12-08T14:05:10.728Z</time>
      </trkpt>
      <trkpt lat="43.346664905548096" lon="6.547765731811523">
        <ele>91.36</ele>
        <time>2024-12-08T14:05:20.216Z</time>
      </trkpt>
      <trkpt lat="43.346450328826904" lon="6.547658443450928">
        <ele>90.14</ele>
        <time>2024-12-08T14:05:29.712Z</time>
      </trkpt>
      <trkpt lat="43.34630012512207" lon="6.547551155090332">
        <ele>89.02</ele>
        <time>2024-12-08T14:05:39.214Z</time>
      </trkpt>
      <trkpt lat="43.346149921417236" lon="6.547529697418213">
        <ele>88.0</ele>
        <time>2024-12-08T14:05:48.721Z</time>
      </trkpt>
      <trkpt lat="43.34598488174379" lon="6.547562638297677">
        <ele>87.01</ele>
        <time>2024-12-08T14:05:58.234Z</time>
      </trkpt>
      <trkpt lat="43.34596686065197" lon="6.5475663263350725">
        <ele>86.0</ele>
        <time>2024-12-08T14:06:07.748Z</time>
      </trkpt>
      <trkpt lat="43.34572076797485" lon="6.5476155281066895">
        <ele>85.03</ele>
        <time>2024-12-08T14:06:17.270Z</time>
      </trkpt>
      <trkpt lat="43.34552764892578" lon="6.547765647992492">
        <ele>84.01</ele>
        <time>2024-12-08T14:06:26.800Z</time>
      </trkpt>
      <trkpt lat="43.34533461369574" lon="6.547915851697326">
        <ele>83.05</ele>
        <time>2024-12-08T14:06:36.338Z</time>
      </trkpt>
      <trkpt lat="43.34514141082764" lon="6.548066139221191">
        <ele>82.11</ele>
        <time>2024-12-08T14:06:45.884Z</time>
      </trkpt>
      <trkpt lat="43.34509857930243" lon="6.54810905456543">
        <ele>81.28</ele>
        <time>2024-12-08T14:06:55.432Z</time>
      </trkpt>
      <trkpt lat="43.34487327374518" lon="6.548248445615172">
        <ele>80.43</ele>
        <time>2024-12-08T14:07:04.988Z</time>
      </trkpt>
      <trkpt lat="43.3446478843689" lon="6.5483880043029785">
        <ele>79.67</ele>
        <time>2024-12-08T14:07:14.553Z</time>
      </trkpt>
      <trkpt lat="43.344358541071415" lon="6.548452293500304">
        <ele>78.92</ele>
        <time>2024-12-08T14:07:24.128Z</time>
      </trkpt>
      <trkpt lat="43.34406861104071" lon="6.548516750335693">
        <ele>78.29</ele>
        <time>2024-12-08T14:07:33.713Z</time>
      </trkpt>
      <trkpt lat="43.34406852722168" lon="6.548516750335693">
        <ele>77.78</ele>
        <time>2024-12-08T14:07:43.298Z</time>
      </trkpt>
      <trkpt lat="43.34387540817261" lon="6.548731327056885">
        <ele>77.29</ele>
        <time>2024-12-08T14:07:52.892Z</time>
      </trkpt>
      <trkpt lat="43.34383249282837" lon="6.549074649810791">
        <ele>76.8</ele>
        <time>2024-12-08T14:08:02.495Z</time>
      </trkpt>
      <trkpt lat="43.34376811981201" lon="6.54909610748291">
        <ele>76.5</ele>
        <time>2024-12-08T14:08:12.100Z</time>
      </trkpt>
      <trkpt lat="43.34376820363104" lon="6.549396514892578">
        <ele>76.24</ele>
        <time>2024-12-08T14:08:21.713Z</time>
      </trkpt>
      <trkpt lat="43.34376811981201" lon="6.549482345581055">
        <ele>76.04</ele>
        <time>2024-12-08T14:08:31.328Z</time>
      </trkpt>
      <trkpt lat="43.34372520446777" lon="6.549632549285889">
        <ele>75.92</ele>
        <time>2024-12-08T14:08:40.947Z</time>
      </trkpt>
      <trkpt lat="43.34370634518564" lon="6.549670351669192">
        <ele>75.85</ele>
        <time>2024-12-08T14:08:50.568Z</time>
      </trkpt>
      <trkpt lat="43.343703830614686" lon="6.549675464630127">
        <ele>75.84</ele>
        <time>2024-12-08T14:09:00.189Z</time>
      </trkpt>
      <trkpt lat="43.34369285032153" lon="6.549664568156004">
        <ele>75.9</ele>
        <time>2024-12-08T14:09:09.810Z</time>
      </trkpt>
      <trkpt lat="43.343682289123535" lon="6.549654006958008">
        <ele>76.0</ele>
        <time>2024-12-08T14:09:19.432Z</time>
      </trkpt>
      <trkpt lat="43.34363945759833" lon="6.54958963394165">
        <ele>76.15</ele>
        <time>2024-12-08T14:09:29.056Z</time>
      </trkpt>
      <trkpt lat="43.343446254730225" lon="6.549289226531982">
        <ele>76.39</ele>
        <time>2024-12-08T14:09:38.690Z</time>
      </trkpt>
      <trkpt lat="43.34333905018866" lon="6.549203395843506">
        <ele>76.6</ele>
        <time>2024-12-08T14:09:48.328Z</time>
      </trkpt>
      <trkpt lat="43.34329613484442" lon="6.549181938171387">
        <ele>76.81</ele>
        <time>2024-12-08T14:09:57.968Z</time>
      </trkpt>
      <trkpt lat="43.34308155812323" lon="6.549074649810791">
        <ele>77.05</ele>
        <time>2024-12-08T14:10:07.616Z</time>
      </trkpt>
      <trkpt lat="43.34284560754895" lon="6.548935174942017">
        <ele>77.24</ele>
        <time>2024-12-08T14:10:17.273Z</time>
      </trkpt>
      <trkpt lat="43.34260948933661" lon="6.548795700073242">
        <ele>77.41</ele>
        <time>2024-12-08T14:10:26.939Z</time>
      </trkpt>
      <trkpt lat="43.34256649017334" lon="6.548752784729004">
        <ele>77.63</ele>
        <time>2024-12-08T14:10:36.607Z</time>
      </trkpt>
      <trkpt lat="43.34236239083111" lon="6.54843058437109">
        <ele>77.88</ele>
        <time>2024-12-08T14:10:46.286Z</time>
      </trkpt>
      <trkpt lat="43.342158794403076" lon="6.54810905456543">
        <ele>78.11</ele>
        <time>2024-12-08T14:10:55.976Z</time>
      </trkpt>
      <trkpt lat="43.34215887822211" lon="6.54810905456543">
        <ele>78.23</ele>
        <time>2024-12-08T14:11:05.666Z</time>
      </trkpt>
      <trkpt lat="43.34196559153497" lon="6.54784276150167">
        <ele>78.3</ele>
        <time>2024-12-08T14:11:15.365Z</time>
      </trkpt>
      <trkpt lat="43.34177238866687" lon="6.547576552256942">
        <ele>78.4</ele>
        <time>2024-12-08T14:11:25.074Z</time>
      </trkpt>
      <trkpt lat="43.34157910197973" lon="6.547310259193182">
        <ele>78.42</ele>
        <time>2024-12-08T14:11:34.793Z</time>
      </trkpt>
      <trkpt lat="43.34138589911163" lon="6.547044049948454">
        <ele>78.36</ele>
        <time>2024-12-08T14:11:44.521Z</time>
      </trkpt>
      <trkpt lat="43.34119328297675" lon="6.546778678894043">
        <ele>78.31</ele>
        <time>2024-12-08T14:11:54.259Z</time>
      </trkpt>
      <trkpt lat="43.34104299545288" lon="6.546800136566162">
        <ele>78.23</ele>
        <time>2024-12-08T14:12:04.002Z</time>
      </trkpt>
      <trkpt lat="43.340957164764404" lon="6.5468430519104">
        <ele>78.1</ele>
        <time>2024-12-08T14:12:13.748Z</time>
      </trkpt>
      <trkpt lat="43.34074979647994" lon="6.546978838741779">
        <ele>77.87</ele>
        <time>2024-12-08T14:12:23.502Z</time>
      </trkpt>
      <trkpt lat="43.34054251201451" lon="6.54711470939219">
        <ele>77.65</ele>
        <time>2024-12-08T14:12:33.264Z</time>
      </trkpt>
      <trkpt lat="43.34033489227295" lon="6.547250747680664">
        <ele>77.43</ele>
        <time>2024-12-08T14:12:43.034Z</time>
      </trkpt>
      <trkpt lat="43.34033497609198" lon="6.547250747680664">
        <ele>77.3</ele>
        <time>2024-12-08T14:12:52.804Z</time>
      </trkpt>
      <trkpt lat="43.340249145403504" lon="6.547272205352783">
        <ele>77.12</ele>
        <time>2024-12-08T14:13:02.577Z</time>
      </trkpt>
      <trkpt lat="43.340088380500674" lon="6.54730430804193">
        <ele>76.94</ele>
        <time>2024-12-08T14:13:12.356Z</time>
      </trkpt>
      <trkpt lat="43.33992728032172" lon="6.547336578369141">
        <ele>76.72</ele>
        <time>2024-12-08T14:13:22.141Z</time>
      </trkpt>
      <trkpt lat="43.33971287123859" lon="6.547357952222228">
        <ele>76.49</ele>
        <time>2024-12-08T14:13:31.933Z</time>
      </trkpt>
      <trkpt lat="43.3394980430603" lon="6.547379493713379">
        <ele>76.3</ele>
        <time>2024-12-08T14:13:41.733Z</time>
      </trkpt>
      <trkpt lat="43.33933727815747" lon="6.547379409894347">
        <ele>76.09</ele>
        <time>2024-12-08T14:13:51.539Z</time>
      </trkpt>
      <trkpt lat="43.339176177978516" lon="6.547379493713379">
        <ele>75.83</ele>
        <time>2024-12-08T14:14:01.350Z</time>
      </trkpt>
      <trkpt lat="43.3390474319458" lon="6.547422409057617">
        <ele>75.56</ele>
        <time>2024-12-08T14:14:11.166Z</time>
      </trkpt>
      <trkpt lat="43.338940143585205" lon="6.547529697418213">
        <ele>75.24</ele>
        <time>2024-12-08T14:14:20.986Z</time>
      </trkpt>
      <trkpt lat="43.33868592046201" lon="6.547405058518052">
        <ele>74.9</ele>
        <time>2024-12-08T14:14:30.816Z</time>
      </trkpt>
      <trkpt lat="43.33843178115785" lon="6.547280503436923">
        <ele>74.62</ele>
        <time>2024-12-08T14:14:40.655Z</time>
      </trkpt>
      <trkpt lat="43.33817764185369" lon="6.547155864536762">
        <ele>74.42</ele>
        <time>2024-12-08T14:14:50.504Z</time>
      </trkpt>
      <trkpt lat="43.337939931079745" lon="6.547039356082678">
        <ele>74.31</ele>
        <time>2024-12-08T14:15:00.362Z</time>
      </trkpt>
      <trkpt lat="43.337922748178244" lon="6.547030974179506">
        <ele>74.21</ele>
        <time>2024-12-08T14:15:10.220Z</time>
      </trkpt>
      <trkpt lat="43.33784580230713" lon="6.546993255615234">
        <ele>74.14</ele>
        <time>2024-12-08T14:15:20.081Z</time>
      </trkpt>
      <trkpt lat="43.337953090667725" lon="6.546649932861328">
        <ele>74.05</ele>
        <time>2024-12-08T14:15:29.952Z</time>
      </trkpt>
      <trkpt lat="43.33810329437256" lon="6.546521186828613">
        <ele>74.08</ele>
        <time>2024-12-08T14:15:39.829Z</time>
      </trkpt>
      <trkpt lat="43.338210582733154" lon="6.546413898468018">
        <ele>74.17</ele>
        <time>2024-12-08T14:15:49.711Z</time>
      </trkpt>
      <trkpt lat="43.338210582733154" lon="6.546370983123779">
        <ele>74.2</ele>
        <time>2024-12-08T14:15:59.594Z</time>
      </trkpt>
      <trkpt lat="43.338210582733154" lon="6.546070575714111">
        <ele>74.29</ele>
        <time>2024-12-08T14:16:09.484Z</time>
      </trkpt>
      <trkpt lat="43.338234554976225" lon="6.546022463589907">
        <ele>74.3</ele>
        <time>2024-12-08T14:16:19.376Z</time>
      </trkpt>
    </trkseg>
  </trk>
</gpx>
